<?xml version="1.0" encoding="UTF-8" standalone="no" ?>
<gpx xmlns="http://www.topografix.com/GPX/1/1" xmlns:xsi="http://www.w3.org/2001/XMLSchema-instance" xsi:schemaLocation="http://www.topografix.com/GPX/1/1 http://www.topografix.com/GPX/1/1/gpx.xsd" version="1.1" creator="VisuGPX - https://www.visugpx.com">
  <metadata>
    <name>Sarrigné-Foret Bauné 53kms</name>
    <desc><![CDATA[Villeveques, Sarrigné et Foret de Bauné]]></desc>
  </metadata>
  <trk>
    <name><![CDATA[20171223204549-hJrTJ]]></name>
    <trkseg>
      <trkpt lat="47.54729" lon="-0.44464">
        <ele>34.2</ele>
        <time>2017-12-17T07:43:43Z</time>
      </trkpt>
      <trkpt lat="47.54731" lon="-0.44492">
        <ele>34</ele>
        <time>2017-12-17T07:46:31Z</time>
      </trkpt>
      <trkpt lat="47.54714" lon="-0.44506">
        <ele>34.3</ele>
        <time>2017-12-17T07:46:44Z</time>
      </trkpt>
      <trkpt lat="47.54697" lon="-0.44516">
        <ele>34.9</ele>
        <time>2017-12-17T07:47:00Z</time>
      </trkpt>
      <trkpt lat="47.54689" lon="-0.44489">
        <ele>35.1</ele>
        <time>2017-12-17T07:47:14Z</time>
      </trkpt>
      <trkpt lat="47.54681" lon="-0.44464">
        <ele>35.5</ele>
        <time>2017-12-17T07:47:25Z</time>
      </trkpt>
      <trkpt lat="47.54672" lon="-0.44437">
        <ele>35.8</ele>
        <time>2017-12-17T07:47:34Z</time>
      </trkpt>
      <trkpt lat="47.54665" lon="-0.44412">
        <ele>36</ele>
        <time>2017-12-17T07:47:42Z</time>
      </trkpt>
      <trkpt lat="47.54656" lon="-0.44385">
        <ele>36.4</ele>
        <time>2017-12-17T07:47:51Z</time>
      </trkpt>
      <trkpt lat="47.54648" lon="-0.4436">
        <ele>36.7</ele>
        <time>2017-12-17T07:47:58Z</time>
      </trkpt>
      <trkpt lat="47.54641" lon="-0.44333">
        <ele>36.9</ele>
        <time>2017-12-17T07:48:05Z</time>
      </trkpt>
      <trkpt lat="47.54633" lon="-0.44305">
        <ele>37</ele>
        <time>2017-12-17T07:48:12Z</time>
      </trkpt>
      <trkpt lat="47.54625" lon="-0.44281">
        <ele>37.4</ele>
        <time>2017-12-17T07:48:18Z</time>
      </trkpt>
      <trkpt lat="47.54617" lon="-0.44253">
        <ele>38</ele>
        <time>2017-12-17T07:48:25Z</time>
      </trkpt>
      <trkpt lat="47.54609" lon="-0.44224">
        <ele>38.9</ele>
        <time>2017-12-17T07:48:32Z</time>
      </trkpt>
      <trkpt lat="47.54602" lon="-0.44196">
        <ele>39.3</ele>
        <time>2017-12-17T07:48:39Z</time>
      </trkpt>
      <trkpt lat="47.54594" lon="-0.44171">
        <ele>39.6</ele>
        <time>2017-12-17T07:48:45Z</time>
      </trkpt>
      <trkpt lat="47.54587" lon="-0.44146">
        <ele>40</ele>
        <time>2017-12-17T07:48:51Z</time>
      </trkpt>
      <trkpt lat="47.5458" lon="-0.44119">
        <ele>40.8</ele>
        <time>2017-12-17T07:48:58Z</time>
      </trkpt>
      <trkpt lat="47.54572" lon="-0.44092">
        <ele>41</ele>
        <time>2017-12-17T07:49:21Z</time>
      </trkpt>
      <trkpt lat="47.54566" lon="-0.44066">
        <ele>41</ele>
        <time>2017-12-17T07:49:28Z</time>
      </trkpt>
      <trkpt lat="47.54558" lon="-0.44041">
        <ele>41</ele>
        <time>2017-12-17T07:49:33Z</time>
      </trkpt>
      <trkpt lat="47.54549" lon="-0.44014">
        <ele>41</ele>
        <time>2017-12-17T07:49:38Z</time>
      </trkpt>
      <trkpt lat="47.54541" lon="-0.43987">
        <ele>41</ele>
        <time>2017-12-17T07:49:43Z</time>
      </trkpt>
      <trkpt lat="47.54533" lon="-0.4396">
        <ele>41</ele>
        <time>2017-12-17T07:49:48Z</time>
      </trkpt>
      <trkpt lat="47.54524" lon="-0.43931">
        <ele>40.5</ele>
        <time>2017-12-17T07:49:53Z</time>
      </trkpt>
      <trkpt lat="47.54517" lon="-0.43906">
        <ele>40</ele>
        <time>2017-12-17T07:49:57Z</time>
      </trkpt>
      <trkpt lat="47.54508" lon="-0.43878">
        <ele>39.6</ele>
        <time>2017-12-17T07:50:01Z</time>
      </trkpt>
      <trkpt lat="47.545" lon="-0.43848">
        <ele>39</ele>
        <time>2017-12-17T07:50:05Z</time>
      </trkpt>
      <trkpt lat="47.5449" lon="-0.43816">
        <ele>38.2</ele>
        <time>2017-12-17T07:50:09Z</time>
      </trkpt>
      <trkpt lat="47.54482" lon="-0.43791">
        <ele>37.5</ele>
        <time>2017-12-17T07:50:12Z</time>
      </trkpt>
      <trkpt lat="47.54474" lon="-0.43762">
        <ele>36.5</ele>
        <time>2017-12-17T07:50:15Z</time>
      </trkpt>
      <trkpt lat="47.54466" lon="-0.43732">
        <ele>35.5</ele>
        <time>2017-12-17T07:50:18Z</time>
      </trkpt>
      <trkpt lat="47.54457" lon="-0.43704">
        <ele>35.3</ele>
        <time>2017-12-17T07:50:22Z</time>
      </trkpt>
      <trkpt lat="47.54469" lon="-0.43682">
        <ele>35.4</ele>
        <time>2017-12-17T07:50:27Z</time>
      </trkpt>
      <trkpt lat="47.54487" lon="-0.43668">
        <ele>35.6</ele>
        <time>2017-12-17T07:50:32Z</time>
      </trkpt>
      <trkpt lat="47.54503" lon="-0.43654">
        <ele>35.5</ele>
        <time>2017-12-17T07:50:36Z</time>
      </trkpt>
      <trkpt lat="47.54521" lon="-0.43635">
        <ele>35</ele>
        <time>2017-12-17T07:50:41Z</time>
      </trkpt>
      <trkpt lat="47.54536" lon="-0.43618">
        <ele>35.1</ele>
        <time>2017-12-17T07:50:45Z</time>
      </trkpt>
      <trkpt lat="47.54551" lon="-0.43599">
        <ele>34.9</ele>
        <time>2017-12-17T07:50:49Z</time>
      </trkpt>
      <trkpt lat="47.54568" lon="-0.43582">
        <ele>35</ele>
        <time>2017-12-17T07:50:53Z</time>
      </trkpt>
      <trkpt lat="47.54586" lon="-0.43569">
        <ele>34.5</ele>
        <time>2017-12-17T07:50:57Z</time>
      </trkpt>
      <trkpt lat="47.54604" lon="-0.43556">
        <ele>34.8</ele>
        <time>2017-12-17T07:51:01Z</time>
      </trkpt>
      <trkpt lat="47.54623" lon="-0.43544">
        <ele>34.8</ele>
        <time>2017-12-17T07:51:05Z</time>
      </trkpt>
      <trkpt lat="47.54641" lon="-0.43532">
        <ele>35</ele>
        <time>2017-12-17T07:51:07Z</time>
      </trkpt>
      <trkpt lat="47.54659" lon="-0.4352">
        <ele>34.7</ele>
        <time>2017-12-17T07:51:11Z</time>
      </trkpt>
      <trkpt lat="47.54677" lon="-0.43509">
        <ele>34.6</ele>
        <time>2017-12-17T07:51:15Z</time>
      </trkpt>
      <trkpt lat="47.54696" lon="-0.43498">
        <ele>34.9</ele>
        <time>2017-12-17T07:51:19Z</time>
      </trkpt>
      <trkpt lat="47.54714" lon="-0.43485">
        <ele>34.5</ele>
        <time>2017-12-17T07:51:23Z</time>
      </trkpt>
      <trkpt lat="47.54733" lon="-0.43474">
        <ele>34.4</ele>
        <time>2017-12-17T07:51:27Z</time>
      </trkpt>
      <trkpt lat="47.54751" lon="-0.43462">
        <ele>34.6</ele>
        <time>2017-12-17T07:51:31Z</time>
      </trkpt>
      <trkpt lat="47.54769" lon="-0.43451">
        <ele>34.8</ele>
        <time>2017-12-17T07:51:35Z</time>
      </trkpt>
      <trkpt lat="47.54787" lon="-0.4344">
        <ele>35.2</ele>
        <time>2017-12-17T07:51:39Z</time>
      </trkpt>
      <trkpt lat="47.54806" lon="-0.43428">
        <ele>35.4</ele>
        <time>2017-12-17T07:51:43Z</time>
      </trkpt>
      <trkpt lat="47.54825" lon="-0.43416">
        <ele>35.7</ele>
        <time>2017-12-17T07:51:47Z</time>
      </trkpt>
      <trkpt lat="47.54844" lon="-0.43404">
        <ele>35.7</ele>
        <time>2017-12-17T07:51:51Z</time>
      </trkpt>
      <trkpt lat="47.54861" lon="-0.43391">
        <ele>36</ele>
        <time>2017-12-17T07:51:54Z</time>
      </trkpt>
      <trkpt lat="47.54878" lon="-0.43379">
        <ele>36.3</ele>
        <time>2017-12-17T07:51:58Z</time>
      </trkpt>
      <trkpt lat="47.54896" lon="-0.43367">
        <ele>36.4</ele>
        <time>2017-12-17T07:52:02Z</time>
      </trkpt>
      <trkpt lat="47.54914" lon="-0.43355">
        <ele>36.7</ele>
        <time>2017-12-17T07:52:06Z</time>
      </trkpt>
      <trkpt lat="47.54932" lon="-0.43342">
        <ele>36.3</ele>
        <time>2017-12-17T07:52:10Z</time>
      </trkpt>
      <trkpt lat="47.54951" lon="-0.43329">
        <ele>36.2</ele>
        <time>2017-12-17T07:52:14Z</time>
      </trkpt>
      <trkpt lat="47.54969" lon="-0.43316">
        <ele>36.3</ele>
        <time>2017-12-17T07:52:18Z</time>
      </trkpt>
      <trkpt lat="47.54987" lon="-0.43304">
        <ele>37</ele>
        <time>2017-12-17T07:52:22Z</time>
      </trkpt>
      <trkpt lat="47.55005" lon="-0.43293">
        <ele>37.7</ele>
        <time>2017-12-17T07:52:26Z</time>
      </trkpt>
      <trkpt lat="47.55022" lon="-0.43281">
        <ele>37.9</ele>
        <time>2017-12-17T07:52:30Z</time>
      </trkpt>
      <trkpt lat="47.5504" lon="-0.4327">
        <ele>37.8</ele>
        <time>2017-12-17T07:52:34Z</time>
      </trkpt>
      <trkpt lat="47.55058" lon="-0.43259">
        <ele>38</ele>
        <time>2017-12-17T07:52:38Z</time>
      </trkpt>
      <trkpt lat="47.55076" lon="-0.43248">
        <ele>37.9</ele>
        <time>2017-12-17T07:52:42Z</time>
      </trkpt>
      <trkpt lat="47.55094" lon="-0.43238">
        <ele>37.8</ele>
        <time>2017-12-17T07:52:46Z</time>
      </trkpt>
      <trkpt lat="47.55113" lon="-0.43226">
        <ele>37.3</ele>
        <time>2017-12-17T07:52:50Z</time>
      </trkpt>
      <trkpt lat="47.55132" lon="-0.43215">
        <ele>37.5</ele>
        <time>2017-12-17T07:52:54Z</time>
      </trkpt>
      <trkpt lat="47.5515" lon="-0.43204">
        <ele>37.6</ele>
        <time>2017-12-17T07:52:58Z</time>
      </trkpt>
      <trkpt lat="47.55167" lon="-0.43186">
        <ele>37.7</ele>
        <time>2017-12-17T07:53:02Z</time>
      </trkpt>
      <trkpt lat="47.5518" lon="-0.4316">
        <ele>36.9</ele>
        <time>2017-12-17T07:53:06Z</time>
      </trkpt>
      <trkpt lat="47.55192" lon="-0.43134">
        <ele>36.7</ele>
        <time>2017-12-17T07:53:10Z</time>
      </trkpt>
      <trkpt lat="47.55204" lon="-0.43107">
        <ele>36.2</ele>
        <time>2017-12-17T07:53:14Z</time>
      </trkpt>
      <trkpt lat="47.55216" lon="-0.43081">
        <ele>35.7</ele>
        <time>2017-12-17T07:53:18Z</time>
      </trkpt>
      <trkpt lat="47.55232" lon="-0.43061">
        <ele>35.5</ele>
        <time>2017-12-17T07:53:22Z</time>
      </trkpt>
      <trkpt lat="47.55248" lon="-0.43049">
        <ele>35.4</ele>
        <time>2017-12-17T07:53:26Z</time>
      </trkpt>
      <trkpt lat="47.55267" lon="-0.43036">
        <ele>35.2</ele>
        <time>2017-12-17T07:53:31Z</time>
      </trkpt>
      <trkpt lat="47.55287" lon="-0.43021">
        <ele>35.3</ele>
        <time>2017-12-17T07:53:36Z</time>
      </trkpt>
      <trkpt lat="47.55288" lon="-0.42993">
        <ele>35.1</ele>
        <time>2017-12-17T07:53:43Z</time>
      </trkpt>
      <trkpt lat="47.55276" lon="-0.42969">
        <ele>33.9</ele>
        <time>2017-12-17T07:53:47Z</time>
      </trkpt>
      <trkpt lat="47.55265" lon="-0.42943">
        <ele>33</ele>
        <time>2017-12-17T07:53:51Z</time>
      </trkpt>
      <trkpt lat="47.55254" lon="-0.42917">
        <ele>32.1</ele>
        <time>2017-12-17T07:53:56Z</time>
      </trkpt>
      <trkpt lat="47.55242" lon="-0.4289">
        <ele>31</ele>
        <time>2017-12-17T07:54:03Z</time>
      </trkpt>
      <trkpt lat="47.55231" lon="-0.42864">
        <ele>30.4</ele>
        <time>2017-12-17T07:54:07Z</time>
      </trkpt>
      <trkpt lat="47.55219" lon="-0.42834">
        <ele>30</ele>
        <time>2017-12-17T07:54:11Z</time>
      </trkpt>
      <trkpt lat="47.55208" lon="-0.42812">
        <ele>29.2</ele>
        <time>2017-12-17T07:54:14Z</time>
      </trkpt>
      <trkpt lat="47.55198" lon="-0.42788">
        <ele>29</ele>
        <time>2017-12-17T07:54:17Z</time>
      </trkpt>
      <trkpt lat="47.55191" lon="-0.42763">
        <ele>28.5</ele>
        <time>2017-12-17T07:54:20Z</time>
      </trkpt>
      <trkpt lat="47.55184" lon="-0.4273">
        <ele>28.1</ele>
        <time>2017-12-17T07:54:24Z</time>
      </trkpt>
      <trkpt lat="47.5518" lon="-0.42697">
        <ele>27.6</ele>
        <time>2017-12-17T07:54:28Z</time>
      </trkpt>
      <trkpt lat="47.55174" lon="-0.42666">
        <ele>27</ele>
        <time>2017-12-17T07:54:32Z</time>
      </trkpt>
      <trkpt lat="47.55164" lon="-0.42638">
        <ele>27</ele>
        <time>2017-12-17T07:54:36Z</time>
      </trkpt>
      <trkpt lat="47.55153" lon="-0.42614">
        <ele>26.5</ele>
        <time>2017-12-17T07:54:40Z</time>
      </trkpt>
      <trkpt lat="47.55142" lon="-0.42588">
        <ele>26.9</ele>
        <time>2017-12-17T07:54:45Z</time>
      </trkpt>
      <trkpt lat="47.55132" lon="-0.42564">
        <ele>26.8</ele>
        <time>2017-12-17T07:54:50Z</time>
      </trkpt>
      <trkpt lat="47.55121" lon="-0.42537">
        <ele>26.6</ele>
        <time>2017-12-17T07:54:55Z</time>
      </trkpt>
      <trkpt lat="47.5511" lon="-0.4251">
        <ele>26.4</ele>
        <time>2017-12-17T07:55:00Z</time>
      </trkpt>
      <trkpt lat="47.55098" lon="-0.42482">
        <ele>26.2</ele>
        <time>2017-12-17T07:55:05Z</time>
      </trkpt>
      <trkpt lat="47.55087" lon="-0.42459">
        <ele>25.9</ele>
        <time>2017-12-17T07:55:09Z</time>
      </trkpt>
      <trkpt lat="47.55072" lon="-0.42435">
        <ele>25.7</ele>
        <time>2017-12-17T07:55:13Z</time>
      </trkpt>
      <trkpt lat="47.55056" lon="-0.42412">
        <ele>25</ele>
        <time>2017-12-17T07:55:17Z</time>
      </trkpt>
      <trkpt lat="47.5504" lon="-0.42387">
        <ele>25</ele>
        <time>2017-12-17T07:55:21Z</time>
      </trkpt>
      <trkpt lat="47.55024" lon="-0.42363">
        <ele>24.9</ele>
        <time>2017-12-17T07:55:25Z</time>
      </trkpt>
      <trkpt lat="47.5501" lon="-0.42338">
        <ele>24.1</ele>
        <time>2017-12-17T07:55:29Z</time>
      </trkpt>
      <trkpt lat="47.54997" lon="-0.4231">
        <ele>24</ele>
        <time>2017-12-17T07:55:33Z</time>
      </trkpt>
      <trkpt lat="47.54987" lon="-0.42281">
        <ele>23.1</ele>
        <time>2017-12-17T07:55:37Z</time>
      </trkpt>
      <trkpt lat="47.54978" lon="-0.42253">
        <ele>23</ele>
        <time>2017-12-17T07:55:41Z</time>
      </trkpt>
      <trkpt lat="47.5497" lon="-0.42224">
        <ele>23</ele>
        <time>2017-12-17T07:55:45Z</time>
      </trkpt>
      <trkpt lat="47.54963" lon="-0.42194">
        <ele>23</ele>
        <time>2017-12-17T07:55:49Z</time>
      </trkpt>
      <trkpt lat="47.54957" lon="-0.42163">
        <ele>23</ele>
        <time>2017-12-17T07:55:53Z</time>
      </trkpt>
      <trkpt lat="47.54952" lon="-0.42132">
        <ele>22.8</ele>
        <time>2017-12-17T07:55:57Z</time>
      </trkpt>
      <trkpt lat="47.54943" lon="-0.42106">
        <ele>22</ele>
        <time>2017-12-17T07:56:01Z</time>
      </trkpt>
      <trkpt lat="47.54923" lon="-0.42098">
        <ele>22</ele>
        <time>2017-12-17T07:56:05Z</time>
      </trkpt>
      <trkpt lat="47.54901" lon="-0.42099">
        <ele>22</ele>
        <time>2017-12-17T07:56:09Z</time>
      </trkpt>
      <trkpt lat="47.54879" lon="-0.42099">
        <ele>22</ele>
        <time>2017-12-17T07:56:13Z</time>
      </trkpt>
      <trkpt lat="47.54858" lon="-0.42099">
        <ele>22</ele>
        <time>2017-12-17T07:56:17Z</time>
      </trkpt>
      <trkpt lat="47.54839" lon="-0.42098">
        <ele>22</ele>
        <time>2017-12-17T07:56:21Z</time>
      </trkpt>
      <trkpt lat="47.5482" lon="-0.42098">
        <ele>22</ele>
        <time>2017-12-17T07:56:25Z</time>
      </trkpt>
      <trkpt lat="47.54798" lon="-0.42098">
        <ele>22</ele>
        <time>2017-12-17T07:56:30Z</time>
      </trkpt>
      <trkpt lat="47.54775" lon="-0.42098">
        <ele>22</ele>
        <time>2017-12-17T07:56:35Z</time>
      </trkpt>
      <trkpt lat="47.54757" lon="-0.42097">
        <ele>22</ele>
        <time>2017-12-17T07:56:39Z</time>
      </trkpt>
      <trkpt lat="47.54737" lon="-0.42096">
        <ele>21.5</ele>
        <time>2017-12-17T07:56:43Z</time>
      </trkpt>
      <trkpt lat="47.54718" lon="-0.42099">
        <ele>21</ele>
        <time>2017-12-17T07:56:47Z</time>
      </trkpt>
      <trkpt lat="47.54699" lon="-0.42103">
        <ele>21</ele>
        <time>2017-12-17T07:56:51Z</time>
      </trkpt>
      <trkpt lat="47.5468" lon="-0.4211">
        <ele>21.5</ele>
        <time>2017-12-17T07:56:55Z</time>
      </trkpt>
      <trkpt lat="47.54661" lon="-0.42115">
        <ele>22.2</ele>
        <time>2017-12-17T07:56:59Z</time>
      </trkpt>
      <trkpt lat="47.54642" lon="-0.42116">
        <ele>22.9</ele>
        <time>2017-12-17T07:57:03Z</time>
      </trkpt>
      <trkpt lat="47.54623" lon="-0.42114">
        <ele>23</ele>
        <time>2017-12-17T07:57:07Z</time>
      </trkpt>
      <trkpt lat="47.54605" lon="-0.42111">
        <ele>23.2</ele>
        <time>2017-12-17T07:57:11Z</time>
      </trkpt>
      <trkpt lat="47.54587" lon="-0.42108">
        <ele>23.9</ele>
        <time>2017-12-17T07:57:15Z</time>
      </trkpt>
      <trkpt lat="47.54569" lon="-0.42105">
        <ele>24</ele>
        <time>2017-12-17T07:57:19Z</time>
      </trkpt>
      <trkpt lat="47.5455" lon="-0.42101">
        <ele>24.2</ele>
        <time>2017-12-17T07:57:23Z</time>
      </trkpt>
      <trkpt lat="47.54531" lon="-0.42098">
        <ele>24.9</ele>
        <time>2017-12-17T07:57:27Z</time>
      </trkpt>
      <trkpt lat="47.54508" lon="-0.42094">
        <ele>24.6</ele>
        <time>2017-12-17T07:57:32Z</time>
      </trkpt>
      <trkpt lat="47.54488" lon="-0.4209">
        <ele>24.1</ele>
        <time>2017-12-17T07:57:36Z</time>
      </trkpt>
      <trkpt lat="47.54468" lon="-0.42085">
        <ele>24</ele>
        <time>2017-12-17T07:57:40Z</time>
      </trkpt>
      <trkpt lat="47.54447" lon="-0.42081">
        <ele>23.9</ele>
        <time>2017-12-17T07:57:44Z</time>
      </trkpt>
      <trkpt lat="47.54426" lon="-0.42076">
        <ele>23.1</ele>
        <time>2017-12-17T07:57:48Z</time>
      </trkpt>
      <trkpt lat="47.54404" lon="-0.4207">
        <ele>22.3</ele>
        <time>2017-12-17T07:57:52Z</time>
      </trkpt>
      <trkpt lat="47.54386" lon="-0.42065">
        <ele>21.9</ele>
        <time>2017-12-17T07:57:56Z</time>
      </trkpt>
      <trkpt lat="47.54372" lon="-0.42087">
        <ele>21.5</ele>
        <time>2017-12-17T07:58:03Z</time>
      </trkpt>
      <trkpt lat="47.54368" lon="-0.42113">
        <ele>22</ele>
        <time>2017-12-17T07:58:07Z</time>
      </trkpt>
      <trkpt lat="47.54367" lon="-0.4214">
        <ele>22</ele>
        <time>2017-12-17T07:58:11Z</time>
      </trkpt>
      <trkpt lat="47.54367" lon="-0.42168">
        <ele>22.2</ele>
        <time>2017-12-17T07:58:15Z</time>
      </trkpt>
      <trkpt lat="47.5437" lon="-0.42195">
        <ele>22.3</ele>
        <time>2017-12-17T07:58:19Z</time>
      </trkpt>
      <trkpt lat="47.54373" lon="-0.42222">
        <ele>22.4</ele>
        <time>2017-12-17T07:58:23Z</time>
      </trkpt>
      <trkpt lat="47.54374" lon="-0.42251">
        <ele>22.5</ele>
        <time>2017-12-17T07:58:28Z</time>
      </trkpt>
      <trkpt lat="47.54372" lon="-0.42281">
        <ele>23</ele>
        <time>2017-12-17T07:58:33Z</time>
      </trkpt>
      <trkpt lat="47.54371" lon="-0.42308">
        <ele>23</ele>
        <time>2017-12-17T07:58:37Z</time>
      </trkpt>
      <trkpt lat="47.5437" lon="-0.4234">
        <ele>23.3</ele>
        <time>2017-12-17T07:58:42Z</time>
      </trkpt>
      <trkpt lat="47.54366" lon="-0.42367">
        <ele>23.4</ele>
        <time>2017-12-17T07:58:46Z</time>
      </trkpt>
      <trkpt lat="47.54345" lon="-0.42364">
        <ele>23.1</ele>
        <time>2017-12-17T07:58:51Z</time>
      </trkpt>
      <trkpt lat="47.54326" lon="-0.4235">
        <ele>23.2</ele>
        <time>2017-12-17T07:58:55Z</time>
      </trkpt>
      <trkpt lat="47.54309" lon="-0.42335">
        <ele>23.1</ele>
        <time>2017-12-17T07:58:59Z</time>
      </trkpt>
      <trkpt lat="47.54292" lon="-0.42318">
        <ele>23.2</ele>
        <time>2017-12-17T07:59:03Z</time>
      </trkpt>
      <trkpt lat="47.54277" lon="-0.423">
        <ele>23</ele>
        <time>2017-12-17T07:59:07Z</time>
      </trkpt>
      <trkpt lat="47.54262" lon="-0.42279">
        <ele>23</ele>
        <time>2017-12-17T07:59:11Z</time>
      </trkpt>
      <trkpt lat="47.54247" lon="-0.42258">
        <ele>23</ele>
        <time>2017-12-17T07:59:15Z</time>
      </trkpt>
      <trkpt lat="47.54231" lon="-0.42238">
        <ele>22.7</ele>
        <time>2017-12-17T07:59:19Z</time>
      </trkpt>
      <trkpt lat="47.54215" lon="-0.42215">
        <ele>22.1</ele>
        <time>2017-12-17T07:59:23Z</time>
      </trkpt>
      <trkpt lat="47.54203" lon="-0.42186">
        <ele>22.5</ele>
        <time>2017-12-17T07:59:27Z</time>
      </trkpt>
      <trkpt lat="47.54192" lon="-0.42157">
        <ele>22.4</ele>
        <time>2017-12-17T07:59:31Z</time>
      </trkpt>
      <trkpt lat="47.54178" lon="-0.42134">
        <ele>23</ele>
        <time>2017-12-17T07:59:35Z</time>
      </trkpt>
      <trkpt lat="47.54162" lon="-0.42114">
        <ele>23</ele>
        <time>2017-12-17T07:59:39Z</time>
      </trkpt>
      <trkpt lat="47.54146" lon="-0.42091">
        <ele>23</ele>
        <time>2017-12-17T07:59:43Z</time>
      </trkpt>
      <trkpt lat="47.54131" lon="-0.42067">
        <ele>23</ele>
        <time>2017-12-17T07:59:47Z</time>
      </trkpt>
      <trkpt lat="47.54116" lon="-0.42044">
        <ele>23</ele>
        <time>2017-12-17T07:59:51Z</time>
      </trkpt>
      <trkpt lat="47.54096" lon="-0.42037">
        <ele>23</ele>
        <time>2017-12-17T07:59:55Z</time>
      </trkpt>
      <trkpt lat="47.5408" lon="-0.42058">
        <ele>23</ele>
        <time>2017-12-17T07:59:59Z</time>
      </trkpt>
      <trkpt lat="47.54066" lon="-0.42083">
        <ele>23</ele>
        <time>2017-12-17T08:00:03Z</time>
      </trkpt>
      <trkpt lat="47.54053" lon="-0.42109">
        <ele>23</ele>
        <time>2017-12-17T08:00:07Z</time>
      </trkpt>
      <trkpt lat="47.54041" lon="-0.42133">
        <ele>23</ele>
        <time>2017-12-17T08:00:11Z</time>
      </trkpt>
      <trkpt lat="47.54027" lon="-0.42157">
        <ele>23</ele>
        <time>2017-12-17T08:00:15Z</time>
      </trkpt>
      <trkpt lat="47.54013" lon="-0.42181">
        <ele>23</ele>
        <time>2017-12-17T08:00:19Z</time>
      </trkpt>
      <trkpt lat="47.54" lon="-0.42204">
        <ele>23</ele>
        <time>2017-12-17T08:00:23Z</time>
      </trkpt>
      <trkpt lat="47.53986" lon="-0.42226">
        <ele>23.2</ele>
        <time>2017-12-17T08:00:27Z</time>
      </trkpt>
      <trkpt lat="47.53973" lon="-0.42248">
        <ele>23.9</ele>
        <time>2017-12-17T08:00:31Z</time>
      </trkpt>
      <trkpt lat="47.5396" lon="-0.42268">
        <ele>24</ele>
        <time>2017-12-17T08:00:35Z</time>
      </trkpt>
      <trkpt lat="47.53947" lon="-0.42288">
        <ele>24</ele>
        <time>2017-12-17T08:00:39Z</time>
      </trkpt>
      <trkpt lat="47.53933" lon="-0.42308">
        <ele>24</ele>
        <time>2017-12-17T08:00:43Z</time>
      </trkpt>
      <trkpt lat="47.53921" lon="-0.42327">
        <ele>24</ele>
        <time>2017-12-17T08:00:47Z</time>
      </trkpt>
      <trkpt lat="47.53908" lon="-0.42347">
        <ele>24.2</ele>
        <time>2017-12-17T08:00:51Z</time>
      </trkpt>
      <trkpt lat="47.53895" lon="-0.42367">
        <ele>24.8</ele>
        <time>2017-12-17T08:00:55Z</time>
      </trkpt>
      <trkpt lat="47.53879" lon="-0.42389">
        <ele>25</ele>
        <time>2017-12-17T08:01:00Z</time>
      </trkpt>
      <trkpt lat="47.53867" lon="-0.42409">
        <ele>25</ele>
        <time>2017-12-17T08:01:04Z</time>
      </trkpt>
      <trkpt lat="47.53851" lon="-0.42432">
        <ele>25.4</ele>
        <time>2017-12-17T08:01:09Z</time>
      </trkpt>
      <trkpt lat="47.53835" lon="-0.42455">
        <ele>25.9</ele>
        <time>2017-12-17T08:01:14Z</time>
      </trkpt>
      <trkpt lat="47.53821" lon="-0.42476">
        <ele>26.1</ele>
        <time>2017-12-17T08:01:19Z</time>
      </trkpt>
      <trkpt lat="47.53812" lon="-0.42504">
        <ele>26.8</ele>
        <time>2017-12-17T08:01:24Z</time>
      </trkpt>
      <trkpt lat="47.53812" lon="-0.42535">
        <ele>26.8</ele>
        <time>2017-12-17T08:01:29Z</time>
      </trkpt>
      <trkpt lat="47.53812" lon="-0.42565">
        <ele>27.1</ele>
        <time>2017-12-17T08:01:34Z</time>
      </trkpt>
      <trkpt lat="47.53811" lon="-0.42592">
        <ele>27.8</ele>
        <time>2017-12-17T08:01:39Z</time>
      </trkpt>
      <trkpt lat="47.53802" lon="-0.42616">
        <ele>27.9</ele>
        <time>2017-12-17T08:01:45Z</time>
      </trkpt>
      <trkpt lat="47.53783" lon="-0.42619">
        <ele>27.4</ele>
        <time>2017-12-17T08:01:51Z</time>
      </trkpt>
      <trkpt lat="47.53764" lon="-0.42617">
        <ele>27.6</ele>
        <time>2017-12-17T08:01:58Z</time>
      </trkpt>
      <trkpt lat="47.53746" lon="-0.42611">
        <ele>28</ele>
        <time>2017-12-17T08:02:04Z</time>
      </trkpt>
      <trkpt lat="47.53726" lon="-0.42604">
        <ele>27.8</ele>
        <time>2017-12-17T08:02:10Z</time>
      </trkpt>
      <trkpt lat="47.53709" lon="-0.42593">
        <ele>27.7</ele>
        <time>2017-12-17T08:02:15Z</time>
      </trkpt>
      <trkpt lat="47.53704" lon="-0.42566">
        <ele>27.2</ele>
        <time>2017-12-17T08:02:20Z</time>
      </trkpt>
      <trkpt lat="47.53703" lon="-0.42539">
        <ele>27</ele>
        <time>2017-12-17T08:02:29Z</time>
      </trkpt>
      <trkpt lat="47.53703" lon="-0.42509">
        <ele>27</ele>
        <time>2017-12-17T08:02:57Z</time>
      </trkpt>
      <trkpt lat="47.53686" lon="-0.4249">
        <ele>27</ele>
        <time>2017-12-17T08:03:03Z</time>
      </trkpt>
      <trkpt lat="47.53665" lon="-0.42481">
        <ele>27</ele>
        <time>2017-12-17T08:03:09Z</time>
      </trkpt>
      <trkpt lat="47.53648" lon="-0.42474">
        <ele>27</ele>
        <time>2017-12-17T08:03:14Z</time>
      </trkpt>
      <trkpt lat="47.53628" lon="-0.42464">
        <ele>27</ele>
        <time>2017-12-17T08:03:20Z</time>
      </trkpt>
      <trkpt lat="47.53609" lon="-0.42455">
        <ele>27</ele>
        <time>2017-12-17T08:03:25Z</time>
      </trkpt>
      <trkpt lat="47.53589" lon="-0.42445">
        <ele>27</ele>
        <time>2017-12-17T08:03:30Z</time>
      </trkpt>
      <trkpt lat="47.53569" lon="-0.42437">
        <ele>27.5</ele>
        <time>2017-12-17T08:03:35Z</time>
      </trkpt>
      <trkpt lat="47.53549" lon="-0.42432">
        <ele>28</ele>
        <time>2017-12-17T08:03:40Z</time>
      </trkpt>
      <trkpt lat="47.53528" lon="-0.42432">
        <ele>28</ele>
        <time>2017-12-17T08:03:45Z</time>
      </trkpt>
      <trkpt lat="47.53507" lon="-0.42434">
        <ele>28</ele>
        <time>2017-12-17T08:03:50Z</time>
      </trkpt>
      <trkpt lat="47.53487" lon="-0.42429">
        <ele>28.2</ele>
        <time>2017-12-17T08:03:55Z</time>
      </trkpt>
      <trkpt lat="47.53468" lon="-0.42417">
        <ele>28.1</ele>
        <time>2017-12-17T08:03:59Z</time>
      </trkpt>
      <trkpt lat="47.5345" lon="-0.42402">
        <ele>27.9</ele>
        <time>2017-12-17T08:04:02Z</time>
      </trkpt>
      <trkpt lat="47.53431" lon="-0.42385">
        <ele>27.4</ele>
        <time>2017-12-17T08:04:05Z</time>
      </trkpt>
      <trkpt lat="47.53412" lon="-0.42365">
        <ele>27.3</ele>
        <time>2017-12-17T08:04:08Z</time>
      </trkpt>
      <trkpt lat="47.53395" lon="-0.42347">
        <ele>27.9</ele>
        <time>2017-12-17T08:04:11Z</time>
      </trkpt>
      <trkpt lat="47.53379" lon="-0.42329">
        <ele>28</ele>
        <time>2017-12-17T08:04:14Z</time>
      </trkpt>
      <trkpt lat="47.53364" lon="-0.42312">
        <ele>28</ele>
        <time>2017-12-17T08:04:17Z</time>
      </trkpt>
      <trkpt lat="47.53346" lon="-0.4229">
        <ele>28</ele>
        <time>2017-12-17T08:04:21Z</time>
      </trkpt>
      <trkpt lat="47.53331" lon="-0.42275">
        <ele>27.9</ele>
        <time>2017-12-17T08:04:24Z</time>
      </trkpt>
      <trkpt lat="47.53312" lon="-0.42256">
        <ele>27.2</ele>
        <time>2017-12-17T08:04:28Z</time>
      </trkpt>
      <trkpt lat="47.53293" lon="-0.42241">
        <ele>27.3</ele>
        <time>2017-12-17T08:04:32Z</time>
      </trkpt>
      <trkpt lat="47.53273" lon="-0.42222">
        <ele>27</ele>
        <time>2017-12-17T08:04:36Z</time>
      </trkpt>
      <trkpt lat="47.53254" lon="-0.42206">
        <ele>27</ele>
        <time>2017-12-17T08:04:40Z</time>
      </trkpt>
      <trkpt lat="47.53232" lon="-0.42192">
        <ele>27</ele>
        <time>2017-12-17T08:04:44Z</time>
      </trkpt>
      <trkpt lat="47.5321" lon="-0.42181">
        <ele>27</ele>
        <time>2017-12-17T08:04:48Z</time>
      </trkpt>
      <trkpt lat="47.53193" lon="-0.42171">
        <ele>27</ele>
        <time>2017-12-17T08:04:51Z</time>
      </trkpt>
      <trkpt lat="47.53177" lon="-0.42158">
        <ele>26.8</ele>
        <time>2017-12-17T08:04:54Z</time>
      </trkpt>
      <trkpt lat="47.53159" lon="-0.42141">
        <ele>26.1</ele>
        <time>2017-12-17T08:04:57Z</time>
      </trkpt>
      <trkpt lat="47.53142" lon="-0.42119">
        <ele>26</ele>
        <time>2017-12-17T08:05:00Z</time>
      </trkpt>
      <trkpt lat="47.53127" lon="-0.42098">
        <ele>25.7</ele>
        <time>2017-12-17T08:05:03Z</time>
      </trkpt>
      <trkpt lat="47.53114" lon="-0.42078">
        <ele>25.9</ele>
        <time>2017-12-17T08:05:06Z</time>
      </trkpt>
      <trkpt lat="47.53099" lon="-0.42052">
        <ele>26</ele>
        <time>2017-12-17T08:05:10Z</time>
      </trkpt>
      <trkpt lat="47.53085" lon="-0.42028">
        <ele>26</ele>
        <time>2017-12-17T08:05:14Z</time>
      </trkpt>
      <trkpt lat="47.53071" lon="-0.42008">
        <ele>26.4</ele>
        <time>2017-12-17T08:05:18Z</time>
      </trkpt>
      <trkpt lat="47.53058" lon="-0.41989">
        <ele>26.9</ele>
        <time>2017-12-17T08:05:24Z</time>
      </trkpt>
      <trkpt lat="47.53041" lon="-0.41972">
        <ele>27</ele>
        <time>2017-12-17T08:05:37Z</time>
      </trkpt>
      <trkpt lat="47.5302" lon="-0.4196">
        <ele>27</ele>
        <time>2017-12-17T08:05:42Z</time>
      </trkpt>
      <trkpt lat="47.53" lon="-0.4195">
        <ele>27</ele>
        <time>2017-12-17T08:05:46Z</time>
      </trkpt>
      <trkpt lat="47.52978" lon="-0.4194">
        <ele>27.8</ele>
        <time>2017-12-17T08:05:50Z</time>
      </trkpt>
      <trkpt lat="47.52956" lon="-0.41929">
        <ele>28</ele>
        <time>2017-12-17T08:05:54Z</time>
      </trkpt>
      <trkpt lat="47.52933" lon="-0.41918">
        <ele>28</ele>
        <time>2017-12-17T08:05:58Z</time>
      </trkpt>
      <trkpt lat="47.52913" lon="-0.41908">
        <ele>28.4</ele>
        <time>2017-12-17T08:06:02Z</time>
      </trkpt>
      <trkpt lat="47.52892" lon="-0.41897">
        <ele>29</ele>
        <time>2017-12-17T08:06:06Z</time>
      </trkpt>
      <trkpt lat="47.5287" lon="-0.41887">
        <ele>28.4</ele>
        <time>2017-12-17T08:06:10Z</time>
      </trkpt>
      <trkpt lat="47.52848" lon="-0.41878">
        <ele>28.4</ele>
        <time>2017-12-17T08:06:14Z</time>
      </trkpt>
      <trkpt lat="47.52825" lon="-0.4187">
        <ele>28.5</ele>
        <time>2017-12-17T08:06:18Z</time>
      </trkpt>
      <trkpt lat="47.52805" lon="-0.41854">
        <ele>28.3</ele>
        <time>2017-12-17T08:06:22Z</time>
      </trkpt>
      <trkpt lat="47.52787" lon="-0.41831">
        <ele>29</ele>
        <time>2017-12-17T08:06:26Z</time>
      </trkpt>
      <trkpt lat="47.52771" lon="-0.41809">
        <ele>29</ele>
        <time>2017-12-17T08:06:30Z</time>
      </trkpt>
      <trkpt lat="47.52753" lon="-0.4179">
        <ele>29</ele>
        <time>2017-12-17T08:06:34Z</time>
      </trkpt>
      <trkpt lat="47.52736" lon="-0.41774">
        <ele>29</ele>
        <time>2017-12-17T08:06:38Z</time>
      </trkpt>
      <trkpt lat="47.52746" lon="-0.41749">
        <ele>29</ele>
        <time>2017-12-17T08:06:47Z</time>
      </trkpt>
      <trkpt lat="47.52765" lon="-0.41745">
        <ele>29</ele>
        <time>2017-12-17T08:06:51Z</time>
      </trkpt>
      <trkpt lat="47.52785" lon="-0.41739">
        <ele>29</ele>
        <time>2017-12-17T08:06:55Z</time>
      </trkpt>
      <trkpt lat="47.52807" lon="-0.41733">
        <ele>29</ele>
        <time>2017-12-17T08:06:59Z</time>
      </trkpt>
      <trkpt lat="47.52827" lon="-0.41729">
        <ele>28.8</ele>
        <time>2017-12-17T08:07:03Z</time>
      </trkpt>
      <trkpt lat="47.52845" lon="-0.41713">
        <ele>29</ele>
        <time>2017-12-17T08:07:07Z</time>
      </trkpt>
      <trkpt lat="47.52862" lon="-0.41696">
        <ele>29</ele>
        <time>2017-12-17T08:07:11Z</time>
      </trkpt>
      <trkpt lat="47.52877" lon="-0.41678">
        <ele>29</ele>
        <time>2017-12-17T08:07:15Z</time>
      </trkpt>
      <trkpt lat="47.5289" lon="-0.41651">
        <ele>28.4</ele>
        <time>2017-12-17T08:07:19Z</time>
      </trkpt>
      <trkpt lat="47.52901" lon="-0.41621">
        <ele>28</ele>
        <time>2017-12-17T08:07:23Z</time>
      </trkpt>
      <trkpt lat="47.52913" lon="-0.41595">
        <ele>28</ele>
        <time>2017-12-17T08:07:27Z</time>
      </trkpt>
      <trkpt lat="47.52926" lon="-0.41573">
        <ele>28</ele>
        <time>2017-12-17T08:07:31Z</time>
      </trkpt>
      <trkpt lat="47.52937" lon="-0.4155">
        <ele>28</ele>
        <time>2017-12-17T08:07:35Z</time>
      </trkpt>
      <trkpt lat="47.5295" lon="-0.41527">
        <ele>27.8</ele>
        <time>2017-12-17T08:07:39Z</time>
      </trkpt>
      <trkpt lat="47.52962" lon="-0.41501">
        <ele>27</ele>
        <time>2017-12-17T08:07:43Z</time>
      </trkpt>
      <trkpt lat="47.5297" lon="-0.41474">
        <ele>27</ele>
        <time>2017-12-17T08:07:47Z</time>
      </trkpt>
      <trkpt lat="47.52976" lon="-0.41446">
        <ele>27</ele>
        <time>2017-12-17T08:07:51Z</time>
      </trkpt>
      <trkpt lat="47.52981" lon="-0.41415">
        <ele>27</ele>
        <time>2017-12-17T08:07:56Z</time>
      </trkpt>
      <trkpt lat="47.52986" lon="-0.41384">
        <ele>27.5</ele>
        <time>2017-12-17T08:08:01Z</time>
      </trkpt>
      <trkpt lat="47.52995" lon="-0.41361">
        <ele>27.2</ele>
        <time>2017-12-17T08:08:05Z</time>
      </trkpt>
      <trkpt lat="47.53008" lon="-0.41339">
        <ele>27</ele>
        <time>2017-12-17T08:08:09Z</time>
      </trkpt>
      <trkpt lat="47.53024" lon="-0.41318">
        <ele>27</ele>
        <time>2017-12-17T08:08:13Z</time>
      </trkpt>
      <trkpt lat="47.5304" lon="-0.41298">
        <ele>27</ele>
        <time>2017-12-17T08:08:17Z</time>
      </trkpt>
      <trkpt lat="47.53056" lon="-0.41279">
        <ele>27</ele>
        <time>2017-12-17T08:08:21Z</time>
      </trkpt>
      <trkpt lat="47.53072" lon="-0.41256">
        <ele>27</ele>
        <time>2017-12-17T08:08:25Z</time>
      </trkpt>
      <trkpt lat="47.53089" lon="-0.41233">
        <ele>27</ele>
        <time>2017-12-17T08:08:29Z</time>
      </trkpt>
      <trkpt lat="47.53106" lon="-0.41209">
        <ele>26.9</ele>
        <time>2017-12-17T08:08:33Z</time>
      </trkpt>
      <trkpt lat="47.53122" lon="-0.41187">
        <ele>26.8</ele>
        <time>2017-12-17T08:08:37Z</time>
      </trkpt>
      <trkpt lat="47.53137" lon="-0.41166">
        <ele>26.9</ele>
        <time>2017-12-17T08:08:41Z</time>
      </trkpt>
      <trkpt lat="47.53153" lon="-0.41147">
        <ele>26.1</ele>
        <time>2017-12-17T08:08:45Z</time>
      </trkpt>
      <trkpt lat="47.53169" lon="-0.41125">
        <ele>26</ele>
        <time>2017-12-17T08:08:49Z</time>
      </trkpt>
      <trkpt lat="47.53184" lon="-0.41103">
        <ele>26.5</ele>
        <time>2017-12-17T08:08:53Z</time>
      </trkpt>
      <trkpt lat="47.532" lon="-0.41084">
        <ele>26.2</ele>
        <time>2017-12-17T08:08:57Z</time>
      </trkpt>
      <trkpt lat="47.53218" lon="-0.41064">
        <ele>26.3</ele>
        <time>2017-12-17T08:09:01Z</time>
      </trkpt>
      <trkpt lat="47.53235" lon="-0.41048">
        <ele>26</ele>
        <time>2017-12-17T08:09:05Z</time>
      </trkpt>
      <trkpt lat="47.53251" lon="-0.41033">
        <ele>26</ele>
        <time>2017-12-17T08:09:10Z</time>
      </trkpt>
      <trkpt lat="47.5327" lon="-0.41023">
        <ele>26</ele>
        <time>2017-12-17T08:09:18Z</time>
      </trkpt>
      <trkpt lat="47.53289" lon="-0.41008">
        <ele>25.7</ele>
        <time>2017-12-17T08:09:24Z</time>
      </trkpt>
      <trkpt lat="47.53309" lon="-0.40993">
        <ele>25</ele>
        <time>2017-12-17T08:09:28Z</time>
      </trkpt>
      <trkpt lat="47.5333" lon="-0.40978">
        <ele>25</ele>
        <time>2017-12-17T08:09:32Z</time>
      </trkpt>
      <trkpt lat="47.53352" lon="-0.40965">
        <ele>25</ele>
        <time>2017-12-17T08:09:36Z</time>
      </trkpt>
      <trkpt lat="47.53374" lon="-0.40951">
        <ele>24.6</ele>
        <time>2017-12-17T08:09:40Z</time>
      </trkpt>
      <trkpt lat="47.53392" lon="-0.40929">
        <ele>24.6</ele>
        <time>2017-12-17T08:09:44Z</time>
      </trkpt>
      <trkpt lat="47.53409" lon="-0.40905">
        <ele>24.2</ele>
        <time>2017-12-17T08:09:48Z</time>
      </trkpt>
      <trkpt lat="47.53426" lon="-0.40881">
        <ele>23.9</ele>
        <time>2017-12-17T08:09:52Z</time>
      </trkpt>
      <trkpt lat="47.53444" lon="-0.40859">
        <ele>22.9</ele>
        <time>2017-12-17T08:09:56Z</time>
      </trkpt>
      <trkpt lat="47.53459" lon="-0.4084">
        <ele>22.3</ele>
        <time>2017-12-17T08:09:59Z</time>
      </trkpt>
      <trkpt lat="47.53474" lon="-0.40822">
        <ele>22</ele>
        <time>2017-12-17T08:10:02Z</time>
      </trkpt>
      <trkpt lat="47.53488" lon="-0.40803">
        <ele>21.9</ele>
        <time>2017-12-17T08:10:05Z</time>
      </trkpt>
      <trkpt lat="47.53503" lon="-0.40783">
        <ele>21.1</ele>
        <time>2017-12-17T08:10:08Z</time>
      </trkpt>
      <trkpt lat="47.53515" lon="-0.40762">
        <ele>20.5</ele>
        <time>2017-12-17T08:10:11Z</time>
      </trkpt>
      <trkpt lat="47.53521" lon="-0.40734">
        <ele>20.9</ele>
        <time>2017-12-17T08:10:15Z</time>
      </trkpt>
      <trkpt lat="47.53528" lon="-0.40705">
        <ele>21.6</ele>
        <time>2017-12-17T08:10:19Z</time>
      </trkpt>
      <trkpt lat="47.53538" lon="-0.40678">
        <ele>22.4</ele>
        <time>2017-12-17T08:10:23Z</time>
      </trkpt>
      <trkpt lat="47.53547" lon="-0.40653">
        <ele>23.4</ele>
        <time>2017-12-17T08:10:27Z</time>
      </trkpt>
      <trkpt lat="47.53557" lon="-0.40627">
        <ele>24.4</ele>
        <time>2017-12-17T08:10:31Z</time>
      </trkpt>
      <trkpt lat="47.53567" lon="-0.406">
        <ele>25</ele>
        <time>2017-12-17T08:10:35Z</time>
      </trkpt>
      <trkpt lat="47.53576" lon="-0.40575">
        <ele>25</ele>
        <time>2017-12-17T08:10:39Z</time>
      </trkpt>
      <trkpt lat="47.53572" lon="-0.40547">
        <ele>25</ele>
        <time>2017-12-17T08:10:44Z</time>
      </trkpt>
      <trkpt lat="47.53552" lon="-0.40534">
        <ele>25.1</ele>
        <time>2017-12-17T08:10:48Z</time>
      </trkpt>
      <trkpt lat="47.53534" lon="-0.40521">
        <ele>25.6</ele>
        <time>2017-12-17T08:10:52Z</time>
      </trkpt>
      <trkpt lat="47.53516" lon="-0.40509">
        <ele>25.5</ele>
        <time>2017-12-17T08:10:56Z</time>
      </trkpt>
      <trkpt lat="47.53498" lon="-0.40496">
        <ele>25.9</ele>
        <time>2017-12-17T08:11:00Z</time>
      </trkpt>
      <trkpt lat="47.53481" lon="-0.40483">
        <ele>25.7</ele>
        <time>2017-12-17T08:11:04Z</time>
      </trkpt>
      <trkpt lat="47.53462" lon="-0.4047">
        <ele>25.7</ele>
        <time>2017-12-17T08:11:08Z</time>
      </trkpt>
      <trkpt lat="47.53443" lon="-0.40456">
        <ele>25.6</ele>
        <time>2017-12-17T08:11:12Z</time>
      </trkpt>
      <trkpt lat="47.53422" lon="-0.40441">
        <ele>26</ele>
        <time>2017-12-17T08:11:16Z</time>
      </trkpt>
      <trkpt lat="47.53402" lon="-0.40427">
        <ele>25.8</ele>
        <time>2017-12-17T08:11:20Z</time>
      </trkpt>
      <trkpt lat="47.53382" lon="-0.40412">
        <ele>26</ele>
        <time>2017-12-17T08:11:24Z</time>
      </trkpt>
      <trkpt lat="47.53363" lon="-0.40399">
        <ele>26</ele>
        <time>2017-12-17T08:11:28Z</time>
      </trkpt>
      <trkpt lat="47.53344" lon="-0.40385">
        <ele>26</ele>
        <time>2017-12-17T08:11:32Z</time>
      </trkpt>
      <trkpt lat="47.53325" lon="-0.40371">
        <ele>26</ele>
        <time>2017-12-17T08:11:36Z</time>
      </trkpt>
      <trkpt lat="47.53306" lon="-0.40357">
        <ele>26.1</ele>
        <time>2017-12-17T08:11:40Z</time>
      </trkpt>
      <trkpt lat="47.53288" lon="-0.40344">
        <ele>26.5</ele>
        <time>2017-12-17T08:11:44Z</time>
      </trkpt>
      <trkpt lat="47.53272" lon="-0.40332">
        <ele>26.3</ele>
        <time>2017-12-17T08:11:48Z</time>
      </trkpt>
      <trkpt lat="47.53255" lon="-0.40318">
        <ele>26.5</ele>
        <time>2017-12-17T08:11:52Z</time>
      </trkpt>
      <trkpt lat="47.53237" lon="-0.40305">
        <ele>26</ele>
        <time>2017-12-17T08:11:56Z</time>
      </trkpt>
      <trkpt lat="47.53216" lon="-0.40292">
        <ele>26</ele>
        <time>2017-12-17T08:12:00Z</time>
      </trkpt>
      <trkpt lat="47.53196" lon="-0.40277">
        <ele>26</ele>
        <time>2017-12-17T08:12:04Z</time>
      </trkpt>
      <trkpt lat="47.53175" lon="-0.40261">
        <ele>26.3</ele>
        <time>2017-12-17T08:12:08Z</time>
      </trkpt>
      <trkpt lat="47.53155" lon="-0.40246">
        <ele>26.3</ele>
        <time>2017-12-17T08:12:12Z</time>
      </trkpt>
      <trkpt lat="47.53135" lon="-0.4023">
        <ele>26.3</ele>
        <time>2017-12-17T08:12:16Z</time>
      </trkpt>
      <trkpt lat="47.53117" lon="-0.40217">
        <ele>26.2</ele>
        <time>2017-12-17T08:12:20Z</time>
      </trkpt>
      <trkpt lat="47.53096" lon="-0.40203">
        <ele>25.8</ele>
        <time>2017-12-17T08:12:24Z</time>
      </trkpt>
      <trkpt lat="47.53077" lon="-0.40187">
        <ele>26.3</ele>
        <time>2017-12-17T08:12:28Z</time>
      </trkpt>
      <trkpt lat="47.53056" lon="-0.40173">
        <ele>26.8</ele>
        <time>2017-12-17T08:12:32Z</time>
      </trkpt>
      <trkpt lat="47.53037" lon="-0.40158">
        <ele>27</ele>
        <time>2017-12-17T08:12:36Z</time>
      </trkpt>
      <trkpt lat="47.53019" lon="-0.40146">
        <ele>26.9</ele>
        <time>2017-12-17T08:12:40Z</time>
      </trkpt>
      <trkpt lat="47.53002" lon="-0.40133">
        <ele>27</ele>
        <time>2017-12-17T08:12:44Z</time>
      </trkpt>
      <trkpt lat="47.52983" lon="-0.4012">
        <ele>27</ele>
        <time>2017-12-17T08:12:48Z</time>
      </trkpt>
      <trkpt lat="47.52966" lon="-0.40105">
        <ele>26.8</ele>
        <time>2017-12-17T08:12:52Z</time>
      </trkpt>
      <trkpt lat="47.52948" lon="-0.4009">
        <ele>26.8</ele>
        <time>2017-12-17T08:12:56Z</time>
      </trkpt>
      <trkpt lat="47.5293" lon="-0.40075">
        <ele>26.6</ele>
        <time>2017-12-17T08:13:00Z</time>
      </trkpt>
      <trkpt lat="47.52911" lon="-0.4006">
        <ele>26.7</ele>
        <time>2017-12-17T08:13:04Z</time>
      </trkpt>
      <trkpt lat="47.52894" lon="-0.40044">
        <ele>26.1</ele>
        <time>2017-12-17T08:13:08Z</time>
      </trkpt>
      <trkpt lat="47.52878" lon="-0.4003">
        <ele>25.6</ele>
        <time>2017-12-17T08:13:12Z</time>
      </trkpt>
      <trkpt lat="47.52859" lon="-0.40037">
        <ele>25.3</ele>
        <time>2017-12-17T08:13:16Z</time>
      </trkpt>
      <trkpt lat="47.52846" lon="-0.40055">
        <ele>25.4</ele>
        <time>2017-12-17T08:13:19Z</time>
      </trkpt>
      <trkpt lat="47.52833" lon="-0.40076">
        <ele>25</ele>
        <time>2017-12-17T08:13:22Z</time>
      </trkpt>
      <trkpt lat="47.5282" lon="-0.40098">
        <ele>25.3</ele>
        <time>2017-12-17T08:13:25Z</time>
      </trkpt>
      <trkpt lat="47.52803" lon="-0.40123">
        <ele>25.5</ele>
        <time>2017-12-17T08:13:29Z</time>
      </trkpt>
      <trkpt lat="47.52784" lon="-0.40141">
        <ele>26</ele>
        <time>2017-12-17T08:13:33Z</time>
      </trkpt>
      <trkpt lat="47.52765" lon="-0.40155">
        <ele>26.4</ele>
        <time>2017-12-17T08:13:37Z</time>
      </trkpt>
      <trkpt lat="47.52743" lon="-0.40168">
        <ele>27</ele>
        <time>2017-12-17T08:13:41Z</time>
      </trkpt>
      <trkpt lat="47.52726" lon="-0.40178">
        <ele>27</ele>
        <time>2017-12-17T08:13:44Z</time>
      </trkpt>
      <trkpt lat="47.52708" lon="-0.40187">
        <ele>27</ele>
        <time>2017-12-17T08:13:47Z</time>
      </trkpt>
      <trkpt lat="47.52689" lon="-0.40191">
        <ele>27</ele>
        <time>2017-12-17T08:13:50Z</time>
      </trkpt>
      <trkpt lat="47.5267" lon="-0.40192">
        <ele>27.1</ele>
        <time>2017-12-17T08:13:53Z</time>
      </trkpt>
      <trkpt lat="47.52651" lon="-0.40195">
        <ele>27</ele>
        <time>2017-12-17T08:13:56Z</time>
      </trkpt>
      <trkpt lat="47.5263" lon="-0.402">
        <ele>27.2</ele>
        <time>2017-12-17T08:13:59Z</time>
      </trkpt>
      <trkpt lat="47.52608" lon="-0.40206">
        <ele>27.6</ele>
        <time>2017-12-17T08:14:02Z</time>
      </trkpt>
      <trkpt lat="47.52585" lon="-0.40209">
        <ele>27.5</ele>
        <time>2017-12-17T08:14:05Z</time>
      </trkpt>
      <trkpt lat="47.52559" lon="-0.40212">
        <ele>27.4</ele>
        <time>2017-12-17T08:14:08Z</time>
      </trkpt>
      <trkpt lat="47.52534" lon="-0.40216">
        <ele>27.1</ele>
        <time>2017-12-17T08:14:11Z</time>
      </trkpt>
      <trkpt lat="47.5251" lon="-0.40221">
        <ele>27</ele>
        <time>2017-12-17T08:14:14Z</time>
      </trkpt>
      <trkpt lat="47.52488" lon="-0.40228">
        <ele>26.6</ele>
        <time>2017-12-17T08:14:17Z</time>
      </trkpt>
      <trkpt lat="47.52467" lon="-0.40232">
        <ele>26.1</ele>
        <time>2017-12-17T08:14:20Z</time>
      </trkpt>
      <trkpt lat="47.52446" lon="-0.40238">
        <ele>26.4</ele>
        <time>2017-12-17T08:14:23Z</time>
      </trkpt>
      <trkpt lat="47.52426" lon="-0.40244">
        <ele>26.7</ele>
        <time>2017-12-17T08:14:26Z</time>
      </trkpt>
      <trkpt lat="47.52409" lon="-0.40253">
        <ele>27</ele>
        <time>2017-12-17T08:14:29Z</time>
      </trkpt>
      <trkpt lat="47.52391" lon="-0.40261">
        <ele>27</ele>
        <time>2017-12-17T08:14:32Z</time>
      </trkpt>
      <trkpt lat="47.52374" lon="-0.40271">
        <ele>27</ele>
        <time>2017-12-17T08:14:35Z</time>
      </trkpt>
      <trkpt lat="47.52357" lon="-0.40281">
        <ele>27</ele>
        <time>2017-12-17T08:14:38Z</time>
      </trkpt>
      <trkpt lat="47.5234" lon="-0.40291">
        <ele>27.4</ele>
        <time>2017-12-17T08:14:41Z</time>
      </trkpt>
      <trkpt lat="47.52322" lon="-0.40301">
        <ele>27.9</ele>
        <time>2017-12-17T08:14:44Z</time>
      </trkpt>
      <trkpt lat="47.52304" lon="-0.40309">
        <ele>28</ele>
        <time>2017-12-17T08:14:47Z</time>
      </trkpt>
      <trkpt lat="47.52286" lon="-0.40314">
        <ele>28</ele>
        <time>2017-12-17T08:14:50Z</time>
      </trkpt>
      <trkpt lat="47.52268" lon="-0.40317">
        <ele>28</ele>
        <time>2017-12-17T08:14:53Z</time>
      </trkpt>
      <trkpt lat="47.52245" lon="-0.40325">
        <ele>28</ele>
        <time>2017-12-17T08:14:57Z</time>
      </trkpt>
      <trkpt lat="47.52223" lon="-0.40334">
        <ele>28</ele>
        <time>2017-12-17T08:15:01Z</time>
      </trkpt>
      <trkpt lat="47.52205" lon="-0.40343">
        <ele>28.6</ele>
        <time>2017-12-17T08:15:04Z</time>
      </trkpt>
      <trkpt lat="47.52187" lon="-0.40354">
        <ele>29</ele>
        <time>2017-12-17T08:15:07Z</time>
      </trkpt>
      <trkpt lat="47.52169" lon="-0.40365">
        <ele>28.9</ele>
        <time>2017-12-17T08:15:10Z</time>
      </trkpt>
      <trkpt lat="47.52151" lon="-0.40378">
        <ele>28.2</ele>
        <time>2017-12-17T08:15:13Z</time>
      </trkpt>
      <trkpt lat="47.52133" lon="-0.4039">
        <ele>28</ele>
        <time>2017-12-17T08:15:16Z</time>
      </trkpt>
      <trkpt lat="47.52115" lon="-0.40404">
        <ele>28</ele>
        <time>2017-12-17T08:15:19Z</time>
      </trkpt>
      <trkpt lat="47.52097" lon="-0.40417">
        <ele>28</ele>
        <time>2017-12-17T08:15:22Z</time>
      </trkpt>
      <trkpt lat="47.5208" lon="-0.4043">
        <ele>28</ele>
        <time>2017-12-17T08:15:25Z</time>
      </trkpt>
      <trkpt lat="47.52062" lon="-0.40443">
        <ele>28</ele>
        <time>2017-12-17T08:15:28Z</time>
      </trkpt>
      <trkpt lat="47.52044" lon="-0.40457">
        <ele>28</ele>
        <time>2017-12-17T08:15:31Z</time>
      </trkpt>
      <trkpt lat="47.52026" lon="-0.4047">
        <ele>28</ele>
        <time>2017-12-17T08:15:34Z</time>
      </trkpt>
      <trkpt lat="47.52009" lon="-0.40485">
        <ele>28</ele>
        <time>2017-12-17T08:15:37Z</time>
      </trkpt>
      <trkpt lat="47.51992" lon="-0.40503">
        <ele>28</ele>
        <time>2017-12-17T08:15:40Z</time>
      </trkpt>
      <trkpt lat="47.51977" lon="-0.40521">
        <ele>28</ele>
        <time>2017-12-17T08:15:43Z</time>
      </trkpt>
      <trkpt lat="47.51961" lon="-0.4054">
        <ele>27.7</ele>
        <time>2017-12-17T08:15:46Z</time>
      </trkpt>
      <trkpt lat="47.51946" lon="-0.40558">
        <ele>27.9</ele>
        <time>2017-12-17T08:15:49Z</time>
      </trkpt>
      <trkpt lat="47.51931" lon="-0.40578">
        <ele>28</ele>
        <time>2017-12-17T08:15:52Z</time>
      </trkpt>
      <trkpt lat="47.51916" lon="-0.40596">
        <ele>28</ele>
        <time>2017-12-17T08:15:55Z</time>
      </trkpt>
      <trkpt lat="47.519" lon="-0.40614">
        <ele>28</ele>
        <time>2017-12-17T08:15:58Z</time>
      </trkpt>
      <trkpt lat="47.51884" lon="-0.40632">
        <ele>28.1</ele>
        <time>2017-12-17T08:16:01Z</time>
      </trkpt>
      <trkpt lat="47.51869" lon="-0.40649">
        <ele>28.6</ele>
        <time>2017-12-17T08:16:04Z</time>
      </trkpt>
      <trkpt lat="47.51854" lon="-0.40665">
        <ele>29.7</ele>
        <time>2017-12-17T08:16:07Z</time>
      </trkpt>
      <trkpt lat="47.51836" lon="-0.40686">
        <ele>31.6</ele>
        <time>2017-12-17T08:16:11Z</time>
      </trkpt>
      <trkpt lat="47.51819" lon="-0.40705">
        <ele>31.3</ele>
        <time>2017-12-17T08:16:15Z</time>
      </trkpt>
      <trkpt lat="47.518" lon="-0.40723">
        <ele>32.7</ele>
        <time>2017-12-17T08:16:19Z</time>
      </trkpt>
      <trkpt lat="47.51783" lon="-0.40734">
        <ele>31.8</ele>
        <time>2017-12-17T08:16:22Z</time>
      </trkpt>
      <trkpt lat="47.51762" lon="-0.40744">
        <ele>30.2</ele>
        <time>2017-12-17T08:16:26Z</time>
      </trkpt>
      <trkpt lat="47.5174" lon="-0.40751">
        <ele>30.3</ele>
        <time>2017-12-17T08:16:30Z</time>
      </trkpt>
      <trkpt lat="47.51719" lon="-0.40759">
        <ele>32</ele>
        <time>2017-12-17T08:16:34Z</time>
      </trkpt>
      <trkpt lat="47.51701" lon="-0.40764">
        <ele>31.1</ele>
        <time>2017-12-17T08:16:37Z</time>
      </trkpt>
      <trkpt lat="47.51683" lon="-0.40769">
        <ele>31</ele>
        <time>2017-12-17T08:16:40Z</time>
      </trkpt>
      <trkpt lat="47.51663" lon="-0.40771">
        <ele>30.8</ele>
        <time>2017-12-17T08:16:43Z</time>
      </trkpt>
      <trkpt lat="47.51642" lon="-0.40772">
        <ele>29.4</ele>
        <time>2017-12-17T08:16:46Z</time>
      </trkpt>
      <trkpt lat="47.51619" lon="-0.40772">
        <ele>28.1</ele>
        <time>2017-12-17T08:16:49Z</time>
      </trkpt>
      <trkpt lat="47.51595" lon="-0.40771">
        <ele>27.1</ele>
        <time>2017-12-17T08:16:52Z</time>
      </trkpt>
      <trkpt lat="47.51569" lon="-0.40771">
        <ele>26.4</ele>
        <time>2017-12-17T08:16:55Z</time>
      </trkpt>
      <trkpt lat="47.51544" lon="-0.40771">
        <ele>26</ele>
        <time>2017-12-17T08:16:58Z</time>
      </trkpt>
      <trkpt lat="47.51521" lon="-0.40774">
        <ele>25.8</ele>
        <time>2017-12-17T08:17:01Z</time>
      </trkpt>
      <trkpt lat="47.51501" lon="-0.40783">
        <ele>25</ele>
        <time>2017-12-17T08:17:04Z</time>
      </trkpt>
      <trkpt lat="47.51483" lon="-0.40797">
        <ele>25</ele>
        <time>2017-12-17T08:17:07Z</time>
      </trkpt>
      <trkpt lat="47.51464" lon="-0.40808">
        <ele>25.4</ele>
        <time>2017-12-17T08:17:10Z</time>
      </trkpt>
      <trkpt lat="47.51446" lon="-0.40816">
        <ele>26</ele>
        <time>2017-12-17T08:17:13Z</time>
      </trkpt>
      <trkpt lat="47.51425" lon="-0.40825">
        <ele>26</ele>
        <time>2017-12-17T08:17:17Z</time>
      </trkpt>
      <trkpt lat="47.51407" lon="-0.40833">
        <ele>26.4</ele>
        <time>2017-12-17T08:17:21Z</time>
      </trkpt>
      <trkpt lat="47.51388" lon="-0.40842">
        <ele>27</ele>
        <time>2017-12-17T08:17:32Z</time>
      </trkpt>
      <trkpt lat="47.5137" lon="-0.40851">
        <ele>27</ele>
        <time>2017-12-17T08:17:39Z</time>
      </trkpt>
      <trkpt lat="47.51349" lon="-0.40861">
        <ele>27.4</ele>
        <time>2017-12-17T08:17:44Z</time>
      </trkpt>
      <trkpt lat="47.51327" lon="-0.40868">
        <ele>28</ele>
        <time>2017-12-17T08:17:49Z</time>
      </trkpt>
      <trkpt lat="47.51305" lon="-0.40871">
        <ele>28</ele>
        <time>2017-12-17T08:17:54Z</time>
      </trkpt>
      <trkpt lat="47.51285" lon="-0.40874">
        <ele>28</ele>
        <time>2017-12-17T08:17:59Z</time>
      </trkpt>
      <trkpt lat="47.51267" lon="-0.40877">
        <ele>27.6</ele>
        <time>2017-12-17T08:18:04Z</time>
      </trkpt>
      <trkpt lat="47.51247" lon="-0.40878">
        <ele>27</ele>
        <time>2017-12-17T08:18:09Z</time>
      </trkpt>
      <trkpt lat="47.51225" lon="-0.40876">
        <ele>27</ele>
        <time>2017-12-17T08:18:14Z</time>
      </trkpt>
      <trkpt lat="47.51208" lon="-0.40866">
        <ele>27</ele>
        <time>2017-12-17T08:18:18Z</time>
      </trkpt>
      <trkpt lat="47.5119" lon="-0.40849">
        <ele>27.1</ele>
        <time>2017-12-17T08:18:23Z</time>
      </trkpt>
      <trkpt lat="47.51185" lon="-0.40817">
        <ele>27</ele>
        <time>2017-12-17T08:18:28Z</time>
      </trkpt>
      <trkpt lat="47.51184" lon="-0.40788">
        <ele>27</ele>
        <time>2017-12-17T08:18:32Z</time>
      </trkpt>
      <trkpt lat="47.51185" lon="-0.40758">
        <ele>27</ele>
        <time>2017-12-17T08:18:36Z</time>
      </trkpt>
      <trkpt lat="47.5119" lon="-0.40727">
        <ele>27</ele>
        <time>2017-12-17T08:18:40Z</time>
      </trkpt>
      <trkpt lat="47.51196" lon="-0.40698">
        <ele>27</ele>
        <time>2017-12-17T08:18:44Z</time>
      </trkpt>
      <trkpt lat="47.51197" lon="-0.40667">
        <ele>26.9</ele>
        <time>2017-12-17T08:18:48Z</time>
      </trkpt>
      <trkpt lat="47.51197" lon="-0.40633">
        <ele>26.9</ele>
        <time>2017-12-17T08:18:52Z</time>
      </trkpt>
      <trkpt lat="47.51197" lon="-0.406">
        <ele>26.9</ele>
        <time>2017-12-17T08:18:56Z</time>
      </trkpt>
      <trkpt lat="47.51197" lon="-0.40567">
        <ele>26.4</ele>
        <time>2017-12-17T08:19:00Z</time>
      </trkpt>
      <trkpt lat="47.51196" lon="-0.40533">
        <ele>26</ele>
        <time>2017-12-17T08:19:04Z</time>
      </trkpt>
      <trkpt lat="47.51194" lon="-0.405">
        <ele>27</ele>
        <time>2017-12-17T08:19:08Z</time>
      </trkpt>
      <trkpt lat="47.51197" lon="-0.4047">
        <ele>26.8</ele>
        <time>2017-12-17T08:19:12Z</time>
      </trkpt>
      <trkpt lat="47.51203" lon="-0.40438">
        <ele>26.2</ele>
        <time>2017-12-17T08:19:16Z</time>
      </trkpt>
      <trkpt lat="47.5121" lon="-0.40406">
        <ele>26.3</ele>
        <time>2017-12-17T08:19:20Z</time>
      </trkpt>
      <trkpt lat="47.51217" lon="-0.40375">
        <ele>26</ele>
        <time>2017-12-17T08:19:24Z</time>
      </trkpt>
      <trkpt lat="47.51211" lon="-0.40344">
        <ele>26</ele>
        <time>2017-12-17T08:19:28Z</time>
      </trkpt>
      <trkpt lat="47.51197" lon="-0.40318">
        <ele>26</ele>
        <time>2017-12-17T08:19:32Z</time>
      </trkpt>
      <trkpt lat="47.51185" lon="-0.40289">
        <ele>26</ele>
        <time>2017-12-17T08:19:36Z</time>
      </trkpt>
      <trkpt lat="47.51176" lon="-0.40261">
        <ele>26</ele>
        <time>2017-12-17T08:19:40Z</time>
      </trkpt>
      <trkpt lat="47.51165" lon="-0.40232">
        <ele>26.6</ele>
        <time>2017-12-17T08:19:44Z</time>
      </trkpt>
      <trkpt lat="47.51153" lon="-0.40204">
        <ele>26.2</ele>
        <time>2017-12-17T08:19:48Z</time>
      </trkpt>
      <trkpt lat="47.5114" lon="-0.40176">
        <ele>26</ele>
        <time>2017-12-17T08:19:52Z</time>
      </trkpt>
      <trkpt lat="47.5113" lon="-0.40146">
        <ele>26.7</ele>
        <time>2017-12-17T08:19:56Z</time>
      </trkpt>
      <trkpt lat="47.51122" lon="-0.40116">
        <ele>27</ele>
        <time>2017-12-17T08:20:01Z</time>
      </trkpt>
      <trkpt lat="47.51112" lon="-0.4009">
        <ele>26.3</ele>
        <time>2017-12-17T08:20:05Z</time>
      </trkpt>
      <trkpt lat="47.51097" lon="-0.40067">
        <ele>26.5</ele>
        <time>2017-12-17T08:20:09Z</time>
      </trkpt>
      <trkpt lat="47.51083" lon="-0.40043">
        <ele>27</ele>
        <time>2017-12-17T08:20:13Z</time>
      </trkpt>
      <trkpt lat="47.5107" lon="-0.40023">
        <ele>27</ele>
        <time>2017-12-17T08:20:17Z</time>
      </trkpt>
      <trkpt lat="47.51053" lon="-0.40006">
        <ele>27</ele>
        <time>2017-12-17T08:20:21Z</time>
      </trkpt>
      <trkpt lat="47.51038" lon="-0.39987">
        <ele>27</ele>
        <time>2017-12-17T08:20:24Z</time>
      </trkpt>
      <trkpt lat="47.51025" lon="-0.39967">
        <ele>27</ele>
        <time>2017-12-17T08:20:27Z</time>
      </trkpt>
      <trkpt lat="47.51021" lon="-0.39939">
        <ele>27</ele>
        <time>2017-12-17T08:20:31Z</time>
      </trkpt>
      <trkpt lat="47.51031" lon="-0.39911">
        <ele>27</ele>
        <time>2017-12-17T08:20:35Z</time>
      </trkpt>
      <trkpt lat="47.51044" lon="-0.39887">
        <ele>27</ele>
        <time>2017-12-17T08:20:39Z</time>
      </trkpt>
      <trkpt lat="47.51052" lon="-0.39858">
        <ele>27</ele>
        <time>2017-12-17T08:20:43Z</time>
      </trkpt>
      <trkpt lat="47.51046" lon="-0.39824">
        <ele>27</ele>
        <time>2017-12-17T08:20:47Z</time>
      </trkpt>
      <trkpt lat="47.51042" lon="-0.39798">
        <ele>27</ele>
        <time>2017-12-17T08:20:50Z</time>
      </trkpt>
      <trkpt lat="47.51039" lon="-0.39765">
        <ele>27</ele>
        <time>2017-12-17T08:20:54Z</time>
      </trkpt>
      <trkpt lat="47.51037" lon="-0.39732">
        <ele>27</ele>
        <time>2017-12-17T08:20:58Z</time>
      </trkpt>
      <trkpt lat="47.51037" lon="-0.39701">
        <ele>27</ele>
        <time>2017-12-17T08:21:02Z</time>
      </trkpt>
      <trkpt lat="47.51039" lon="-0.3967">
        <ele>27</ele>
        <time>2017-12-17T08:21:06Z</time>
      </trkpt>
      <trkpt lat="47.51044" lon="-0.39638">
        <ele>27</ele>
        <time>2017-12-17T08:21:10Z</time>
      </trkpt>
      <trkpt lat="47.5105" lon="-0.39608">
        <ele>27</ele>
        <time>2017-12-17T08:21:14Z</time>
      </trkpt>
      <trkpt lat="47.51058" lon="-0.39578">
        <ele>27</ele>
        <time>2017-12-17T08:21:18Z</time>
      </trkpt>
      <trkpt lat="47.51065" lon="-0.39547">
        <ele>27</ele>
        <time>2017-12-17T08:21:22Z</time>
      </trkpt>
      <trkpt lat="47.51069" lon="-0.39516">
        <ele>27</ele>
        <time>2017-12-17T08:21:26Z</time>
      </trkpt>
      <trkpt lat="47.5107" lon="-0.39484">
        <ele>27</ele>
        <time>2017-12-17T08:21:30Z</time>
      </trkpt>
      <trkpt lat="47.51067" lon="-0.39452">
        <ele>27</ele>
        <time>2017-12-17T08:21:34Z</time>
      </trkpt>
      <trkpt lat="47.51064" lon="-0.3942">
        <ele>27</ele>
        <time>2017-12-17T08:21:38Z</time>
      </trkpt>
      <trkpt lat="47.51062" lon="-0.3939">
        <ele>27</ele>
        <time>2017-12-17T08:21:42Z</time>
      </trkpt>
      <trkpt lat="47.51059" lon="-0.39361">
        <ele>27.9</ele>
        <time>2017-12-17T08:21:46Z</time>
      </trkpt>
      <trkpt lat="47.51057" lon="-0.39331">
        <ele>28</ele>
        <time>2017-12-17T08:21:50Z</time>
      </trkpt>
      <trkpt lat="47.51053" lon="-0.39303">
        <ele>28</ele>
        <time>2017-12-17T08:21:54Z</time>
      </trkpt>
      <trkpt lat="47.51049" lon="-0.39275">
        <ele>28</ele>
        <time>2017-12-17T08:21:58Z</time>
      </trkpt>
      <trkpt lat="47.51045" lon="-0.39247">
        <ele>27.9</ele>
        <time>2017-12-17T08:22:02Z</time>
      </trkpt>
      <trkpt lat="47.51036" lon="-0.39222">
        <ele>27.7</ele>
        <time>2017-12-17T08:22:06Z</time>
      </trkpt>
      <trkpt lat="47.51015" lon="-0.39213">
        <ele>27.5</ele>
        <time>2017-12-17T08:22:10Z</time>
      </trkpt>
      <trkpt lat="47.50994" lon="-0.39212">
        <ele>27.5</ele>
        <time>2017-12-17T08:22:14Z</time>
      </trkpt>
      <trkpt lat="47.50975" lon="-0.39211">
        <ele>27.9</ele>
        <time>2017-12-17T08:22:18Z</time>
      </trkpt>
      <trkpt lat="47.50955" lon="-0.3921">
        <ele>28</ele>
        <time>2017-12-17T08:22:22Z</time>
      </trkpt>
      <trkpt lat="47.50934" lon="-0.39209">
        <ele>28</ele>
        <time>2017-12-17T08:22:26Z</time>
      </trkpt>
      <trkpt lat="47.50915" lon="-0.39207">
        <ele>28</ele>
        <time>2017-12-17T08:22:30Z</time>
      </trkpt>
      <trkpt lat="47.50894" lon="-0.39206">
        <ele>28</ele>
        <time>2017-12-17T08:22:34Z</time>
      </trkpt>
      <trkpt lat="47.50875" lon="-0.39204">
        <ele>28.5</ele>
        <time>2017-12-17T08:22:38Z</time>
      </trkpt>
      <trkpt lat="47.50857" lon="-0.39201">
        <ele>29</ele>
        <time>2017-12-17T08:22:42Z</time>
      </trkpt>
      <trkpt lat="47.50846" lon="-0.39179">
        <ele>29</ele>
        <time>2017-12-17T08:22:46Z</time>
      </trkpt>
      <trkpt lat="47.50835" lon="-0.39154">
        <ele>29</ele>
        <time>2017-12-17T08:22:50Z</time>
      </trkpt>
      <trkpt lat="47.50825" lon="-0.39129">
        <ele>29.1</ele>
        <time>2017-12-17T08:22:54Z</time>
      </trkpt>
      <trkpt lat="47.50815" lon="-0.39103">
        <ele>29.8</ele>
        <time>2017-12-17T08:22:58Z</time>
      </trkpt>
      <trkpt lat="47.50804" lon="-0.39078">
        <ele>30</ele>
        <time>2017-12-17T08:23:02Z</time>
      </trkpt>
      <trkpt lat="47.50793" lon="-0.39052">
        <ele>30.1</ele>
        <time>2017-12-17T08:23:06Z</time>
      </trkpt>
      <trkpt lat="47.50783" lon="-0.39026">
        <ele>30.8</ele>
        <time>2017-12-17T08:23:10Z</time>
      </trkpt>
      <trkpt lat="47.50775" lon="-0.38998">
        <ele>31</ele>
        <time>2017-12-17T08:23:14Z</time>
      </trkpt>
      <trkpt lat="47.50775" lon="-0.38967">
        <ele>31.2</ele>
        <time>2017-12-17T08:23:18Z</time>
      </trkpt>
      <trkpt lat="47.50776" lon="-0.38936">
        <ele>31.7</ele>
        <time>2017-12-17T08:23:22Z</time>
      </trkpt>
      <trkpt lat="47.50776" lon="-0.38905">
        <ele>31.5</ele>
        <time>2017-12-17T08:23:26Z</time>
      </trkpt>
      <trkpt lat="47.50777" lon="-0.38874">
        <ele>32</ele>
        <time>2017-12-17T08:23:30Z</time>
      </trkpt>
      <trkpt lat="47.50778" lon="-0.38843">
        <ele>32</ele>
        <time>2017-12-17T08:23:34Z</time>
      </trkpt>
      <trkpt lat="47.50772" lon="-0.38813">
        <ele>32.8</ele>
        <time>2017-12-17T08:23:38Z</time>
      </trkpt>
      <trkpt lat="47.50765" lon="-0.38784">
        <ele>33</ele>
        <time>2017-12-17T08:23:42Z</time>
      </trkpt>
      <trkpt lat="47.50758" lon="-0.38755">
        <ele>33.6</ele>
        <time>2017-12-17T08:23:46Z</time>
      </trkpt>
      <trkpt lat="47.50751" lon="-0.38725">
        <ele>33.9</ele>
        <time>2017-12-17T08:23:50Z</time>
      </trkpt>
      <trkpt lat="47.50745" lon="-0.38695">
        <ele>34</ele>
        <time>2017-12-17T08:23:54Z</time>
      </trkpt>
      <trkpt lat="47.50738" lon="-0.38665">
        <ele>34.4</ele>
        <time>2017-12-17T08:23:58Z</time>
      </trkpt>
      <trkpt lat="47.50732" lon="-0.38636">
        <ele>34.7</ele>
        <time>2017-12-17T08:24:02Z</time>
      </trkpt>
      <trkpt lat="47.50725" lon="-0.38606">
        <ele>35.2</ele>
        <time>2017-12-17T08:24:06Z</time>
      </trkpt>
      <trkpt lat="47.50718" lon="-0.38576">
        <ele>36.3</ele>
        <time>2017-12-17T08:24:10Z</time>
      </trkpt>
      <trkpt lat="47.50713" lon="-0.38545">
        <ele>37.1</ele>
        <time>2017-12-17T08:24:14Z</time>
      </trkpt>
      <trkpt lat="47.50708" lon="-0.38514">
        <ele>38</ele>
        <time>2017-12-17T08:24:18Z</time>
      </trkpt>
      <trkpt lat="47.50704" lon="-0.38484">
        <ele>39.2</ele>
        <time>2017-12-17T08:24:22Z</time>
      </trkpt>
      <trkpt lat="47.50701" lon="-0.38454">
        <ele>40.6</ele>
        <time>2017-12-17T08:24:26Z</time>
      </trkpt>
      <trkpt lat="47.50697" lon="-0.38423">
        <ele>41.8</ele>
        <time>2017-12-17T08:24:30Z</time>
      </trkpt>
      <trkpt lat="47.50685" lon="-0.38399">
        <ele>43.2</ele>
        <time>2017-12-17T08:24:34Z</time>
      </trkpt>
      <trkpt lat="47.50671" lon="-0.3838">
        <ele>44.3</ele>
        <time>2017-12-17T08:24:38Z</time>
      </trkpt>
      <trkpt lat="47.5066" lon="-0.38356">
        <ele>45</ele>
        <time>2017-12-17T08:24:42Z</time>
      </trkpt>
      <trkpt lat="47.50652" lon="-0.3833">
        <ele>46.2</ele>
        <time>2017-12-17T08:24:46Z</time>
      </trkpt>
      <trkpt lat="47.50645" lon="-0.38304">
        <ele>47.3</ele>
        <time>2017-12-17T08:24:50Z</time>
      </trkpt>
      <trkpt lat="47.50635" lon="-0.38276">
        <ele>48.3</ele>
        <time>2017-12-17T08:24:55Z</time>
      </trkpt>
      <trkpt lat="47.50623" lon="-0.38252">
        <ele>49.9</ele>
        <time>2017-12-17T08:25:01Z</time>
      </trkpt>
      <trkpt lat="47.5062" lon="-0.38225">
        <ele>50.9</ele>
        <time>2017-12-17T08:25:10Z</time>
      </trkpt>
      <trkpt lat="47.50625" lon="-0.38196">
        <ele>51.9</ele>
        <time>2017-12-17T08:25:19Z</time>
      </trkpt>
      <trkpt lat="47.50629" lon="-0.3817">
        <ele>52</ele>
        <time>2017-12-17T08:25:26Z</time>
      </trkpt>
      <trkpt lat="47.50632" lon="-0.38144">
        <ele>52.6</ele>
        <time>2017-12-17T08:25:32Z</time>
      </trkpt>
      <trkpt lat="47.50636" lon="-0.38115">
        <ele>53</ele>
        <time>2017-12-17T08:25:38Z</time>
      </trkpt>
      <trkpt lat="47.50642" lon="-0.38085">
        <ele>53.2</ele>
        <time>2017-12-17T08:25:43Z</time>
      </trkpt>
      <trkpt lat="47.50644" lon="-0.38056">
        <ele>53.2</ele>
        <time>2017-12-17T08:25:50Z</time>
      </trkpt>
      <trkpt lat="47.50657" lon="-0.38036">
        <ele>53.6</ele>
        <time>2017-12-17T08:25:56Z</time>
      </trkpt>
      <trkpt lat="47.50669" lon="-0.38015">
        <ele>53.6</ele>
        <time>2017-12-17T08:26:00Z</time>
      </trkpt>
      <trkpt lat="47.50682" lon="-0.37996">
        <ele>53.4</ele>
        <time>2017-12-17T08:26:04Z</time>
      </trkpt>
      <trkpt lat="47.50698" lon="-0.37975">
        <ele>53.2</ele>
        <time>2017-12-17T08:26:09Z</time>
      </trkpt>
      <trkpt lat="47.50713" lon="-0.37957">
        <ele>52.8</ele>
        <time>2017-12-17T08:26:14Z</time>
      </trkpt>
      <trkpt lat="47.50731" lon="-0.37942">
        <ele>51.9</ele>
        <time>2017-12-17T08:26:20Z</time>
      </trkpt>
      <trkpt lat="47.50749" lon="-0.37931">
        <ele>51.5</ele>
        <time>2017-12-17T08:26:25Z</time>
      </trkpt>
      <trkpt lat="47.50769" lon="-0.37921">
        <ele>50.5</ele>
        <time>2017-12-17T08:26:29Z</time>
      </trkpt>
      <trkpt lat="47.50787" lon="-0.37913">
        <ele>49.5</ele>
        <time>2017-12-17T08:26:32Z</time>
      </trkpt>
      <trkpt lat="47.50806" lon="-0.37907">
        <ele>48.6</ele>
        <time>2017-12-17T08:26:35Z</time>
      </trkpt>
      <trkpt lat="47.50826" lon="-0.379">
        <ele>47.4</ele>
        <time>2017-12-17T08:26:38Z</time>
      </trkpt>
      <trkpt lat="47.50838" lon="-0.37878">
        <ele>46.5</ele>
        <time>2017-12-17T08:26:43Z</time>
      </trkpt>
      <trkpt lat="47.50842" lon="-0.3785">
        <ele>45.9</ele>
        <time>2017-12-17T08:26:48Z</time>
      </trkpt>
      <trkpt lat="47.50845" lon="-0.3782">
        <ele>45.3</ele>
        <time>2017-12-17T08:26:53Z</time>
      </trkpt>
      <trkpt lat="47.5085" lon="-0.37793">
        <ele>45</ele>
        <time>2017-12-17T08:27:31Z</time>
      </trkpt>
      <trkpt lat="47.50856" lon="-0.37766">
        <ele>44.6</ele>
        <time>2017-12-17T08:27:37Z</time>
      </trkpt>
      <trkpt lat="47.50857" lon="-0.37738">
        <ele>43.6</ele>
        <time>2017-12-17T08:27:42Z</time>
      </trkpt>
      <trkpt lat="47.50859" lon="-0.3771">
        <ele>43</ele>
        <time>2017-12-17T08:27:46Z</time>
      </trkpt>
      <trkpt lat="47.50859" lon="-0.37679">
        <ele>42.4</ele>
        <time>2017-12-17T08:27:50Z</time>
      </trkpt>
      <trkpt lat="47.50858" lon="-0.37651">
        <ele>42</ele>
        <time>2017-12-17T08:27:53Z</time>
      </trkpt>
      <trkpt lat="47.50856" lon="-0.37616">
        <ele>41.3</ele>
        <time>2017-12-17T08:27:57Z</time>
      </trkpt>
      <trkpt lat="47.50853" lon="-0.37582">
        <ele>40.3</ele>
        <time>2017-12-17T08:28:01Z</time>
      </trkpt>
      <trkpt lat="47.50851" lon="-0.3755">
        <ele>40.4</ele>
        <time>2017-12-17T08:28:05Z</time>
      </trkpt>
      <trkpt lat="47.50853" lon="-0.37521">
        <ele>40.3</ele>
        <time>2017-12-17T08:28:09Z</time>
      </trkpt>
      <trkpt lat="47.50858" lon="-0.37493">
        <ele>40.1</ele>
        <time>2017-12-17T08:28:13Z</time>
      </trkpt>
      <trkpt lat="47.50865" lon="-0.37462">
        <ele>39.9</ele>
        <time>2017-12-17T08:28:17Z</time>
      </trkpt>
      <trkpt lat="47.50872" lon="-0.37434">
        <ele>39.6</ele>
        <time>2017-12-17T08:28:21Z</time>
      </trkpt>
      <trkpt lat="47.50881" lon="-0.37407">
        <ele>39.3</ele>
        <time>2017-12-17T08:28:25Z</time>
      </trkpt>
      <trkpt lat="47.50886" lon="-0.37377">
        <ele>38.7</ele>
        <time>2017-12-17T08:28:29Z</time>
      </trkpt>
      <trkpt lat="47.50889" lon="-0.37348">
        <ele>38</ele>
        <time>2017-12-17T08:28:33Z</time>
      </trkpt>
      <trkpt lat="47.5089" lon="-0.37304">
        <ele>39</ele>
      </trkpt>
      <trkpt lat="47.50906" lon="-0.37283">
        <ele>38.4</ele>
      </trkpt>
      <trkpt lat="47.5092" lon="-0.37257">
        <ele>37.9</ele>
      </trkpt>
      <trkpt lat="47.50917" lon="-0.37203">
        <ele>38</ele>
      </trkpt>
      <trkpt lat="47.5091" lon="-0.37122">
        <ele>39.4</ele>
      </trkpt>
      <trkpt lat="47.5091" lon="-0.37087">
        <ele>40.1</ele>
      </trkpt>
      <trkpt lat="47.50917" lon="-0.37068">
        <ele>40</ele>
      </trkpt>
      <trkpt lat="47.50955" lon="-0.37051">
        <ele>39.8</ele>
      </trkpt>
      <trkpt lat="47.50994" lon="-0.37032">
        <ele>39.9</ele>
      </trkpt>
      <trkpt lat="47.51" lon="-0.3701">
        <ele>40</ele>
      </trkpt>
      <trkpt lat="47.50994" lon="-0.36982">
        <ele>40.2</ele>
      </trkpt>
      <trkpt lat="47.5099" lon="-0.36929">
        <ele>41.4</ele>
      </trkpt>
      <trkpt lat="47.51007" lon="-0.36884">
        <ele>40.9</ele>
      </trkpt>
      <trkpt lat="47.51014" lon="-0.36851">
        <ele>41.5</ele>
      </trkpt>
      <trkpt lat="47.51016" lon="-0.368">
        <ele>41.5</ele>
      </trkpt>
      <trkpt lat="47.51009" lon="-0.36781">
        <ele>42</ele>
      </trkpt>
      <trkpt lat="47.50994" lon="-0.36684">
        <ele>43.4</ele>
      </trkpt>
      <trkpt lat="47.50982" lon="-0.36618">
        <ele>45.8</ele>
      </trkpt>
      <trkpt lat="47.51009" lon="-0.36515">
        <ele>50.2</ele>
      </trkpt>
      <trkpt lat="47.5102" lon="-0.36454">
        <ele>52.4</ele>
      </trkpt>
      <trkpt lat="47.51038" lon="-0.36427">
        <ele>54</ele>
      </trkpt>
      <trkpt lat="47.51091" lon="-0.36371">
        <ele>56.5</ele>
      </trkpt>
      <trkpt lat="47.51098" lon="-0.36296">
        <ele>57.5</ele>
      </trkpt>
      <trkpt lat="47.51093" lon="-0.36208">
        <ele>59.7</ele>
      </trkpt>
      <trkpt lat="47.51087" lon="-0.36111">
        <ele>61.8</ele>
      </trkpt>
      <trkpt lat="47.51081" lon="-0.36051">
        <ele>62.2</ele>
      </trkpt>
      <trkpt lat="47.51075" lon="-0.36049">
        <ele>62.5</ele>
        <time>2011-09-04T08:23:54Z</time>
      </trkpt>
      <trkpt lat="47.5108" lon="-0.36041">
        <ele>62.2</ele>
        <time>2011-09-04T08:23:52Z</time>
      </trkpt>
      <trkpt lat="47.51085" lon="-0.36034">
        <ele>61.9</ele>
        <time>2011-09-04T08:23:50Z</time>
      </trkpt>
      <trkpt lat="47.5109" lon="-0.36027">
        <ele>61.5</ele>
        <time>2011-09-04T08:23:48Z</time>
      </trkpt>
      <trkpt lat="47.51093" lon="-0.36019">
        <ele>61.3</ele>
        <time>2011-09-04T08:23:46Z</time>
      </trkpt>
      <trkpt lat="47.51097" lon="-0.3601">
        <ele>61</ele>
        <time>2011-09-04T08:23:44Z</time>
      </trkpt>
      <trkpt lat="47.51101" lon="-0.36002">
        <ele>60.7</ele>
        <time>2011-09-04T08:23:42Z</time>
      </trkpt>
      <trkpt lat="47.51105" lon="-0.35993">
        <ele>60.4</ele>
        <time>2011-09-04T08:23:40Z</time>
      </trkpt>
      <trkpt lat="47.51109" lon="-0.35984">
        <ele>60.1</ele>
        <time>2011-09-04T08:23:38Z</time>
      </trkpt>
      <trkpt lat="47.51114" lon="-0.35976">
        <ele>60</ele>
        <time>2011-09-04T08:23:36Z</time>
      </trkpt>
      <trkpt lat="47.5112" lon="-0.35969">
        <ele>60</ele>
        <time>2011-09-04T08:23:34Z</time>
      </trkpt>
      <trkpt lat="47.51127" lon="-0.35962">
        <ele>59.8</ele>
        <time>2011-09-04T08:23:32Z</time>
      </trkpt>
      <trkpt lat="47.51132" lon="-0.35956">
        <ele>59.6</ele>
        <time>2011-09-04T08:23:30Z</time>
      </trkpt>
      <trkpt lat="47.51136" lon="-0.3595">
        <ele>59.3</ele>
        <time>2011-09-04T08:23:28Z</time>
      </trkpt>
      <trkpt lat="47.5114" lon="-0.35945">
        <ele>59.1</ele>
        <time>2011-09-04T08:23:26Z</time>
      </trkpt>
      <trkpt lat="47.51144" lon="-0.3594">
        <ele>59.3</ele>
        <time>2011-09-04T08:23:24Z</time>
      </trkpt>
      <trkpt lat="47.51149" lon="-0.35934">
        <ele>59.6</ele>
        <time>2011-09-04T08:23:22Z</time>
      </trkpt>
      <trkpt lat="47.51156" lon="-0.35927">
        <ele>59.9</ele>
        <time>2011-09-04T08:23:20Z</time>
      </trkpt>
      <trkpt lat="47.5116" lon="-0.35918">
        <ele>60</ele>
        <time>2011-09-04T08:23:18Z</time>
      </trkpt>
      <trkpt lat="47.51167" lon="-0.35913">
        <ele>60</ele>
        <time>2011-09-04T08:23:16Z</time>
      </trkpt>
      <trkpt lat="47.51174" lon="-0.35906">
        <ele>60.2</ele>
        <time>2011-09-04T08:23:14Z</time>
      </trkpt>
      <trkpt lat="47.5118" lon="-0.35899">
        <ele>60.2</ele>
        <time>2011-09-04T08:23:12Z</time>
      </trkpt>
      <trkpt lat="47.51185" lon="-0.3589">
        <ele>60</ele>
        <time>2011-09-04T08:23:10Z</time>
      </trkpt>
      <trkpt lat="47.51191" lon="-0.35883">
        <ele>60</ele>
        <time>2011-09-04T08:23:08Z</time>
      </trkpt>
      <trkpt lat="47.51197" lon="-0.35877">
        <ele>60.1</ele>
        <time>2011-09-04T08:23:06Z</time>
      </trkpt>
      <trkpt lat="47.51202" lon="-0.35872">
        <ele>60.4</ele>
        <time>2011-09-04T08:23:05Z</time>
      </trkpt>
      <trkpt lat="47.51206" lon="-0.35868">
        <ele>60.5</ele>
        <time>2011-09-04T08:23:04Z</time>
      </trkpt>
      <trkpt lat="47.5121" lon="-0.3586">
        <ele>60.6</ele>
        <time>2011-09-04T08:23:02Z</time>
      </trkpt>
      <trkpt lat="47.51215" lon="-0.35852">
        <ele>60.7</ele>
        <time>2011-09-04T08:23:00Z</time>
      </trkpt>
      <trkpt lat="47.51217" lon="-0.35846">
        <ele>60.8</ele>
        <time>2011-09-04T08:22:59Z</time>
      </trkpt>
      <trkpt lat="47.51224" lon="-0.35838">
        <ele>61.1</ele>
        <time>2011-09-04T08:22:57Z</time>
      </trkpt>
      <trkpt lat="47.51229" lon="-0.35835">
        <ele>61.5</ele>
        <time>2011-09-04T08:22:56Z</time>
      </trkpt>
      <trkpt lat="47.51233" lon="-0.35829">
        <ele>61.8</ele>
        <time>2011-09-04T08:22:55Z</time>
      </trkpt>
      <trkpt lat="47.5124" lon="-0.35821">
        <ele>62.3</ele>
        <time>2011-09-04T08:22:53Z</time>
      </trkpt>
      <trkpt lat="47.51245" lon="-0.35811">
        <ele>62.6</ele>
        <time>2011-09-04T08:22:51Z</time>
      </trkpt>
      <trkpt lat="47.51248" lon="-0.35805">
        <ele>62.9</ele>
        <time>2011-09-04T08:22:50Z</time>
      </trkpt>
      <trkpt lat="47.51253" lon="-0.35801">
        <ele>63.1</ele>
        <time>2011-09-04T08:22:49Z</time>
      </trkpt>
      <trkpt lat="47.51256" lon="-0.35795">
        <ele>63.3</ele>
        <time>2011-09-04T08:22:48Z</time>
      </trkpt>
      <trkpt lat="47.5126" lon="-0.35788">
        <ele>63.6</ele>
        <time>2011-09-04T08:22:47Z</time>
      </trkpt>
      <trkpt lat="47.51264" lon="-0.35782">
        <ele>63.9</ele>
        <time>2011-09-04T08:22:46Z</time>
      </trkpt>
      <trkpt lat="47.51267" lon="-0.35776">
        <ele>64.2</ele>
        <time>2011-09-04T08:22:45Z</time>
      </trkpt>
      <trkpt lat="47.5127" lon="-0.35771">
        <ele>64.5</ele>
        <time>2011-09-04T08:22:44Z</time>
      </trkpt>
      <trkpt lat="47.51274" lon="-0.35764">
        <ele>64.8</ele>
        <time>2011-09-04T08:22:43Z</time>
      </trkpt>
      <trkpt lat="47.51277" lon="-0.35759">
        <ele>65</ele>
        <time>2011-09-04T08:22:42Z</time>
      </trkpt>
      <trkpt lat="47.51282" lon="-0.35754">
        <ele>65.2</ele>
        <time>2011-09-04T08:22:41Z</time>
      </trkpt>
      <trkpt lat="47.51286" lon="-0.35748">
        <ele>65.3</ele>
        <time>2011-09-04T08:22:40Z</time>
      </trkpt>
      <trkpt lat="47.51293" lon="-0.35742">
        <ele>65.5</ele>
        <time>2011-09-04T08:22:38Z</time>
      </trkpt>
      <trkpt lat="47.513" lon="-0.35735">
        <ele>65.8</ele>
        <time>2011-09-04T08:22:36Z</time>
      </trkpt>
      <trkpt lat="47.51307" lon="-0.3573">
        <ele>66</ele>
        <time>2011-09-04T08:22:34Z</time>
      </trkpt>
      <trkpt lat="47.51314" lon="-0.35722">
        <ele>66.3</ele>
        <time>2011-09-04T08:22:32Z</time>
      </trkpt>
      <trkpt lat="47.51318" lon="-0.35717">
        <ele>66.6</ele>
        <time>2011-09-04T08:22:31Z</time>
      </trkpt>
      <trkpt lat="47.51324" lon="-0.3571">
        <ele>66.8</ele>
        <time>2011-09-04T08:22:29Z</time>
      </trkpt>
      <trkpt lat="47.5133" lon="-0.35703">
        <ele>67</ele>
        <time>2011-09-04T08:22:27Z</time>
      </trkpt>
      <trkpt lat="47.51334" lon="-0.35698">
        <ele>67</ele>
        <time>2011-09-04T08:22:26Z</time>
      </trkpt>
      <trkpt lat="47.51341" lon="-0.35692">
        <ele>67</ele>
        <time>2011-09-04T08:22:24Z</time>
      </trkpt>
      <trkpt lat="47.51346" lon="-0.35684">
        <ele>66.8</ele>
        <time>2011-09-04T08:22:22Z</time>
      </trkpt>
      <trkpt lat="47.51349" lon="-0.35677">
        <ele>66.6</ele>
        <time>2011-09-04T08:22:20Z</time>
      </trkpt>
      <trkpt lat="47.51354" lon="-0.35671">
        <ele>66.4</ele>
        <time>2011-09-04T08:22:18Z</time>
      </trkpt>
      <trkpt lat="47.51359" lon="-0.35664">
        <ele>66.1</ele>
        <time>2011-09-04T08:22:16Z</time>
      </trkpt>
      <trkpt lat="47.51365" lon="-0.35657">
        <ele>66</ele>
        <time>2011-09-04T08:22:14Z</time>
      </trkpt>
      <trkpt lat="47.51368" lon="-0.35652">
        <ele>66</ele>
        <time>2011-09-04T08:22:12Z</time>
      </trkpt>
      <trkpt lat="47.51372" lon="-0.35646">
        <ele>66</ele>
        <time>2011-09-04T08:22:10Z</time>
      </trkpt>
      <trkpt lat="47.51377" lon="-0.35641">
        <ele>66</ele>
        <time>2011-09-04T08:22:08Z</time>
      </trkpt>
      <trkpt lat="47.5138" lon="-0.35635">
        <ele>66</ele>
        <time>2011-09-04T08:22:05Z</time>
      </trkpt>
      <trkpt lat="47.51384" lon="-0.35629">
        <ele>66</ele>
        <time>2011-09-04T08:22:03Z</time>
      </trkpt>
      <trkpt lat="47.5139" lon="-0.35624">
        <ele>66</ele>
        <time>2011-09-04T08:22:00Z</time>
      </trkpt>
      <trkpt lat="47.51417" lon="-0.35585">
        <ele>65.1</ele>
      </trkpt>
      <trkpt lat="47.51441" lon="-0.35559">
        <ele>65.8</ele>
      </trkpt>
      <trkpt lat="47.51472" lon="-0.35627">
        <ele>65</ele>
      </trkpt>
      <trkpt lat="47.51476" lon="-0.35648">
        <ele>65</ele>
      </trkpt>
      <trkpt lat="47.51474" lon="-0.35649">
        <ele>65</ele>
        <time>2009-10-04T13:24:16Z</time>
      </trkpt>
      <trkpt lat="47.51476" lon="-0.35654">
        <ele>65</ele>
        <time>2009-10-04T13:24:17Z</time>
      </trkpt>
      <trkpt lat="47.51477" lon="-0.35659">
        <ele>65</ele>
        <time>2009-10-04T13:24:18Z</time>
      </trkpt>
      <trkpt lat="47.51481" lon="-0.35661">
        <ele>65</ele>
        <time>2009-10-04T13:24:19Z</time>
      </trkpt>
      <trkpt lat="47.51484" lon="-0.35665">
        <ele>65</ele>
        <time>2009-10-04T13:24:20Z</time>
      </trkpt>
      <trkpt lat="47.51488" lon="-0.35672">
        <ele>65.1</ele>
        <time>2009-10-04T13:24:22Z</time>
      </trkpt>
      <trkpt lat="47.5149" lon="-0.35676">
        <ele>65.1</ele>
        <time>2009-10-04T13:24:23Z</time>
      </trkpt>
      <trkpt lat="47.51493" lon="-0.35679">
        <ele>65.1</ele>
        <time>2009-10-04T13:24:24Z</time>
      </trkpt>
      <trkpt lat="47.51495" lon="-0.35684">
        <ele>65.1</ele>
        <time>2009-10-04T13:24:25Z</time>
      </trkpt>
      <trkpt lat="47.51497" lon="-0.35689">
        <ele>65.1</ele>
        <time>2009-10-04T13:24:26Z</time>
      </trkpt>
      <trkpt lat="47.51498" lon="-0.35694">
        <ele>65.1</ele>
        <time>2009-10-04T13:24:27Z</time>
      </trkpt>
      <trkpt lat="47.51501" lon="-0.35698">
        <ele>65</ele>
        <time>2009-10-04T13:24:28Z</time>
      </trkpt>
      <trkpt lat="47.51503" lon="-0.35702">
        <ele>65</ele>
        <time>2009-10-04T13:24:29Z</time>
      </trkpt>
      <trkpt lat="47.51505" lon="-0.35707">
        <ele>65</ele>
        <time>2009-10-04T13:24:30Z</time>
      </trkpt>
      <trkpt lat="47.51506" lon="-0.35711">
        <ele>65</ele>
        <time>2009-10-04T13:24:31Z</time>
      </trkpt>
      <trkpt lat="47.51509" lon="-0.35715">
        <ele>65</ele>
        <time>2009-10-04T13:24:32Z</time>
      </trkpt>
      <trkpt lat="47.51511" lon="-0.35719">
        <ele>65</ele>
        <time>2009-10-04T13:24:33Z</time>
      </trkpt>
      <trkpt lat="47.51512" lon="-0.35723">
        <ele>65</ele>
        <time>2009-10-04T13:24:34Z</time>
      </trkpt>
      <trkpt lat="47.51513" lon="-0.35727">
        <ele>65</ele>
        <time>2009-10-04T13:24:35Z</time>
      </trkpt>
      <trkpt lat="47.51514" lon="-0.35732">
        <ele>65</ele>
        <time>2009-10-04T13:24:36Z</time>
      </trkpt>
      <trkpt lat="47.51516" lon="-0.35736">
        <ele>65</ele>
        <time>2009-10-04T13:24:37Z</time>
      </trkpt>
      <trkpt lat="47.51518" lon="-0.35741">
        <ele>65</ele>
        <time>2009-10-04T13:24:38Z</time>
      </trkpt>
      <trkpt lat="47.5152" lon="-0.35746">
        <ele>65</ele>
        <time>2009-10-04T13:24:39Z</time>
      </trkpt>
      <trkpt lat="47.51522" lon="-0.3575">
        <ele>65</ele>
        <time>2009-10-04T13:24:40Z</time>
      </trkpt>
      <trkpt lat="47.51524" lon="-0.35754">
        <ele>65</ele>
        <time>2009-10-04T13:24:41Z</time>
      </trkpt>
      <trkpt lat="47.51526" lon="-0.35759">
        <ele>65</ele>
        <time>2009-10-04T13:24:42Z</time>
      </trkpt>
      <trkpt lat="47.51527" lon="-0.35764">
        <ele>65</ele>
        <time>2009-10-04T13:24:43Z</time>
      </trkpt>
      <trkpt lat="47.5153" lon="-0.35768">
        <ele>65</ele>
        <time>2009-10-04T13:24:44Z</time>
      </trkpt>
      <trkpt lat="47.51533" lon="-0.35771">
        <ele>65</ele>
        <time>2009-10-04T13:24:45Z</time>
      </trkpt>
      <trkpt lat="47.51535" lon="-0.35776">
        <ele>65</ele>
        <time>2009-10-04T13:24:46Z</time>
      </trkpt>
      <trkpt lat="47.51538" lon="-0.35779">
        <ele>65</ele>
        <time>2009-10-04T13:24:47Z</time>
      </trkpt>
      <trkpt lat="47.5154" lon="-0.35783">
        <ele>65</ele>
        <time>2009-10-04T13:24:48Z</time>
      </trkpt>
      <trkpt lat="47.51543" lon="-0.35787">
        <ele>65</ele>
        <time>2009-10-04T13:24:49Z</time>
      </trkpt>
      <trkpt lat="47.51545" lon="-0.35791">
        <ele>65</ele>
        <time>2009-10-04T13:24:50Z</time>
      </trkpt>
      <trkpt lat="47.51548" lon="-0.35796">
        <ele>65</ele>
        <time>2009-10-04T13:24:51Z</time>
      </trkpt>
      <trkpt lat="47.5155" lon="-0.358">
        <ele>65</ele>
        <time>2009-10-04T13:24:52Z</time>
      </trkpt>
      <trkpt lat="47.51552" lon="-0.35805">
        <ele>65</ele>
        <time>2009-10-04T13:24:53Z</time>
      </trkpt>
      <trkpt lat="47.51554" lon="-0.3581">
        <ele>65</ele>
        <time>2009-10-04T13:24:54Z</time>
      </trkpt>
      <trkpt lat="47.51556" lon="-0.35815">
        <ele>65</ele>
        <time>2009-10-04T13:24:55Z</time>
      </trkpt>
      <trkpt lat="47.51558" lon="-0.3582">
        <ele>65</ele>
        <time>2009-10-04T13:24:56Z</time>
      </trkpt>
      <trkpt lat="47.51561" lon="-0.35825">
        <ele>65</ele>
        <time>2009-10-04T13:24:57Z</time>
      </trkpt>
      <trkpt lat="47.51564" lon="-0.3583">
        <ele>65</ele>
        <time>2009-10-04T13:24:58Z</time>
      </trkpt>
      <trkpt lat="47.51566" lon="-0.35835">
        <ele>65</ele>
        <time>2009-10-04T13:24:59Z</time>
      </trkpt>
      <trkpt lat="47.51569" lon="-0.3584">
        <ele>65</ele>
        <time>2009-10-04T13:25:00Z</time>
      </trkpt>
      <trkpt lat="47.51572" lon="-0.35846">
        <ele>65</ele>
        <time>2009-10-04T13:25:01Z</time>
      </trkpt>
      <trkpt lat="47.51574" lon="-0.35852">
        <ele>65</ele>
        <time>2009-10-04T13:25:02Z</time>
      </trkpt>
      <trkpt lat="47.51577" lon="-0.35858">
        <ele>65</ele>
        <time>2009-10-04T13:25:03Z</time>
      </trkpt>
      <trkpt lat="47.51579" lon="-0.35863">
        <ele>65</ele>
        <time>2009-10-04T13:25:04Z</time>
      </trkpt>
      <trkpt lat="47.5158" lon="-0.35869">
        <ele>65</ele>
        <time>2009-10-04T13:25:05Z</time>
      </trkpt>
      <trkpt lat="47.51582" lon="-0.35874">
        <ele>65</ele>
        <time>2009-10-04T13:25:06Z</time>
      </trkpt>
      <trkpt lat="47.51584" lon="-0.35879">
        <ele>65</ele>
        <time>2009-10-04T13:25:07Z</time>
      </trkpt>
      <trkpt lat="47.51585" lon="-0.35884">
        <ele>65</ele>
        <time>2009-10-04T13:25:08Z</time>
      </trkpt>
      <trkpt lat="47.51587" lon="-0.35889">
        <ele>65</ele>
        <time>2009-10-04T13:25:09Z</time>
      </trkpt>
      <trkpt lat="47.51588" lon="-0.35893">
        <ele>65</ele>
        <time>2009-10-04T13:25:10Z</time>
      </trkpt>
      <trkpt lat="47.51589" lon="-0.35899">
        <ele>65</ele>
        <time>2009-10-04T13:25:11Z</time>
      </trkpt>
      <trkpt lat="47.5159" lon="-0.35904">
        <ele>65</ele>
        <time>2009-10-04T13:25:12Z</time>
      </trkpt>
      <trkpt lat="47.5159" lon="-0.3591">
        <ele>65</ele>
        <time>2009-10-04T13:25:13Z</time>
      </trkpt>
      <trkpt lat="47.5159" lon="-0.35916">
        <ele>65</ele>
        <time>2009-10-04T13:25:14Z</time>
      </trkpt>
      <trkpt lat="47.51592" lon="-0.35921">
        <ele>65</ele>
        <time>2009-10-04T13:25:15Z</time>
      </trkpt>
      <trkpt lat="47.51594" lon="-0.35926">
        <ele>65</ele>
        <time>2009-10-04T13:25:16Z</time>
      </trkpt>
      <trkpt lat="47.51595" lon="-0.35932">
        <ele>65</ele>
        <time>2009-10-04T13:25:17Z</time>
      </trkpt>
      <trkpt lat="47.51597" lon="-0.35937">
        <ele>65</ele>
        <time>2009-10-04T13:25:18Z</time>
      </trkpt>
      <trkpt lat="47.51598" lon="-0.35943">
        <ele>65</ele>
        <time>2009-10-04T13:25:19Z</time>
      </trkpt>
      <trkpt lat="47.51598" lon="-0.35949">
        <ele>65</ele>
        <time>2009-10-04T13:25:20Z</time>
      </trkpt>
      <trkpt lat="47.516" lon="-0.35953">
        <ele>65</ele>
        <time>2009-10-04T13:25:21Z</time>
      </trkpt>
      <trkpt lat="47.51601" lon="-0.35958">
        <ele>65</ele>
        <time>2009-10-04T13:25:22Z</time>
      </trkpt>
      <trkpt lat="47.516" lon="-0.35962">
        <ele>65</ele>
        <time>2009-10-04T13:25:23Z</time>
      </trkpt>
      <trkpt lat="47.516" lon="-0.35965">
        <ele>65</ele>
        <time>2009-10-04T13:25:24Z</time>
      </trkpt>
      <trkpt lat="47.516" lon="-0.35969">
        <ele>65</ele>
        <time>2009-10-04T13:25:25Z</time>
      </trkpt>
      <trkpt lat="47.516" lon="-0.35972">
        <ele>65</ele>
        <time>2009-10-04T13:25:26Z</time>
      </trkpt>
      <trkpt lat="47.516" lon="-0.35976">
        <ele>65</ele>
        <time>2009-10-04T13:25:27Z</time>
      </trkpt>
      <trkpt lat="47.516" lon="-0.3598">
        <ele>65</ele>
        <time>2009-10-04T13:25:28Z</time>
      </trkpt>
      <trkpt lat="47.516" lon="-0.35983">
        <ele>65</ele>
        <time>2009-10-04T13:25:29Z</time>
      </trkpt>
      <trkpt lat="47.51599" lon="-0.35987">
        <ele>65</ele>
        <time>2009-10-04T13:25:30Z</time>
      </trkpt>
      <trkpt lat="47.51599" lon="-0.35991">
        <ele>65</ele>
        <time>2009-10-04T13:25:31Z</time>
      </trkpt>
      <trkpt lat="47.51598" lon="-0.35995">
        <ele>65</ele>
        <time>2009-10-04T13:25:32Z</time>
      </trkpt>
      <trkpt lat="47.51598" lon="-0.35999">
        <ele>65</ele>
        <time>2009-10-04T13:25:33Z</time>
      </trkpt>
      <trkpt lat="47.516" lon="-0.36002">
        <ele>65.1</ele>
        <time>2009-10-04T13:25:34Z</time>
      </trkpt>
      <trkpt lat="47.51601" lon="-0.36005">
        <ele>65.2</ele>
        <time>2009-10-04T13:25:35Z</time>
      </trkpt>
      <trkpt lat="47.51604" lon="-0.36007">
        <ele>65.3</ele>
        <time>2009-10-04T13:25:37Z</time>
      </trkpt>
      <trkpt lat="47.51606" lon="-0.36008">
        <ele>65.3</ele>
        <time>2009-10-04T13:25:38Z</time>
      </trkpt>
      <trkpt lat="47.51608" lon="-0.36007">
        <ele>65.2</ele>
        <time>2009-10-04T13:25:39Z</time>
      </trkpt>
      <trkpt lat="47.5161" lon="-0.36006">
        <ele>65.2</ele>
        <time>2009-10-04T13:25:40Z</time>
      </trkpt>
      <trkpt lat="47.51614" lon="-0.36004">
        <ele>65.2</ele>
        <time>2009-10-04T13:25:41Z</time>
      </trkpt>
      <trkpt lat="47.51616" lon="-0.36005">
        <ele>65.3</ele>
        <time>2009-10-04T13:25:42Z</time>
      </trkpt>
      <trkpt lat="47.51617" lon="-0.36004">
        <ele>65.3</ele>
        <time>2009-10-04T13:25:43Z</time>
      </trkpt>
      <trkpt lat="47.5162" lon="-0.36002">
        <ele>65.4</ele>
        <time>2009-10-04T13:25:44Z</time>
      </trkpt>
      <trkpt lat="47.51622" lon="-0.36001">
        <ele>65.4</ele>
        <time>2009-10-04T13:25:45Z</time>
      </trkpt>
      <trkpt lat="47.51624" lon="-0.36">
        <ele>65.5</ele>
        <time>2009-10-04T13:25:46Z</time>
      </trkpt>
      <trkpt lat="47.51627" lon="-0.36">
        <ele>65.6</ele>
        <time>2009-10-04T13:25:47Z</time>
      </trkpt>
      <trkpt lat="47.5163" lon="-0.36">
        <ele>65.7</ele>
        <time>2009-10-04T13:25:48Z</time>
      </trkpt>
      <trkpt lat="47.51632" lon="-0.35999">
        <ele>65.7</ele>
        <time>2009-10-04T13:25:49Z</time>
      </trkpt>
      <trkpt lat="47.51635" lon="-0.35996">
        <ele>65.7</ele>
        <time>2009-10-04T13:25:50Z</time>
      </trkpt>
      <trkpt lat="47.51637" lon="-0.35992">
        <ele>65.7</ele>
        <time>2009-10-04T13:25:51Z</time>
      </trkpt>
      <trkpt lat="47.51638" lon="-0.35991">
        <ele>65.7</ele>
        <time>2009-10-04T13:25:52Z</time>
      </trkpt>
      <trkpt lat="47.51639" lon="-0.3599">
        <ele>65.6</ele>
        <time>2009-10-04T13:25:53Z</time>
      </trkpt>
      <trkpt lat="47.51639" lon="-0.35989">
        <ele>65.6</ele>
        <time>2009-10-04T13:25:54Z</time>
      </trkpt>
      <trkpt lat="47.5164" lon="-0.3599">
        <ele>65.6</ele>
        <time>2009-10-04T13:25:55Z</time>
      </trkpt>
      <trkpt lat="47.51641" lon="-0.3599">
        <ele>65.6</ele>
        <time>2009-10-04T13:25:56Z</time>
      </trkpt>
      <trkpt lat="47.51642" lon="-0.35988">
        <ele>65.6</ele>
        <time>2009-10-04T13:25:57Z</time>
      </trkpt>
      <trkpt lat="47.51645" lon="-0.35987">
        <ele>65.5</ele>
        <time>2009-10-04T13:25:58Z</time>
      </trkpt>
      <trkpt lat="47.51647" lon="-0.35985">
        <ele>65.5</ele>
        <time>2009-10-04T13:25:59Z</time>
      </trkpt>
      <trkpt lat="47.51649" lon="-0.35982">
        <ele>65.4</ele>
        <time>2009-10-04T13:26:00Z</time>
      </trkpt>
      <trkpt lat="47.5165" lon="-0.35981">
        <ele>65.3</ele>
        <time>2009-10-04T13:26:01Z</time>
      </trkpt>
      <trkpt lat="47.51651" lon="-0.35981">
        <ele>65.3</ele>
        <time>2009-10-04T13:26:02Z</time>
      </trkpt>
      <trkpt lat="47.51651" lon="-0.35981">
        <ele>65.3</ele>
        <time>2009-10-04T13:26:03Z</time>
      </trkpt>
      <trkpt lat="47.51652" lon="-0.35981">
        <ele>65.3</ele>
        <time>2009-10-04T13:26:04Z</time>
      </trkpt>
      <trkpt lat="47.51652" lon="-0.35981">
        <ele>65.3</ele>
        <time>2009-10-04T13:26:05Z</time>
      </trkpt>
      <trkpt lat="47.51653" lon="-0.35981">
        <ele>65.3</ele>
        <time>2009-10-04T13:26:06Z</time>
      </trkpt>
      <trkpt lat="47.51654" lon="-0.35981">
        <ele>65.3</ele>
        <time>2009-10-04T13:26:07Z</time>
      </trkpt>
      <trkpt lat="47.51654" lon="-0.35981">
        <ele>65.3</ele>
        <time>2009-10-04T13:26:08Z</time>
      </trkpt>
      <trkpt lat="47.51655" lon="-0.35981">
        <ele>65.3</ele>
        <time>2009-10-04T13:26:09Z</time>
      </trkpt>
      <trkpt lat="47.51656" lon="-0.35981">
        <ele>65.3</ele>
        <time>2009-10-04T13:26:10Z</time>
      </trkpt>
      <trkpt lat="47.51656" lon="-0.35981">
        <ele>65.3</ele>
        <time>2009-10-04T13:26:11Z</time>
      </trkpt>
      <trkpt lat="47.51657" lon="-0.3598">
        <ele>65.3</ele>
        <time>2009-10-04T13:26:12Z</time>
      </trkpt>
      <trkpt lat="47.51658" lon="-0.3598">
        <ele>65.3</ele>
        <time>2009-10-04T13:26:13Z</time>
      </trkpt>
      <trkpt lat="47.51659" lon="-0.35979">
        <ele>65.3</ele>
        <time>2009-10-04T13:26:15Z</time>
      </trkpt>
      <trkpt lat="47.5166" lon="-0.3598">
        <ele>65.3</ele>
        <time>2009-10-04T13:26:16Z</time>
      </trkpt>
      <trkpt lat="47.5166" lon="-0.3598">
        <ele>65.3</ele>
        <time>2009-10-04T13:26:17Z</time>
      </trkpt>
      <trkpt lat="47.5166" lon="-0.3598">
        <ele>65.3</ele>
        <time>2009-10-04T13:26:18Z</time>
      </trkpt>
      <trkpt lat="47.51661" lon="-0.35979">
        <ele>65.3</ele>
        <time>2009-10-04T13:26:19Z</time>
      </trkpt>
      <trkpt lat="47.51662" lon="-0.35978">
        <ele>65.2</ele>
        <time>2009-10-04T13:26:20Z</time>
      </trkpt>
      <trkpt lat="47.51663" lon="-0.35976">
        <ele>65.1</ele>
        <time>2009-10-04T13:26:21Z</time>
      </trkpt>
      <trkpt lat="47.51663" lon="-0.35974">
        <ele>65.1</ele>
        <time>2009-10-04T13:26:22Z</time>
      </trkpt>
      <trkpt lat="47.51664" lon="-0.35973">
        <ele>65</ele>
        <time>2009-10-04T13:26:23Z</time>
      </trkpt>
      <trkpt lat="47.51665" lon="-0.35973">
        <ele>65</ele>
        <time>2009-10-04T13:26:24Z</time>
      </trkpt>
      <trkpt lat="47.51665" lon="-0.35972">
        <ele>65</ele>
        <time>2009-10-04T13:26:25Z</time>
      </trkpt>
      <trkpt lat="47.51665" lon="-0.35972">
        <ele>65</ele>
        <time>2009-10-04T13:26:26Z</time>
      </trkpt>
      <trkpt lat="47.51665" lon="-0.35973">
        <ele>65</ele>
        <time>2009-10-04T13:26:27Z</time>
      </trkpt>
      <trkpt lat="47.51665" lon="-0.35972">
        <ele>65</ele>
        <time>2009-10-04T13:26:28Z</time>
      </trkpt>
      <trkpt lat="47.51665" lon="-0.35971">
        <ele>65</ele>
        <time>2009-10-04T13:26:29Z</time>
      </trkpt>
      <trkpt lat="47.51666" lon="-0.3597">
        <ele>65</ele>
        <time>2009-10-04T13:26:30Z</time>
      </trkpt>
      <trkpt lat="47.51667" lon="-0.35969">
        <ele>65</ele>
        <time>2009-10-04T13:26:31Z</time>
      </trkpt>
      <trkpt lat="47.51669" lon="-0.3597">
        <ele>65.1</ele>
        <time>2009-10-04T13:26:32Z</time>
      </trkpt>
      <trkpt lat="47.51672" lon="-0.3597">
        <ele>65.2</ele>
        <time>2009-10-04T13:26:33Z</time>
      </trkpt>
      <trkpt lat="47.51674" lon="-0.3597">
        <ele>65.2</ele>
        <time>2009-10-04T13:26:34Z</time>
      </trkpt>
      <trkpt lat="47.51675" lon="-0.3597">
        <ele>65.3</ele>
        <time>2009-10-04T13:26:35Z</time>
      </trkpt>
      <trkpt lat="47.51677" lon="-0.3597">
        <ele>65.4</ele>
        <time>2009-10-04T13:26:36Z</time>
      </trkpt>
      <trkpt lat="47.51679" lon="-0.3597">
        <ele>65.4</ele>
        <time>2009-10-04T13:26:37Z</time>
      </trkpt>
      <trkpt lat="47.51681" lon="-0.35968">
        <ele>65.4</ele>
        <time>2009-10-04T13:26:38Z</time>
      </trkpt>
      <trkpt lat="47.51683" lon="-0.35967">
        <ele>65.5</ele>
        <time>2009-10-04T13:26:39Z</time>
      </trkpt>
      <trkpt lat="47.51685" lon="-0.35965">
        <ele>65.5</ele>
        <time>2009-10-04T13:26:40Z</time>
      </trkpt>
      <trkpt lat="47.51689" lon="-0.35964">
        <ele>65.6</ele>
        <time>2009-10-04T13:26:41Z</time>
      </trkpt>
      <trkpt lat="47.51692" lon="-0.35962">
        <ele>65.6</ele>
        <time>2009-10-04T13:26:42Z</time>
      </trkpt>
      <trkpt lat="47.51695" lon="-0.3596">
        <ele>65.6</ele>
        <time>2009-10-04T13:26:43Z</time>
      </trkpt>
      <trkpt lat="47.51699" lon="-0.35959">
        <ele>65.4</ele>
        <time>2009-10-04T13:26:44Z</time>
      </trkpt>
      <trkpt lat="47.51702" lon="-0.35957">
        <ele>65.3</ele>
        <time>2009-10-04T13:26:45Z</time>
      </trkpt>
      <trkpt lat="47.51706" lon="-0.35953">
        <ele>65.2</ele>
        <time>2009-10-04T13:26:46Z</time>
      </trkpt>
      <trkpt lat="47.5171" lon="-0.3595">
        <ele>65.1</ele>
        <time>2009-10-04T13:26:47Z</time>
      </trkpt>
      <trkpt lat="47.51713" lon="-0.35945">
        <ele>65</ele>
        <time>2009-10-04T13:26:48Z</time>
      </trkpt>
      <trkpt lat="47.51716" lon="-0.35941">
        <ele>65</ele>
        <time>2009-10-04T13:26:49Z</time>
      </trkpt>
      <trkpt lat="47.51719" lon="-0.35937">
        <ele>65</ele>
        <time>2009-10-04T13:26:50Z</time>
      </trkpt>
      <trkpt lat="47.51722" lon="-0.35933">
        <ele>65</ele>
        <time>2009-10-04T13:26:51Z</time>
      </trkpt>
      <trkpt lat="47.51725" lon="-0.35929">
        <ele>65</ele>
        <time>2009-10-04T13:26:52Z</time>
      </trkpt>
      <trkpt lat="47.5173" lon="-0.35924">
        <ele>65</ele>
        <time>2009-10-04T13:26:53Z</time>
      </trkpt>
      <trkpt lat="47.51735" lon="-0.35919">
        <ele>65</ele>
        <time>2009-10-04T13:26:54Z</time>
      </trkpt>
      <trkpt lat="47.5174" lon="-0.35913">
        <ele>65</ele>
        <time>2009-10-04T13:26:55Z</time>
      </trkpt>
      <trkpt lat="47.5175" lon="-0.35899">
        <ele>65</ele>
        <time>2009-10-04T13:26:57Z</time>
      </trkpt>
      <trkpt lat="47.51754" lon="-0.35893">
        <ele>65</ele>
        <time>2009-10-04T13:26:58Z</time>
      </trkpt>
      <trkpt lat="47.51759" lon="-0.35885">
        <ele>65</ele>
        <time>2009-10-04T13:26:59Z</time>
      </trkpt>
      <trkpt lat="47.51759" lon="-0.35885">
        <ele>65</ele>
        <time>2009-10-04T13:26:59Z</time>
      </trkpt>
      <trkpt lat="47.51769" lon="-0.35874">
        <ele>65</ele>
        <time>2009-10-04T13:27:01Z</time>
      </trkpt>
      <trkpt lat="47.51774" lon="-0.35868">
        <ele>65</ele>
        <time>2009-10-04T13:27:02Z</time>
      </trkpt>
      <trkpt lat="47.51779" lon="-0.35864">
        <ele>65</ele>
        <time>2009-10-04T13:27:03Z</time>
      </trkpt>
      <trkpt lat="47.51785" lon="-0.35859">
        <ele>65</ele>
        <time>2009-10-04T13:27:04Z</time>
      </trkpt>
      <trkpt lat="47.5179" lon="-0.35854">
        <ele>65</ele>
        <time>2009-10-04T13:27:05Z</time>
      </trkpt>
      <trkpt lat="47.51798" lon="-0.35851">
        <ele>65</ele>
        <time>2009-10-04T13:27:06Z</time>
      </trkpt>
      <trkpt lat="47.51802" lon="-0.35848">
        <ele>65</ele>
        <time>2009-10-04T13:27:07Z</time>
      </trkpt>
      <trkpt lat="47.51806" lon="-0.35846">
        <ele>65</ele>
        <time>2009-10-04T13:27:08Z</time>
      </trkpt>
      <trkpt lat="47.51809" lon="-0.35842">
        <ele>65</ele>
        <time>2009-10-04T13:27:09Z</time>
      </trkpt>
      <trkpt lat="47.51812" lon="-0.3584">
        <ele>65</ele>
        <time>2009-10-04T13:27:10Z</time>
      </trkpt>
      <trkpt lat="47.51816" lon="-0.35838">
        <ele>65</ele>
        <time>2009-10-04T13:27:11Z</time>
      </trkpt>
      <trkpt lat="47.5182" lon="-0.35839">
        <ele>65</ele>
        <time>2009-10-04T13:27:12Z</time>
      </trkpt>
      <trkpt lat="47.51824" lon="-0.35837">
        <ele>65</ele>
        <time>2009-10-04T13:27:13Z</time>
      </trkpt>
      <trkpt lat="47.5183" lon="-0.35833">
        <ele>65</ele>
        <time>2009-10-04T13:27:14Z</time>
      </trkpt>
      <trkpt lat="47.51833" lon="-0.35832">
        <ele>65</ele>
        <time>2009-10-04T13:27:15Z</time>
      </trkpt>
      <trkpt lat="47.51836" lon="-0.35829">
        <ele>65</ele>
        <time>2009-10-04T13:27:16Z</time>
      </trkpt>
      <trkpt lat="47.51839" lon="-0.35825">
        <ele>65</ele>
        <time>2009-10-04T13:27:17Z</time>
      </trkpt>
      <trkpt lat="47.51847" lon="-0.35819">
        <ele>65</ele>
        <time>2009-10-04T13:27:18Z</time>
      </trkpt>
      <trkpt lat="47.51856" lon="-0.35809">
        <ele>65</ele>
        <time>2009-10-04T13:27:20Z</time>
      </trkpt>
      <trkpt lat="47.51862" lon="-0.35809">
        <ele>65</ele>
        <time>2009-10-04T13:27:21Z</time>
      </trkpt>
      <trkpt lat="47.51867" lon="-0.35807">
        <ele>65</ele>
        <time>2009-10-04T13:27:22Z</time>
      </trkpt>
      <trkpt lat="47.51872" lon="-0.35802">
        <ele>65</ele>
        <time>2009-10-04T13:27:23Z</time>
      </trkpt>
      <trkpt lat="47.51875" lon="-0.35797">
        <ele>65</ele>
        <time>2009-10-04T13:27:24Z</time>
      </trkpt>
      <trkpt lat="47.51878" lon="-0.35793">
        <ele>65</ele>
        <time>2009-10-04T13:27:25Z</time>
      </trkpt>
      <trkpt lat="47.51883" lon="-0.35789">
        <ele>65</ele>
        <time>2009-10-04T13:27:26Z</time>
      </trkpt>
      <trkpt lat="47.51888" lon="-0.35787">
        <ele>65</ele>
        <time>2009-10-04T13:27:27Z</time>
      </trkpt>
      <trkpt lat="47.51894" lon="-0.35783">
        <ele>65</ele>
        <time>2009-10-04T13:27:28Z</time>
      </trkpt>
      <trkpt lat="47.51898" lon="-0.3578">
        <ele>65</ele>
        <time>2009-10-04T13:27:29Z</time>
      </trkpt>
      <trkpt lat="47.51901" lon="-0.35774">
        <ele>65</ele>
        <time>2009-10-04T13:27:30Z</time>
      </trkpt>
      <trkpt lat="47.51904" lon="-0.3577">
        <ele>65</ele>
        <time>2009-10-04T13:27:31Z</time>
      </trkpt>
      <trkpt lat="47.51906" lon="-0.35766">
        <ele>65</ele>
        <time>2009-10-04T13:27:32Z</time>
      </trkpt>
      <trkpt lat="47.51908" lon="-0.35763">
        <ele>65</ele>
        <time>2009-10-04T13:27:33Z</time>
      </trkpt>
      <trkpt lat="47.5191" lon="-0.3576">
        <ele>65</ele>
        <time>2009-10-04T13:27:34Z</time>
      </trkpt>
      <trkpt lat="47.51912" lon="-0.35756">
        <ele>65</ele>
        <time>2009-10-04T13:27:35Z</time>
      </trkpt>
      <trkpt lat="47.51915" lon="-0.35755">
        <ele>65</ele>
        <time>2009-10-04T13:27:36Z</time>
      </trkpt>
      <trkpt lat="47.51916" lon="-0.35752">
        <ele>65</ele>
        <time>2009-10-04T13:27:37Z</time>
      </trkpt>
      <trkpt lat="47.51919" lon="-0.3575">
        <ele>65</ele>
        <time>2009-10-04T13:27:38Z</time>
      </trkpt>
      <trkpt lat="47.51922" lon="-0.35747">
        <ele>65</ele>
        <time>2009-10-04T13:27:39Z</time>
      </trkpt>
      <trkpt lat="47.51925" lon="-0.35744">
        <ele>65</ele>
        <time>2009-10-04T13:27:40Z</time>
      </trkpt>
      <trkpt lat="47.51927" lon="-0.3574">
        <ele>65</ele>
        <time>2009-10-04T13:27:41Z</time>
      </trkpt>
      <trkpt lat="47.51931" lon="-0.35736">
        <ele>65</ele>
        <time>2009-10-04T13:27:42Z</time>
      </trkpt>
      <trkpt lat="47.51934" lon="-0.35732">
        <ele>65</ele>
        <time>2009-10-04T13:27:43Z</time>
      </trkpt>
      <trkpt lat="47.51938" lon="-0.3573">
        <ele>65</ele>
        <time>2009-10-04T13:27:44Z</time>
      </trkpt>
      <trkpt lat="47.51941" lon="-0.35726">
        <ele>65</ele>
        <time>2009-10-04T13:27:45Z</time>
      </trkpt>
      <trkpt lat="47.51946" lon="-0.35723">
        <ele>65</ele>
        <time>2009-10-04T13:27:46Z</time>
      </trkpt>
      <trkpt lat="47.51949" lon="-0.35719">
        <ele>65</ele>
        <time>2009-10-04T13:27:47Z</time>
      </trkpt>
      <trkpt lat="47.51953" lon="-0.35713">
        <ele>65</ele>
        <time>2009-10-04T13:27:48Z</time>
      </trkpt>
      <trkpt lat="47.51956" lon="-0.3571">
        <ele>65</ele>
        <time>2009-10-04T13:27:49Z</time>
      </trkpt>
      <trkpt lat="47.5196" lon="-0.35707">
        <ele>65</ele>
        <time>2009-10-04T13:27:50Z</time>
      </trkpt>
      <trkpt lat="47.51963" lon="-0.35701">
        <ele>65</ele>
        <time>2009-10-04T13:27:51Z</time>
      </trkpt>
      <trkpt lat="47.51967" lon="-0.35698">
        <ele>65</ele>
        <time>2009-10-04T13:27:52Z</time>
      </trkpt>
      <trkpt lat="47.5197" lon="-0.35696">
        <ele>65</ele>
        <time>2009-10-04T13:27:53Z</time>
      </trkpt>
      <trkpt lat="47.51972" lon="-0.35695">
        <ele>65</ele>
        <time>2009-10-04T13:27:54Z</time>
      </trkpt>
      <trkpt lat="47.51974" lon="-0.35695">
        <ele>65</ele>
        <time>2009-10-04T13:27:55Z</time>
      </trkpt>
      <trkpt lat="47.51976" lon="-0.35695">
        <ele>65</ele>
        <time>2009-10-04T13:27:56Z</time>
      </trkpt>
      <trkpt lat="47.51977" lon="-0.35695">
        <ele>65</ele>
        <time>2009-10-04T13:27:57Z</time>
      </trkpt>
      <trkpt lat="47.51976" lon="-0.35696">
        <ele>65</ele>
        <time>2009-10-04T13:27:58Z</time>
      </trkpt>
      <trkpt lat="47.51977" lon="-0.35696">
        <ele>65</ele>
        <time>2009-10-04T13:27:59Z</time>
      </trkpt>
      <trkpt lat="47.51978" lon="-0.35696">
        <ele>65</ele>
        <time>2009-10-04T13:28:00Z</time>
      </trkpt>
      <trkpt lat="47.51978" lon="-0.35697">
        <ele>65</ele>
        <time>2009-10-04T13:28:01Z</time>
      </trkpt>
      <trkpt lat="47.51979" lon="-0.35697">
        <ele>65</ele>
        <time>2009-10-04T13:28:02Z</time>
      </trkpt>
      <trkpt lat="47.51979" lon="-0.35698">
        <ele>65</ele>
        <time>2009-10-04T13:28:03Z</time>
      </trkpt>
      <trkpt lat="47.51979" lon="-0.35698">
        <ele>65</ele>
        <time>2009-10-04T13:28:04Z</time>
      </trkpt>
      <trkpt lat="47.51981" lon="-0.35698">
        <ele>65</ele>
        <time>2009-10-04T13:28:05Z</time>
      </trkpt>
      <trkpt lat="47.51982" lon="-0.357">
        <ele>65</ele>
        <time>2009-10-04T13:28:06Z</time>
      </trkpt>
      <trkpt lat="47.51983" lon="-0.357">
        <ele>65</ele>
        <time>2009-10-04T13:28:07Z</time>
      </trkpt>
      <trkpt lat="47.51984" lon="-0.35701">
        <ele>65</ele>
        <time>2009-10-04T13:28:08Z</time>
      </trkpt>
      <trkpt lat="47.51985" lon="-0.35701">
        <ele>65</ele>
        <time>2009-10-04T13:28:09Z</time>
      </trkpt>
      <trkpt lat="47.51986" lon="-0.35701">
        <ele>65</ele>
        <time>2009-10-04T13:28:10Z</time>
      </trkpt>
      <trkpt lat="47.51987" lon="-0.35701">
        <ele>65</ele>
        <time>2009-10-04T13:28:11Z</time>
      </trkpt>
      <trkpt lat="47.51988" lon="-0.35701">
        <ele>65</ele>
        <time>2009-10-04T13:28:12Z</time>
      </trkpt>
      <trkpt lat="47.51988" lon="-0.35702">
        <ele>65</ele>
        <time>2009-10-04T13:28:13Z</time>
      </trkpt>
      <trkpt lat="47.5199" lon="-0.35704">
        <ele>65</ele>
        <time>2009-10-04T13:28:15Z</time>
      </trkpt>
      <trkpt lat="47.51991" lon="-0.35705">
        <ele>65</ele>
        <time>2009-10-04T13:28:16Z</time>
      </trkpt>
      <trkpt lat="47.51992" lon="-0.35705">
        <ele>65</ele>
        <time>2009-10-04T13:28:17Z</time>
      </trkpt>
      <trkpt lat="47.51993" lon="-0.35706">
        <ele>65</ele>
        <time>2009-10-04T13:28:18Z</time>
      </trkpt>
      <trkpt lat="47.51994" lon="-0.35706">
        <ele>65</ele>
        <time>2009-10-04T13:28:19Z</time>
      </trkpt>
      <trkpt lat="47.51996" lon="-0.35706">
        <ele>65</ele>
        <time>2009-10-04T13:28:20Z</time>
      </trkpt>
      <trkpt lat="47.51997" lon="-0.35706">
        <ele>65</ele>
        <time>2009-10-04T13:28:21Z</time>
      </trkpt>
      <trkpt lat="47.51997" lon="-0.35706">
        <ele>65</ele>
        <time>2009-10-04T13:28:22Z</time>
      </trkpt>
      <trkpt lat="47.51998" lon="-0.35705">
        <ele>65</ele>
        <time>2009-10-04T13:28:23Z</time>
      </trkpt>
      <trkpt lat="47.51999" lon="-0.35704">
        <ele>65</ele>
        <time>2009-10-04T13:28:24Z</time>
      </trkpt>
      <trkpt lat="47.51999" lon="-0.35703">
        <ele>65</ele>
        <time>2009-10-04T13:28:25Z</time>
      </trkpt>
      <trkpt lat="47.51999" lon="-0.35703">
        <ele>65</ele>
        <time>2009-10-04T13:28:26Z</time>
      </trkpt>
      <trkpt lat="47.51999" lon="-0.35703">
        <ele>65</ele>
        <time>2009-10-04T13:28:27Z</time>
      </trkpt>
      <trkpt lat="47.52001" lon="-0.35703">
        <ele>65</ele>
        <time>2009-10-04T13:28:28Z</time>
      </trkpt>
      <trkpt lat="47.52002" lon="-0.35703">
        <ele>65</ele>
        <time>2009-10-04T13:28:29Z</time>
      </trkpt>
      <trkpt lat="47.52002" lon="-0.35703">
        <ele>65</ele>
        <time>2009-10-04T13:28:30Z</time>
      </trkpt>
      <trkpt lat="47.52003" lon="-0.35703">
        <ele>65</ele>
        <time>2009-10-04T13:28:31Z</time>
      </trkpt>
      <trkpt lat="47.52003" lon="-0.35703">
        <ele>65</ele>
        <time>2009-10-04T13:28:32Z</time>
      </trkpt>
      <trkpt lat="47.52003" lon="-0.35702">
        <ele>65</ele>
        <time>2009-10-04T13:28:33Z</time>
      </trkpt>
      <trkpt lat="47.52002" lon="-0.35701">
        <ele>65</ele>
        <time>2009-10-04T13:28:34Z</time>
      </trkpt>
      <trkpt lat="47.52002" lon="-0.357">
        <ele>65</ele>
        <time>2009-10-04T13:28:35Z</time>
      </trkpt>
      <trkpt lat="47.52001" lon="-0.35699">
        <ele>65</ele>
        <time>2009-10-04T13:28:36Z</time>
      </trkpt>
      <trkpt lat="47.52001" lon="-0.35696">
        <ele>65</ele>
        <time>2009-10-04T13:28:37Z</time>
      </trkpt>
      <trkpt lat="47.52" lon="-0.35693">
        <ele>65</ele>
        <time>2009-10-04T13:28:38Z</time>
      </trkpt>
      <trkpt lat="47.52002" lon="-0.35692">
        <ele>65</ele>
        <time>2009-10-04T13:28:39Z</time>
      </trkpt>
      <trkpt lat="47.52002" lon="-0.3569">
        <ele>65</ele>
        <time>2009-10-04T13:28:40Z</time>
      </trkpt>
      <trkpt lat="47.52003" lon="-0.35689">
        <ele>65</ele>
        <time>2009-10-04T13:28:41Z</time>
      </trkpt>
      <trkpt lat="47.52005" lon="-0.35687">
        <ele>65</ele>
        <time>2009-10-04T13:28:42Z</time>
      </trkpt>
      <trkpt lat="47.52006" lon="-0.35685">
        <ele>65</ele>
        <time>2009-10-04T13:28:43Z</time>
      </trkpt>
      <trkpt lat="47.52007" lon="-0.35684">
        <ele>65</ele>
        <time>2009-10-04T13:28:44Z</time>
      </trkpt>
      <trkpt lat="47.52008" lon="-0.35683">
        <ele>65</ele>
        <time>2009-10-04T13:28:45Z</time>
      </trkpt>
      <trkpt lat="47.52009" lon="-0.35682">
        <ele>65</ele>
        <time>2009-10-04T13:28:46Z</time>
      </trkpt>
      <trkpt lat="47.52011" lon="-0.3568">
        <ele>65</ele>
        <time>2009-10-04T13:28:47Z</time>
      </trkpt>
      <trkpt lat="47.52015" lon="-0.35676">
        <ele>65</ele>
        <time>2009-10-04T13:28:48Z</time>
      </trkpt>
      <trkpt lat="47.52018" lon="-0.35673">
        <ele>65</ele>
        <time>2009-10-04T13:28:49Z</time>
      </trkpt>
      <trkpt lat="47.52021" lon="-0.3567">
        <ele>65</ele>
        <time>2009-10-04T13:28:50Z</time>
      </trkpt>
      <trkpt lat="47.52026" lon="-0.35667">
        <ele>65</ele>
        <time>2009-10-04T13:28:51Z</time>
      </trkpt>
      <trkpt lat="47.5203" lon="-0.35663">
        <ele>64.9</ele>
        <time>2009-10-04T13:28:52Z</time>
      </trkpt>
      <trkpt lat="47.52034" lon="-0.35657">
        <ele>64.9</ele>
        <time>2009-10-04T13:28:53Z</time>
      </trkpt>
      <trkpt lat="47.52038" lon="-0.35651">
        <ele>64.8</ele>
        <time>2009-10-04T13:28:54Z</time>
      </trkpt>
      <trkpt lat="47.52043" lon="-0.35644">
        <ele>64.7</ele>
        <time>2009-10-04T13:28:55Z</time>
      </trkpt>
      <trkpt lat="47.52047" lon="-0.35638">
        <ele>64.7</ele>
        <time>2009-10-04T13:28:56Z</time>
      </trkpt>
      <trkpt lat="47.52052" lon="-0.35632">
        <ele>64.9</ele>
        <time>2009-10-04T13:28:57Z</time>
      </trkpt>
      <trkpt lat="47.52058" lon="-0.35627">
        <ele>65.1</ele>
        <time>2009-10-04T13:28:58Z</time>
      </trkpt>
      <trkpt lat="47.52065" lon="-0.3562">
        <ele>65.3</ele>
        <time>2009-10-04T13:28:59Z</time>
      </trkpt>
      <trkpt lat="47.52072" lon="-0.35617">
        <ele>65.6</ele>
        <time>2009-10-04T13:29:00Z</time>
      </trkpt>
      <trkpt lat="47.52078" lon="-0.35612">
        <ele>65.8</ele>
        <time>2009-10-04T13:29:01Z</time>
      </trkpt>
      <trkpt lat="47.52084" lon="-0.35605">
        <ele>65.8</ele>
        <time>2009-10-04T13:29:02Z</time>
      </trkpt>
      <trkpt lat="47.52089" lon="-0.35598">
        <ele>65.6</ele>
        <time>2009-10-04T13:29:03Z</time>
      </trkpt>
      <trkpt lat="47.52096" lon="-0.35592">
        <ele>65.6</ele>
        <time>2009-10-04T13:29:04Z</time>
      </trkpt>
      <trkpt lat="47.52103" lon="-0.35587">
        <ele>65.7</ele>
        <time>2009-10-04T13:29:05Z</time>
      </trkpt>
      <trkpt lat="47.5211" lon="-0.35583">
        <ele>65.9</ele>
        <time>2009-10-04T13:29:06Z</time>
      </trkpt>
      <trkpt lat="47.52121" lon="-0.35571">
        <ele>65.4</ele>
        <time>2009-10-04T13:29:08Z</time>
      </trkpt>
      <trkpt lat="47.52126" lon="-0.35563">
        <ele>65.1</ele>
        <time>2009-10-04T13:29:09Z</time>
      </trkpt>
      <trkpt lat="47.52131" lon="-0.35558">
        <ele>65</ele>
        <time>2009-10-04T13:29:10Z</time>
      </trkpt>
      <trkpt lat="47.52136" lon="-0.35553">
        <ele>64.9</ele>
        <time>2009-10-04T13:29:11Z</time>
      </trkpt>
      <trkpt lat="47.5214" lon="-0.35547">
        <ele>64.7</ele>
        <time>2009-10-04T13:29:12Z</time>
      </trkpt>
      <trkpt lat="47.52145" lon="-0.35543">
        <ele>64.4</ele>
        <time>2009-10-04T13:29:13Z</time>
      </trkpt>
      <trkpt lat="47.5215" lon="-0.35537">
        <ele>64.2</ele>
        <time>2009-10-04T13:29:14Z</time>
      </trkpt>
      <trkpt lat="47.52155" lon="-0.35532">
        <ele>64.1</ele>
        <time>2009-10-04T13:29:15Z</time>
      </trkpt>
      <trkpt lat="47.52159" lon="-0.35526">
        <ele>64</ele>
        <time>2009-10-04T13:29:16Z</time>
      </trkpt>
      <trkpt lat="47.52163" lon="-0.35521">
        <ele>64</ele>
        <time>2009-10-04T13:29:17Z</time>
      </trkpt>
      <trkpt lat="47.52167" lon="-0.35515">
        <ele>64</ele>
        <time>2009-10-04T13:29:18Z</time>
      </trkpt>
      <trkpt lat="47.52171" lon="-0.3551">
        <ele>64</ele>
        <time>2009-10-04T13:29:19Z</time>
      </trkpt>
      <trkpt lat="47.52181" lon="-0.35501">
        <ele>64</ele>
        <time>2009-10-04T13:29:21Z</time>
      </trkpt>
      <trkpt lat="47.52186" lon="-0.35496">
        <ele>64</ele>
        <time>2009-10-04T13:29:22Z</time>
      </trkpt>
      <trkpt lat="47.5219" lon="-0.35491">
        <ele>64</ele>
        <time>2009-10-04T13:29:23Z</time>
      </trkpt>
      <trkpt lat="47.52195" lon="-0.35486">
        <ele>64</ele>
        <time>2009-10-04T13:29:24Z</time>
      </trkpt>
      <trkpt lat="47.52199" lon="-0.3548">
        <ele>63.8</ele>
        <time>2009-10-04T13:29:25Z</time>
      </trkpt>
      <trkpt lat="47.52203" lon="-0.35475">
        <ele>63.7</ele>
        <time>2009-10-04T13:29:26Z</time>
      </trkpt>
      <trkpt lat="47.52207" lon="-0.3547">
        <ele>63.6</ele>
        <time>2009-10-04T13:29:27Z</time>
      </trkpt>
      <trkpt lat="47.5221" lon="-0.35465">
        <ele>63.6</ele>
        <time>2009-10-04T13:29:28Z</time>
      </trkpt>
      <trkpt lat="47.52213" lon="-0.35461">
        <ele>63.6</ele>
        <time>2009-10-04T13:29:29Z</time>
      </trkpt>
      <trkpt lat="47.52215" lon="-0.35458">
        <ele>63.6</ele>
        <time>2009-10-04T13:29:30Z</time>
      </trkpt>
      <trkpt lat="47.52216" lon="-0.35455">
        <ele>63.7</ele>
        <time>2009-10-04T13:29:31Z</time>
      </trkpt>
      <trkpt lat="47.52219" lon="-0.35452">
        <ele>63.8</ele>
        <time>2009-10-04T13:29:32Z</time>
      </trkpt>
      <trkpt lat="47.52221" lon="-0.3545">
        <ele>63.8</ele>
        <time>2009-10-04T13:29:33Z</time>
      </trkpt>
      <trkpt lat="47.52222" lon="-0.35448">
        <ele>63.9</ele>
        <time>2009-10-04T13:29:34Z</time>
      </trkpt>
      <trkpt lat="47.52223" lon="-0.35446">
        <ele>63.9</ele>
        <time>2009-10-04T13:29:35Z</time>
      </trkpt>
      <trkpt lat="47.52225" lon="-0.35445">
        <ele>63.9</ele>
        <time>2009-10-04T13:29:36Z</time>
      </trkpt>
      <trkpt lat="47.52227" lon="-0.35444">
        <ele>63.8</ele>
        <time>2009-10-04T13:29:37Z</time>
      </trkpt>
      <trkpt lat="47.52229" lon="-0.35442">
        <ele>63.8</ele>
        <time>2009-10-04T13:29:38Z</time>
      </trkpt>
      <trkpt lat="47.52231" lon="-0.3544">
        <ele>63.7</ele>
        <time>2009-10-04T13:29:39Z</time>
      </trkpt>
      <trkpt lat="47.52232" lon="-0.35438">
        <ele>63.6</ele>
        <time>2009-10-04T13:29:40Z</time>
      </trkpt>
      <trkpt lat="47.52234" lon="-0.35436">
        <ele>63.6</ele>
        <time>2009-10-04T13:29:41Z</time>
      </trkpt>
      <trkpt lat="47.52237" lon="-0.35434">
        <ele>63.5</ele>
        <time>2009-10-04T13:29:42Z</time>
      </trkpt>
      <trkpt lat="47.52239" lon="-0.35432">
        <ele>63.4</ele>
        <time>2009-10-04T13:29:43Z</time>
      </trkpt>
      <trkpt lat="47.5224" lon="-0.35431">
        <ele>63.4</ele>
        <time>2009-10-04T13:29:44Z</time>
      </trkpt>
      <trkpt lat="47.52241" lon="-0.35428">
        <ele>63.3</ele>
        <time>2009-10-04T13:29:45Z</time>
      </trkpt>
      <trkpt lat="47.52243" lon="-0.35425">
        <ele>63.2</ele>
        <time>2009-10-04T13:29:46Z</time>
      </trkpt>
      <trkpt lat="47.52246" lon="-0.35422">
        <ele>63.1</ele>
        <time>2009-10-04T13:29:47Z</time>
      </trkpt>
      <trkpt lat="47.52248" lon="-0.35418">
        <ele>63.1</ele>
        <time>2009-10-04T13:29:48Z</time>
      </trkpt>
      <trkpt lat="47.52251" lon="-0.35414">
        <ele>63</ele>
        <time>2009-10-04T13:29:49Z</time>
      </trkpt>
      <trkpt lat="47.52252" lon="-0.35408">
        <ele>62.9</ele>
        <time>2009-10-04T13:29:50Z</time>
      </trkpt>
      <trkpt lat="47.52251" lon="-0.35402">
        <ele>63</ele>
        <time>2009-10-04T13:29:51Z</time>
      </trkpt>
      <trkpt lat="47.52251" lon="-0.35397">
        <ele>63</ele>
        <time>2009-10-04T13:29:52Z</time>
      </trkpt>
      <trkpt lat="47.5225" lon="-0.35392">
        <ele>63</ele>
        <time>2009-10-04T13:29:53Z</time>
      </trkpt>
      <trkpt lat="47.52249" lon="-0.35387">
        <ele>63</ele>
        <time>2009-10-04T13:29:54Z</time>
      </trkpt>
      <trkpt lat="47.52248" lon="-0.35384">
        <ele>63.1</ele>
        <time>2009-10-04T13:29:55Z</time>
      </trkpt>
      <trkpt lat="47.52246" lon="-0.35379">
        <ele>63.1</ele>
        <time>2009-10-04T13:29:56Z</time>
      </trkpt>
      <trkpt lat="47.52245" lon="-0.35374">
        <ele>63.2</ele>
        <time>2009-10-04T13:29:57Z</time>
      </trkpt>
      <trkpt lat="47.52243" lon="-0.35366">
        <ele>63.3</ele>
        <time>2009-10-04T13:29:58Z</time>
      </trkpt>
      <trkpt lat="47.52242" lon="-0.35361">
        <ele>63.3</ele>
        <time>2009-10-04T13:29:59Z</time>
      </trkpt>
      <trkpt lat="47.52241" lon="-0.35356">
        <ele>63.3</ele>
        <time>2009-10-04T13:30:00Z</time>
      </trkpt>
      <trkpt lat="47.5224" lon="-0.35351">
        <ele>63.2</ele>
        <time>2009-10-04T13:30:01Z</time>
      </trkpt>
      <trkpt lat="47.52238" lon="-0.35346">
        <ele>63.2</ele>
        <time>2009-10-04T13:30:02Z</time>
      </trkpt>
      <trkpt lat="47.52235" lon="-0.35338">
        <ele>63.1</ele>
        <time>2009-10-04T13:30:03Z</time>
      </trkpt>
      <trkpt lat="47.52231" lon="-0.3533">
        <ele>63</ele>
        <time>2009-10-04T13:30:04Z</time>
      </trkpt>
      <trkpt lat="47.52227" lon="-0.35324">
        <ele>63</ele>
        <time>2009-10-04T13:30:05Z</time>
      </trkpt>
      <trkpt lat="47.52223" lon="-0.35318">
        <ele>63</ele>
        <time>2009-10-04T13:30:06Z</time>
      </trkpt>
      <trkpt lat="47.52219" lon="-0.35311">
        <ele>63</ele>
        <time>2009-10-04T13:30:07Z</time>
      </trkpt>
      <trkpt lat="47.52216" lon="-0.35305">
        <ele>63</ele>
        <time>2009-10-04T13:30:08Z</time>
      </trkpt>
      <trkpt lat="47.52214" lon="-0.35298">
        <ele>63</ele>
        <time>2009-10-04T13:30:09Z</time>
      </trkpt>
      <trkpt lat="47.52211" lon="-0.35292">
        <ele>63</ele>
        <time>2009-10-04T13:30:10Z</time>
      </trkpt>
      <trkpt lat="47.52207" lon="-0.35286">
        <ele>63</ele>
        <time>2009-10-04T13:30:11Z</time>
      </trkpt>
      <trkpt lat="47.52205" lon="-0.35278">
        <ele>63</ele>
        <time>2009-10-04T13:30:12Z</time>
      </trkpt>
      <trkpt lat="47.52205" lon="-0.35266">
        <ele>63</ele>
        <time>2009-10-04T13:30:13Z</time>
      </trkpt>
      <trkpt lat="47.52208" lon="-0.35257">
        <ele>63</ele>
        <time>2009-10-04T13:30:14Z</time>
      </trkpt>
      <trkpt lat="47.5221" lon="-0.35249">
        <ele>63</ele>
        <time>2009-10-04T13:30:15Z</time>
      </trkpt>
      <trkpt lat="47.5221" lon="-0.35242">
        <ele>63</ele>
        <time>2009-10-04T13:30:16Z</time>
      </trkpt>
      <trkpt lat="47.52211" lon="-0.35235">
        <ele>63</ele>
        <time>2009-10-04T13:30:17Z</time>
      </trkpt>
      <trkpt lat="47.52213" lon="-0.35229">
        <ele>63</ele>
        <time>2009-10-04T13:30:18Z</time>
      </trkpt>
      <trkpt lat="47.52217" lon="-0.35222">
        <ele>63</ele>
        <time>2009-10-04T13:30:19Z</time>
      </trkpt>
      <trkpt lat="47.52221" lon="-0.35216">
        <ele>62.8</ele>
        <time>2009-10-04T13:30:20Z</time>
      </trkpt>
      <trkpt lat="47.52226" lon="-0.35207">
        <ele>62.5</ele>
        <time>2009-10-04T13:30:21Z</time>
      </trkpt>
      <trkpt lat="47.52229" lon="-0.35199">
        <ele>62.2</ele>
        <time>2009-10-04T13:30:22Z</time>
      </trkpt>
      <trkpt lat="47.52233" lon="-0.3519">
        <ele>62</ele>
        <time>2009-10-04T13:30:23Z</time>
      </trkpt>
      <trkpt lat="47.52237" lon="-0.35183">
        <ele>62</ele>
        <time>2009-10-04T13:30:24Z</time>
      </trkpt>
      <trkpt lat="47.52242" lon="-0.35173">
        <ele>62</ele>
        <time>2009-10-04T13:30:25Z</time>
      </trkpt>
      <trkpt lat="47.52246" lon="-0.35163">
        <ele>62</ele>
        <time>2009-10-04T13:30:26Z</time>
      </trkpt>
      <trkpt lat="47.5225" lon="-0.35153">
        <ele>62</ele>
        <time>2009-10-04T13:30:27Z</time>
      </trkpt>
      <trkpt lat="47.52253" lon="-0.35144">
        <ele>62</ele>
        <time>2009-10-04T13:30:28Z</time>
      </trkpt>
      <trkpt lat="47.52255" lon="-0.35135">
        <ele>62</ele>
        <time>2009-10-04T13:30:29Z</time>
      </trkpt>
      <trkpt lat="47.52258" lon="-0.35126">
        <ele>62</ele>
        <time>2009-10-04T13:30:30Z</time>
      </trkpt>
      <trkpt lat="47.52263" lon="-0.35119">
        <ele>62</ele>
        <time>2009-10-04T13:30:31Z</time>
      </trkpt>
      <trkpt lat="47.52268" lon="-0.35111">
        <ele>62</ele>
        <time>2009-10-04T13:30:32Z</time>
      </trkpt>
      <trkpt lat="47.52273" lon="-0.35102">
        <ele>62</ele>
        <time>2009-10-04T13:30:33Z</time>
      </trkpt>
      <trkpt lat="47.5228" lon="-0.35088">
        <ele>61.9</ele>
        <time>2009-10-04T13:30:35Z</time>
      </trkpt>
      <trkpt lat="47.52288" lon="-0.3507">
        <ele>61.3</ele>
        <time>2009-10-04T13:30:37Z</time>
      </trkpt>
      <trkpt lat="47.52292" lon="-0.35063">
        <ele>61.1</ele>
        <time>2009-10-04T13:30:38Z</time>
      </trkpt>
      <trkpt lat="47.52296" lon="-0.35054">
        <ele>61</ele>
        <time>2009-10-04T13:30:39Z</time>
      </trkpt>
      <trkpt lat="47.523" lon="-0.35047">
        <ele>61</ele>
        <time>2009-10-04T13:30:40Z</time>
      </trkpt>
      <trkpt lat="47.52304" lon="-0.35038">
        <ele>61</ele>
        <time>2009-10-04T13:30:41Z</time>
      </trkpt>
      <trkpt lat="47.52307" lon="-0.3503">
        <ele>60.9</ele>
        <time>2009-10-04T13:30:42Z</time>
      </trkpt>
      <trkpt lat="47.5231" lon="-0.35023">
        <ele>60.8</ele>
        <time>2009-10-04T13:30:43Z</time>
      </trkpt>
      <trkpt lat="47.52313" lon="-0.35017">
        <ele>60.7</ele>
        <time>2009-10-04T13:30:44Z</time>
      </trkpt>
      <trkpt lat="47.52316" lon="-0.3501">
        <ele>60.6</ele>
        <time>2009-10-04T13:30:45Z</time>
      </trkpt>
      <trkpt lat="47.5232" lon="-0.35003">
        <ele>60.5</ele>
        <time>2009-10-04T13:30:46Z</time>
      </trkpt>
      <trkpt lat="47.52324" lon="-0.34996">
        <ele>60.4</ele>
        <time>2009-10-04T13:30:47Z</time>
      </trkpt>
      <trkpt lat="47.52327" lon="-0.3499">
        <ele>60.2</ele>
        <time>2009-10-04T13:30:48Z</time>
      </trkpt>
      <trkpt lat="47.5233" lon="-0.34983">
        <ele>60.1</ele>
        <time>2009-10-04T13:30:49Z</time>
      </trkpt>
      <trkpt lat="47.52333" lon="-0.34976">
        <ele>60</ele>
        <time>2009-10-04T13:30:50Z</time>
      </trkpt>
      <trkpt lat="47.52335" lon="-0.34968">
        <ele>60</ele>
        <time>2009-10-04T13:30:51Z</time>
      </trkpt>
      <trkpt lat="47.52338" lon="-0.3496">
        <ele>60</ele>
        <time>2009-10-04T13:30:52Z</time>
      </trkpt>
      <trkpt lat="47.52341" lon="-0.34951">
        <ele>60</ele>
        <time>2009-10-04T13:30:53Z</time>
      </trkpt>
      <trkpt lat="47.52344" lon="-0.34942">
        <ele>60</ele>
        <time>2009-10-04T13:30:54Z</time>
      </trkpt>
      <trkpt lat="47.52346" lon="-0.34938">
        <ele>59.9</ele>
        <time>2009-10-04T13:30:55Z</time>
      </trkpt>
      <trkpt lat="47.52348" lon="-0.3493">
        <ele>59.7</ele>
        <time>2009-10-04T13:30:56Z</time>
      </trkpt>
      <trkpt lat="47.52348" lon="-0.3493">
        <ele>59.7</ele>
        <time>2009-10-04T13:30:56Z</time>
      </trkpt>
      <trkpt lat="47.52354" lon="-0.3491">
        <ele>59.2</ele>
        <time>2009-10-04T13:30:58Z</time>
      </trkpt>
      <trkpt lat="47.52357" lon="-0.34902">
        <ele>59.1</ele>
        <time>2009-10-04T13:30:59Z</time>
      </trkpt>
      <trkpt lat="47.52359" lon="-0.34896">
        <ele>59</ele>
        <time>2009-10-04T13:31:00Z</time>
      </trkpt>
      <trkpt lat="47.52362" lon="-0.34888">
        <ele>59</ele>
        <time>2009-10-04T13:31:01Z</time>
      </trkpt>
      <trkpt lat="47.52365" lon="-0.34881">
        <ele>58.6</ele>
        <time>2009-10-04T13:31:02Z</time>
      </trkpt>
      <trkpt lat="47.5237" lon="-0.34872">
        <ele>58.3</ele>
        <time>2009-10-04T13:31:03Z</time>
      </trkpt>
      <trkpt lat="47.52373" lon="-0.34864">
        <ele>58.1</ele>
        <time>2009-10-04T13:31:04Z</time>
      </trkpt>
      <trkpt lat="47.52377" lon="-0.34854">
        <ele>57.9</ele>
        <time>2009-10-04T13:31:05Z</time>
      </trkpt>
      <trkpt lat="47.52381" lon="-0.34846">
        <ele>57.6</ele>
        <time>2009-10-04T13:31:06Z</time>
      </trkpt>
      <trkpt lat="47.52385" lon="-0.34838">
        <ele>57.3</ele>
        <time>2009-10-04T13:31:07Z</time>
      </trkpt>
      <trkpt lat="47.52388" lon="-0.3483">
        <ele>57</ele>
        <time>2009-10-04T13:31:08Z</time>
      </trkpt>
      <trkpt lat="47.52393" lon="-0.34821">
        <ele>56.9</ele>
        <time>2009-10-04T13:31:09Z</time>
      </trkpt>
      <trkpt lat="47.52399" lon="-0.34812">
        <ele>56.7</ele>
        <time>2009-10-04T13:31:10Z</time>
      </trkpt>
      <trkpt lat="47.52403" lon="-0.34804">
        <ele>56.5</ele>
        <time>2009-10-04T13:31:11Z</time>
      </trkpt>
      <trkpt lat="47.52406" lon="-0.34797">
        <ele>56.3</ele>
        <time>2009-10-04T13:31:12Z</time>
      </trkpt>
      <trkpt lat="47.52409" lon="-0.3479">
        <ele>56.1</ele>
        <time>2009-10-04T13:31:13Z</time>
      </trkpt>
      <trkpt lat="47.52414" lon="-0.34783">
        <ele>56</ele>
        <time>2009-10-04T13:31:14Z</time>
      </trkpt>
      <trkpt lat="47.52418" lon="-0.34774">
        <ele>55.8</ele>
        <time>2009-10-04T13:31:15Z</time>
      </trkpt>
      <trkpt lat="47.52422" lon="-0.34766">
        <ele>55.5</ele>
        <time>2009-10-04T13:31:16Z</time>
      </trkpt>
      <trkpt lat="47.52424" lon="-0.34758">
        <ele>55.2</ele>
        <time>2009-10-04T13:31:17Z</time>
      </trkpt>
      <trkpt lat="47.5243" lon="-0.3475">
        <ele>55</ele>
        <time>2009-10-04T13:31:18Z</time>
      </trkpt>
      <trkpt lat="47.5243" lon="-0.34742">
        <ele>54.7</ele>
        <time>2009-10-04T13:31:19Z</time>
      </trkpt>
      <trkpt lat="47.52433" lon="-0.34734">
        <ele>54.4</ele>
        <time>2009-10-04T13:31:20Z</time>
      </trkpt>
      <trkpt lat="47.52435" lon="-0.34725">
        <ele>54.1</ele>
        <time>2009-10-04T13:31:21Z</time>
      </trkpt>
      <trkpt lat="47.52439" lon="-0.34717">
        <ele>53.8</ele>
        <time>2009-10-04T13:31:22Z</time>
      </trkpt>
      <trkpt lat="47.52442" lon="-0.34707">
        <ele>53.4</ele>
        <time>2009-10-04T13:31:23Z</time>
      </trkpt>
      <trkpt lat="47.52445" lon="-0.34698">
        <ele>53.1</ele>
        <time>2009-10-04T13:31:24Z</time>
      </trkpt>
      <trkpt lat="47.52449" lon="-0.34688">
        <ele>52.6</ele>
        <time>2009-10-04T13:31:25Z</time>
      </trkpt>
      <trkpt lat="47.52453" lon="-0.34679">
        <ele>52.3</ele>
        <time>2009-10-04T13:31:26Z</time>
      </trkpt>
      <trkpt lat="47.52457" lon="-0.34671">
        <ele>52.1</ele>
        <time>2009-10-04T13:31:27Z</time>
      </trkpt>
      <trkpt lat="47.52462" lon="-0.34663">
        <ele>51.8</ele>
        <time>2009-10-04T13:31:28Z</time>
      </trkpt>
      <trkpt lat="47.52466" lon="-0.34655">
        <ele>51.2</ele>
        <time>2009-10-04T13:31:29Z</time>
      </trkpt>
      <trkpt lat="47.52472" lon="-0.34647">
        <ele>50.6</ele>
        <time>2009-10-04T13:31:30Z</time>
      </trkpt>
      <trkpt lat="47.52477" lon="-0.34637">
        <ele>49.9</ele>
        <time>2009-10-04T13:31:31Z</time>
      </trkpt>
      <trkpt lat="47.52481" lon="-0.34629">
        <ele>49.6</ele>
        <time>2009-10-04T13:31:32Z</time>
      </trkpt>
      <trkpt lat="47.52485" lon="-0.34621">
        <ele>49.4</ele>
        <time>2009-10-04T13:31:33Z</time>
      </trkpt>
      <trkpt lat="47.52493" lon="-0.34617">
        <ele>49.2</ele>
        <time>2009-10-04T13:31:34Z</time>
      </trkpt>
      <trkpt lat="47.52499" lon="-0.34611">
        <ele>49</ele>
        <time>2009-10-04T13:31:35Z</time>
      </trkpt>
      <trkpt lat="47.52506" lon="-0.34604">
        <ele>48.5</ele>
        <time>2009-10-04T13:31:36Z</time>
      </trkpt>
      <trkpt lat="47.52514" lon="-0.34598">
        <ele>48</ele>
        <time>2009-10-04T13:31:37Z</time>
      </trkpt>
      <trkpt lat="47.52521" lon="-0.34592">
        <ele>47.6</ele>
        <time>2009-10-04T13:31:38Z</time>
      </trkpt>
      <trkpt lat="47.52528" lon="-0.34584">
        <ele>47</ele>
        <time>2009-10-04T13:31:39Z</time>
      </trkpt>
      <trkpt lat="47.52536" lon="-0.3458">
        <ele>46.6</ele>
        <time>2009-10-04T13:31:40Z</time>
      </trkpt>
      <trkpt lat="47.52543" lon="-0.34571">
        <ele>46</ele>
        <time>2009-10-04T13:31:41Z</time>
      </trkpt>
      <trkpt lat="47.52551" lon="-0.34563">
        <ele>45.4</ele>
        <time>2009-10-04T13:31:42Z</time>
      </trkpt>
      <trkpt lat="47.5256" lon="-0.34556">
        <ele>44.8</ele>
        <time>2009-10-04T13:31:43Z</time>
      </trkpt>
      <trkpt lat="47.52569" lon="-0.34549">
        <ele>44</ele>
        <time>2009-10-04T13:31:44Z</time>
      </trkpt>
      <trkpt lat="47.52577" lon="-0.34542">
        <ele>43.2</ele>
        <time>2009-10-04T13:31:45Z</time>
      </trkpt>
      <trkpt lat="47.52587" lon="-0.34535">
        <ele>42.4</ele>
        <time>2009-10-04T13:31:46Z</time>
      </trkpt>
      <trkpt lat="47.52595" lon="-0.34528">
        <ele>41.6</ele>
        <time>2009-10-04T13:31:47Z</time>
      </trkpt>
      <trkpt lat="47.526" lon="-0.34522">
        <ele>41.4</ele>
        <time>2009-10-04T13:31:48Z</time>
      </trkpt>
      <trkpt lat="47.52604" lon="-0.34516">
        <ele>41.3</ele>
        <time>2009-10-04T13:31:49Z</time>
      </trkpt>
      <trkpt lat="47.52607" lon="-0.34511">
        <ele>41.1</ele>
        <time>2009-10-04T13:31:50Z</time>
      </trkpt>
      <trkpt lat="47.52607" lon="-0.34503">
        <ele>41.1</ele>
        <time>2009-10-04T13:31:51Z</time>
      </trkpt>
      <trkpt lat="47.52607" lon="-0.345">
        <ele>41.2</ele>
        <time>2009-10-04T13:31:52Z</time>
      </trkpt>
      <trkpt lat="47.52601" lon="-0.34499">
        <ele>41.4</ele>
        <time>2009-10-04T13:31:53Z</time>
      </trkpt>
      <trkpt lat="47.52598" lon="-0.34497">
        <ele>41.5</ele>
        <time>2009-10-04T13:31:54Z</time>
      </trkpt>
      <trkpt lat="47.52593" lon="-0.34497">
        <ele>41.7</ele>
        <time>2009-10-04T13:31:55Z</time>
      </trkpt>
      <trkpt lat="47.52591" lon="-0.34497">
        <ele>41.7</ele>
        <time>2009-10-04T13:31:56Z</time>
      </trkpt>
      <trkpt lat="47.52589" lon="-0.34497">
        <ele>41.8</ele>
        <time>2009-10-04T13:31:57Z</time>
      </trkpt>
      <trkpt lat="47.52588" lon="-0.34496">
        <ele>41.9</ele>
        <time>2009-10-04T13:31:58Z</time>
      </trkpt>
      <trkpt lat="47.52587" lon="-0.34496">
        <ele>41.9</ele>
        <time>2009-10-04T13:31:59Z</time>
      </trkpt>
      <trkpt lat="47.52586" lon="-0.34496">
        <ele>41.9</ele>
        <time>2009-10-04T13:32:00Z</time>
      </trkpt>
      <trkpt lat="47.52586" lon="-0.34497">
        <ele>41.9</ele>
        <time>2009-10-04T13:32:01Z</time>
      </trkpt>
      <trkpt lat="47.52585" lon="-0.34497">
        <ele>41.9</ele>
        <time>2009-10-04T13:32:02Z</time>
      </trkpt>
      <trkpt lat="47.52584" lon="-0.34496">
        <ele>42</ele>
        <time>2009-10-04T13:32:03Z</time>
      </trkpt>
      <trkpt lat="47.52583" lon="-0.34496">
        <ele>42</ele>
        <time>2009-10-04T13:32:04Z</time>
      </trkpt>
      <trkpt lat="47.52582" lon="-0.34496">
        <ele>42.1</ele>
        <time>2009-10-04T13:32:05Z</time>
      </trkpt>
      <trkpt lat="47.5258" lon="-0.34492">
        <ele>42.1</ele>
        <time>2009-10-04T13:32:06Z</time>
      </trkpt>
      <trkpt lat="47.52578" lon="-0.34491">
        <ele>42.2</ele>
        <time>2009-10-04T13:32:07Z</time>
      </trkpt>
      <trkpt lat="47.52576" lon="-0.34488">
        <ele>42.3</ele>
        <time>2009-10-04T13:32:08Z</time>
      </trkpt>
      <trkpt lat="47.52573" lon="-0.34487">
        <ele>42.4</ele>
        <time>2009-10-04T13:32:09Z</time>
      </trkpt>
      <trkpt lat="47.52569" lon="-0.34485">
        <ele>42.5</ele>
        <time>2009-10-04T13:32:10Z</time>
      </trkpt>
      <trkpt lat="47.52563" lon="-0.34481">
        <ele>42.7</ele>
        <time>2009-10-04T13:32:12Z</time>
      </trkpt>
      <trkpt lat="47.52559" lon="-0.3448">
        <ele>42.9</ele>
        <time>2009-10-04T13:32:13Z</time>
      </trkpt>
      <trkpt lat="47.52551" lon="-0.34477">
        <ele>43</ele>
        <time>2009-10-04T13:32:15Z</time>
      </trkpt>
      <trkpt lat="47.52549" lon="-0.34475">
        <ele>43</ele>
        <time>2009-10-04T13:32:16Z</time>
      </trkpt>
      <trkpt lat="47.52546" lon="-0.34472">
        <ele>43</ele>
        <time>2009-10-04T13:32:17Z</time>
      </trkpt>
      <trkpt lat="47.52543" lon="-0.34471">
        <ele>43.1</ele>
        <time>2009-10-04T13:32:18Z</time>
      </trkpt>
      <trkpt lat="47.5254" lon="-0.34469">
        <ele>43.2</ele>
        <time>2009-10-04T13:32:19Z</time>
      </trkpt>
      <trkpt lat="47.52536" lon="-0.34467">
        <ele>43.4</ele>
        <time>2009-10-04T13:32:20Z</time>
      </trkpt>
      <trkpt lat="47.52533" lon="-0.34465">
        <ele>43.5</ele>
        <time>2009-10-04T13:32:21Z</time>
      </trkpt>
      <trkpt lat="47.52529" lon="-0.34462">
        <ele>43.7</ele>
        <time>2009-10-04T13:32:22Z</time>
      </trkpt>
      <trkpt lat="47.52525" lon="-0.3446">
        <ele>43.8</ele>
        <time>2009-10-04T13:32:23Z</time>
      </trkpt>
      <trkpt lat="47.52522" lon="-0.34458">
        <ele>43.9</ele>
        <time>2009-10-04T13:32:24Z</time>
      </trkpt>
      <trkpt lat="47.52519" lon="-0.34455">
        <ele>44.1</ele>
        <time>2009-10-04T13:32:25Z</time>
      </trkpt>
      <trkpt lat="47.52515" lon="-0.34453">
        <ele>44.1</ele>
        <time>2009-10-04T13:32:26Z</time>
      </trkpt>
      <trkpt lat="47.52512" lon="-0.34451">
        <ele>44.1</ele>
        <time>2009-10-04T13:32:27Z</time>
      </trkpt>
      <trkpt lat="47.52508" lon="-0.3445">
        <ele>44</ele>
        <time>2009-10-04T13:32:28Z</time>
      </trkpt>
      <trkpt lat="47.52505" lon="-0.34449">
        <ele>44</ele>
        <time>2009-10-04T13:32:29Z</time>
      </trkpt>
      <trkpt lat="47.525" lon="-0.34445">
        <ele>44</ele>
        <time>2009-10-04T13:32:30Z</time>
      </trkpt>
      <trkpt lat="47.52497" lon="-0.34443">
        <ele>44.1</ele>
        <time>2009-10-04T13:32:31Z</time>
      </trkpt>
      <trkpt lat="47.52494" lon="-0.3444">
        <ele>44.2</ele>
        <time>2009-10-04T13:32:32Z</time>
      </trkpt>
      <trkpt lat="47.52491" lon="-0.34436">
        <ele>44.4</ele>
        <time>2009-10-04T13:32:33Z</time>
      </trkpt>
      <trkpt lat="47.52489" lon="-0.34433">
        <ele>44.5</ele>
        <time>2009-10-04T13:32:34Z</time>
      </trkpt>
      <trkpt lat="47.52486" lon="-0.34429">
        <ele>44.6</ele>
        <time>2009-10-04T13:32:35Z</time>
      </trkpt>
      <trkpt lat="47.52483" lon="-0.34423">
        <ele>44.6</ele>
        <time>2009-10-04T13:32:36Z</time>
      </trkpt>
      <trkpt lat="47.52481" lon="-0.34419">
        <ele>44.6</ele>
        <time>2009-10-04T13:32:37Z</time>
      </trkpt>
      <trkpt lat="47.52478" lon="-0.34416">
        <ele>44.4</ele>
        <time>2009-10-04T13:32:38Z</time>
      </trkpt>
      <trkpt lat="47.52475" lon="-0.34413">
        <ele>44.4</ele>
        <time>2009-10-04T13:32:39Z</time>
      </trkpt>
      <trkpt lat="47.52473" lon="-0.34408">
        <ele>44.4</ele>
        <time>2009-10-04T13:32:40Z</time>
      </trkpt>
      <trkpt lat="47.52469" lon="-0.34404">
        <ele>44.5</ele>
        <time>2009-10-04T13:32:41Z</time>
      </trkpt>
      <trkpt lat="47.52465" lon="-0.344">
        <ele>44.7</ele>
        <time>2009-10-04T13:32:42Z</time>
      </trkpt>
      <trkpt lat="47.52462" lon="-0.34396">
        <ele>44.8</ele>
        <time>2009-10-04T13:32:43Z</time>
      </trkpt>
      <trkpt lat="47.52459" lon="-0.34392">
        <ele>44.9</ele>
        <time>2009-10-04T13:32:44Z</time>
      </trkpt>
      <trkpt lat="47.52455" lon="-0.34389">
        <ele>45</ele>
        <time>2009-10-04T13:32:45Z</time>
      </trkpt>
      <trkpt lat="47.52449" lon="-0.34387">
        <ele>45</ele>
        <time>2009-10-04T13:32:46Z</time>
      </trkpt>
      <trkpt lat="47.52443" lon="-0.34386">
        <ele>45</ele>
        <time>2009-10-04T13:32:47Z</time>
      </trkpt>
      <trkpt lat="47.52441" lon="-0.34382">
        <ele>45.1</ele>
        <time>2009-10-04T13:32:48Z</time>
      </trkpt>
      <trkpt lat="47.52436" lon="-0.3438">
        <ele>45.2</ele>
        <time>2009-10-04T13:32:49Z</time>
      </trkpt>
      <trkpt lat="47.52433" lon="-0.34377">
        <ele>45.2</ele>
        <time>2009-10-04T13:32:50Z</time>
      </trkpt>
      <trkpt lat="47.52432" lon="-0.34375">
        <ele>45.2</ele>
        <time>2009-10-04T13:32:51Z</time>
      </trkpt>
      <trkpt lat="47.52429" lon="-0.34372">
        <ele>45.2</ele>
        <time>2009-10-04T13:32:52Z</time>
      </trkpt>
      <trkpt lat="47.52428" lon="-0.34368">
        <ele>45.1</ele>
        <time>2009-10-04T13:32:53Z</time>
      </trkpt>
      <trkpt lat="47.52426" lon="-0.34364">
        <ele>45.1</ele>
        <time>2009-10-04T13:32:54Z</time>
      </trkpt>
      <trkpt lat="47.52422" lon="-0.34362">
        <ele>45</ele>
        <time>2009-10-04T13:32:55Z</time>
      </trkpt>
      <trkpt lat="47.5242" lon="-0.34359">
        <ele>45.1</ele>
        <time>2009-10-04T13:32:56Z</time>
      </trkpt>
      <trkpt lat="47.52418" lon="-0.34356">
        <ele>45.2</ele>
        <time>2009-10-04T13:32:57Z</time>
      </trkpt>
      <trkpt lat="47.52416" lon="-0.34354">
        <ele>45.3</ele>
        <time>2009-10-04T13:32:58Z</time>
      </trkpt>
      <trkpt lat="47.52414" lon="-0.34352">
        <ele>45.4</ele>
        <time>2009-10-04T13:32:59Z</time>
      </trkpt>
      <trkpt lat="47.52411" lon="-0.34349">
        <ele>45.5</ele>
        <time>2009-10-04T13:33:00Z</time>
      </trkpt>
      <trkpt lat="47.52409" lon="-0.34347">
        <ele>45.6</ele>
        <time>2009-10-04T13:33:01Z</time>
      </trkpt>
      <trkpt lat="47.52404" lon="-0.34344">
        <ele>45.8</ele>
        <time>2009-10-04T13:33:02Z</time>
      </trkpt>
      <trkpt lat="47.52401" lon="-0.34341">
        <ele>45.9</ele>
        <time>2009-10-04T13:33:03Z</time>
      </trkpt>
      <trkpt lat="47.52399" lon="-0.34338">
        <ele>45.9</ele>
        <time>2009-10-04T13:33:04Z</time>
      </trkpt>
      <trkpt lat="47.52397" lon="-0.34335">
        <ele>46</ele>
        <time>2009-10-04T13:33:05Z</time>
      </trkpt>
      <trkpt lat="47.52395" lon="-0.34332">
        <ele>46.1</ele>
        <time>2009-10-04T13:33:06Z</time>
      </trkpt>
      <trkpt lat="47.52392" lon="-0.34328">
        <ele>46.2</ele>
        <time>2009-10-04T13:33:07Z</time>
      </trkpt>
      <trkpt lat="47.52387" lon="-0.34327">
        <ele>46.3</ele>
        <time>2009-10-04T13:33:08Z</time>
      </trkpt>
      <trkpt lat="47.52383" lon="-0.34323">
        <ele>46.5</ele>
        <time>2009-10-04T13:33:09Z</time>
      </trkpt>
      <trkpt lat="47.5238" lon="-0.34319">
        <ele>46.7</ele>
        <time>2009-10-04T13:33:10Z</time>
      </trkpt>
      <trkpt lat="47.52377" lon="-0.34316">
        <ele>46.8</ele>
        <time>2009-10-04T13:33:11Z</time>
      </trkpt>
      <trkpt lat="47.52375" lon="-0.34311">
        <ele>46.9</ele>
        <time>2009-10-04T13:33:12Z</time>
      </trkpt>
      <trkpt lat="47.5237" lon="-0.34304">
        <ele>47.1</ele>
        <time>2009-10-04T13:33:14Z</time>
      </trkpt>
      <trkpt lat="47.52366" lon="-0.343">
        <ele>47.2</ele>
        <time>2009-10-04T13:33:15Z</time>
      </trkpt>
      <trkpt lat="47.52363" lon="-0.34297">
        <ele>47.3</ele>
        <time>2009-10-04T13:33:16Z</time>
      </trkpt>
      <trkpt lat="47.52359" lon="-0.34294">
        <ele>47.4</ele>
        <time>2009-10-04T13:33:17Z</time>
      </trkpt>
      <trkpt lat="47.52356" lon="-0.34291">
        <ele>47.4</ele>
        <time>2009-10-04T13:33:18Z</time>
      </trkpt>
      <trkpt lat="47.52353" lon="-0.34288">
        <ele>47.4</ele>
        <time>2009-10-04T13:33:19Z</time>
      </trkpt>
      <trkpt lat="47.52348" lon="-0.34287">
        <ele>47.4</ele>
        <time>2009-10-04T13:33:20Z</time>
      </trkpt>
      <trkpt lat="47.52345" lon="-0.34284">
        <ele>47.3</ele>
        <time>2009-10-04T13:33:21Z</time>
      </trkpt>
      <trkpt lat="47.52342" lon="-0.3428">
        <ele>47.3</ele>
        <time>2009-10-04T13:33:22Z</time>
      </trkpt>
      <trkpt lat="47.52339" lon="-0.34276">
        <ele>47.3</ele>
        <time>2009-10-04T13:33:23Z</time>
      </trkpt>
      <trkpt lat="47.52334" lon="-0.34267">
        <ele>47.4</ele>
        <time>2009-10-04T13:33:25Z</time>
      </trkpt>
      <trkpt lat="47.52331" lon="-0.34262">
        <ele>47.6</ele>
        <time>2009-10-04T13:33:26Z</time>
      </trkpt>
      <trkpt lat="47.52328" lon="-0.34257">
        <ele>47.7</ele>
        <time>2009-10-04T13:33:27Z</time>
      </trkpt>
      <trkpt lat="47.52325" lon="-0.34253">
        <ele>47.9</ele>
        <time>2009-10-04T13:33:28Z</time>
      </trkpt>
      <trkpt lat="47.52325" lon="-0.34253">
        <ele>47.9</ele>
        <time>2009-10-04T13:33:28Z</time>
      </trkpt>
      <trkpt lat="47.52319" lon="-0.34245">
        <ele>48.1</ele>
        <time>2009-10-04T13:33:30Z</time>
      </trkpt>
      <trkpt lat="47.52316" lon="-0.3424">
        <ele>48.1</ele>
        <time>2009-10-04T13:33:31Z</time>
      </trkpt>
      <trkpt lat="47.52313" lon="-0.34236">
        <ele>48.1</ele>
        <time>2009-10-04T13:33:32Z</time>
      </trkpt>
      <trkpt lat="47.5231" lon="-0.34232">
        <ele>48.1</ele>
        <time>2009-10-04T13:33:33Z</time>
      </trkpt>
      <trkpt lat="47.52308" lon="-0.34228">
        <ele>48.1</ele>
        <time>2009-10-04T13:33:34Z</time>
      </trkpt>
      <trkpt lat="47.52305" lon="-0.34225">
        <ele>48</ele>
        <time>2009-10-04T13:33:35Z</time>
      </trkpt>
      <trkpt lat="47.52302" lon="-0.34221">
        <ele>48</ele>
        <time>2009-10-04T13:33:36Z</time>
      </trkpt>
      <trkpt lat="47.523" lon="-0.34217">
        <ele>48.2</ele>
        <time>2009-10-04T13:33:37Z</time>
      </trkpt>
      <trkpt lat="47.52298" lon="-0.34213">
        <ele>48.3</ele>
        <time>2009-10-04T13:33:38Z</time>
      </trkpt>
      <trkpt lat="47.52296" lon="-0.34209">
        <ele>48.5</ele>
        <time>2009-10-04T13:33:39Z</time>
      </trkpt>
      <trkpt lat="47.52295" lon="-0.34206">
        <ele>48.6</ele>
        <time>2009-10-04T13:33:40Z</time>
      </trkpt>
      <trkpt lat="47.52293" lon="-0.34202">
        <ele>48.7</ele>
        <time>2009-10-04T13:33:41Z</time>
      </trkpt>
      <trkpt lat="47.52292" lon="-0.34199">
        <ele>48.9</ele>
        <time>2009-10-04T13:33:42Z</time>
      </trkpt>
      <trkpt lat="47.5229" lon="-0.34196">
        <ele>49</ele>
        <time>2009-10-04T13:33:43Z</time>
      </trkpt>
      <trkpt lat="47.52287" lon="-0.34193">
        <ele>49</ele>
        <time>2009-10-04T13:33:44Z</time>
      </trkpt>
      <trkpt lat="47.52285" lon="-0.3419">
        <ele>49</ele>
        <time>2009-10-04T13:33:45Z</time>
      </trkpt>
      <trkpt lat="47.52282" lon="-0.34187">
        <ele>49</ele>
        <time>2009-10-04T13:33:46Z</time>
      </trkpt>
      <trkpt lat="47.5228" lon="-0.34184">
        <ele>49</ele>
        <time>2009-10-04T13:33:47Z</time>
      </trkpt>
      <trkpt lat="47.52278" lon="-0.34179">
        <ele>49</ele>
        <time>2009-10-04T13:33:48Z</time>
      </trkpt>
      <trkpt lat="47.52276" lon="-0.34176">
        <ele>49</ele>
        <time>2009-10-04T13:33:49Z</time>
      </trkpt>
      <trkpt lat="47.52275" lon="-0.34172">
        <ele>49</ele>
        <time>2009-10-04T13:33:50Z</time>
      </trkpt>
      <trkpt lat="47.52272" lon="-0.34169">
        <ele>49</ele>
        <time>2009-10-04T13:33:51Z</time>
      </trkpt>
      <trkpt lat="47.5227" lon="-0.34166">
        <ele>49</ele>
        <time>2009-10-04T13:33:52Z</time>
      </trkpt>
      <trkpt lat="47.52266" lon="-0.34163">
        <ele>49.1</ele>
        <time>2009-10-04T13:33:53Z</time>
      </trkpt>
      <trkpt lat="47.52264" lon="-0.34161">
        <ele>49.1</ele>
        <time>2009-10-04T13:33:54Z</time>
      </trkpt>
      <trkpt lat="47.52263" lon="-0.34158">
        <ele>49.2</ele>
        <time>2009-10-04T13:33:55Z</time>
      </trkpt>
      <trkpt lat="47.52261" lon="-0.34157">
        <ele>49.2</ele>
        <time>2009-10-04T13:33:56Z</time>
      </trkpt>
      <trkpt lat="47.52259" lon="-0.34155">
        <ele>49.3</ele>
        <time>2009-10-04T13:33:57Z</time>
      </trkpt>
      <trkpt lat="47.52257" lon="-0.34154">
        <ele>49.3</ele>
        <time>2009-10-04T13:33:58Z</time>
      </trkpt>
      <trkpt lat="47.52255" lon="-0.34153">
        <ele>49.4</ele>
        <time>2009-10-04T13:33:59Z</time>
      </trkpt>
      <trkpt lat="47.52253" lon="-0.34152">
        <ele>49.5</ele>
        <time>2009-10-04T13:34:00Z</time>
      </trkpt>
      <trkpt lat="47.52251" lon="-0.3415">
        <ele>49.6</ele>
        <time>2009-10-04T13:34:01Z</time>
      </trkpt>
      <trkpt lat="47.52248" lon="-0.34149">
        <ele>49.7</ele>
        <time>2009-10-04T13:34:02Z</time>
      </trkpt>
      <trkpt lat="47.52245" lon="-0.34148">
        <ele>49.7</ele>
        <time>2009-10-04T13:34:03Z</time>
      </trkpt>
      <trkpt lat="47.52242" lon="-0.34146">
        <ele>49.8</ele>
        <time>2009-10-04T13:34:04Z</time>
      </trkpt>
      <trkpt lat="47.5224" lon="-0.34144">
        <ele>49.9</ele>
        <time>2009-10-04T13:34:05Z</time>
      </trkpt>
      <trkpt lat="47.52239" lon="-0.34141">
        <ele>50</ele>
        <time>2009-10-04T13:34:06Z</time>
      </trkpt>
      <trkpt lat="47.52237" lon="-0.34138">
        <ele>50</ele>
        <time>2009-10-04T13:34:07Z</time>
      </trkpt>
      <trkpt lat="47.52234" lon="-0.34137">
        <ele>50</ele>
        <time>2009-10-04T13:34:08Z</time>
      </trkpt>
      <trkpt lat="47.52232" lon="-0.34134">
        <ele>50</ele>
        <time>2009-10-04T13:34:09Z</time>
      </trkpt>
      <trkpt lat="47.5223" lon="-0.34132">
        <ele>50</ele>
        <time>2009-10-04T13:34:10Z</time>
      </trkpt>
      <trkpt lat="47.52229" lon="-0.34131">
        <ele>50</ele>
        <time>2009-10-04T13:34:11Z</time>
      </trkpt>
      <trkpt lat="47.52227" lon="-0.34129">
        <ele>50</ele>
        <time>2009-10-04T13:34:12Z</time>
      </trkpt>
      <trkpt lat="47.52224" lon="-0.34127">
        <ele>50</ele>
        <time>2009-10-04T13:34:13Z</time>
      </trkpt>
      <trkpt lat="47.52222" lon="-0.34126">
        <ele>50</ele>
        <time>2009-10-04T13:34:14Z</time>
      </trkpt>
      <trkpt lat="47.52219" lon="-0.34124">
        <ele>50</ele>
        <time>2009-10-04T13:34:15Z</time>
      </trkpt>
      <trkpt lat="47.52217" lon="-0.34123">
        <ele>50</ele>
        <time>2009-10-04T13:34:16Z</time>
      </trkpt>
      <trkpt lat="47.52216" lon="-0.34121">
        <ele>50</ele>
        <time>2009-10-04T13:34:17Z</time>
      </trkpt>
      <trkpt lat="47.52213" lon="-0.34121">
        <ele>50</ele>
        <time>2009-10-04T13:34:18Z</time>
      </trkpt>
      <trkpt lat="47.5221" lon="-0.34119">
        <ele>50</ele>
        <time>2009-10-04T13:34:19Z</time>
      </trkpt>
      <trkpt lat="47.52206" lon="-0.34119">
        <ele>50</ele>
        <time>2009-10-04T13:34:20Z</time>
      </trkpt>
      <trkpt lat="47.52203" lon="-0.34118">
        <ele>50</ele>
        <time>2009-10-04T13:34:21Z</time>
      </trkpt>
      <trkpt lat="47.52201" lon="-0.34115">
        <ele>50</ele>
        <time>2009-10-04T13:34:22Z</time>
      </trkpt>
      <trkpt lat="47.52199" lon="-0.34113">
        <ele>50</ele>
        <time>2009-10-04T13:34:23Z</time>
      </trkpt>
      <trkpt lat="47.52198" lon="-0.3411">
        <ele>50</ele>
        <time>2009-10-04T13:34:24Z</time>
      </trkpt>
      <trkpt lat="47.52196" lon="-0.34108">
        <ele>50.1</ele>
        <time>2009-10-04T13:34:25Z</time>
      </trkpt>
      <trkpt lat="47.52194" lon="-0.34107">
        <ele>50.2</ele>
        <time>2009-10-04T13:34:26Z</time>
      </trkpt>
      <trkpt lat="47.52192" lon="-0.34105">
        <ele>50.3</ele>
        <time>2009-10-04T13:34:27Z</time>
      </trkpt>
      <trkpt lat="47.52189" lon="-0.34103">
        <ele>50.4</ele>
        <time>2009-10-04T13:34:28Z</time>
      </trkpt>
      <trkpt lat="47.52187" lon="-0.341">
        <ele>50.6</ele>
        <time>2009-10-04T13:34:29Z</time>
      </trkpt>
      <trkpt lat="47.52186" lon="-0.34098">
        <ele>50.6</ele>
        <time>2009-10-04T13:34:30Z</time>
      </trkpt>
      <trkpt lat="47.52184" lon="-0.34095">
        <ele>50.7</ele>
        <time>2009-10-04T13:34:31Z</time>
      </trkpt>
      <trkpt lat="47.52184" lon="-0.34093">
        <ele>50.8</ele>
        <time>2009-10-04T13:34:32Z</time>
      </trkpt>
      <trkpt lat="47.52182" lon="-0.34091">
        <ele>50.9</ele>
        <time>2009-10-04T13:34:33Z</time>
      </trkpt>
      <trkpt lat="47.52182" lon="-0.34089">
        <ele>50.9</ele>
        <time>2009-10-04T13:34:34Z</time>
      </trkpt>
      <trkpt lat="47.52181" lon="-0.34087">
        <ele>50.9</ele>
        <time>2009-10-04T13:34:35Z</time>
      </trkpt>
      <trkpt lat="47.52181" lon="-0.34086">
        <ele>51</ele>
        <time>2009-10-04T13:34:36Z</time>
      </trkpt>
      <trkpt lat="47.52181" lon="-0.34085">
        <ele>51</ele>
        <time>2009-10-04T13:34:38Z</time>
      </trkpt>
      <trkpt lat="47.52181" lon="-0.34085">
        <ele>51</ele>
        <time>2009-10-04T13:34:39Z</time>
      </trkpt>
      <trkpt lat="47.52181" lon="-0.34085">
        <ele>51</ele>
        <time>2009-10-04T13:34:40Z</time>
      </trkpt>
      <trkpt lat="47.52181" lon="-0.34085">
        <ele>51</ele>
        <time>2009-10-04T13:34:41Z</time>
      </trkpt>
      <trkpt lat="47.52181" lon="-0.34085">
        <ele>51</ele>
        <time>2009-10-04T13:34:42Z</time>
      </trkpt>
      <trkpt lat="47.52181" lon="-0.34085">
        <ele>51</ele>
        <time>2009-10-04T13:34:43Z</time>
      </trkpt>
      <trkpt lat="47.52181" lon="-0.34084">
        <ele>51</ele>
        <time>2009-10-04T13:34:44Z</time>
      </trkpt>
      <trkpt lat="47.52182" lon="-0.34084">
        <ele>51</ele>
        <time>2009-10-04T13:34:45Z</time>
      </trkpt>
      <trkpt lat="47.52182" lon="-0.34084">
        <ele>51</ele>
        <time>2009-10-04T13:34:46Z</time>
      </trkpt>
      <trkpt lat="47.52182" lon="-0.34084">
        <ele>51</ele>
        <time>2009-10-04T13:34:47Z</time>
      </trkpt>
      <trkpt lat="47.52182" lon="-0.34084">
        <ele>51</ele>
        <time>2009-10-04T13:34:48Z</time>
      </trkpt>
      <trkpt lat="47.52182" lon="-0.34084">
        <ele>51</ele>
        <time>2009-10-04T13:34:49Z</time>
      </trkpt>
      <trkpt lat="47.52182" lon="-0.34084">
        <ele>51</ele>
        <time>2009-10-04T13:34:50Z</time>
      </trkpt>
      <trkpt lat="47.52182" lon="-0.34084">
        <ele>51</ele>
        <time>2009-10-04T13:34:51Z</time>
      </trkpt>
      <trkpt lat="47.52182" lon="-0.34084">
        <ele>51</ele>
        <time>2009-10-04T13:34:52Z</time>
      </trkpt>
      <trkpt lat="47.52182" lon="-0.34084">
        <ele>51</ele>
        <time>2009-10-04T13:34:53Z</time>
      </trkpt>
      <trkpt lat="47.52182" lon="-0.34084">
        <ele>51</ele>
        <time>2009-10-04T13:34:54Z</time>
      </trkpt>
      <trkpt lat="47.52182" lon="-0.34083">
        <ele>51</ele>
        <time>2009-10-04T13:34:55Z</time>
      </trkpt>
      <trkpt lat="47.52182" lon="-0.34082">
        <ele>51</ele>
        <time>2009-10-04T13:34:56Z</time>
      </trkpt>
      <trkpt lat="47.52181" lon="-0.3408">
        <ele>51</ele>
        <time>2009-10-04T13:34:57Z</time>
      </trkpt>
      <trkpt lat="47.52179" lon="-0.34078">
        <ele>51</ele>
        <time>2009-10-04T13:34:58Z</time>
      </trkpt>
      <trkpt lat="47.52177" lon="-0.34077">
        <ele>51</ele>
        <time>2009-10-04T13:34:59Z</time>
      </trkpt>
      <trkpt lat="47.52176" lon="-0.34076">
        <ele>51</ele>
        <time>2009-10-04T13:35:00Z</time>
      </trkpt>
      <trkpt lat="47.52174" lon="-0.34075">
        <ele>51</ele>
        <time>2009-10-04T13:35:01Z</time>
      </trkpt>
      <trkpt lat="47.52171" lon="-0.34075">
        <ele>51</ele>
        <time>2009-10-04T13:35:02Z</time>
      </trkpt>
      <trkpt lat="47.52168" lon="-0.34075">
        <ele>51</ele>
        <time>2009-10-04T13:35:03Z</time>
      </trkpt>
      <trkpt lat="47.52164" lon="-0.3407">
        <ele>51</ele>
        <time>2009-10-04T13:35:04Z</time>
      </trkpt>
      <trkpt lat="47.52161" lon="-0.34066">
        <ele>51</ele>
        <time>2009-10-04T13:35:05Z</time>
      </trkpt>
      <trkpt lat="47.52159" lon="-0.34064">
        <ele>51</ele>
        <time>2009-10-04T13:35:06Z</time>
      </trkpt>
      <trkpt lat="47.52157" lon="-0.34061">
        <ele>51</ele>
        <time>2009-10-04T13:35:07Z</time>
      </trkpt>
      <trkpt lat="47.52154" lon="-0.34058">
        <ele>51</ele>
        <time>2009-10-04T13:35:08Z</time>
      </trkpt>
      <trkpt lat="47.52151" lon="-0.34054">
        <ele>51</ele>
        <time>2009-10-04T13:35:09Z</time>
      </trkpt>
      <trkpt lat="47.52148" lon="-0.34052">
        <ele>51</ele>
        <time>2009-10-04T13:35:10Z</time>
      </trkpt>
      <trkpt lat="47.52145" lon="-0.34048">
        <ele>51</ele>
        <time>2009-10-04T13:35:11Z</time>
      </trkpt>
      <trkpt lat="47.52141" lon="-0.34039">
        <ele>51</ele>
        <time>2009-10-04T13:35:12Z</time>
      </trkpt>
      <trkpt lat="47.52134" lon="-0.34032">
        <ele>51.2</ele>
        <time>2009-10-04T13:35:13Z</time>
      </trkpt>
      <trkpt lat="47.5213" lon="-0.34027">
        <ele>51.4</ele>
        <time>2009-10-04T13:35:14Z</time>
      </trkpt>
      <trkpt lat="47.52122" lon="-0.3402">
        <ele>51.7</ele>
        <time>2009-10-04T13:35:15Z</time>
      </trkpt>
      <trkpt lat="47.52116" lon="-0.34016">
        <ele>51.9</ele>
        <time>2009-10-04T13:35:16Z</time>
      </trkpt>
      <trkpt lat="47.52113" lon="-0.34012">
        <ele>52</ele>
        <time>2009-10-04T13:35:17Z</time>
      </trkpt>
      <trkpt lat="47.52109" lon="-0.34008">
        <ele>52</ele>
        <time>2009-10-04T13:35:18Z</time>
      </trkpt>
      <trkpt lat="47.52106" lon="-0.34005">
        <ele>52</ele>
        <time>2009-10-04T13:35:19Z</time>
      </trkpt>
      <trkpt lat="47.52102" lon="-0.34002">
        <ele>52</ele>
        <time>2009-10-04T13:35:20Z</time>
      </trkpt>
      <trkpt lat="47.52098" lon="-0.33999">
        <ele>52</ele>
        <time>2009-10-04T13:35:21Z</time>
      </trkpt>
      <trkpt lat="47.52095" lon="-0.33992">
        <ele>52</ele>
        <time>2009-10-04T13:35:22Z</time>
      </trkpt>
      <trkpt lat="47.52092" lon="-0.33988">
        <ele>52</ele>
        <time>2009-10-04T13:35:23Z</time>
      </trkpt>
      <trkpt lat="47.52089" lon="-0.33983">
        <ele>52</ele>
        <time>2009-10-04T13:35:24Z</time>
      </trkpt>
      <trkpt lat="47.52083" lon="-0.33974">
        <ele>52</ele>
        <time>2009-10-04T13:35:26Z</time>
      </trkpt>
      <trkpt lat="47.52079" lon="-0.3397">
        <ele>52</ele>
        <time>2009-10-04T13:35:27Z</time>
      </trkpt>
      <trkpt lat="47.52067" lon="-0.33963">
        <ele>52.2</ele>
        <time>2009-10-04T13:35:29Z</time>
      </trkpt>
      <trkpt lat="47.52064" lon="-0.33959">
        <ele>52.3</ele>
        <time>2009-10-04T13:35:30Z</time>
      </trkpt>
      <trkpt lat="47.52061" lon="-0.33955">
        <ele>52.5</ele>
        <time>2009-10-04T13:35:31Z</time>
      </trkpt>
      <trkpt lat="47.52057" lon="-0.3395">
        <ele>52.7</ele>
        <time>2009-10-04T13:35:32Z</time>
      </trkpt>
      <trkpt lat="47.52054" lon="-0.33946">
        <ele>52.9</ele>
        <time>2009-10-04T13:35:33Z</time>
      </trkpt>
      <trkpt lat="47.5205" lon="-0.33942">
        <ele>53</ele>
        <time>2009-10-04T13:35:34Z</time>
      </trkpt>
      <trkpt lat="47.52047" lon="-0.33937">
        <ele>53</ele>
        <time>2009-10-04T13:35:35Z</time>
      </trkpt>
      <trkpt lat="47.52045" lon="-0.33932">
        <ele>53</ele>
        <time>2009-10-04T13:35:36Z</time>
      </trkpt>
      <trkpt lat="47.52043" lon="-0.33927">
        <ele>53</ele>
        <time>2009-10-04T13:35:37Z</time>
      </trkpt>
      <trkpt lat="47.52041" lon="-0.33922">
        <ele>53</ele>
        <time>2009-10-04T13:35:38Z</time>
      </trkpt>
      <trkpt lat="47.52037" lon="-0.33917">
        <ele>53</ele>
        <time>2009-10-04T13:35:39Z</time>
      </trkpt>
      <trkpt lat="47.52034" lon="-0.33913">
        <ele>53</ele>
        <time>2009-10-04T13:35:40Z</time>
      </trkpt>
      <trkpt lat="47.52031" lon="-0.33908">
        <ele>53</ele>
        <time>2009-10-04T13:35:41Z</time>
      </trkpt>
      <trkpt lat="47.52029" lon="-0.33904">
        <ele>53</ele>
        <time>2009-10-04T13:35:42Z</time>
      </trkpt>
      <trkpt lat="47.52026" lon="-0.33901">
        <ele>53.1</ele>
        <time>2009-10-04T13:35:43Z</time>
      </trkpt>
      <trkpt lat="47.5202" lon="-0.33898">
        <ele>53.3</ele>
        <time>2009-10-04T13:35:44Z</time>
      </trkpt>
      <trkpt lat="47.52018" lon="-0.33894">
        <ele>53.4</ele>
        <time>2009-10-04T13:35:45Z</time>
      </trkpt>
      <trkpt lat="47.52016" lon="-0.3389">
        <ele>53.4</ele>
        <time>2009-10-04T13:35:46Z</time>
      </trkpt>
      <trkpt lat="47.52013" lon="-0.33887">
        <ele>53.6</ele>
        <time>2009-10-04T13:35:47Z</time>
      </trkpt>
      <trkpt lat="47.5201" lon="-0.33884">
        <ele>53.7</ele>
        <time>2009-10-04T13:35:48Z</time>
      </trkpt>
      <trkpt lat="47.52008" lon="-0.33882">
        <ele>53.8</ele>
        <time>2009-10-04T13:35:49Z</time>
      </trkpt>
      <trkpt lat="47.52006" lon="-0.33879">
        <ele>53.9</ele>
        <time>2009-10-04T13:35:50Z</time>
      </trkpt>
      <trkpt lat="47.52005" lon="-0.33877">
        <ele>53.9</ele>
        <time>2009-10-04T13:35:51Z</time>
      </trkpt>
      <trkpt lat="47.52004" lon="-0.33875">
        <ele>53.9</ele>
        <time>2009-10-04T13:35:52Z</time>
      </trkpt>
      <trkpt lat="47.52001" lon="-0.33873">
        <ele>54</ele>
        <time>2009-10-04T13:35:53Z</time>
      </trkpt>
      <trkpt lat="47.51998" lon="-0.3387">
        <ele>54.1</ele>
        <time>2009-10-04T13:35:54Z</time>
      </trkpt>
      <trkpt lat="47.51997" lon="-0.33864">
        <ele>54.1</ele>
        <time>2009-10-04T13:35:55Z</time>
      </trkpt>
      <trkpt lat="47.51995" lon="-0.33862">
        <ele>54.2</ele>
        <time>2009-10-04T13:35:56Z</time>
      </trkpt>
      <trkpt lat="47.51992" lon="-0.3386">
        <ele>54.3</ele>
        <time>2009-10-04T13:35:57Z</time>
      </trkpt>
      <trkpt lat="47.5199" lon="-0.33858">
        <ele>54.5</ele>
        <time>2009-10-04T13:35:58Z</time>
      </trkpt>
      <trkpt lat="47.51988" lon="-0.33856">
        <ele>54.6</ele>
        <time>2009-10-04T13:35:59Z</time>
      </trkpt>
      <trkpt lat="47.51986" lon="-0.33854">
        <ele>54.8</ele>
        <time>2009-10-04T13:36:00Z</time>
      </trkpt>
      <trkpt lat="47.51984" lon="-0.33852">
        <ele>54.9</ele>
        <time>2009-10-04T13:36:01Z</time>
      </trkpt>
      <trkpt lat="47.51979" lon="-0.33851">
        <ele>55.1</ele>
        <time>2009-10-04T13:36:02Z</time>
      </trkpt>
      <trkpt lat="47.51977" lon="-0.3385">
        <ele>55.2</ele>
        <time>2009-10-04T13:36:03Z</time>
      </trkpt>
      <trkpt lat="47.51975" lon="-0.33846">
        <ele>55.4</ele>
        <time>2009-10-04T13:36:04Z</time>
      </trkpt>
      <trkpt lat="47.51974" lon="-0.33842">
        <ele>55.6</ele>
        <time>2009-10-04T13:36:05Z</time>
      </trkpt>
      <trkpt lat="47.51971" lon="-0.3384">
        <ele>55.8</ele>
        <time>2009-10-04T13:36:06Z</time>
      </trkpt>
      <trkpt lat="47.51968" lon="-0.33838">
        <ele>55.9</ele>
        <time>2009-10-04T13:36:07Z</time>
      </trkpt>
      <trkpt lat="47.51967" lon="-0.33836">
        <ele>55.9</ele>
        <time>2009-10-04T13:36:08Z</time>
      </trkpt>
      <trkpt lat="47.51964" lon="-0.33835">
        <ele>56</ele>
        <time>2009-10-04T13:36:09Z</time>
      </trkpt>
      <trkpt lat="47.51962" lon="-0.33832">
        <ele>56</ele>
        <time>2009-10-04T13:36:10Z</time>
      </trkpt>
      <trkpt lat="47.5196" lon="-0.33829">
        <ele>56.1</ele>
        <time>2009-10-04T13:36:11Z</time>
      </trkpt>
      <trkpt lat="47.51958" lon="-0.33821">
        <ele>56.2</ele>
        <time>2009-10-04T13:36:12Z</time>
      </trkpt>
      <trkpt lat="47.51955" lon="-0.33819">
        <ele>56.3</ele>
        <time>2009-10-04T13:36:13Z</time>
      </trkpt>
      <trkpt lat="47.51954" lon="-0.33818">
        <ele>56.4</ele>
        <time>2009-10-04T13:36:14Z</time>
      </trkpt>
      <trkpt lat="47.51951" lon="-0.33815">
        <ele>56.5</ele>
        <time>2009-10-04T13:36:15Z</time>
      </trkpt>
      <trkpt lat="47.51949" lon="-0.33811">
        <ele>56.7</ele>
        <time>2009-10-04T13:36:16Z</time>
      </trkpt>
      <trkpt lat="47.51946" lon="-0.33809">
        <ele>56.8</ele>
        <time>2009-10-04T13:36:17Z</time>
      </trkpt>
      <trkpt lat="47.51943" lon="-0.33805">
        <ele>57</ele>
        <time>2009-10-04T13:36:18Z</time>
      </trkpt>
      <trkpt lat="47.51941" lon="-0.33802">
        <ele>57</ele>
        <time>2009-10-04T13:36:19Z</time>
      </trkpt>
      <trkpt lat="47.51938" lon="-0.338">
        <ele>57.1</ele>
        <time>2009-10-04T13:36:20Z</time>
      </trkpt>
      <trkpt lat="47.51934" lon="-0.33797">
        <ele>57.1</ele>
        <time>2009-10-04T13:36:21Z</time>
      </trkpt>
      <trkpt lat="47.51931" lon="-0.33794">
        <ele>57.2</ele>
        <time>2009-10-04T13:36:22Z</time>
      </trkpt>
      <trkpt lat="47.51925" lon="-0.33788">
        <ele>57.5</ele>
        <time>2009-10-04T13:36:24Z</time>
      </trkpt>
      <trkpt lat="47.51921" lon="-0.33785">
        <ele>57.6</ele>
        <time>2009-10-04T13:36:25Z</time>
      </trkpt>
      <trkpt lat="47.51915" lon="-0.33783">
        <ele>57.8</ele>
        <time>2009-10-04T13:36:26Z</time>
      </trkpt>
      <trkpt lat="47.51912" lon="-0.3378">
        <ele>57.8</ele>
        <time>2009-10-04T13:36:27Z</time>
      </trkpt>
      <trkpt lat="47.5191" lon="-0.33775">
        <ele>57.7</ele>
        <time>2009-10-04T13:36:28Z</time>
      </trkpt>
      <trkpt lat="47.51909" lon="-0.33771">
        <ele>57.5</ele>
        <time>2009-10-04T13:36:29Z</time>
      </trkpt>
      <trkpt lat="47.51906" lon="-0.33769">
        <ele>57.4</ele>
        <time>2009-10-04T13:36:30Z</time>
      </trkpt>
      <trkpt lat="47.51902" lon="-0.33767">
        <ele>57.3</ele>
        <time>2009-10-04T13:36:31Z</time>
      </trkpt>
      <trkpt lat="47.51898" lon="-0.33764">
        <ele>57.2</ele>
        <time>2009-10-04T13:36:32Z</time>
      </trkpt>
      <trkpt lat="47.51894" lon="-0.33761">
        <ele>57.1</ele>
        <time>2009-10-04T13:36:33Z</time>
      </trkpt>
      <trkpt lat="47.51891" lon="-0.33757">
        <ele>57</ele>
        <time>2009-10-04T13:36:34Z</time>
      </trkpt>
      <trkpt lat="47.51887" lon="-0.33753">
        <ele>57</ele>
        <time>2009-10-04T13:36:35Z</time>
      </trkpt>
      <trkpt lat="47.51885" lon="-0.33749">
        <ele>56.9</ele>
        <time>2009-10-04T13:36:36Z</time>
      </trkpt>
      <trkpt lat="47.51882" lon="-0.33744">
        <ele>56.8</ele>
        <time>2009-10-04T13:36:37Z</time>
      </trkpt>
      <trkpt lat="47.51879" lon="-0.3374">
        <ele>56.6</ele>
        <time>2009-10-04T13:36:38Z</time>
      </trkpt>
      <trkpt lat="47.51875" lon="-0.33736">
        <ele>56.5</ele>
        <time>2009-10-04T13:36:39Z</time>
      </trkpt>
      <trkpt lat="47.51866" lon="-0.33735">
        <ele>56.5</ele>
        <time>2009-10-04T13:36:40Z</time>
      </trkpt>
      <trkpt lat="47.5186" lon="-0.33732">
        <ele>56.4</ele>
        <time>2009-10-04T13:36:41Z</time>
      </trkpt>
      <trkpt lat="47.51856" lon="-0.33729">
        <ele>56.4</ele>
        <time>2009-10-04T13:36:42Z</time>
      </trkpt>
      <trkpt lat="47.51851" lon="-0.33726">
        <ele>56.5</ele>
        <time>2009-10-04T13:36:43Z</time>
      </trkpt>
      <trkpt lat="47.51848" lon="-0.33722">
        <ele>56.5</ele>
        <time>2009-10-04T13:36:44Z</time>
      </trkpt>
      <trkpt lat="47.51842" lon="-0.3372">
        <ele>56.6</ele>
        <time>2009-10-04T13:36:45Z</time>
      </trkpt>
      <trkpt lat="47.51839" lon="-0.33717">
        <ele>56.6</ele>
        <time>2009-10-04T13:36:46Z</time>
      </trkpt>
      <trkpt lat="47.51835" lon="-0.33715">
        <ele>56.7</ele>
        <time>2009-10-04T13:36:47Z</time>
      </trkpt>
      <trkpt lat="47.51831" lon="-0.33714">
        <ele>56.7</ele>
        <time>2009-10-04T13:36:48Z</time>
      </trkpt>
      <trkpt lat="47.51825" lon="-0.33714">
        <ele>56.7</ele>
        <time>2009-10-04T13:36:49Z</time>
      </trkpt>
      <trkpt lat="47.5182" lon="-0.33714">
        <ele>56.7</ele>
        <time>2009-10-04T13:36:50Z</time>
      </trkpt>
      <trkpt lat="47.51816" lon="-0.33713">
        <ele>56.7</ele>
        <time>2009-10-04T13:36:51Z</time>
      </trkpt>
      <trkpt lat="47.51811" lon="-0.33714">
        <ele>56.7</ele>
        <time>2009-10-04T13:36:52Z</time>
      </trkpt>
      <trkpt lat="47.51807" lon="-0.33714">
        <ele>56.7</ele>
        <time>2009-10-04T13:36:53Z</time>
      </trkpt>
      <trkpt lat="47.51801" lon="-0.33715">
        <ele>56.7</ele>
        <time>2009-10-04T13:36:54Z</time>
      </trkpt>
      <trkpt lat="47.51796" lon="-0.33716">
        <ele>56.8</ele>
        <time>2009-10-04T13:36:55Z</time>
      </trkpt>
      <trkpt lat="47.5179" lon="-0.33717">
        <ele>56.8</ele>
        <time>2009-10-04T13:36:56Z</time>
      </trkpt>
      <trkpt lat="47.51786" lon="-0.33717">
        <ele>56.8</ele>
        <time>2009-10-04T13:36:57Z</time>
      </trkpt>
      <trkpt lat="47.51783" lon="-0.33717">
        <ele>56.8</ele>
        <time>2009-10-04T13:36:58Z</time>
      </trkpt>
      <trkpt lat="47.5178" lon="-0.33716">
        <ele>56.8</ele>
        <time>2009-10-04T13:36:59Z</time>
      </trkpt>
      <trkpt lat="47.51777" lon="-0.33717">
        <ele>56.8</ele>
        <time>2009-10-04T13:37:00Z</time>
      </trkpt>
      <trkpt lat="47.51773" lon="-0.33718">
        <ele>56.7</ele>
        <time>2009-10-04T13:37:01Z</time>
      </trkpt>
      <trkpt lat="47.51768" lon="-0.33719">
        <ele>56.5</ele>
        <time>2009-10-04T13:37:02Z</time>
      </trkpt>
      <trkpt lat="47.51764" lon="-0.3372">
        <ele>56.4</ele>
        <time>2009-10-04T13:37:03Z</time>
      </trkpt>
      <trkpt lat="47.51759" lon="-0.33722">
        <ele>56.3</ele>
        <time>2009-10-04T13:37:04Z</time>
      </trkpt>
      <trkpt lat="47.51753" lon="-0.33722">
        <ele>56.1</ele>
        <time>2009-10-04T13:37:05Z</time>
      </trkpt>
      <trkpt lat="47.51746" lon="-0.33722">
        <ele>55.8</ele>
        <time>2009-10-04T13:37:06Z</time>
      </trkpt>
      <trkpt lat="47.5174" lon="-0.3372">
        <ele>55.5</ele>
        <time>2009-10-04T13:37:07Z</time>
      </trkpt>
      <trkpt lat="47.51733" lon="-0.33717">
        <ele>55.1</ele>
        <time>2009-10-04T13:37:08Z</time>
      </trkpt>
      <trkpt lat="47.51722" lon="-0.33716">
        <ele>54.5</ele>
        <time>2009-10-04T13:37:09Z</time>
      </trkpt>
      <trkpt lat="47.51713" lon="-0.33714">
        <ele>53.7</ele>
        <time>2009-10-04T13:37:10Z</time>
      </trkpt>
      <trkpt lat="47.51708" lon="-0.3371">
        <ele>53.1</ele>
        <time>2009-10-04T13:37:11Z</time>
      </trkpt>
      <trkpt lat="47.51698" lon="-0.33708">
        <ele>52.2</ele>
        <time>2009-10-04T13:37:12Z</time>
      </trkpt>
      <trkpt lat="47.51693" lon="-0.33702">
        <ele>51.5</ele>
        <time>2009-10-04T13:37:13Z</time>
      </trkpt>
      <trkpt lat="47.51689" lon="-0.33694">
        <ele>51</ele>
        <time>2009-10-04T13:37:14Z</time>
      </trkpt>
      <trkpt lat="47.51685" lon="-0.33685">
        <ele>50.7</ele>
        <time>2009-10-04T13:37:15Z</time>
      </trkpt>
      <trkpt lat="47.51682" lon="-0.33675">
        <ele>50.3</ele>
        <time>2009-10-04T13:37:16Z</time>
      </trkpt>
      <trkpt lat="47.5168" lon="-0.33665">
        <ele>49.9</ele>
        <time>2009-10-04T13:37:17Z</time>
      </trkpt>
      <trkpt lat="47.51677" lon="-0.33656">
        <ele>49.3</ele>
        <time>2009-10-04T13:37:18Z</time>
      </trkpt>
      <trkpt lat="47.51674" lon="-0.33645">
        <ele>48.7</ele>
        <time>2009-10-04T13:37:19Z</time>
      </trkpt>
      <trkpt lat="47.51672" lon="-0.33635">
        <ele>48</ele>
        <time>2009-10-04T13:37:20Z</time>
      </trkpt>
      <trkpt lat="47.51668" lon="-0.33626">
        <ele>47.6</ele>
        <time>2009-10-04T13:37:21Z</time>
      </trkpt>
      <trkpt lat="47.51666" lon="-0.33617">
        <ele>47.3</ele>
        <time>2009-10-04T13:37:22Z</time>
      </trkpt>
      <trkpt lat="47.51661" lon="-0.33608">
        <ele>47.1</ele>
        <time>2009-10-04T13:37:23Z</time>
      </trkpt>
      <trkpt lat="47.51658" lon="-0.336">
        <ele>46.9</ele>
        <time>2009-10-04T13:37:24Z</time>
      </trkpt>
      <trkpt lat="47.51656" lon="-0.33592">
        <ele>46.7</ele>
        <time>2009-10-04T13:37:25Z</time>
      </trkpt>
      <trkpt lat="47.51653" lon="-0.33584">
        <ele>46.5</ele>
        <time>2009-10-04T13:37:26Z</time>
      </trkpt>
      <trkpt lat="47.51651" lon="-0.33579">
        <ele>46.5</ele>
        <time>2009-10-04T13:37:27Z</time>
      </trkpt>
      <trkpt lat="47.51649" lon="-0.33574">
        <ele>46.5</ele>
        <time>2009-10-04T13:37:28Z</time>
      </trkpt>
      <trkpt lat="47.51647" lon="-0.33571">
        <ele>46.6</ele>
        <time>2009-10-04T13:37:29Z</time>
      </trkpt>
      <trkpt lat="47.51645" lon="-0.33569">
        <ele>46.6</ele>
        <time>2009-10-04T13:37:30Z</time>
      </trkpt>
      <trkpt lat="47.51607" lon="-0.33616">
        <ele>50.5</ele>
      </trkpt>
      <trkpt lat="47.51572" lon="-0.33723">
        <ele>58.4</ele>
      </trkpt>
      <trkpt lat="47.51538" lon="-0.33843">
        <ele>60.4</ele>
      </trkpt>
      <trkpt lat="47.51497" lon="-0.33938">
        <ele>61</ele>
      </trkpt>
      <trkpt lat="47.51482" lon="-0.34006">
        <ele>60.6</ele>
      </trkpt>
      <trkpt lat="47.51473" lon="-0.34016">
        <ele>61</ele>
        <time>2011-09-04T08:13:47Z</time>
      </trkpt>
      <trkpt lat="47.51478" lon="-0.34018">
        <ele>60.8</ele>
        <time>2011-09-04T08:13:48Z</time>
      </trkpt>
      <trkpt lat="47.51482" lon="-0.34022">
        <ele>60.6</ele>
        <time>2011-09-04T08:13:49Z</time>
      </trkpt>
      <trkpt lat="47.51487" lon="-0.34025">
        <ele>60.5</ele>
        <time>2011-09-04T08:13:50Z</time>
      </trkpt>
      <trkpt lat="47.51492" lon="-0.34028">
        <ele>60.3</ele>
        <time>2011-09-04T08:13:51Z</time>
      </trkpt>
      <trkpt lat="47.51497" lon="-0.34032">
        <ele>60.1</ele>
        <time>2011-09-04T08:13:52Z</time>
      </trkpt>
      <trkpt lat="47.51506" lon="-0.34038">
        <ele>59.9</ele>
        <time>2011-09-04T08:13:54Z</time>
      </trkpt>
      <trkpt lat="47.5151" lon="-0.34042">
        <ele>59.8</ele>
        <time>2011-09-04T08:13:55Z</time>
      </trkpt>
      <trkpt lat="47.51514" lon="-0.34046">
        <ele>59.7</ele>
        <time>2011-09-04T08:13:56Z</time>
      </trkpt>
      <trkpt lat="47.51519" lon="-0.34049">
        <ele>59.5</ele>
        <time>2011-09-04T08:13:57Z</time>
      </trkpt>
      <trkpt lat="47.51525" lon="-0.34054">
        <ele>59.2</ele>
        <time>2011-09-04T08:13:59Z</time>
      </trkpt>
      <trkpt lat="47.51529" lon="-0.34058">
        <ele>59</ele>
        <time>2011-09-04T08:14:00Z</time>
      </trkpt>
      <trkpt lat="47.51536" lon="-0.34064">
        <ele>59</ele>
        <time>2011-09-04T08:14:02Z</time>
      </trkpt>
      <trkpt lat="47.51543" lon="-0.34073">
        <ele>59</ele>
        <time>2011-09-04T08:14:04Z</time>
      </trkpt>
      <trkpt lat="47.51547" lon="-0.34079">
        <ele>59</ele>
        <time>2011-09-04T08:14:05Z</time>
      </trkpt>
      <trkpt lat="47.51552" lon="-0.34084">
        <ele>59</ele>
        <time>2011-09-04T08:14:06Z</time>
      </trkpt>
      <trkpt lat="47.51555" lon="-0.3409">
        <ele>59</ele>
        <time>2011-09-04T08:14:07Z</time>
      </trkpt>
      <trkpt lat="47.51559" lon="-0.34096">
        <ele>59</ele>
        <time>2011-09-04T08:14:08Z</time>
      </trkpt>
      <trkpt lat="47.51563" lon="-0.34102">
        <ele>59</ele>
        <time>2011-09-04T08:14:09Z</time>
      </trkpt>
      <trkpt lat="47.51569" lon="-0.34105">
        <ele>59</ele>
        <time>2011-09-04T08:14:10Z</time>
      </trkpt>
      <trkpt lat="47.51574" lon="-0.3411">
        <ele>59</ele>
        <time>2011-09-04T08:14:11Z</time>
      </trkpt>
      <trkpt lat="47.51578" lon="-0.34113">
        <ele>59</ele>
        <time>2011-09-04T08:14:12Z</time>
      </trkpt>
      <trkpt lat="47.51583" lon="-0.34116">
        <ele>59</ele>
        <time>2011-09-04T08:14:13Z</time>
      </trkpt>
      <trkpt lat="47.51588" lon="-0.34118">
        <ele>59</ele>
        <time>2011-09-04T08:14:14Z</time>
      </trkpt>
      <trkpt lat="47.51593" lon="-0.34121">
        <ele>59</ele>
        <time>2011-09-04T08:14:15Z</time>
      </trkpt>
      <trkpt lat="47.51598" lon="-0.34122">
        <ele>59</ele>
        <time>2011-09-04T08:14:16Z</time>
      </trkpt>
      <trkpt lat="47.51603" lon="-0.34126">
        <ele>59</ele>
        <time>2011-09-04T08:14:17Z</time>
      </trkpt>
      <trkpt lat="47.51609" lon="-0.34126">
        <ele>59</ele>
        <time>2011-09-04T08:14:18Z</time>
      </trkpt>
      <trkpt lat="47.51615" lon="-0.3413">
        <ele>58.9</ele>
        <time>2011-09-04T08:14:19Z</time>
      </trkpt>
      <trkpt lat="47.51622" lon="-0.3413">
        <ele>58.6</ele>
        <time>2011-09-04T08:14:20Z</time>
      </trkpt>
      <trkpt lat="47.51627" lon="-0.34132">
        <ele>58.4</ele>
        <time>2011-09-04T08:14:21Z</time>
      </trkpt>
      <trkpt lat="47.51632" lon="-0.34133">
        <ele>58.2</ele>
        <time>2011-09-04T08:14:22Z</time>
      </trkpt>
      <trkpt lat="47.51636" lon="-0.34137">
        <ele>58.1</ele>
        <time>2011-09-04T08:14:23Z</time>
      </trkpt>
      <trkpt lat="47.51641" lon="-0.34138">
        <ele>58</ele>
        <time>2011-09-04T08:14:24Z</time>
      </trkpt>
      <trkpt lat="47.51646" lon="-0.34141">
        <ele>58</ele>
        <time>2011-09-04T08:14:25Z</time>
      </trkpt>
      <trkpt lat="47.5165" lon="-0.34144">
        <ele>58</ele>
        <time>2011-09-04T08:14:26Z</time>
      </trkpt>
      <trkpt lat="47.5166" lon="-0.34148">
        <ele>58</ele>
        <time>2011-09-04T08:14:28Z</time>
      </trkpt>
      <trkpt lat="47.51665" lon="-0.3415">
        <ele>58</ele>
        <time>2011-09-04T08:14:29Z</time>
      </trkpt>
      <trkpt lat="47.51669" lon="-0.34151">
        <ele>58</ele>
        <time>2011-09-04T08:14:30Z</time>
      </trkpt>
      <trkpt lat="47.51674" lon="-0.34155">
        <ele>57.9</ele>
        <time>2011-09-04T08:14:31Z</time>
      </trkpt>
      <trkpt lat="47.51679" lon="-0.34157">
        <ele>57.8</ele>
        <time>2011-09-04T08:14:32Z</time>
      </trkpt>
      <trkpt lat="47.51683" lon="-0.34159">
        <ele>57.8</ele>
        <time>2011-09-04T08:14:33Z</time>
      </trkpt>
      <trkpt lat="47.51692" lon="-0.34162">
        <ele>57.8</ele>
        <time>2011-09-04T08:14:35Z</time>
      </trkpt>
      <trkpt lat="47.51697" lon="-0.34164">
        <ele>57.8</ele>
        <time>2011-09-04T08:14:36Z</time>
      </trkpt>
      <trkpt lat="47.51703" lon="-0.34165">
        <ele>57.7</ele>
        <time>2011-09-04T08:14:37Z</time>
      </trkpt>
      <trkpt lat="47.51708" lon="-0.34167">
        <ele>57.5</ele>
        <time>2011-09-04T08:14:38Z</time>
      </trkpt>
      <trkpt lat="47.51713" lon="-0.3417">
        <ele>57.4</ele>
        <time>2011-09-04T08:14:39Z</time>
      </trkpt>
      <trkpt lat="47.5172" lon="-0.34176">
        <ele>57.4</ele>
        <time>2011-09-04T08:14:41Z</time>
      </trkpt>
      <trkpt lat="47.51727" lon="-0.34182">
        <ele>57.6</ele>
        <time>2011-09-04T08:14:43Z</time>
      </trkpt>
      <trkpt lat="47.5173" lon="-0.34187">
        <ele>57.7</ele>
        <time>2011-09-04T08:14:44Z</time>
      </trkpt>
      <trkpt lat="47.51733" lon="-0.34193">
        <ele>57.9</ele>
        <time>2011-09-04T08:14:45Z</time>
      </trkpt>
      <trkpt lat="47.51738" lon="-0.342">
        <ele>58</ele>
        <time>2011-09-04T08:14:46Z</time>
      </trkpt>
      <trkpt lat="47.5174" lon="-0.34206">
        <ele>58</ele>
        <time>2011-09-04T08:14:47Z</time>
      </trkpt>
      <trkpt lat="47.51743" lon="-0.34212">
        <ele>58</ele>
        <time>2011-09-04T08:14:48Z</time>
      </trkpt>
      <trkpt lat="47.51747" lon="-0.34225">
        <ele>58.1</ele>
        <time>2011-09-04T08:14:50Z</time>
      </trkpt>
      <trkpt lat="47.51749" lon="-0.34232">
        <ele>58.4</ele>
        <time>2011-09-04T08:14:51Z</time>
      </trkpt>
      <trkpt lat="47.51752" lon="-0.34238">
        <ele>58.6</ele>
        <time>2011-09-04T08:14:52Z</time>
      </trkpt>
      <trkpt lat="47.51755" lon="-0.34244">
        <ele>58.8</ele>
        <time>2011-09-04T08:14:53Z</time>
      </trkpt>
      <trkpt lat="47.51757" lon="-0.34258">
        <ele>59</ele>
        <time>2011-09-04T08:14:55Z</time>
      </trkpt>
      <trkpt lat="47.51759" lon="-0.34264">
        <ele>59</ele>
        <time>2011-09-04T08:14:56Z</time>
      </trkpt>
      <trkpt lat="47.51763" lon="-0.34273">
        <ele>59</ele>
        <time>2011-09-04T08:14:58Z</time>
      </trkpt>
      <trkpt lat="47.51766" lon="-0.34279">
        <ele>59</ele>
        <time>2011-09-04T08:14:59Z</time>
      </trkpt>
      <trkpt lat="47.51769" lon="-0.3429">
        <ele>59</ele>
        <time>2011-09-04T08:15:01Z</time>
      </trkpt>
      <trkpt lat="47.5177" lon="-0.34297">
        <ele>59</ele>
        <time>2011-09-04T08:15:02Z</time>
      </trkpt>
      <trkpt lat="47.51772" lon="-0.3431">
        <ele>59.2</ele>
        <time>2011-09-04T08:15:04Z</time>
      </trkpt>
      <trkpt lat="47.51774" lon="-0.34317">
        <ele>59.4</ele>
        <time>2011-09-04T08:15:05Z</time>
      </trkpt>
      <trkpt lat="47.51777" lon="-0.34326">
        <ele>59.7</ele>
        <time>2011-09-04T08:15:07Z</time>
      </trkpt>
      <trkpt lat="47.51779" lon="-0.34337">
        <ele>60</ele>
        <time>2011-09-04T08:15:09Z</time>
      </trkpt>
      <trkpt lat="47.51781" lon="-0.34344">
        <ele>60</ele>
        <time>2011-09-04T08:15:10Z</time>
      </trkpt>
      <trkpt lat="47.51784" lon="-0.34356">
        <ele>60</ele>
        <time>2011-09-04T08:15:12Z</time>
      </trkpt>
      <trkpt lat="47.51787" lon="-0.34368">
        <ele>60</ele>
        <time>2011-09-04T08:15:14Z</time>
      </trkpt>
      <trkpt lat="47.51789" lon="-0.34377">
        <ele>60</ele>
        <time>2011-09-04T08:15:16Z</time>
      </trkpt>
      <trkpt lat="47.5179" lon="-0.34384">
        <ele>60</ele>
        <time>2011-09-04T08:15:17Z</time>
      </trkpt>
      <trkpt lat="47.51791" lon="-0.34391">
        <ele>60</ele>
        <time>2011-09-04T08:15:18Z</time>
      </trkpt>
      <trkpt lat="47.51793" lon="-0.344">
        <ele>60</ele>
        <time>2011-09-04T08:15:20Z</time>
      </trkpt>
      <trkpt lat="47.51796" lon="-0.34409">
        <ele>60</ele>
        <time>2011-09-04T08:15:22Z</time>
      </trkpt>
      <trkpt lat="47.51799" lon="-0.34419">
        <ele>60</ele>
        <time>2011-09-04T08:15:24Z</time>
      </trkpt>
      <trkpt lat="47.51801" lon="-0.34429">
        <ele>60</ele>
        <time>2011-09-04T08:15:26Z</time>
      </trkpt>
      <trkpt lat="47.51805" lon="-0.34437">
        <ele>60</ele>
        <time>2011-09-04T08:15:28Z</time>
      </trkpt>
      <trkpt lat="47.51808" lon="-0.34448">
        <ele>60.1</ele>
        <time>2011-09-04T08:15:30Z</time>
      </trkpt>
      <trkpt lat="47.5181" lon="-0.34457">
        <ele>60.4</ele>
        <time>2011-09-04T08:15:31Z</time>
      </trkpt>
      <trkpt lat="47.51812" lon="-0.34468">
        <ele>60.7</ele>
        <time>2011-09-04T08:15:33Z</time>
      </trkpt>
      <trkpt lat="47.51813" lon="-0.34476">
        <ele>60.8</ele>
        <time>2011-09-04T08:15:34Z</time>
      </trkpt>
      <trkpt lat="47.51814" lon="-0.34485">
        <ele>60.8</ele>
        <time>2011-09-04T08:15:35Z</time>
      </trkpt>
      <trkpt lat="47.51816" lon="-0.34491">
        <ele>60.9</ele>
        <time>2011-09-04T08:15:36Z</time>
      </trkpt>
      <trkpt lat="47.51818" lon="-0.34497">
        <ele>61</ele>
        <time>2011-09-04T08:15:37Z</time>
      </trkpt>
      <trkpt lat="47.51819" lon="-0.34504">
        <ele>61</ele>
        <time>2011-09-04T08:15:38Z</time>
      </trkpt>
      <trkpt lat="47.5182" lon="-0.34511">
        <ele>61</ele>
        <time>2011-09-04T08:15:39Z</time>
      </trkpt>
      <trkpt lat="47.51822" lon="-0.34518">
        <ele>61</ele>
        <time>2011-09-04T08:15:40Z</time>
      </trkpt>
      <trkpt lat="47.51824" lon="-0.34524">
        <ele>61</ele>
        <time>2011-09-04T08:15:41Z</time>
      </trkpt>
      <trkpt lat="47.51827" lon="-0.34532">
        <ele>61</ele>
        <time>2011-09-04T08:15:42Z</time>
      </trkpt>
      <trkpt lat="47.51829" lon="-0.34539">
        <ele>61</ele>
        <time>2011-09-04T08:15:43Z</time>
      </trkpt>
      <trkpt lat="47.5183" lon="-0.34546">
        <ele>61</ele>
        <time>2011-09-04T08:15:44Z</time>
      </trkpt>
      <trkpt lat="47.51833" lon="-0.34552">
        <ele>61</ele>
        <time>2011-09-04T08:15:45Z</time>
      </trkpt>
      <trkpt lat="47.51838" lon="-0.34561">
        <ele>61</ele>
        <time>2011-09-04T08:15:47Z</time>
      </trkpt>
      <trkpt lat="47.51843" lon="-0.34572">
        <ele>61</ele>
        <time>2011-09-04T08:15:49Z</time>
      </trkpt>
      <trkpt lat="47.51848" lon="-0.34582">
        <ele>61</ele>
        <time>2011-09-04T08:15:51Z</time>
      </trkpt>
      <trkpt lat="47.51852" lon="-0.34593">
        <ele>61</ele>
        <time>2011-09-04T08:15:53Z</time>
      </trkpt>
      <trkpt lat="47.51855" lon="-0.346">
        <ele>61</ele>
        <time>2011-09-04T08:15:54Z</time>
      </trkpt>
      <trkpt lat="47.51859" lon="-0.3461">
        <ele>61</ele>
        <time>2011-09-04T08:15:56Z</time>
      </trkpt>
      <trkpt lat="47.51864" lon="-0.34619">
        <ele>61</ele>
        <time>2011-09-04T08:15:58Z</time>
      </trkpt>
      <trkpt lat="47.51868" lon="-0.34627">
        <ele>61</ele>
        <time>2011-09-04T08:16:00Z</time>
      </trkpt>
      <trkpt lat="47.51872" lon="-0.34634">
        <ele>61</ele>
        <time>2011-09-04T08:16:02Z</time>
      </trkpt>
      <trkpt lat="47.51876" lon="-0.34641">
        <ele>61</ele>
        <time>2011-09-04T08:16:04Z</time>
      </trkpt>
      <trkpt lat="47.51876" lon="-0.34651">
        <ele>61</ele>
        <time>2011-09-04T08:16:07Z</time>
      </trkpt>
      <trkpt lat="47.51876" lon="-0.34658">
        <ele>61</ele>
        <time>2011-09-04T08:16:09Z</time>
      </trkpt>
      <trkpt lat="47.51869" lon="-0.34661">
        <ele>61</ele>
        <time>2011-09-04T08:16:12Z</time>
      </trkpt>
      <trkpt lat="47.51861" lon="-0.34666">
        <ele>61</ele>
        <time>2011-09-04T08:16:14Z</time>
      </trkpt>
      <trkpt lat="47.51856" lon="-0.34669">
        <ele>61</ele>
        <time>2011-09-04T08:16:15Z</time>
      </trkpt>
      <trkpt lat="47.51852" lon="-0.34673">
        <ele>61</ele>
        <time>2011-09-04T08:16:16Z</time>
      </trkpt>
      <trkpt lat="47.51848" lon="-0.34678">
        <ele>61</ele>
        <time>2011-09-04T08:16:17Z</time>
      </trkpt>
      <trkpt lat="47.51843" lon="-0.34682">
        <ele>61</ele>
        <time>2011-09-04T08:16:18Z</time>
      </trkpt>
      <trkpt lat="47.51839" lon="-0.34686">
        <ele>61</ele>
        <time>2011-09-04T08:16:19Z</time>
      </trkpt>
      <trkpt lat="47.51835" lon="-0.34692">
        <ele>61</ele>
        <time>2011-09-04T08:16:20Z</time>
      </trkpt>
      <trkpt lat="47.51831" lon="-0.34695">
        <ele>61</ele>
        <time>2011-09-04T08:16:21Z</time>
      </trkpt>
      <trkpt lat="47.51827" lon="-0.34701">
        <ele>61</ele>
        <time>2011-09-04T08:16:22Z</time>
      </trkpt>
      <trkpt lat="47.51823" lon="-0.34706">
        <ele>61</ele>
        <time>2011-09-04T08:16:23Z</time>
      </trkpt>
      <trkpt lat="47.51819" lon="-0.34713">
        <ele>61</ele>
        <time>2011-09-04T08:16:24Z</time>
      </trkpt>
      <trkpt lat="47.51815" lon="-0.34717">
        <ele>61</ele>
        <time>2011-09-04T08:16:25Z</time>
      </trkpt>
      <trkpt lat="47.51812" lon="-0.34723">
        <ele>61</ele>
        <time>2011-09-04T08:16:26Z</time>
      </trkpt>
      <trkpt lat="47.51807" lon="-0.34729">
        <ele>61</ele>
        <time>2011-09-04T08:16:27Z</time>
      </trkpt>
      <trkpt lat="47.51804" lon="-0.34735">
        <ele>61</ele>
        <time>2011-09-04T08:16:28Z</time>
      </trkpt>
      <trkpt lat="47.51799" lon="-0.34741">
        <ele>61</ele>
        <time>2011-09-04T08:16:29Z</time>
      </trkpt>
      <trkpt lat="47.51797" lon="-0.34749">
        <ele>61</ele>
        <time>2011-09-04T08:16:30Z</time>
      </trkpt>
      <trkpt lat="47.51794" lon="-0.34757">
        <ele>61</ele>
        <time>2011-09-04T08:16:31Z</time>
      </trkpt>
      <trkpt lat="47.51789" lon="-0.34762">
        <ele>61</ele>
        <time>2011-09-04T08:16:32Z</time>
      </trkpt>
      <trkpt lat="47.51785" lon="-0.34769">
        <ele>61</ele>
        <time>2011-09-04T08:16:33Z</time>
      </trkpt>
      <trkpt lat="47.51782" lon="-0.34775">
        <ele>61</ele>
        <time>2011-09-04T08:16:34Z</time>
      </trkpt>
      <trkpt lat="47.51777" lon="-0.3478">
        <ele>61</ele>
        <time>2011-09-04T08:16:35Z</time>
      </trkpt>
      <trkpt lat="47.51774" lon="-0.34787">
        <ele>60.9</ele>
        <time>2011-09-04T08:16:36Z</time>
      </trkpt>
      <trkpt lat="47.5177" lon="-0.34795">
        <ele>60.7</ele>
        <time>2011-09-04T08:16:37Z</time>
      </trkpt>
      <trkpt lat="47.51767" lon="-0.34802">
        <ele>60.6</ele>
        <time>2011-09-04T08:16:38Z</time>
      </trkpt>
      <trkpt lat="47.51762" lon="-0.34807">
        <ele>60.4</ele>
        <time>2011-09-04T08:16:39Z</time>
      </trkpt>
      <trkpt lat="47.51758" lon="-0.34812">
        <ele>60.3</ele>
        <time>2011-09-04T08:16:40Z</time>
      </trkpt>
      <trkpt lat="47.51754" lon="-0.34819">
        <ele>60.1</ele>
        <time>2011-09-04T08:16:41Z</time>
      </trkpt>
      <trkpt lat="47.51749" lon="-0.34825">
        <ele>60</ele>
        <time>2011-09-04T08:16:42Z</time>
      </trkpt>
      <trkpt lat="47.51745" lon="-0.34831">
        <ele>60</ele>
        <time>2011-09-04T08:16:43Z</time>
      </trkpt>
      <trkpt lat="47.51741" lon="-0.34836">
        <ele>60.1</ele>
        <time>2011-09-04T08:16:44Z</time>
      </trkpt>
      <trkpt lat="47.51736" lon="-0.3484">
        <ele>60.1</ele>
        <time>2011-09-04T08:16:45Z</time>
      </trkpt>
      <trkpt lat="47.51729" lon="-0.34848">
        <ele>60.1</ele>
        <time>2011-09-04T08:16:47Z</time>
      </trkpt>
      <trkpt lat="47.51724" lon="-0.34851">
        <ele>60</ele>
        <time>2011-09-04T08:16:48Z</time>
      </trkpt>
      <trkpt lat="47.5172" lon="-0.34858">
        <ele>60</ele>
        <time>2011-09-04T08:16:49Z</time>
      </trkpt>
      <trkpt lat="47.51717" lon="-0.34866">
        <ele>60</ele>
        <time>2011-09-04T08:16:50Z</time>
      </trkpt>
      <trkpt lat="47.51712" lon="-0.34874">
        <ele>60</ele>
        <time>2011-09-04T08:16:51Z</time>
      </trkpt>
      <trkpt lat="47.51709" lon="-0.34879">
        <ele>60</ele>
        <time>2011-09-04T08:16:52Z</time>
      </trkpt>
      <trkpt lat="47.51705" lon="-0.34884">
        <ele>60</ele>
        <time>2011-09-04T08:16:53Z</time>
      </trkpt>
      <trkpt lat="47.51701" lon="-0.3489">
        <ele>60</ele>
        <time>2011-09-04T08:16:54Z</time>
      </trkpt>
      <trkpt lat="47.51697" lon="-0.34896">
        <ele>60.3</ele>
        <time>2011-09-04T08:16:55Z</time>
      </trkpt>
      <trkpt lat="47.51692" lon="-0.34901">
        <ele>60.4</ele>
        <time>2011-09-04T08:16:56Z</time>
      </trkpt>
      <trkpt lat="47.51689" lon="-0.34907">
        <ele>60.7</ele>
        <time>2011-09-04T08:16:57Z</time>
      </trkpt>
      <trkpt lat="47.51686" lon="-0.34915">
        <ele>60.9</ele>
        <time>2011-09-04T08:16:58Z</time>
      </trkpt>
      <trkpt lat="47.51682" lon="-0.34921">
        <ele>61</ele>
        <time>2011-09-04T08:16:59Z</time>
      </trkpt>
      <trkpt lat="47.51678" lon="-0.34928">
        <ele>61</ele>
        <time>2011-09-04T08:17:00Z</time>
      </trkpt>
      <trkpt lat="47.51675" lon="-0.34933">
        <ele>61</ele>
        <time>2011-09-04T08:17:01Z</time>
      </trkpt>
      <trkpt lat="47.51672" lon="-0.34938">
        <ele>61</ele>
        <time>2011-09-04T08:17:02Z</time>
      </trkpt>
      <trkpt lat="47.51668" lon="-0.34944">
        <ele>61</ele>
        <time>2011-09-04T08:17:03Z</time>
      </trkpt>
      <trkpt lat="47.51664" lon="-0.34949">
        <ele>61.2</ele>
        <time>2011-09-04T08:17:04Z</time>
      </trkpt>
      <trkpt lat="47.5166" lon="-0.34952">
        <ele>61.3</ele>
        <time>2011-09-04T08:17:05Z</time>
      </trkpt>
      <trkpt lat="47.51656" lon="-0.34957">
        <ele>61.5</ele>
        <time>2011-09-04T08:17:06Z</time>
      </trkpt>
      <trkpt lat="47.51653" lon="-0.34962">
        <ele>61.6</ele>
        <time>2011-09-04T08:17:07Z</time>
      </trkpt>
      <trkpt lat="47.51651" lon="-0.34971">
        <ele>62</ele>
        <time>2011-09-04T08:17:09Z</time>
      </trkpt>
      <trkpt lat="47.51652" lon="-0.3498">
        <ele>62</ele>
        <time>2011-09-04T08:17:12Z</time>
      </trkpt>
      <trkpt lat="47.51654" lon="-0.34988">
        <ele>62</ele>
        <time>2011-09-04T08:17:14Z</time>
      </trkpt>
      <trkpt lat="47.51657" lon="-0.34995">
        <ele>62</ele>
        <time>2011-09-04T08:17:16Z</time>
      </trkpt>
      <trkpt lat="47.5166" lon="-0.35001">
        <ele>62</ele>
        <time>2011-09-04T08:17:18Z</time>
      </trkpt>
      <trkpt lat="47.51664" lon="-0.35009">
        <ele>62</ele>
        <time>2011-09-04T08:17:20Z</time>
      </trkpt>
      <trkpt lat="47.51667" lon="-0.35015">
        <ele>62</ele>
        <time>2011-09-04T08:17:21Z</time>
      </trkpt>
      <trkpt lat="47.5167" lon="-0.3502">
        <ele>62</ele>
        <time>2011-09-04T08:17:22Z</time>
      </trkpt>
      <trkpt lat="47.51673" lon="-0.35025">
        <ele>62</ele>
        <time>2011-09-04T08:17:24Z</time>
      </trkpt>
      <trkpt lat="47.51678" lon="-0.35034">
        <ele>62.1</ele>
        <time>2011-09-04T08:17:27Z</time>
      </trkpt>
      <trkpt lat="47.51682" lon="-0.35043">
        <ele>62.2</ele>
        <time>2011-09-04T08:17:29Z</time>
      </trkpt>
      <trkpt lat="47.51686" lon="-0.3505">
        <ele>62.2</ele>
        <time>2011-09-04T08:17:31Z</time>
      </trkpt>
      <trkpt lat="47.51689" lon="-0.35058">
        <ele>62.3</ele>
        <time>2011-09-04T08:17:33Z</time>
      </trkpt>
      <trkpt lat="47.51689" lon="-0.35065">
        <ele>62.5</ele>
        <time>2011-09-04T08:17:37Z</time>
      </trkpt>
      <trkpt lat="47.51688" lon="-0.35074">
        <ele>62.7</ele>
        <time>2011-09-04T08:17:54Z</time>
      </trkpt>
      <trkpt lat="47.51684" lon="-0.35082">
        <ele>63</ele>
        <time>2011-09-04T08:17:57Z</time>
      </trkpt>
      <trkpt lat="47.5168" lon="-0.35088">
        <ele>63</ele>
        <time>2011-09-04T08:17:59Z</time>
      </trkpt>
      <trkpt lat="47.51675" lon="-0.35091">
        <ele>63</ele>
        <time>2011-09-04T08:18:01Z</time>
      </trkpt>
      <trkpt lat="47.5167" lon="-0.35099">
        <ele>63</ele>
        <time>2011-09-04T08:18:03Z</time>
      </trkpt>
      <trkpt lat="47.51666" lon="-0.35104">
        <ele>63</ele>
        <time>2011-09-04T08:18:05Z</time>
      </trkpt>
      <trkpt lat="47.51663" lon="-0.35113">
        <ele>63.2</ele>
        <time>2011-09-04T08:18:07Z</time>
      </trkpt>
      <trkpt lat="47.5166" lon="-0.35119">
        <ele>63.5</ele>
        <time>2011-09-04T08:18:09Z</time>
      </trkpt>
      <trkpt lat="47.51656" lon="-0.35124">
        <ele>63.7</ele>
        <time>2011-09-04T08:18:11Z</time>
      </trkpt>
      <trkpt lat="47.51652" lon="-0.3513">
        <ele>63.8</ele>
        <time>2011-09-04T08:18:13Z</time>
      </trkpt>
      <trkpt lat="47.51647" lon="-0.35136">
        <ele>64</ele>
        <time>2011-09-04T08:18:16Z</time>
      </trkpt>
      <trkpt lat="47.51643" lon="-0.35141">
        <ele>64</ele>
        <time>2011-09-04T08:18:18Z</time>
      </trkpt>
      <trkpt lat="47.5164" lon="-0.35148">
        <ele>64</ele>
        <time>2011-09-04T08:18:21Z</time>
      </trkpt>
      <trkpt lat="47.51638" lon="-0.35156">
        <ele>64</ele>
        <time>2011-09-04T08:18:23Z</time>
      </trkpt>
      <trkpt lat="47.51634" lon="-0.35163">
        <ele>64.2</ele>
        <time>2011-09-04T08:18:26Z</time>
      </trkpt>
      <trkpt lat="47.51631" lon="-0.35168">
        <ele>64.3</ele>
        <time>2011-09-04T08:18:28Z</time>
      </trkpt>
      <trkpt lat="47.51628" lon="-0.35176">
        <ele>64.6</ele>
        <time>2011-09-04T08:18:30Z</time>
      </trkpt>
      <trkpt lat="47.51626" lon="-0.35184">
        <ele>64.8</ele>
        <time>2011-09-04T08:18:32Z</time>
      </trkpt>
      <trkpt lat="47.51624" lon="-0.35193">
        <ele>65</ele>
        <time>2011-09-04T08:18:35Z</time>
      </trkpt>
      <trkpt lat="47.51623" lon="-0.35202">
        <ele>65</ele>
        <time>2011-09-04T08:18:37Z</time>
      </trkpt>
      <trkpt lat="47.51623" lon="-0.35212">
        <ele>65</ele>
        <time>2011-09-04T08:18:40Z</time>
      </trkpt>
      <trkpt lat="47.51621" lon="-0.35218">
        <ele>65</ele>
        <time>2011-09-04T08:18:42Z</time>
      </trkpt>
      <trkpt lat="47.51621" lon="-0.35229">
        <ele>65</ele>
        <time>2011-09-04T08:18:45Z</time>
      </trkpt>
      <trkpt lat="47.51619" lon="-0.35237">
        <ele>65</ele>
        <time>2011-09-04T08:18:47Z</time>
      </trkpt>
      <trkpt lat="47.51617" lon="-0.35244">
        <ele>65</ele>
        <time>2011-09-04T08:18:49Z</time>
      </trkpt>
      <trkpt lat="47.51615" lon="-0.35251">
        <ele>65</ele>
        <time>2011-09-04T08:18:51Z</time>
      </trkpt>
      <trkpt lat="47.5161" lon="-0.35259">
        <ele>65</ele>
        <time>2011-09-04T08:18:53Z</time>
      </trkpt>
      <trkpt lat="47.51608" lon="-0.3527">
        <ele>65</ele>
        <time>2011-09-04T08:18:55Z</time>
      </trkpt>
      <trkpt lat="47.51607" lon="-0.35281">
        <ele>65</ele>
        <time>2011-09-04T08:18:57Z</time>
      </trkpt>
      <trkpt lat="47.51603" lon="-0.35287">
        <ele>65</ele>
        <time>2011-09-04T08:19:00Z</time>
      </trkpt>
      <trkpt lat="47.516" lon="-0.35292">
        <ele>65</ele>
        <time>2011-09-04T08:19:04Z</time>
      </trkpt>
      <trkpt lat="47.51604" lon="-0.35298">
        <ele>65</ele>
        <time>2011-09-04T08:19:13Z</time>
      </trkpt>
      <trkpt lat="47.51602" lon="-0.35305">
        <ele>65</ele>
        <time>2011-09-04T08:19:25Z</time>
      </trkpt>
      <trkpt lat="47.51598" lon="-0.35307">
        <ele>65</ele>
        <time>2011-09-04T08:19:28Z</time>
      </trkpt>
      <trkpt lat="47.51593" lon="-0.35314">
        <ele>65</ele>
        <time>2011-09-04T08:19:31Z</time>
      </trkpt>
      <trkpt lat="47.51588" lon="-0.35319">
        <ele>65</ele>
        <time>2011-09-04T08:19:33Z</time>
      </trkpt>
      <trkpt lat="47.51584" lon="-0.35324">
        <ele>65</ele>
        <time>2011-09-04T08:19:35Z</time>
      </trkpt>
      <trkpt lat="47.5158" lon="-0.3533">
        <ele>65</ele>
        <time>2011-09-04T08:19:37Z</time>
      </trkpt>
      <trkpt lat="47.51576" lon="-0.35333">
        <ele>65</ele>
        <time>2011-09-04T08:19:39Z</time>
      </trkpt>
      <trkpt lat="47.51572" lon="-0.35339">
        <ele>65</ele>
        <time>2011-09-04T08:19:41Z</time>
      </trkpt>
      <trkpt lat="47.51568" lon="-0.35344">
        <ele>65</ele>
        <time>2011-09-04T08:19:43Z</time>
      </trkpt>
      <trkpt lat="47.51563" lon="-0.35351">
        <ele>65</ele>
        <time>2011-09-04T08:19:45Z</time>
      </trkpt>
      <trkpt lat="47.51559" lon="-0.35358">
        <ele>65</ele>
        <time>2011-09-04T08:19:47Z</time>
      </trkpt>
      <trkpt lat="47.51554" lon="-0.35365">
        <ele>65</ele>
        <time>2011-09-04T08:19:49Z</time>
      </trkpt>
      <trkpt lat="47.5155" lon="-0.35372">
        <ele>65</ele>
        <time>2011-09-04T08:19:51Z</time>
      </trkpt>
      <trkpt lat="47.51547" lon="-0.35379">
        <ele>65</ele>
        <time>2011-09-04T08:19:53Z</time>
      </trkpt>
      <trkpt lat="47.51542" lon="-0.3539">
        <ele>65</ele>
        <time>2011-09-04T08:19:56Z</time>
      </trkpt>
      <trkpt lat="47.51538" lon="-0.35396">
        <ele>65</ele>
        <time>2011-09-04T08:19:58Z</time>
      </trkpt>
      <trkpt lat="47.51533" lon="-0.35401">
        <ele>65</ele>
        <time>2011-09-04T08:20:00Z</time>
      </trkpt>
      <trkpt lat="47.5153" lon="-0.35405">
        <ele>65</ele>
        <time>2011-09-04T08:20:01Z</time>
      </trkpt>
      <trkpt lat="47.51524" lon="-0.35407">
        <ele>65.1</ele>
        <time>2011-09-04T08:20:03Z</time>
      </trkpt>
      <trkpt lat="47.51521" lon="-0.35415">
        <ele>65.2</ele>
        <time>2011-09-04T08:20:06Z</time>
      </trkpt>
      <trkpt lat="47.51518" lon="-0.3542">
        <ele>65.4</ele>
        <time>2011-09-04T08:20:11Z</time>
      </trkpt>
      <trkpt lat="47.5152" lon="-0.35427">
        <ele>65.3</ele>
        <time>2011-09-04T08:20:34Z</time>
      </trkpt>
      <trkpt lat="47.5152" lon="-0.35427">
        <ele>65.3</ele>
        <time>2011-09-04T08:20:34Z</time>
      </trkpt>
      <trkpt lat="47.5152" lon="-0.35427">
        <ele>65.3</ele>
        <time>2011-09-04T08:20:35Z</time>
      </trkpt>
      <trkpt lat="47.51516" lon="-0.3543">
        <ele>65.4</ele>
        <time>2011-09-04T08:20:54Z</time>
      </trkpt>
      <trkpt lat="47.51511" lon="-0.35433">
        <ele>65.6</ele>
        <time>2011-09-04T08:20:57Z</time>
      </trkpt>
      <trkpt lat="47.51506" lon="-0.35438">
        <ele>65.8</ele>
        <time>2011-09-04T08:21:00Z</time>
      </trkpt>
      <trkpt lat="47.51502" lon="-0.35445">
        <ele>65.9</ele>
        <time>2011-09-04T08:21:03Z</time>
      </trkpt>
      <trkpt lat="47.51496" lon="-0.35449">
        <ele>65.9</ele>
        <time>2011-09-04T08:21:06Z</time>
      </trkpt>
      <trkpt lat="47.51491" lon="-0.35457">
        <ele>65.7</ele>
        <time>2011-09-04T08:21:09Z</time>
      </trkpt>
      <trkpt lat="47.51486" lon="-0.35462">
        <ele>65.7</ele>
        <time>2011-09-04T08:21:11Z</time>
      </trkpt>
      <trkpt lat="47.5148" lon="-0.3547">
        <ele>65.7</ele>
        <time>2011-09-04T08:21:13Z</time>
      </trkpt>
      <trkpt lat="47.51475" lon="-0.35475">
        <ele>65.9</ele>
        <time>2011-09-04T08:21:15Z</time>
      </trkpt>
      <trkpt lat="47.5147" lon="-0.35483">
        <ele>66</ele>
        <time>2011-09-04T08:21:17Z</time>
      </trkpt>
      <trkpt lat="47.51466" lon="-0.35489">
        <ele>66</ele>
        <time>2011-09-04T08:21:19Z</time>
      </trkpt>
      <trkpt lat="47.51462" lon="-0.35494">
        <ele>66</ele>
        <time>2011-09-04T08:21:21Z</time>
      </trkpt>
      <trkpt lat="47.51459" lon="-0.35499">
        <ele>66</ele>
        <time>2011-09-04T08:21:23Z</time>
      </trkpt>
      <trkpt lat="47.51454" lon="-0.35505">
        <ele>65.9</ele>
        <time>2011-09-04T08:21:25Z</time>
      </trkpt>
      <trkpt lat="47.51439" lon="-0.35536">
        <ele>65.8</ele>
      </trkpt>
      <trkpt lat="47.51422" lon="-0.3553">
        <ele>65.2</ele>
      </trkpt>
      <trkpt lat="47.514" lon="-0.35485">
        <ele>65.8</ele>
      </trkpt>
      <trkpt lat="47.51388" lon="-0.35465">
        <ele>65.8</ele>
      </trkpt>
      <trkpt lat="47.51384" lon="-0.35462">
        <ele>65.7</ele>
        <time>2009-10-04T13:23:35Z</time>
      </trkpt>
      <trkpt lat="47.51381" lon="-0.35458">
        <ele>65.6</ele>
        <time>2009-10-04T13:23:34Z</time>
      </trkpt>
      <trkpt lat="47.51378" lon="-0.35452">
        <ele>65.6</ele>
        <time>2009-10-04T13:23:33Z</time>
      </trkpt>
      <trkpt lat="47.51376" lon="-0.35447">
        <ele>65.5</ele>
        <time>2009-10-04T13:23:32Z</time>
      </trkpt>
      <trkpt lat="47.51374" lon="-0.35441">
        <ele>65.6</ele>
        <time>2009-10-04T13:23:31Z</time>
      </trkpt>
      <trkpt lat="47.51371" lon="-0.35436">
        <ele>65.8</ele>
        <time>2009-10-04T13:23:30Z</time>
      </trkpt>
      <trkpt lat="47.51368" lon="-0.35431">
        <ele>65.9</ele>
        <time>2009-10-04T13:23:29Z</time>
      </trkpt>
      <trkpt lat="47.51365" lon="-0.35427">
        <ele>66</ele>
        <time>2009-10-04T13:23:28Z</time>
      </trkpt>
      <trkpt lat="47.51362" lon="-0.35423">
        <ele>66</ele>
        <time>2009-10-04T13:23:27Z</time>
      </trkpt>
      <trkpt lat="47.51358" lon="-0.35419">
        <ele>66</ele>
        <time>2009-10-04T13:23:26Z</time>
      </trkpt>
      <trkpt lat="47.51355" lon="-0.35414">
        <ele>66</ele>
        <time>2009-10-04T13:23:25Z</time>
      </trkpt>
      <trkpt lat="47.51353" lon="-0.35409">
        <ele>66</ele>
        <time>2009-10-04T13:23:24Z</time>
      </trkpt>
      <trkpt lat="47.5135" lon="-0.35405">
        <ele>66</ele>
        <time>2009-10-04T13:23:23Z</time>
      </trkpt>
      <trkpt lat="47.51346" lon="-0.35401">
        <ele>66</ele>
        <time>2009-10-04T13:23:22Z</time>
      </trkpt>
      <trkpt lat="47.51343" lon="-0.35396">
        <ele>66</ele>
        <time>2009-10-04T13:23:21Z</time>
      </trkpt>
      <trkpt lat="47.51341" lon="-0.35391">
        <ele>66</ele>
        <time>2009-10-04T13:23:20Z</time>
      </trkpt>
      <trkpt lat="47.51338" lon="-0.35385">
        <ele>66</ele>
        <time>2009-10-04T13:23:19Z</time>
      </trkpt>
      <trkpt lat="47.51336" lon="-0.35379">
        <ele>66</ele>
        <time>2009-10-04T13:23:18Z</time>
      </trkpt>
      <trkpt lat="47.51333" lon="-0.35374">
        <ele>66</ele>
        <time>2009-10-04T13:23:17Z</time>
      </trkpt>
      <trkpt lat="47.51331" lon="-0.35368">
        <ele>66</ele>
        <time>2009-10-04T13:23:16Z</time>
      </trkpt>
      <trkpt lat="47.51328" lon="-0.35363">
        <ele>66</ele>
        <time>2009-10-04T13:23:15Z</time>
      </trkpt>
      <trkpt lat="47.51325" lon="-0.35358">
        <ele>66</ele>
        <time>2009-10-04T13:23:14Z</time>
      </trkpt>
      <trkpt lat="47.51322" lon="-0.35354">
        <ele>66</ele>
        <time>2009-10-04T13:23:13Z</time>
      </trkpt>
      <trkpt lat="47.51319" lon="-0.3535">
        <ele>66</ele>
        <time>2009-10-04T13:23:12Z</time>
      </trkpt>
      <trkpt lat="47.51315" lon="-0.35347">
        <ele>66</ele>
        <time>2009-10-04T13:23:11Z</time>
      </trkpt>
      <trkpt lat="47.51312" lon="-0.35344">
        <ele>66</ele>
        <time>2009-10-04T13:23:10Z</time>
      </trkpt>
      <trkpt lat="47.51308" lon="-0.35341">
        <ele>66</ele>
        <time>2009-10-04T13:23:09Z</time>
      </trkpt>
      <trkpt lat="47.51305" lon="-0.35339">
        <ele>66</ele>
        <time>2009-10-04T13:23:08Z</time>
      </trkpt>
      <trkpt lat="47.51301" lon="-0.35336">
        <ele>66</ele>
        <time>2009-10-04T13:23:07Z</time>
      </trkpt>
      <trkpt lat="47.51298" lon="-0.35333">
        <ele>66</ele>
        <time>2009-10-04T13:23:06Z</time>
      </trkpt>
      <trkpt lat="47.51294" lon="-0.35331">
        <ele>66</ele>
        <time>2009-10-04T13:23:05Z</time>
      </trkpt>
      <trkpt lat="47.51291" lon="-0.35328">
        <ele>66</ele>
        <time>2009-10-04T13:23:04Z</time>
      </trkpt>
      <trkpt lat="47.51288" lon="-0.35326">
        <ele>66</ele>
        <time>2009-10-04T13:23:03Z</time>
      </trkpt>
      <trkpt lat="47.51285" lon="-0.35323">
        <ele>66</ele>
        <time>2009-10-04T13:23:02Z</time>
      </trkpt>
      <trkpt lat="47.51282" lon="-0.3532">
        <ele>66</ele>
        <time>2009-10-04T13:23:01Z</time>
      </trkpt>
      <trkpt lat="47.51279" lon="-0.35318">
        <ele>66</ele>
        <time>2009-10-04T13:23:00Z</time>
      </trkpt>
      <trkpt lat="47.51276" lon="-0.35316">
        <ele>66</ele>
        <time>2009-10-04T13:22:59Z</time>
      </trkpt>
      <trkpt lat="47.51273" lon="-0.35314">
        <ele>66</ele>
        <time>2009-10-04T13:22:58Z</time>
      </trkpt>
      <trkpt lat="47.51271" lon="-0.35311">
        <ele>66</ele>
        <time>2009-10-04T13:22:57Z</time>
      </trkpt>
      <trkpt lat="47.51268" lon="-0.35309">
        <ele>66</ele>
        <time>2009-10-04T13:22:56Z</time>
      </trkpt>
      <trkpt lat="47.51265" lon="-0.35307">
        <ele>66</ele>
        <time>2009-10-04T13:22:55Z</time>
      </trkpt>
      <trkpt lat="47.51262" lon="-0.35305">
        <ele>66</ele>
        <time>2009-10-04T13:22:54Z</time>
      </trkpt>
      <trkpt lat="47.5126" lon="-0.35303">
        <ele>66</ele>
        <time>2009-10-04T13:22:53Z</time>
      </trkpt>
      <trkpt lat="47.51257" lon="-0.35301">
        <ele>66</ele>
        <time>2009-10-04T13:22:52Z</time>
      </trkpt>
      <trkpt lat="47.51254" lon="-0.35299">
        <ele>66</ele>
        <time>2009-10-04T13:22:51Z</time>
      </trkpt>
      <trkpt lat="47.51251" lon="-0.35297">
        <ele>66</ele>
        <time>2009-10-04T13:22:50Z</time>
      </trkpt>
      <trkpt lat="47.51247" lon="-0.35295">
        <ele>65.9</ele>
        <time>2009-10-04T13:22:49Z</time>
      </trkpt>
      <trkpt lat="47.51244" lon="-0.35294">
        <ele>65.8</ele>
        <time>2009-10-04T13:22:48Z</time>
      </trkpt>
      <trkpt lat="47.51241" lon="-0.35293">
        <ele>65.7</ele>
        <time>2009-10-04T13:22:47Z</time>
      </trkpt>
      <trkpt lat="47.51235" lon="-0.35291">
        <ele>65.5</ele>
        <time>2009-10-04T13:22:45Z</time>
      </trkpt>
      <trkpt lat="47.51232" lon="-0.35291">
        <ele>65.3</ele>
        <time>2009-10-04T13:22:44Z</time>
      </trkpt>
      <trkpt lat="47.51229" lon="-0.3529">
        <ele>65.2</ele>
        <time>2009-10-04T13:22:43Z</time>
      </trkpt>
      <trkpt lat="47.51226" lon="-0.35289">
        <ele>65.1</ele>
        <time>2009-10-04T13:22:42Z</time>
      </trkpt>
      <trkpt lat="47.51223" lon="-0.35288">
        <ele>65</ele>
        <time>2009-10-04T13:22:41Z</time>
      </trkpt>
      <trkpt lat="47.5122" lon="-0.35287">
        <ele>64.9</ele>
        <time>2009-10-04T13:22:40Z</time>
      </trkpt>
      <trkpt lat="47.51217" lon="-0.35286">
        <ele>64.8</ele>
        <time>2009-10-04T13:22:39Z</time>
      </trkpt>
      <trkpt lat="47.51214" lon="-0.35285">
        <ele>64.7</ele>
        <time>2009-10-04T13:22:38Z</time>
      </trkpt>
      <trkpt lat="47.51212" lon="-0.35284">
        <ele>64.6</ele>
        <time>2009-10-04T13:22:37Z</time>
      </trkpt>
      <trkpt lat="47.51209" lon="-0.35283">
        <ele>64.5</ele>
        <time>2009-10-04T13:22:36Z</time>
      </trkpt>
      <trkpt lat="47.51207" lon="-0.35282">
        <ele>64.5</ele>
        <time>2009-10-04T13:22:35Z</time>
      </trkpt>
      <trkpt lat="47.51205" lon="-0.35281">
        <ele>64.4</ele>
        <time>2009-10-04T13:22:34Z</time>
      </trkpt>
      <trkpt lat="47.51203" lon="-0.35279">
        <ele>64.3</ele>
        <time>2009-10-04T13:22:33Z</time>
      </trkpt>
      <trkpt lat="47.51201" lon="-0.35278">
        <ele>64.2</ele>
        <time>2009-10-04T13:22:32Z</time>
      </trkpt>
      <trkpt lat="47.51199" lon="-0.35277">
        <ele>64.2</ele>
        <time>2009-10-04T13:22:31Z</time>
      </trkpt>
      <trkpt lat="47.51195" lon="-0.35274">
        <ele>64.1</ele>
        <time>2009-10-04T13:22:29Z</time>
      </trkpt>
      <trkpt lat="47.51195" lon="-0.35274">
        <ele>64.1</ele>
        <time>2009-10-04T13:22:29Z</time>
      </trkpt>
      <trkpt lat="47.51193" lon="-0.35273">
        <ele>64.1</ele>
        <time>2009-10-04T13:22:28Z</time>
      </trkpt>
      <trkpt lat="47.5119" lon="-0.35272">
        <ele>64</ele>
        <time>2009-10-04T13:22:27Z</time>
      </trkpt>
      <trkpt lat="47.51188" lon="-0.35271">
        <ele>63.9</ele>
        <time>2009-10-04T13:22:26Z</time>
      </trkpt>
      <trkpt lat="47.51186" lon="-0.3527">
        <ele>63.8</ele>
        <time>2009-10-04T13:22:25Z</time>
      </trkpt>
      <trkpt lat="47.51183" lon="-0.35268">
        <ele>63.7</ele>
        <time>2009-10-04T13:22:24Z</time>
      </trkpt>
      <trkpt lat="47.51181" lon="-0.35266">
        <ele>63.5</ele>
        <time>2009-10-04T13:22:23Z</time>
      </trkpt>
      <trkpt lat="47.51178" lon="-0.35265">
        <ele>63.4</ele>
        <time>2009-10-04T13:22:22Z</time>
      </trkpt>
      <trkpt lat="47.51176" lon="-0.35264">
        <ele>63.2</ele>
        <time>2009-10-04T13:22:21Z</time>
      </trkpt>
      <trkpt lat="47.51173" lon="-0.35263">
        <ele>63</ele>
        <time>2009-10-04T13:22:20Z</time>
      </trkpt>
      <trkpt lat="47.51171" lon="-0.35261">
        <ele>62.7</ele>
        <time>2009-10-04T13:22:19Z</time>
      </trkpt>
      <trkpt lat="47.51168" lon="-0.3526">
        <ele>62.5</ele>
        <time>2009-10-04T13:22:18Z</time>
      </trkpt>
      <trkpt lat="47.51165" lon="-0.35258">
        <ele>62.2</ele>
        <time>2009-10-04T13:22:17Z</time>
      </trkpt>
      <trkpt lat="47.51162" lon="-0.35257">
        <ele>61.9</ele>
        <time>2009-10-04T13:22:16Z</time>
      </trkpt>
      <trkpt lat="47.5116" lon="-0.35256">
        <ele>61.6</ele>
        <time>2009-10-04T13:22:15Z</time>
      </trkpt>
      <trkpt lat="47.51157" lon="-0.35254">
        <ele>61.4</ele>
        <time>2009-10-04T13:22:14Z</time>
      </trkpt>
      <trkpt lat="47.51155" lon="-0.35253">
        <ele>61.2</ele>
        <time>2009-10-04T13:22:13Z</time>
      </trkpt>
      <trkpt lat="47.51152" lon="-0.35252">
        <ele>61</ele>
        <time>2009-10-04T13:22:12Z</time>
      </trkpt>
      <trkpt lat="47.5115" lon="-0.35249">
        <ele>60.8</ele>
        <time>2009-10-04T13:22:11Z</time>
      </trkpt>
      <trkpt lat="47.51148" lon="-0.35247">
        <ele>60.8</ele>
        <time>2009-10-04T13:22:10Z</time>
      </trkpt>
      <trkpt lat="47.51145" lon="-0.35245">
        <ele>60.6</ele>
        <time>2009-10-04T13:22:09Z</time>
      </trkpt>
      <trkpt lat="47.51143" lon="-0.35243">
        <ele>60.5</ele>
        <time>2009-10-04T13:22:08Z</time>
      </trkpt>
      <trkpt lat="47.5114" lon="-0.35242">
        <ele>60.4</ele>
        <time>2009-10-04T13:22:07Z</time>
      </trkpt>
      <trkpt lat="47.51138" lon="-0.35241">
        <ele>60.3</ele>
        <time>2009-10-04T13:22:06Z</time>
      </trkpt>
      <trkpt lat="47.51135" lon="-0.35239">
        <ele>60.1</ele>
        <time>2009-10-04T13:22:05Z</time>
      </trkpt>
      <trkpt lat="47.51133" lon="-0.35237">
        <ele>60</ele>
        <time>2009-10-04T13:22:04Z</time>
      </trkpt>
      <trkpt lat="47.5113" lon="-0.35235">
        <ele>59.9</ele>
        <time>2009-10-04T13:22:03Z</time>
      </trkpt>
      <trkpt lat="47.51128" lon="-0.35233">
        <ele>59.7</ele>
        <time>2009-10-04T13:22:02Z</time>
      </trkpt>
      <trkpt lat="47.51126" lon="-0.35231">
        <ele>59.6</ele>
        <time>2009-10-04T13:22:01Z</time>
      </trkpt>
      <trkpt lat="47.51123" lon="-0.35228">
        <ele>59.3</ele>
        <time>2009-10-04T13:22:00Z</time>
      </trkpt>
      <trkpt lat="47.5112" lon="-0.35226">
        <ele>59.1</ele>
        <time>2009-10-04T13:21:59Z</time>
      </trkpt>
      <trkpt lat="47.51118" lon="-0.35224">
        <ele>58.8</ele>
        <time>2009-10-04T13:21:58Z</time>
      </trkpt>
      <trkpt lat="47.51112" lon="-0.3522">
        <ele>58.3</ele>
        <time>2009-10-04T13:21:56Z</time>
      </trkpt>
      <trkpt lat="47.51109" lon="-0.35218">
        <ele>58.2</ele>
        <time>2009-10-04T13:21:55Z</time>
      </trkpt>
      <trkpt lat="47.51107" lon="-0.35216">
        <ele>58.1</ele>
        <time>2009-10-04T13:21:54Z</time>
      </trkpt>
      <trkpt lat="47.51104" lon="-0.35213">
        <ele>57.9</ele>
        <time>2009-10-04T13:21:53Z</time>
      </trkpt>
      <trkpt lat="47.51101" lon="-0.35211">
        <ele>57.8</ele>
        <time>2009-10-04T13:21:52Z</time>
      </trkpt>
      <trkpt lat="47.51098" lon="-0.35209">
        <ele>57.5</ele>
        <time>2009-10-04T13:21:51Z</time>
      </trkpt>
      <trkpt lat="47.51095" lon="-0.35207">
        <ele>57.3</ele>
        <time>2009-10-04T13:21:50Z</time>
      </trkpt>
      <trkpt lat="47.51092" lon="-0.35205">
        <ele>57</ele>
        <time>2009-10-04T13:21:49Z</time>
      </trkpt>
      <trkpt lat="47.5109" lon="-0.35202">
        <ele>56.8</ele>
        <time>2009-10-04T13:21:48Z</time>
      </trkpt>
      <trkpt lat="47.51087" lon="-0.352">
        <ele>56.5</ele>
        <time>2009-10-04T13:21:47Z</time>
      </trkpt>
      <trkpt lat="47.51085" lon="-0.35198">
        <ele>56.2</ele>
        <time>2009-10-04T13:21:46Z</time>
      </trkpt>
      <trkpt lat="47.51083" lon="-0.35196">
        <ele>56</ele>
        <time>2009-10-04T13:21:45Z</time>
      </trkpt>
      <trkpt lat="47.5108" lon="-0.35193">
        <ele>56</ele>
        <time>2009-10-04T13:21:44Z</time>
      </trkpt>
      <trkpt lat="47.51078" lon="-0.35191">
        <ele>56</ele>
        <time>2009-10-04T13:21:43Z</time>
      </trkpt>
      <trkpt lat="47.51076" lon="-0.35189">
        <ele>55.9</ele>
        <time>2009-10-04T13:21:42Z</time>
      </trkpt>
      <trkpt lat="47.51075" lon="-0.35187">
        <ele>55.9</ele>
        <time>2009-10-04T13:21:41Z</time>
      </trkpt>
      <trkpt lat="47.51073" lon="-0.35185">
        <ele>55.8</ele>
        <time>2009-10-04T13:21:40Z</time>
      </trkpt>
      <trkpt lat="47.51071" lon="-0.35183">
        <ele>55.6</ele>
        <time>2009-10-04T13:21:39Z</time>
      </trkpt>
      <trkpt lat="47.51069" lon="-0.3518">
        <ele>55.5</ele>
        <time>2009-10-04T13:21:38Z</time>
      </trkpt>
      <trkpt lat="47.51067" lon="-0.35178">
        <ele>55.2</ele>
        <time>2009-10-04T13:21:37Z</time>
      </trkpt>
      <trkpt lat="47.51066" lon="-0.35174">
        <ele>55</ele>
        <time>2009-10-04T13:21:36Z</time>
      </trkpt>
      <trkpt lat="47.51064" lon="-0.35171">
        <ele>54.7</ele>
        <time>2009-10-04T13:21:35Z</time>
      </trkpt>
      <trkpt lat="47.51062" lon="-0.35169">
        <ele>54.2</ele>
        <time>2009-10-04T13:21:34Z</time>
      </trkpt>
      <trkpt lat="47.5106" lon="-0.35165">
        <ele>53.7</ele>
        <time>2009-10-04T13:21:33Z</time>
      </trkpt>
      <trkpt lat="47.51058" lon="-0.35162">
        <ele>53.4</ele>
        <time>2009-10-04T13:21:32Z</time>
      </trkpt>
      <trkpt lat="47.51056" lon="-0.35159">
        <ele>53.1</ele>
        <time>2009-10-04T13:21:31Z</time>
      </trkpt>
      <trkpt lat="47.51054" lon="-0.35156">
        <ele>53</ele>
        <time>2009-10-04T13:21:30Z</time>
      </trkpt>
      <trkpt lat="47.51053" lon="-0.35153">
        <ele>52.9</ele>
        <time>2009-10-04T13:21:29Z</time>
      </trkpt>
      <trkpt lat="47.51051" lon="-0.35149">
        <ele>52.9</ele>
        <time>2009-10-04T13:21:28Z</time>
      </trkpt>
      <trkpt lat="47.51049" lon="-0.35146">
        <ele>52.8</ele>
        <time>2009-10-04T13:21:27Z</time>
      </trkpt>
      <trkpt lat="47.51047" lon="-0.35142">
        <ele>52.7</ele>
        <time>2009-10-04T13:21:26Z</time>
      </trkpt>
      <trkpt lat="47.51045" lon="-0.35139">
        <ele>52.6</ele>
        <time>2009-10-04T13:21:25Z</time>
      </trkpt>
      <trkpt lat="47.51043" lon="-0.35136">
        <ele>52.7</ele>
        <time>2009-10-04T13:21:24Z</time>
      </trkpt>
      <trkpt lat="47.51041" lon="-0.35133">
        <ele>52.7</ele>
        <time>2009-10-04T13:21:23Z</time>
      </trkpt>
      <trkpt lat="47.51038" lon="-0.35131">
        <ele>52.6</ele>
        <time>2009-10-04T13:21:22Z</time>
      </trkpt>
      <trkpt lat="47.51035" lon="-0.35128">
        <ele>52.5</ele>
        <time>2009-10-04T13:21:21Z</time>
      </trkpt>
      <trkpt lat="47.51032" lon="-0.35126">
        <ele>52.3</ele>
        <time>2009-10-04T13:21:20Z</time>
      </trkpt>
      <trkpt lat="47.5103" lon="-0.35125">
        <ele>52.1</ele>
        <time>2009-10-04T13:21:19Z</time>
      </trkpt>
      <trkpt lat="47.51027" lon="-0.35123">
        <ele>51.9</ele>
        <time>2009-10-04T13:21:18Z</time>
      </trkpt>
      <trkpt lat="47.51024" lon="-0.35121">
        <ele>51.6</ele>
        <time>2009-10-04T13:21:17Z</time>
      </trkpt>
      <trkpt lat="47.51021" lon="-0.35119">
        <ele>51.2</ele>
        <time>2009-10-04T13:21:16Z</time>
      </trkpt>
      <trkpt lat="47.51018" lon="-0.35117">
        <ele>50.8</ele>
        <time>2009-10-04T13:21:15Z</time>
      </trkpt>
      <trkpt lat="47.51015" lon="-0.35116">
        <ele>50.4</ele>
        <time>2009-10-04T13:21:14Z</time>
      </trkpt>
      <trkpt lat="47.51011" lon="-0.35114">
        <ele>49.8</ele>
        <time>2009-10-04T13:21:13Z</time>
      </trkpt>
      <trkpt lat="47.51008" lon="-0.35112">
        <ele>49.2</ele>
        <time>2009-10-04T13:21:12Z</time>
      </trkpt>
      <trkpt lat="47.51004" lon="-0.35111">
        <ele>48.6</ele>
        <time>2009-10-04T13:21:11Z</time>
      </trkpt>
      <trkpt lat="47.51001" lon="-0.35109">
        <ele>48.2</ele>
        <time>2009-10-04T13:21:10Z</time>
      </trkpt>
      <trkpt lat="47.50993" lon="-0.35104">
        <ele>48.1</ele>
        <time>2009-10-04T13:21:08Z</time>
      </trkpt>
      <trkpt lat="47.5099" lon="-0.35102">
        <ele>48.1</ele>
        <time>2009-10-04T13:21:07Z</time>
      </trkpt>
      <trkpt lat="47.50986" lon="-0.351">
        <ele>48</ele>
        <time>2009-10-04T13:21:06Z</time>
      </trkpt>
      <trkpt lat="47.50982" lon="-0.35097">
        <ele>47.8</ele>
        <time>2009-10-04T13:21:05Z</time>
      </trkpt>
      <trkpt lat="47.50978" lon="-0.35094">
        <ele>47.6</ele>
        <time>2009-10-04T13:21:04Z</time>
      </trkpt>
      <trkpt lat="47.50974" lon="-0.3509">
        <ele>47.3</ele>
        <time>2009-10-04T13:21:03Z</time>
      </trkpt>
      <trkpt lat="47.5097" lon="-0.35086">
        <ele>47.1</ele>
        <time>2009-10-04T13:21:02Z</time>
      </trkpt>
      <trkpt lat="47.50966" lon="-0.35082">
        <ele>47</ele>
        <time>2009-10-04T13:21:01Z</time>
      </trkpt>
      <trkpt lat="47.50962" lon="-0.35078">
        <ele>47</ele>
        <time>2009-10-04T13:21:00Z</time>
      </trkpt>
      <trkpt lat="47.50958" lon="-0.35074">
        <ele>46.8</ele>
        <time>2009-10-04T13:20:59Z</time>
      </trkpt>
      <trkpt lat="47.50954" lon="-0.3507">
        <ele>46.5</ele>
        <time>2009-10-04T13:20:58Z</time>
      </trkpt>
      <trkpt lat="47.50949" lon="-0.35067">
        <ele>46.1</ele>
        <time>2009-10-04T13:20:57Z</time>
      </trkpt>
      <trkpt lat="47.50945" lon="-0.35066">
        <ele>45.7</ele>
        <time>2009-10-04T13:20:56Z</time>
      </trkpt>
      <trkpt lat="47.5094" lon="-0.35066">
        <ele>45.5</ele>
        <time>2009-10-04T13:20:55Z</time>
      </trkpt>
      <trkpt lat="47.50935" lon="-0.35067">
        <ele>45.2</ele>
        <time>2009-10-04T13:20:54Z</time>
      </trkpt>
      <trkpt lat="47.5093" lon="-0.3507">
        <ele>45</ele>
        <time>2009-10-04T13:20:53Z</time>
      </trkpt>
      <trkpt lat="47.50926" lon="-0.35072">
        <ele>44.7</ele>
        <time>2009-10-04T13:20:52Z</time>
      </trkpt>
      <trkpt lat="47.50921" lon="-0.35075">
        <ele>44.4</ele>
        <time>2009-10-04T13:20:51Z</time>
      </trkpt>
      <trkpt lat="47.50916" lon="-0.35078">
        <ele>44</ele>
        <time>2009-10-04T13:20:50Z</time>
      </trkpt>
      <trkpt lat="47.50911" lon="-0.35081">
        <ele>43.8</ele>
        <time>2009-10-04T13:20:49Z</time>
      </trkpt>
      <trkpt lat="47.50907" lon="-0.35083">
        <ele>43.6</ele>
        <time>2009-10-04T13:20:48Z</time>
      </trkpt>
      <trkpt lat="47.50902" lon="-0.35086">
        <ele>43.4</ele>
        <time>2009-10-04T13:20:47Z</time>
      </trkpt>
      <trkpt lat="47.50897" lon="-0.35089">
        <ele>43.2</ele>
        <time>2009-10-04T13:20:46Z</time>
      </trkpt>
      <trkpt lat="47.50891" lon="-0.35091">
        <ele>43.1</ele>
        <time>2009-10-04T13:20:45Z</time>
      </trkpt>
      <trkpt lat="47.50886" lon="-0.35093">
        <ele>42.9</ele>
        <time>2009-10-04T13:20:44Z</time>
      </trkpt>
      <trkpt lat="47.5088" lon="-0.35095">
        <ele>42.7</ele>
        <time>2009-10-04T13:20:43Z</time>
      </trkpt>
      <trkpt lat="47.50874" lon="-0.35097">
        <ele>42.4</ele>
        <time>2009-10-04T13:20:42Z</time>
      </trkpt>
      <trkpt lat="47.50868" lon="-0.35098">
        <ele>42.2</ele>
        <time>2009-10-04T13:20:41Z</time>
      </trkpt>
      <trkpt lat="47.50861" lon="-0.35098">
        <ele>42</ele>
        <time>2009-10-04T13:20:40Z</time>
      </trkpt>
      <trkpt lat="47.50855" lon="-0.35099">
        <ele>42</ele>
        <time>2009-10-04T13:20:39Z</time>
      </trkpt>
      <trkpt lat="47.50848" lon="-0.351">
        <ele>42</ele>
        <time>2009-10-04T13:20:38Z</time>
      </trkpt>
      <trkpt lat="47.50841" lon="-0.351">
        <ele>42</ele>
        <time>2009-10-04T13:20:37Z</time>
      </trkpt>
      <trkpt lat="47.50834" lon="-0.351">
        <ele>42</ele>
        <time>2009-10-04T13:20:36Z</time>
      </trkpt>
      <trkpt lat="47.50827" lon="-0.35101">
        <ele>41.9</ele>
        <time>2009-10-04T13:20:35Z</time>
      </trkpt>
      <trkpt lat="47.50821" lon="-0.35101">
        <ele>41.8</ele>
        <time>2009-10-04T13:20:34Z</time>
      </trkpt>
      <trkpt lat="47.50813" lon="-0.35102">
        <ele>41.8</ele>
        <time>2009-10-04T13:20:33Z</time>
      </trkpt>
      <trkpt lat="47.50806" lon="-0.35103">
        <ele>41.7</ele>
        <time>2009-10-04T13:20:32Z</time>
      </trkpt>
      <trkpt lat="47.50799" lon="-0.35103">
        <ele>41.7</ele>
        <time>2009-10-04T13:20:31Z</time>
      </trkpt>
      <trkpt lat="47.50792" lon="-0.35104">
        <ele>41.8</ele>
        <time>2009-10-04T13:20:30Z</time>
      </trkpt>
      <trkpt lat="47.50784" lon="-0.35105">
        <ele>41.8</ele>
        <time>2009-10-04T13:20:29Z</time>
      </trkpt>
      <trkpt lat="47.50776" lon="-0.35107">
        <ele>41.8</ele>
        <time>2009-10-04T13:20:28Z</time>
      </trkpt>
      <trkpt lat="47.50769" lon="-0.35108">
        <ele>41.9</ele>
        <time>2009-10-04T13:20:27Z</time>
      </trkpt>
      <trkpt lat="47.50761" lon="-0.3511">
        <ele>42</ele>
        <time>2009-10-04T13:20:26Z</time>
      </trkpt>
      <trkpt lat="47.50754" lon="-0.35112">
        <ele>42</ele>
        <time>2009-10-04T13:20:25Z</time>
      </trkpt>
      <trkpt lat="47.50746" lon="-0.35113">
        <ele>42</ele>
        <time>2009-10-04T13:20:24Z</time>
      </trkpt>
      <trkpt lat="47.50739" lon="-0.35115">
        <ele>42.1</ele>
        <time>2009-10-04T13:20:23Z</time>
      </trkpt>
      <trkpt lat="47.50731" lon="-0.35117">
        <ele>42.1</ele>
        <time>2009-10-04T13:20:22Z</time>
      </trkpt>
      <trkpt lat="47.50724" lon="-0.35118">
        <ele>42.2</ele>
        <time>2009-10-04T13:20:21Z</time>
      </trkpt>
      <trkpt lat="47.50716" lon="-0.3512">
        <ele>42.3</ele>
        <time>2009-10-04T13:20:20Z</time>
      </trkpt>
      <trkpt lat="47.50709" lon="-0.35122">
        <ele>42.4</ele>
        <time>2009-10-04T13:20:19Z</time>
      </trkpt>
      <trkpt lat="47.50694" lon="-0.35126">
        <ele>42.5</ele>
        <time>2009-10-04T13:20:17Z</time>
      </trkpt>
      <trkpt lat="47.50687" lon="-0.35127">
        <ele>42.7</ele>
        <time>2009-10-04T13:20:16Z</time>
      </trkpt>
      <trkpt lat="47.50679" lon="-0.35129">
        <ele>42.8</ele>
        <time>2009-10-04T13:20:15Z</time>
      </trkpt>
      <trkpt lat="47.50671" lon="-0.35131">
        <ele>43</ele>
        <time>2009-10-04T13:20:14Z</time>
      </trkpt>
      <trkpt lat="47.50664" lon="-0.35133">
        <ele>43</ele>
        <time>2009-10-04T13:20:13Z</time>
      </trkpt>
      <trkpt lat="47.50656" lon="-0.35134">
        <ele>43</ele>
        <time>2009-10-04T13:20:12Z</time>
      </trkpt>
      <trkpt lat="47.50648" lon="-0.35136">
        <ele>43</ele>
        <time>2009-10-04T13:20:11Z</time>
      </trkpt>
      <trkpt lat="47.5064" lon="-0.35138">
        <ele>43</ele>
        <time>2009-10-04T13:20:10Z</time>
      </trkpt>
      <trkpt lat="47.50632" lon="-0.3514">
        <ele>43</ele>
        <time>2009-10-04T13:20:09Z</time>
      </trkpt>
      <trkpt lat="47.50624" lon="-0.35142">
        <ele>43.1</ele>
        <time>2009-10-04T13:20:08Z</time>
      </trkpt>
      <trkpt lat="47.50615" lon="-0.35144">
        <ele>43.2</ele>
        <time>2009-10-04T13:20:07Z</time>
      </trkpt>
      <trkpt lat="47.50607" lon="-0.35145">
        <ele>43.3</ele>
        <time>2009-10-04T13:20:06Z</time>
      </trkpt>
      <trkpt lat="47.50599" lon="-0.35147">
        <ele>43.6</ele>
        <time>2009-10-04T13:20:05Z</time>
      </trkpt>
      <trkpt lat="47.50591" lon="-0.35149">
        <ele>43.8</ele>
        <time>2009-10-04T13:20:04Z</time>
      </trkpt>
      <trkpt lat="47.50583" lon="-0.35151">
        <ele>44</ele>
        <time>2009-10-04T13:20:03Z</time>
      </trkpt>
      <trkpt lat="47.50575" lon="-0.35152">
        <ele>44</ele>
        <time>2009-10-04T13:20:02Z</time>
      </trkpt>
      <trkpt lat="47.50567" lon="-0.35154">
        <ele>44</ele>
        <time>2009-10-04T13:20:01Z</time>
      </trkpt>
      <trkpt lat="47.50559" lon="-0.35156">
        <ele>44</ele>
        <time>2009-10-04T13:20:00Z</time>
      </trkpt>
      <trkpt lat="47.50551" lon="-0.35157">
        <ele>44.2</ele>
        <time>2009-10-04T13:19:59Z</time>
      </trkpt>
      <trkpt lat="47.50542" lon="-0.35159">
        <ele>44.5</ele>
        <time>2009-10-04T13:19:58Z</time>
      </trkpt>
      <trkpt lat="47.50534" lon="-0.3516">
        <ele>44.8</ele>
        <time>2009-10-04T13:19:57Z</time>
      </trkpt>
      <trkpt lat="47.50526" lon="-0.35162">
        <ele>45</ele>
        <time>2009-10-04T13:19:56Z</time>
      </trkpt>
      <trkpt lat="47.50518" lon="-0.35163">
        <ele>45</ele>
        <time>2009-10-04T13:19:55Z</time>
      </trkpt>
      <trkpt lat="47.50509" lon="-0.35165">
        <ele>45</ele>
        <time>2009-10-04T13:19:54Z</time>
      </trkpt>
      <trkpt lat="47.50501" lon="-0.35167">
        <ele>45</ele>
        <time>2009-10-04T13:19:53Z</time>
      </trkpt>
      <trkpt lat="47.50493" lon="-0.35168">
        <ele>45.3</ele>
        <time>2009-10-04T13:19:52Z</time>
      </trkpt>
      <trkpt lat="47.50485" lon="-0.3517">
        <ele>45.6</ele>
        <time>2009-10-04T13:19:51Z</time>
      </trkpt>
      <trkpt lat="47.50476" lon="-0.35172">
        <ele>45.9</ele>
        <time>2009-10-04T13:19:50Z</time>
      </trkpt>
      <trkpt lat="47.50468" lon="-0.35173">
        <ele>46</ele>
        <time>2009-10-04T13:19:49Z</time>
      </trkpt>
      <trkpt lat="47.50459" lon="-0.35175">
        <ele>46.1</ele>
        <time>2009-10-04T13:19:48Z</time>
      </trkpt>
      <trkpt lat="47.50451" lon="-0.35177">
        <ele>46.3</ele>
        <time>2009-10-04T13:19:47Z</time>
      </trkpt>
      <trkpt lat="47.50443" lon="-0.35178">
        <ele>46.4</ele>
        <time>2009-10-04T13:19:46Z</time>
      </trkpt>
      <trkpt lat="47.50435" lon="-0.3518">
        <ele>46.7</ele>
        <time>2009-10-04T13:19:45Z</time>
      </trkpt>
      <trkpt lat="47.50426" lon="-0.35181">
        <ele>46.8</ele>
        <time>2009-10-04T13:19:44Z</time>
      </trkpt>
      <trkpt lat="47.50418" lon="-0.35182">
        <ele>47</ele>
        <time>2009-10-04T13:19:43Z</time>
      </trkpt>
      <trkpt lat="47.5041" lon="-0.35184">
        <ele>47.2</ele>
        <time>2009-10-04T13:19:42Z</time>
      </trkpt>
      <trkpt lat="47.50403" lon="-0.35187">
        <ele>47.5</ele>
        <time>2009-10-04T13:19:41Z</time>
      </trkpt>
      <trkpt lat="47.50395" lon="-0.3519">
        <ele>47.8</ele>
        <time>2009-10-04T13:19:40Z</time>
      </trkpt>
      <trkpt lat="47.50389" lon="-0.35195">
        <ele>48</ele>
        <time>2009-10-04T13:19:39Z</time>
      </trkpt>
      <trkpt lat="47.50382" lon="-0.352">
        <ele>48.3</ele>
        <time>2009-10-04T13:19:38Z</time>
      </trkpt>
      <trkpt lat="47.50377" lon="-0.35206">
        <ele>48.6</ele>
        <time>2009-10-04T13:19:37Z</time>
      </trkpt>
      <trkpt lat="47.5037" lon="-0.35211">
        <ele>49.1</ele>
        <time>2009-10-04T13:19:36Z</time>
      </trkpt>
      <trkpt lat="47.50363" lon="-0.35213">
        <ele>49.6</ele>
        <time>2009-10-04T13:19:35Z</time>
      </trkpt>
      <trkpt lat="47.50358" lon="-0.35211">
        <ele>49.8</ele>
        <time>2009-10-04T13:19:34Z</time>
      </trkpt>
      <trkpt lat="47.50354" lon="-0.35205">
        <ele>49.8</ele>
        <time>2009-10-04T13:19:33Z</time>
      </trkpt>
      <trkpt lat="47.50351" lon="-0.35198">
        <ele>49.8</ele>
        <time>2009-10-04T13:19:32Z</time>
      </trkpt>
      <trkpt lat="47.50349" lon="-0.35191">
        <ele>49.8</ele>
        <time>2009-10-04T13:19:31Z</time>
      </trkpt>
      <trkpt lat="47.50347" lon="-0.35183">
        <ele>49.8</ele>
        <time>2009-10-04T13:19:30Z</time>
      </trkpt>
      <trkpt lat="47.50341" lon="-0.35175">
        <ele>50.2</ele>
        <time>2009-10-04T13:19:28Z</time>
      </trkpt>
      <trkpt lat="47.50337" lon="-0.35174">
        <ele>50.6</ele>
        <time>2009-10-04T13:19:27Z</time>
      </trkpt>
      <trkpt lat="47.50328" lon="-0.35175">
        <ele>51.4</ele>
        <time>2009-10-04T13:19:25Z</time>
      </trkpt>
      <trkpt lat="47.50323" lon="-0.35175">
        <ele>51.8</ele>
        <time>2009-10-04T13:19:24Z</time>
      </trkpt>
      <trkpt lat="47.50317" lon="-0.35176">
        <ele>52.2</ele>
        <time>2009-10-04T13:19:23Z</time>
      </trkpt>
      <trkpt lat="47.50309" lon="-0.35177">
        <ele>52.7</ele>
        <time>2009-10-04T13:19:22Z</time>
      </trkpt>
      <trkpt lat="47.50302" lon="-0.35178">
        <ele>53.3</ele>
        <time>2009-10-04T13:19:21Z</time>
      </trkpt>
      <trkpt lat="47.50294" lon="-0.3518">
        <ele>53.8</ele>
        <time>2009-10-04T13:19:20Z</time>
      </trkpt>
      <trkpt lat="47.50287" lon="-0.35183">
        <ele>54.4</ele>
        <time>2009-10-04T13:19:19Z</time>
      </trkpt>
      <trkpt lat="47.50279" lon="-0.35185">
        <ele>54.9</ele>
        <time>2009-10-04T13:19:18Z</time>
      </trkpt>
      <trkpt lat="47.50272" lon="-0.35187">
        <ele>55.3</ele>
        <time>2009-10-04T13:19:17Z</time>
      </trkpt>
      <trkpt lat="47.50264" lon="-0.35189">
        <ele>55.6</ele>
        <time>2009-10-04T13:19:16Z</time>
      </trkpt>
      <trkpt lat="47.50258" lon="-0.35192">
        <ele>55.8</ele>
        <time>2009-10-04T13:19:15Z</time>
      </trkpt>
      <trkpt lat="47.50251" lon="-0.35194">
        <ele>56</ele>
        <time>2009-10-04T13:19:14Z</time>
      </trkpt>
      <trkpt lat="47.50243" lon="-0.35196">
        <ele>55.8</ele>
        <time>2009-10-04T13:19:13Z</time>
      </trkpt>
      <trkpt lat="47.50237" lon="-0.35198">
        <ele>55.7</ele>
        <time>2009-10-04T13:19:12Z</time>
      </trkpt>
      <trkpt lat="47.50229" lon="-0.35201">
        <ele>55.6</ele>
        <time>2009-10-04T13:19:11Z</time>
      </trkpt>
      <trkpt lat="47.50222" lon="-0.35203">
        <ele>55.6</ele>
        <time>2009-10-04T13:19:10Z</time>
      </trkpt>
      <trkpt lat="47.50215" lon="-0.35205">
        <ele>56.2</ele>
        <time>2009-10-04T13:19:09Z</time>
      </trkpt>
      <trkpt lat="47.50208" lon="-0.35208">
        <ele>56.8</ele>
        <time>2009-10-04T13:19:08Z</time>
      </trkpt>
      <trkpt lat="47.502" lon="-0.3521">
        <ele>57.3</ele>
        <time>2009-10-04T13:19:07Z</time>
      </trkpt>
      <trkpt lat="47.50192" lon="-0.35212">
        <ele>57.7</ele>
        <time>2009-10-04T13:19:06Z</time>
      </trkpt>
      <trkpt lat="47.50185" lon="-0.35214">
        <ele>58.1</ele>
        <time>2009-10-04T13:19:05Z</time>
      </trkpt>
      <trkpt lat="47.50177" lon="-0.35217">
        <ele>58.4</ele>
        <time>2009-10-04T13:19:04Z</time>
      </trkpt>
      <trkpt lat="47.50169" lon="-0.35218">
        <ele>58.8</ele>
        <time>2009-10-04T13:19:03Z</time>
      </trkpt>
      <trkpt lat="47.50162" lon="-0.3522">
        <ele>59.1</ele>
        <time>2009-10-04T13:19:02Z</time>
      </trkpt>
      <trkpt lat="47.50154" lon="-0.35222">
        <ele>59.4</ele>
        <time>2009-10-04T13:19:01Z</time>
      </trkpt>
      <trkpt lat="47.50147" lon="-0.35224">
        <ele>59.8</ele>
        <time>2009-10-04T13:19:00Z</time>
      </trkpt>
      <trkpt lat="47.50139" lon="-0.35226">
        <ele>60.3</ele>
        <time>2009-10-04T13:18:59Z</time>
      </trkpt>
      <trkpt lat="47.50132" lon="-0.35228">
        <ele>60.9</ele>
        <time>2009-10-04T13:18:58Z</time>
      </trkpt>
      <trkpt lat="47.50124" lon="-0.3523">
        <ele>61.5</ele>
        <time>2009-10-04T13:18:57Z</time>
      </trkpt>
      <trkpt lat="47.50116" lon="-0.35232">
        <ele>62</ele>
        <time>2009-10-04T13:18:56Z</time>
      </trkpt>
      <trkpt lat="47.50108" lon="-0.35235">
        <ele>62.5</ele>
        <time>2009-10-04T13:18:55Z</time>
      </trkpt>
      <trkpt lat="47.501" lon="-0.35239">
        <ele>62.5</ele>
        <time>2009-10-04T13:18:54Z</time>
      </trkpt>
      <trkpt lat="47.50092" lon="-0.35241">
        <ele>62.4</ele>
        <time>2009-10-04T13:18:53Z</time>
      </trkpt>
      <trkpt lat="47.50083" lon="-0.35247">
        <ele>62.1</ele>
        <time>2009-10-04T13:18:52Z</time>
      </trkpt>
      <trkpt lat="47.50074" lon="-0.35251">
        <ele>62.5</ele>
        <time>2009-10-04T13:18:51Z</time>
      </trkpt>
      <trkpt lat="47.50066" lon="-0.35254">
        <ele>63</ele>
        <time>2009-10-04T13:18:50Z</time>
      </trkpt>
      <trkpt lat="47.50057" lon="-0.35257">
        <ele>63.5</ele>
        <time>2009-10-04T13:18:49Z</time>
      </trkpt>
      <trkpt lat="47.50047" lon="-0.35264">
        <ele>63.5</ele>
        <time>2009-10-04T13:18:48Z</time>
      </trkpt>
      <trkpt lat="47.50039" lon="-0.35266">
        <ele>63.2</ele>
        <time>2009-10-04T13:18:47Z</time>
      </trkpt>
      <trkpt lat="47.50033" lon="-0.35268">
        <ele>63</ele>
        <time>2009-10-04T13:18:46Z</time>
      </trkpt>
      <trkpt lat="47.50021" lon="-0.35275">
        <ele>62.9</ele>
        <time>2009-10-04T13:18:45Z</time>
      </trkpt>
      <trkpt lat="47.50014" lon="-0.35278">
        <ele>63</ele>
        <time>2009-10-04T13:18:44Z</time>
      </trkpt>
      <trkpt lat="47.50009" lon="-0.35282">
        <ele>63.3</ele>
        <time>2009-10-04T13:18:43Z</time>
      </trkpt>
      <trkpt lat="47.50002" lon="-0.35287">
        <ele>63.7</ele>
        <time>2009-10-04T13:18:42Z</time>
      </trkpt>
      <trkpt lat="47.49995" lon="-0.35291">
        <ele>63.8</ele>
        <time>2009-10-04T13:18:41Z</time>
      </trkpt>
      <trkpt lat="47.49992" lon="-0.35297">
        <ele>64.1</ele>
        <time>2009-10-04T13:18:40Z</time>
      </trkpt>
      <trkpt lat="47.49986" lon="-0.35303">
        <ele>64.3</ele>
        <time>2009-10-04T13:18:39Z</time>
      </trkpt>
      <trkpt lat="47.4998" lon="-0.35308">
        <ele>64.3</ele>
        <time>2009-10-04T13:18:38Z</time>
      </trkpt>
      <trkpt lat="47.49967" lon="-0.35314">
        <ele>64.3</ele>
        <time>2009-10-04T13:18:36Z</time>
      </trkpt>
      <trkpt lat="47.4996" lon="-0.35322">
        <ele>64.6</ele>
        <time>2009-10-04T13:18:35Z</time>
      </trkpt>
      <trkpt lat="47.49952" lon="-0.35326">
        <ele>64.8</ele>
        <time>2009-10-04T13:18:34Z</time>
      </trkpt>
      <trkpt lat="47.49944" lon="-0.3533">
        <ele>64.9</ele>
        <time>2009-10-04T13:18:33Z</time>
      </trkpt>
      <trkpt lat="47.49935" lon="-0.35334">
        <ele>65.7</ele>
        <time>2009-10-04T13:18:32Z</time>
      </trkpt>
      <trkpt lat="47.49928" lon="-0.35337">
        <ele>66.3</ele>
        <time>2009-10-04T13:18:31Z</time>
      </trkpt>
      <trkpt lat="47.49921" lon="-0.35342">
        <ele>66.8</ele>
        <time>2009-10-04T13:18:30Z</time>
      </trkpt>
      <trkpt lat="47.49913" lon="-0.35344">
        <ele>67.1</ele>
        <time>2009-10-04T13:18:29Z</time>
      </trkpt>
      <trkpt lat="47.49905" lon="-0.35347">
        <ele>67.4</ele>
        <time>2009-10-04T13:18:28Z</time>
      </trkpt>
      <trkpt lat="47.49898" lon="-0.35353">
        <ele>67.7</ele>
        <time>2009-10-04T13:18:27Z</time>
      </trkpt>
      <trkpt lat="47.49889" lon="-0.35356">
        <ele>68</ele>
        <time>2009-10-04T13:18:26Z</time>
      </trkpt>
      <trkpt lat="47.49882" lon="-0.35358">
        <ele>68.6</ele>
        <time>2009-10-04T13:18:25Z</time>
      </trkpt>
      <trkpt lat="47.49874" lon="-0.35358">
        <ele>69.2</ele>
        <time>2009-10-04T13:18:24Z</time>
      </trkpt>
      <trkpt lat="47.49866" lon="-0.3536">
        <ele>69.7</ele>
        <time>2009-10-04T13:18:23Z</time>
      </trkpt>
      <trkpt lat="47.49857" lon="-0.35362">
        <ele>70.4</ele>
        <time>2009-10-04T13:18:22Z</time>
      </trkpt>
      <trkpt lat="47.49849" lon="-0.35364">
        <ele>71.3</ele>
        <time>2009-10-04T13:18:21Z</time>
      </trkpt>
      <trkpt lat="47.49841" lon="-0.35365">
        <ele>72.1</ele>
        <time>2009-10-04T13:18:20Z</time>
      </trkpt>
      <trkpt lat="47.49833" lon="-0.35366">
        <ele>72.8</ele>
        <time>2009-10-04T13:18:19Z</time>
      </trkpt>
      <trkpt lat="47.49825" lon="-0.35368">
        <ele>73.1</ele>
        <time>2009-10-04T13:18:18Z</time>
      </trkpt>
      <trkpt lat="47.49818" lon="-0.35369">
        <ele>73.4</ele>
        <time>2009-10-04T13:18:17Z</time>
      </trkpt>
      <trkpt lat="47.49812" lon="-0.35369">
        <ele>73.7</ele>
        <time>2009-10-04T13:18:16Z</time>
      </trkpt>
      <trkpt lat="47.49805" lon="-0.35369">
        <ele>74</ele>
        <time>2009-10-04T13:18:15Z</time>
      </trkpt>
      <trkpt lat="47.49798" lon="-0.35369">
        <ele>73.9</ele>
        <time>2009-10-04T13:18:14Z</time>
      </trkpt>
      <trkpt lat="47.49794" lon="-0.35368">
        <ele>73.9</ele>
        <time>2009-10-04T13:18:13Z</time>
      </trkpt>
      <trkpt lat="47.49789" lon="-0.35368">
        <ele>73.8</ele>
        <time>2009-10-04T13:18:12Z</time>
      </trkpt>
      <trkpt lat="47.49784" lon="-0.35367">
        <ele>73.8</ele>
        <time>2009-10-04T13:18:11Z</time>
      </trkpt>
      <trkpt lat="47.49779" lon="-0.35367">
        <ele>73.8</ele>
        <time>2009-10-04T13:18:10Z</time>
      </trkpt>
      <trkpt lat="47.49775" lon="-0.35366">
        <ele>73.7</ele>
        <time>2009-10-04T13:18:09Z</time>
      </trkpt>
      <trkpt lat="47.49772" lon="-0.35365">
        <ele>73.7</ele>
        <time>2009-10-04T13:18:08Z</time>
      </trkpt>
      <trkpt lat="47.49768" lon="-0.35364">
        <ele>73.5</ele>
        <time>2009-10-04T13:18:07Z</time>
      </trkpt>
      <trkpt lat="47.49764" lon="-0.35363">
        <ele>73.4</ele>
        <time>2009-10-04T13:18:06Z</time>
      </trkpt>
      <trkpt lat="47.4976" lon="-0.35362">
        <ele>73.3</ele>
        <time>2009-10-04T13:18:05Z</time>
      </trkpt>
      <trkpt lat="47.49757" lon="-0.3536">
        <ele>73.3</ele>
        <time>2009-10-04T13:18:04Z</time>
      </trkpt>
      <trkpt lat="47.49754" lon="-0.35359">
        <ele>73.2</ele>
        <time>2009-10-04T13:18:03Z</time>
      </trkpt>
      <trkpt lat="47.49751" lon="-0.35357">
        <ele>73.2</ele>
        <time>2009-10-04T13:18:02Z</time>
      </trkpt>
      <trkpt lat="47.49748" lon="-0.35355">
        <ele>73.2</ele>
        <time>2009-10-04T13:18:01Z</time>
      </trkpt>
      <trkpt lat="47.49744" lon="-0.35354">
        <ele>73.2</ele>
        <time>2009-10-04T13:18:00Z</time>
      </trkpt>
      <trkpt lat="47.49741" lon="-0.35352">
        <ele>73.1</ele>
        <time>2009-10-04T13:17:59Z</time>
      </trkpt>
      <trkpt lat="47.49739" lon="-0.3535">
        <ele>73.1</ele>
        <time>2009-10-04T13:17:58Z</time>
      </trkpt>
      <trkpt lat="47.49736" lon="-0.35348">
        <ele>73</ele>
        <time>2009-10-04T13:17:57Z</time>
      </trkpt>
      <trkpt lat="47.49733" lon="-0.35345">
        <ele>72.9</ele>
        <time>2009-10-04T13:17:56Z</time>
      </trkpt>
      <trkpt lat="47.4973" lon="-0.35343">
        <ele>72.7</ele>
        <time>2009-10-04T13:17:55Z</time>
      </trkpt>
      <trkpt lat="47.49727" lon="-0.35341">
        <ele>72.5</ele>
        <time>2009-10-04T13:17:54Z</time>
      </trkpt>
      <trkpt lat="47.49724" lon="-0.35338">
        <ele>72.3</ele>
        <time>2009-10-04T13:17:53Z</time>
      </trkpt>
      <trkpt lat="47.49721" lon="-0.35336">
        <ele>72.1</ele>
        <time>2009-10-04T13:17:52Z</time>
      </trkpt>
      <trkpt lat="47.49718" lon="-0.35333">
        <ele>72</ele>
        <time>2009-10-04T13:17:51Z</time>
      </trkpt>
      <trkpt lat="47.49715" lon="-0.35331">
        <ele>72</ele>
        <time>2009-10-04T13:17:50Z</time>
      </trkpt>
      <trkpt lat="47.49713" lon="-0.35327">
        <ele>72.1</ele>
        <time>2009-10-04T13:17:49Z</time>
      </trkpt>
      <trkpt lat="47.49711" lon="-0.35324">
        <ele>72.1</ele>
        <time>2009-10-04T13:17:48Z</time>
      </trkpt>
      <trkpt lat="47.49708" lon="-0.35321">
        <ele>72</ele>
        <time>2009-10-04T13:17:47Z</time>
      </trkpt>
      <trkpt lat="47.49705" lon="-0.35319">
        <ele>71.9</ele>
        <time>2009-10-04T13:17:46Z</time>
      </trkpt>
      <trkpt lat="47.49701" lon="-0.35318">
        <ele>71.7</ele>
        <time>2009-10-04T13:17:45Z</time>
      </trkpt>
      <trkpt lat="47.49698" lon="-0.35315">
        <ele>71.5</ele>
        <time>2009-10-04T13:17:44Z</time>
      </trkpt>
      <trkpt lat="47.49696" lon="-0.35312">
        <ele>71.3</ele>
        <time>2009-10-04T13:17:43Z</time>
      </trkpt>
      <trkpt lat="47.49693" lon="-0.3531">
        <ele>71.1</ele>
        <time>2009-10-04T13:17:42Z</time>
      </trkpt>
      <trkpt lat="47.49691" lon="-0.35307">
        <ele>70.9</ele>
        <time>2009-10-04T13:17:41Z</time>
      </trkpt>
      <trkpt lat="47.49688" lon="-0.35305">
        <ele>70.8</ele>
        <time>2009-10-04T13:17:40Z</time>
      </trkpt>
      <trkpt lat="47.49685" lon="-0.35302">
        <ele>70.7</ele>
        <time>2009-10-04T13:17:39Z</time>
      </trkpt>
      <trkpt lat="47.49682" lon="-0.35299">
        <ele>70.6</ele>
        <time>2009-10-04T13:17:38Z</time>
      </trkpt>
      <trkpt lat="47.4968" lon="-0.35296">
        <ele>70.4</ele>
        <time>2009-10-04T13:17:37Z</time>
      </trkpt>
      <trkpt lat="47.49677" lon="-0.35294">
        <ele>70.3</ele>
        <time>2009-10-04T13:17:36Z</time>
      </trkpt>
      <trkpt lat="47.49674" lon="-0.35291">
        <ele>70</ele>
        <time>2009-10-04T13:17:35Z</time>
      </trkpt>
      <trkpt lat="47.49671" lon="-0.35289">
        <ele>69.7</ele>
        <time>2009-10-04T13:17:34Z</time>
      </trkpt>
      <trkpt lat="47.49668" lon="-0.35287">
        <ele>69.4</ele>
        <time>2009-10-04T13:17:33Z</time>
      </trkpt>
      <trkpt lat="47.49666" lon="-0.35284">
        <ele>69.2</ele>
        <time>2009-10-04T13:17:32Z</time>
      </trkpt>
      <trkpt lat="47.49664" lon="-0.35281">
        <ele>68.9</ele>
        <time>2009-10-04T13:17:31Z</time>
      </trkpt>
      <trkpt lat="47.49662" lon="-0.35278">
        <ele>68.7</ele>
        <time>2009-10-04T13:17:30Z</time>
      </trkpt>
      <trkpt lat="47.4966" lon="-0.35275">
        <ele>68.6</ele>
        <time>2009-10-04T13:17:29Z</time>
      </trkpt>
      <trkpt lat="47.49657" lon="-0.35273">
        <ele>68.4</ele>
        <time>2009-10-04T13:17:28Z</time>
      </trkpt>
      <trkpt lat="47.49654" lon="-0.35271">
        <ele>68.2</ele>
        <time>2009-10-04T13:17:27Z</time>
      </trkpt>
      <trkpt lat="47.49649" lon="-0.35267">
        <ele>67.8</ele>
        <time>2009-10-04T13:17:25Z</time>
      </trkpt>
      <trkpt lat="47.49649" lon="-0.35267">
        <ele>67.8</ele>
        <time>2009-10-04T13:17:25Z</time>
      </trkpt>
      <trkpt lat="47.49646" lon="-0.35265">
        <ele>67.6</ele>
        <time>2009-10-04T13:17:24Z</time>
      </trkpt>
      <trkpt lat="47.49643" lon="-0.35263">
        <ele>67.4</ele>
        <time>2009-10-04T13:17:23Z</time>
      </trkpt>
      <trkpt lat="47.49641" lon="-0.35261">
        <ele>67.2</ele>
        <time>2009-10-04T13:17:22Z</time>
      </trkpt>
      <trkpt lat="47.49638" lon="-0.35259">
        <ele>66.9</ele>
        <time>2009-10-04T13:17:21Z</time>
      </trkpt>
      <trkpt lat="47.49636" lon="-0.35256">
        <ele>66.8</ele>
        <time>2009-10-04T13:17:20Z</time>
      </trkpt>
      <trkpt lat="47.49633" lon="-0.35254">
        <ele>66.6</ele>
        <time>2009-10-04T13:17:19Z</time>
      </trkpt>
      <trkpt lat="47.4963" lon="-0.35252">
        <ele>66.4</ele>
        <time>2009-10-04T13:17:18Z</time>
      </trkpt>
      <trkpt lat="47.49628" lon="-0.3525">
        <ele>66.2</ele>
        <time>2009-10-04T13:17:17Z</time>
      </trkpt>
      <trkpt lat="47.49625" lon="-0.35248">
        <ele>66</ele>
        <time>2009-10-04T13:17:16Z</time>
      </trkpt>
      <trkpt lat="47.49624" lon="-0.35246">
        <ele>65.9</ele>
        <time>2009-10-04T13:17:15Z</time>
      </trkpt>
      <trkpt lat="47.49621" lon="-0.35243">
        <ele>65.7</ele>
        <time>2009-10-04T13:17:14Z</time>
      </trkpt>
      <trkpt lat="47.49618" lon="-0.35242">
        <ele>65.3</ele>
        <time>2009-10-04T13:17:13Z</time>
      </trkpt>
      <trkpt lat="47.49616" lon="-0.3524">
        <ele>65.1</ele>
        <time>2009-10-04T13:17:12Z</time>
      </trkpt>
      <trkpt lat="47.49611" lon="-0.35235">
        <ele>64.5</ele>
        <time>2009-10-04T13:17:10Z</time>
      </trkpt>
      <trkpt lat="47.49606" lon="-0.35231">
        <ele>63.9</ele>
        <time>2009-10-04T13:17:08Z</time>
      </trkpt>
      <trkpt lat="47.49604" lon="-0.35229">
        <ele>63.7</ele>
        <time>2009-10-04T13:17:07Z</time>
      </trkpt>
      <trkpt lat="47.49602" lon="-0.35226">
        <ele>63.4</ele>
        <time>2009-10-04T13:17:06Z</time>
      </trkpt>
      <trkpt lat="47.496" lon="-0.35224">
        <ele>63.2</ele>
        <time>2009-10-04T13:17:05Z</time>
      </trkpt>
      <trkpt lat="47.49598" lon="-0.35222">
        <ele>63.1</ele>
        <time>2009-10-04T13:17:04Z</time>
      </trkpt>
      <trkpt lat="47.49596" lon="-0.3522">
        <ele>62.9</ele>
        <time>2009-10-04T13:17:03Z</time>
      </trkpt>
      <trkpt lat="47.49594" lon="-0.35218">
        <ele>62.8</ele>
        <time>2009-10-04T13:17:02Z</time>
      </trkpt>
      <trkpt lat="47.49593" lon="-0.35217">
        <ele>62.7</ele>
        <time>2009-10-04T13:17:01Z</time>
      </trkpt>
      <trkpt lat="47.49591" lon="-0.35215">
        <ele>62.6</ele>
        <time>2009-10-04T13:17:00Z</time>
      </trkpt>
      <trkpt lat="47.49589" lon="-0.35213">
        <ele>62.5</ele>
        <time>2009-10-04T13:16:59Z</time>
      </trkpt>
      <trkpt lat="47.49587" lon="-0.35211">
        <ele>62.3</ele>
        <time>2009-10-04T13:16:58Z</time>
      </trkpt>
      <trkpt lat="47.49585" lon="-0.35208">
        <ele>62.1</ele>
        <time>2009-10-04T13:16:57Z</time>
      </trkpt>
      <trkpt lat="47.49582" lon="-0.35206">
        <ele>61.9</ele>
        <time>2009-10-04T13:16:56Z</time>
      </trkpt>
      <trkpt lat="47.4958" lon="-0.35204">
        <ele>61.7</ele>
        <time>2009-10-04T13:16:55Z</time>
      </trkpt>
      <trkpt lat="47.49577" lon="-0.35201">
        <ele>61.5</ele>
        <time>2009-10-04T13:16:54Z</time>
      </trkpt>
      <trkpt lat="47.49575" lon="-0.35198">
        <ele>61.4</ele>
        <time>2009-10-04T13:16:53Z</time>
      </trkpt>
      <trkpt lat="47.49572" lon="-0.35196">
        <ele>61.2</ele>
        <time>2009-10-04T13:16:52Z</time>
      </trkpt>
      <trkpt lat="47.49566" lon="-0.35194">
        <ele>60.8</ele>
        <time>2009-10-04T13:16:51Z</time>
      </trkpt>
      <trkpt lat="47.49559" lon="-0.35196">
        <ele>60.3</ele>
        <time>2009-10-04T13:16:50Z</time>
      </trkpt>
      <trkpt lat="47.49552" lon="-0.35193">
        <ele>59.8</ele>
        <time>2009-10-04T13:16:48Z</time>
      </trkpt>
      <trkpt lat="47.49547" lon="-0.35191">
        <ele>59.5</ele>
        <time>2009-10-04T13:16:47Z</time>
      </trkpt>
      <trkpt lat="47.49542" lon="-0.35191">
        <ele>59.4</ele>
        <time>2009-10-04T13:16:46Z</time>
      </trkpt>
      <trkpt lat="47.49537" lon="-0.35192">
        <ele>59.2</ele>
        <time>2009-10-04T13:16:45Z</time>
      </trkpt>
      <trkpt lat="47.49532" lon="-0.35194">
        <ele>59.1</ele>
        <time>2009-10-04T13:16:44Z</time>
      </trkpt>
      <trkpt lat="47.49526" lon="-0.35197">
        <ele>58.8</ele>
        <time>2009-10-04T13:16:43Z</time>
      </trkpt>
      <trkpt lat="47.49519" lon="-0.35197">
        <ele>58.6</ele>
        <time>2009-10-04T13:16:42Z</time>
      </trkpt>
      <trkpt lat="47.49513" lon="-0.35197">
        <ele>58.4</ele>
        <time>2009-10-04T13:16:41Z</time>
      </trkpt>
      <trkpt lat="47.49506" lon="-0.35199">
        <ele>58.2</ele>
        <time>2009-10-04T13:16:40Z</time>
      </trkpt>
      <trkpt lat="47.49499" lon="-0.352">
        <ele>58</ele>
        <time>2009-10-04T13:16:39Z</time>
      </trkpt>
      <trkpt lat="47.49492" lon="-0.35202">
        <ele>58.1</ele>
        <time>2009-10-04T13:16:38Z</time>
      </trkpt>
      <trkpt lat="47.49485" lon="-0.35202">
        <ele>58.2</ele>
        <time>2009-10-04T13:16:37Z</time>
      </trkpt>
      <trkpt lat="47.49479" lon="-0.35201">
        <ele>58.2</ele>
        <time>2009-10-04T13:16:36Z</time>
      </trkpt>
      <trkpt lat="47.49474" lon="-0.35205">
        <ele>58.4</ele>
        <time>2009-10-04T13:16:35Z</time>
      </trkpt>
      <trkpt lat="47.49467" lon="-0.35208">
        <ele>58.7</ele>
        <time>2009-10-04T13:16:34Z</time>
      </trkpt>
      <trkpt lat="47.4946" lon="-0.3521">
        <ele>59</ele>
        <time>2009-10-04T13:16:33Z</time>
      </trkpt>
      <trkpt lat="47.49455" lon="-0.35215">
        <ele>59.3</ele>
        <time>2009-10-04T13:16:32Z</time>
      </trkpt>
      <trkpt lat="47.49449" lon="-0.3522">
        <ele>59.8</ele>
        <time>2009-10-04T13:16:31Z</time>
      </trkpt>
      <trkpt lat="47.49442" lon="-0.35222">
        <ele>60.1</ele>
        <time>2009-10-04T13:16:30Z</time>
      </trkpt>
      <trkpt lat="47.49436" lon="-0.35225">
        <ele>60.4</ele>
        <time>2009-10-04T13:16:29Z</time>
      </trkpt>
      <trkpt lat="47.49429" lon="-0.35227">
        <ele>60.8</ele>
        <time>2009-10-04T13:16:28Z</time>
      </trkpt>
      <trkpt lat="47.49421" lon="-0.3523">
        <ele>61.4</ele>
        <time>2009-10-04T13:16:27Z</time>
      </trkpt>
      <trkpt lat="47.49413" lon="-0.35232">
        <ele>61.8</ele>
        <time>2009-10-04T13:16:26Z</time>
      </trkpt>
      <trkpt lat="47.49406" lon="-0.35235">
        <ele>62.1</ele>
        <time>2009-10-04T13:16:25Z</time>
      </trkpt>
      <trkpt lat="47.494" lon="-0.35238">
        <ele>62.4</ele>
        <time>2009-10-04T13:16:24Z</time>
      </trkpt>
      <trkpt lat="47.49394" lon="-0.35239">
        <ele>62.6</ele>
        <time>2009-10-04T13:16:23Z</time>
      </trkpt>
      <trkpt lat="47.49387" lon="-0.35241">
        <ele>62.7</ele>
        <time>2009-10-04T13:16:22Z</time>
      </trkpt>
      <trkpt lat="47.49382" lon="-0.35243">
        <ele>62.9</ele>
        <time>2009-10-04T13:16:21Z</time>
      </trkpt>
      <trkpt lat="47.49376" lon="-0.35244">
        <ele>63.2</ele>
        <time>2009-10-04T13:16:20Z</time>
      </trkpt>
      <trkpt lat="47.49371" lon="-0.35245">
        <ele>63.4</ele>
        <time>2009-10-04T13:16:19Z</time>
      </trkpt>
      <trkpt lat="47.49366" lon="-0.35246">
        <ele>63.5</ele>
        <time>2009-10-04T13:16:18Z</time>
      </trkpt>
      <trkpt lat="47.49363" lon="-0.35246">
        <ele>63.6</ele>
        <time>2009-10-04T13:16:17Z</time>
      </trkpt>
      <trkpt lat="47.4936" lon="-0.35245">
        <ele>63.7</ele>
        <time>2009-10-04T13:16:16Z</time>
      </trkpt>
      <trkpt lat="47.49359" lon="-0.35244">
        <ele>63.7</ele>
        <time>2009-10-04T13:16:15Z</time>
      </trkpt>
      <trkpt lat="47.49357" lon="-0.35243">
        <ele>63.7</ele>
        <time>2009-10-04T13:16:14Z</time>
      </trkpt>
      <trkpt lat="47.49356" lon="-0.35241">
        <ele>63.7</ele>
        <time>2009-10-04T13:16:13Z</time>
      </trkpt>
      <trkpt lat="47.49354" lon="-0.35239">
        <ele>63.6</ele>
        <time>2009-10-04T13:16:12Z</time>
      </trkpt>
      <trkpt lat="47.49352" lon="-0.35237">
        <ele>63.5</ele>
        <time>2009-10-04T13:16:11Z</time>
      </trkpt>
      <trkpt lat="47.4935" lon="-0.35234">
        <ele>63.4</ele>
        <time>2009-10-04T13:16:10Z</time>
      </trkpt>
      <trkpt lat="47.49348" lon="-0.35232">
        <ele>63.3</ele>
        <time>2009-10-04T13:16:09Z</time>
      </trkpt>
      <trkpt lat="47.49345" lon="-0.35229">
        <ele>63.2</ele>
        <time>2009-10-04T13:16:08Z</time>
      </trkpt>
      <trkpt lat="47.49342" lon="-0.35226">
        <ele>63.1</ele>
        <time>2009-10-04T13:16:07Z</time>
      </trkpt>
      <trkpt lat="47.4934" lon="-0.35223">
        <ele>62.9</ele>
        <time>2009-10-04T13:16:06Z</time>
      </trkpt>
      <trkpt lat="47.49336" lon="-0.3522">
        <ele>62.8</ele>
        <time>2009-10-04T13:16:05Z</time>
      </trkpt>
      <trkpt lat="47.49333" lon="-0.35217">
        <ele>62.8</ele>
        <time>2009-10-04T13:16:04Z</time>
      </trkpt>
      <trkpt lat="47.49331" lon="-0.35215">
        <ele>62.8</ele>
        <time>2009-10-04T13:16:03Z</time>
      </trkpt>
      <trkpt lat="47.49329" lon="-0.35213">
        <ele>62.8</ele>
        <time>2009-10-04T13:16:02Z</time>
      </trkpt>
      <trkpt lat="47.49326" lon="-0.35212">
        <ele>62.8</ele>
        <time>2009-10-04T13:16:01Z</time>
      </trkpt>
      <trkpt lat="47.49324" lon="-0.3521">
        <ele>62.7</ele>
        <time>2009-10-04T13:16:00Z</time>
      </trkpt>
      <trkpt lat="47.49323" lon="-0.35208">
        <ele>62.7</ele>
        <time>2009-10-04T13:15:59Z</time>
      </trkpt>
      <trkpt lat="47.49321" lon="-0.35206">
        <ele>62.6</ele>
        <time>2009-10-04T13:15:58Z</time>
      </trkpt>
      <trkpt lat="47.4932" lon="-0.35205">
        <ele>62.6</ele>
        <time>2009-10-04T13:15:57Z</time>
      </trkpt>
      <trkpt lat="47.49318" lon="-0.35204">
        <ele>62.6</ele>
        <time>2009-10-04T13:15:56Z</time>
      </trkpt>
      <trkpt lat="47.49316" lon="-0.35203">
        <ele>62.5</ele>
        <time>2009-10-04T13:15:55Z</time>
      </trkpt>
      <trkpt lat="47.49313" lon="-0.35201">
        <ele>62.4</ele>
        <time>2009-10-04T13:15:54Z</time>
      </trkpt>
      <trkpt lat="47.4931" lon="-0.352">
        <ele>62.4</ele>
        <time>2009-10-04T13:15:53Z</time>
      </trkpt>
      <trkpt lat="47.49308" lon="-0.35199">
        <ele>62.3</ele>
        <time>2009-10-04T13:15:52Z</time>
      </trkpt>
      <trkpt lat="47.49306" lon="-0.35197">
        <ele>62.2</ele>
        <time>2009-10-04T13:15:51Z</time>
      </trkpt>
      <trkpt lat="47.49303" lon="-0.35197">
        <ele>62.1</ele>
        <time>2009-10-04T13:15:50Z</time>
      </trkpt>
      <trkpt lat="47.49301" lon="-0.35196">
        <ele>62.1</ele>
        <time>2009-10-04T13:15:49Z</time>
      </trkpt>
      <trkpt lat="47.49299" lon="-0.35195">
        <ele>62</ele>
        <time>2009-10-04T13:15:48Z</time>
      </trkpt>
      <trkpt lat="47.49297" lon="-0.35193">
        <ele>61.9</ele>
        <time>2009-10-04T13:15:47Z</time>
      </trkpt>
      <trkpt lat="47.49294" lon="-0.35192">
        <ele>61.9</ele>
        <time>2009-10-04T13:15:46Z</time>
      </trkpt>
      <trkpt lat="47.49293" lon="-0.3519">
        <ele>61.7</ele>
        <time>2009-10-04T13:15:45Z</time>
      </trkpt>
      <trkpt lat="47.49292" lon="-0.35186">
        <ele>61.4</ele>
        <time>2009-10-04T13:15:44Z</time>
      </trkpt>
      <trkpt lat="47.49291" lon="-0.35184">
        <ele>61.3</ele>
        <time>2009-10-04T13:15:43Z</time>
      </trkpt>
      <trkpt lat="47.49289" lon="-0.35183">
        <ele>61.1</ele>
        <time>2009-10-04T13:15:42Z</time>
      </trkpt>
      <trkpt lat="47.49286" lon="-0.35182">
        <ele>60.9</ele>
        <time>2009-10-04T13:15:41Z</time>
      </trkpt>
      <trkpt lat="47.49159" lon="-0.35206">
        <ele>54.6</ele>
      </trkpt>
      <trkpt lat="47.49095" lon="-0.35249">
        <ele>51.9</ele>
      </trkpt>
      <trkpt lat="47.48997" lon="-0.35304">
        <ele>47.9</ele>
      </trkpt>
      <trkpt lat="47.4882" lon="-0.35334">
        <ele>43</ele>
      </trkpt>
      <trkpt lat="47.48736" lon="-0.35352">
        <ele>41</ele>
      </trkpt>
      <trkpt lat="47.48669" lon="-0.35467">
        <ele>40</ele>
      </trkpt>
      <trkpt lat="47.48634" lon="-0.3554">
        <ele>38.9</ele>
      </trkpt>
      <trkpt lat="47.4857" lon="-0.35635">
        <ele>38</ele>
      </trkpt>
      <trkpt lat="47.48565" lon="-0.35712">
        <ele>38</ele>
      </trkpt>
      <trkpt lat="47.4866" lon="-0.35699">
        <ele>38.8</ele>
      </trkpt>
      <trkpt lat="47.48788" lon="-0.35734">
        <ele>41</ele>
      </trkpt>
      <trkpt lat="47.48875" lon="-0.35759">
        <ele>42.2</ele>
      </trkpt>
      <trkpt lat="47.48924" lon="-0.35751">
        <ele>43.3</ele>
      </trkpt>
      <trkpt lat="47.48956" lon="-0.35806">
        <ele>43.4</ele>
      </trkpt>
      <trkpt lat="47.49037" lon="-0.35798">
        <ele>45.3</ele>
      </trkpt>
      <trkpt lat="47.49069" lon="-0.35862">
        <ele>44.5</ele>
      </trkpt>
      <trkpt lat="47.49092" lon="-0.35862">
        <ele>45</ele>
      </trkpt>
      <trkpt lat="47.49249" lon="-0.35802">
        <ele>51.2</ele>
      </trkpt>
      <trkpt lat="47.49359" lon="-0.36201">
        <ele>52.1</ele>
      </trkpt>
      <trkpt lat="47.49426" lon="-0.36429">
        <ele>48.2</ele>
      </trkpt>
      <trkpt lat="47.49464" lon="-0.36532">
        <ele>45.2</ele>
      </trkpt>
      <trkpt lat="47.49468" lon="-0.36551">
        <ele>44.3</ele>
        <time>2017-12-17T08:36:13Z</time>
      </trkpt>
      <trkpt lat="47.49471" lon="-0.36582">
        <ele>43.2</ele>
        <time>2017-12-17T08:36:19Z</time>
      </trkpt>
      <trkpt lat="47.49473" lon="-0.36612">
        <ele>43</ele>
        <time>2017-12-17T08:36:24Z</time>
      </trkpt>
      <trkpt lat="47.49474" lon="-0.3664">
        <ele>43</ele>
        <time>2017-12-17T08:36:28Z</time>
      </trkpt>
      <trkpt lat="47.49471" lon="-0.36669">
        <ele>42</ele>
        <time>2017-12-17T08:36:32Z</time>
      </trkpt>
      <trkpt lat="47.49467" lon="-0.36699">
        <ele>42</ele>
        <time>2017-12-17T08:36:36Z</time>
      </trkpt>
      <trkpt lat="47.4946" lon="-0.36728">
        <ele>41.8</ele>
        <time>2017-12-17T08:36:40Z</time>
      </trkpt>
      <trkpt lat="47.49451" lon="-0.36754">
        <ele>41</ele>
        <time>2017-12-17T08:36:44Z</time>
      </trkpt>
      <trkpt lat="47.49441" lon="-0.36781">
        <ele>40.8</ele>
        <time>2017-12-17T08:36:48Z</time>
      </trkpt>
      <trkpt lat="47.49431" lon="-0.36806">
        <ele>40</ele>
        <time>2017-12-17T08:36:52Z</time>
      </trkpt>
      <trkpt lat="47.49421" lon="-0.3683">
        <ele>39.3</ele>
        <time>2017-12-17T08:36:56Z</time>
      </trkpt>
      <trkpt lat="47.4941" lon="-0.36858">
        <ele>39.7</ele>
        <time>2017-12-17T08:37:00Z</time>
      </trkpt>
      <trkpt lat="47.49401" lon="-0.36883">
        <ele>39.9</ele>
        <time>2017-12-17T08:37:05Z</time>
      </trkpt>
      <trkpt lat="47.49387" lon="-0.36905">
        <ele>39.4</ele>
        <time>2017-12-17T08:37:10Z</time>
      </trkpt>
      <trkpt lat="47.49374" lon="-0.36924">
        <ele>38.4</ele>
        <time>2017-12-17T08:37:14Z</time>
      </trkpt>
      <trkpt lat="47.4936" lon="-0.36944">
        <ele>38</ele>
        <time>2017-12-17T08:37:18Z</time>
      </trkpt>
      <trkpt lat="47.49353" lon="-0.36971">
        <ele>38.9</ele>
        <time>2017-12-17T08:37:22Z</time>
      </trkpt>
      <trkpt lat="47.49355" lon="-0.37001">
        <ele>39</ele>
        <time>2017-12-17T08:37:26Z</time>
      </trkpt>
      <trkpt lat="47.49357" lon="-0.37029">
        <ele>40</ele>
        <time>2017-12-17T08:37:30Z</time>
      </trkpt>
      <trkpt lat="47.49359" lon="-0.37058">
        <ele>40.1</ele>
        <time>2017-12-17T08:37:34Z</time>
      </trkpt>
      <trkpt lat="47.49361" lon="-0.37088">
        <ele>41</ele>
        <time>2017-12-17T08:37:38Z</time>
      </trkpt>
      <trkpt lat="47.49365" lon="-0.3712">
        <ele>41.3</ele>
        <time>2017-12-17T08:37:42Z</time>
      </trkpt>
      <trkpt lat="47.4937" lon="-0.37152">
        <ele>41.8</ele>
        <time>2017-12-17T08:37:46Z</time>
      </trkpt>
      <trkpt lat="47.49373" lon="-0.37184">
        <ele>42</ele>
        <time>2017-12-17T08:37:50Z</time>
      </trkpt>
      <trkpt lat="47.49377" lon="-0.37216">
        <ele>42.3</ele>
        <time>2017-12-17T08:37:54Z</time>
      </trkpt>
      <trkpt lat="47.49375" lon="-0.37244">
        <ele>42.9</ele>
        <time>2017-12-17T08:37:58Z</time>
      </trkpt>
      <trkpt lat="47.49362" lon="-0.3727">
        <ele>43.7</ele>
        <time>2017-12-17T08:38:02Z</time>
      </trkpt>
      <trkpt lat="47.49353" lon="-0.37299">
        <ele>43.7</ele>
        <time>2017-12-17T08:38:06Z</time>
      </trkpt>
      <trkpt lat="47.49346" lon="-0.3733">
        <ele>43.5</ele>
        <time>2017-12-17T08:38:10Z</time>
      </trkpt>
      <trkpt lat="47.49339" lon="-0.37362">
        <ele>43.2</ele>
        <time>2017-12-17T08:38:14Z</time>
      </trkpt>
      <trkpt lat="47.49332" lon="-0.37392">
        <ele>42.9</ele>
        <time>2017-12-17T08:38:18Z</time>
      </trkpt>
      <trkpt lat="47.49326" lon="-0.37423">
        <ele>42.6</ele>
        <time>2017-12-17T08:38:22Z</time>
      </trkpt>
      <trkpt lat="47.49324" lon="-0.37456">
        <ele>43</ele>
        <time>2017-12-17T08:38:26Z</time>
      </trkpt>
      <trkpt lat="47.49325" lon="-0.37488">
        <ele>43.1</ele>
        <time>2017-12-17T08:38:30Z</time>
      </trkpt>
      <trkpt lat="47.49327" lon="-0.37522">
        <ele>42.7</ele>
        <time>2017-12-17T08:38:34Z</time>
      </trkpt>
      <trkpt lat="47.49331" lon="-0.37556">
        <ele>43.7</ele>
        <time>2017-12-17T08:38:38Z</time>
      </trkpt>
      <trkpt lat="47.49338" lon="-0.37588">
        <ele>44.2</ele>
        <time>2017-12-17T08:38:42Z</time>
      </trkpt>
      <trkpt lat="47.49345" lon="-0.3762">
        <ele>44.1</ele>
        <time>2017-12-17T08:38:46Z</time>
      </trkpt>
      <trkpt lat="47.49351" lon="-0.37653">
        <ele>43.4</ele>
        <time>2017-12-17T08:38:50Z</time>
      </trkpt>
      <trkpt lat="47.49355" lon="-0.37679">
        <ele>43.2</ele>
        <time>2017-12-17T08:38:53Z</time>
      </trkpt>
      <trkpt lat="47.49356" lon="-0.37708">
        <ele>42.4</ele>
        <time>2017-12-17T08:38:56Z</time>
      </trkpt>
      <trkpt lat="47.49354" lon="-0.37739">
        <ele>40.7</ele>
        <time>2017-12-17T08:38:59Z</time>
      </trkpt>
      <trkpt lat="47.49352" lon="-0.37771">
        <ele>39.8</ele>
        <time>2017-12-17T08:39:02Z</time>
      </trkpt>
      <trkpt lat="47.4935" lon="-0.37807">
        <ele>38.6</ele>
        <time>2017-12-17T08:39:05Z</time>
      </trkpt>
      <trkpt lat="47.49351" lon="-0.37843">
        <ele>37.5</ele>
        <time>2017-12-17T08:39:08Z</time>
      </trkpt>
      <trkpt lat="47.49355" lon="-0.37879">
        <ele>36.6</ele>
        <time>2017-12-17T08:39:11Z</time>
      </trkpt>
      <trkpt lat="47.49367" lon="-0.37906">
        <ele>35.5</ele>
        <time>2017-12-17T08:39:14Z</time>
      </trkpt>
      <trkpt lat="47.49369" lon="-0.37939">
        <ele>34.5</ele>
        <time>2017-12-17T08:39:17Z</time>
      </trkpt>
      <trkpt lat="47.49357" lon="-0.37969">
        <ele>33.9</ele>
        <time>2017-12-17T08:39:20Z</time>
      </trkpt>
      <trkpt lat="47.4934" lon="-0.37992">
        <ele>33.1</ele>
        <time>2017-12-17T08:39:23Z</time>
      </trkpt>
      <trkpt lat="47.49324" lon="-0.38016">
        <ele>32.8</ele>
        <time>2017-12-17T08:39:26Z</time>
      </trkpt>
      <trkpt lat="47.49311" lon="-0.38046">
        <ele>32.1</ele>
        <time>2017-12-17T08:39:29Z</time>
      </trkpt>
      <trkpt lat="47.49307" lon="-0.38079">
        <ele>32</ele>
        <time>2017-12-17T08:39:32Z</time>
      </trkpt>
      <trkpt lat="47.49314" lon="-0.38111">
        <ele>31.3</ele>
        <time>2017-12-17T08:39:35Z</time>
      </trkpt>
      <trkpt lat="47.4932" lon="-0.38142">
        <ele>31</ele>
        <time>2017-12-17T08:39:38Z</time>
      </trkpt>
      <trkpt lat="47.49308" lon="-0.38166">
        <ele>30.1</ele>
        <time>2017-12-17T08:39:41Z</time>
      </trkpt>
      <trkpt lat="47.4929" lon="-0.38182">
        <ele>30</ele>
        <time>2017-12-17T08:39:44Z</time>
      </trkpt>
      <trkpt lat="47.49273" lon="-0.38198">
        <ele>29.8</ele>
        <time>2017-12-17T08:39:47Z</time>
      </trkpt>
      <trkpt lat="47.49256" lon="-0.38213">
        <ele>29.2</ele>
        <time>2017-12-17T08:39:50Z</time>
      </trkpt>
      <trkpt lat="47.49239" lon="-0.38227">
        <ele>28.6</ele>
        <time>2017-12-17T08:39:53Z</time>
      </trkpt>
      <trkpt lat="47.49223" lon="-0.38241">
        <ele>28</ele>
        <time>2017-12-17T08:39:56Z</time>
      </trkpt>
      <trkpt lat="47.49207" lon="-0.38255">
        <ele>28</ele>
        <time>2017-12-17T08:39:59Z</time>
      </trkpt>
      <trkpt lat="47.49188" lon="-0.38273">
        <ele>27.8</ele>
        <time>2017-12-17T08:40:03Z</time>
      </trkpt>
      <trkpt lat="47.4917" lon="-0.3829">
        <ele>27.1</ele>
        <time>2017-12-17T08:40:07Z</time>
      </trkpt>
      <trkpt lat="47.49152" lon="-0.38311">
        <ele>26.5</ele>
        <time>2017-12-17T08:40:11Z</time>
      </trkpt>
      <trkpt lat="47.49148" lon="-0.38337">
        <ele>26.3</ele>
        <time>2017-12-17T08:40:14Z</time>
      </trkpt>
      <trkpt lat="47.49155" lon="-0.38365">
        <ele>26.6</ele>
        <time>2017-12-17T08:40:17Z</time>
      </trkpt>
      <trkpt lat="47.49162" lon="-0.38393">
        <ele>26.8</ele>
        <time>2017-12-17T08:40:20Z</time>
      </trkpt>
      <trkpt lat="47.49168" lon="-0.38422">
        <ele>27</ele>
        <time>2017-12-17T08:40:23Z</time>
      </trkpt>
      <trkpt lat="47.49173" lon="-0.38449">
        <ele>27.2</ele>
        <time>2017-12-17T08:40:26Z</time>
      </trkpt>
      <trkpt lat="47.49178" lon="-0.38483">
        <ele>27.4</ele>
        <time>2017-12-17T08:40:30Z</time>
      </trkpt>
      <trkpt lat="47.49182" lon="-0.38516">
        <ele>27.5</ele>
        <time>2017-12-17T08:40:34Z</time>
      </trkpt>
      <trkpt lat="47.49191" lon="-0.38548">
        <ele>27.9</ele>
        <time>2017-12-17T08:40:38Z</time>
      </trkpt>
      <trkpt lat="47.49203" lon="-0.38578">
        <ele>27.5</ele>
        <time>2017-12-17T08:40:42Z</time>
      </trkpt>
      <trkpt lat="47.49211" lon="-0.38601">
        <ele>27.2</ele>
        <time>2017-12-17T08:40:45Z</time>
      </trkpt>
      <trkpt lat="47.49222" lon="-0.38625">
        <ele>27</ele>
        <time>2017-12-17T08:40:48Z</time>
      </trkpt>
      <trkpt lat="47.49235" lon="-0.38649">
        <ele>26.6</ele>
        <time>2017-12-17T08:40:51Z</time>
      </trkpt>
      <trkpt lat="47.49246" lon="-0.38671">
        <ele>26</ele>
        <time>2017-12-17T08:40:54Z</time>
      </trkpt>
      <trkpt lat="47.4926" lon="-0.38702">
        <ele>26.1</ele>
        <time>2017-12-17T08:40:58Z</time>
      </trkpt>
      <trkpt lat="47.49271" lon="-0.38729">
        <ele>26.8</ele>
        <time>2017-12-17T08:41:01Z</time>
      </trkpt>
      <trkpt lat="47.4928" lon="-0.38754">
        <ele>27.2</ele>
        <time>2017-12-17T08:41:04Z</time>
      </trkpt>
      <trkpt lat="47.49289" lon="-0.38778">
        <ele>28</ele>
        <time>2017-12-17T08:41:07Z</time>
      </trkpt>
      <trkpt lat="47.49303" lon="-0.38806">
        <ele>28</ele>
        <time>2017-12-17T08:41:11Z</time>
      </trkpt>
      <trkpt lat="47.49319" lon="-0.38832">
        <ele>28</ele>
        <time>2017-12-17T08:41:15Z</time>
      </trkpt>
      <trkpt lat="47.49332" lon="-0.38861">
        <ele>29</ele>
        <time>2017-12-17T08:41:19Z</time>
      </trkpt>
      <trkpt lat="47.4934" lon="-0.38888">
        <ele>29</ele>
        <time>2017-12-17T08:41:23Z</time>
      </trkpt>
      <trkpt lat="47.49348" lon="-0.38913">
        <ele>29</ele>
        <time>2017-12-17T08:42:26Z</time>
      </trkpt>
      <trkpt lat="47.49366" lon="-0.38907">
        <ele>29.1</ele>
        <time>2017-12-17T08:42:31Z</time>
      </trkpt>
      <trkpt lat="47.49385" lon="-0.38898">
        <ele>29.3</ele>
        <time>2017-12-17T08:42:35Z</time>
      </trkpt>
      <trkpt lat="47.49406" lon="-0.38883">
        <ele>29</ele>
        <time>2017-12-17T08:42:39Z</time>
      </trkpt>
      <trkpt lat="47.49419" lon="-0.38864">
        <ele>29</ele>
        <time>2017-12-17T08:42:42Z</time>
      </trkpt>
      <trkpt lat="47.4943" lon="-0.38842">
        <ele>29</ele>
        <time>2017-12-17T08:42:45Z</time>
      </trkpt>
      <trkpt lat="47.49443" lon="-0.38822">
        <ele>29</ele>
        <time>2017-12-17T08:42:48Z</time>
      </trkpt>
      <trkpt lat="47.49461" lon="-0.38801">
        <ele>29.5</ele>
        <time>2017-12-17T08:42:52Z</time>
      </trkpt>
      <trkpt lat="47.49482" lon="-0.38785">
        <ele>29.5</ele>
        <time>2017-12-17T08:42:56Z</time>
      </trkpt>
      <trkpt lat="47.49502" lon="-0.38769">
        <ele>29.7</ele>
        <time>2017-12-17T08:43:00Z</time>
      </trkpt>
      <trkpt lat="47.49523" lon="-0.38754">
        <ele>29.8</ele>
        <time>2017-12-17T08:43:04Z</time>
      </trkpt>
      <trkpt lat="47.49545" lon="-0.3874">
        <ele>30.6</ele>
        <time>2017-12-17T08:43:08Z</time>
      </trkpt>
      <trkpt lat="47.49567" lon="-0.38729">
        <ele>31</ele>
        <time>2017-12-17T08:43:12Z</time>
      </trkpt>
      <trkpt lat="47.49591" lon="-0.38725">
        <ele>31</ele>
        <time>2017-12-17T08:43:16Z</time>
      </trkpt>
      <trkpt lat="47.4961" lon="-0.38724">
        <ele>31</ele>
        <time>2017-12-17T08:43:19Z</time>
      </trkpt>
      <trkpt lat="47.49629" lon="-0.38721">
        <ele>31</ele>
        <time>2017-12-17T08:43:22Z</time>
      </trkpt>
      <trkpt lat="47.49647" lon="-0.38719">
        <ele>31.3</ele>
        <time>2017-12-17T08:43:25Z</time>
      </trkpt>
      <trkpt lat="47.49668" lon="-0.38716">
        <ele>31.8</ele>
        <time>2017-12-17T08:43:29Z</time>
      </trkpt>
      <trkpt lat="47.4967" lon="-0.38744">
        <ele>31.3</ele>
        <time>2017-12-17T08:43:35Z</time>
      </trkpt>
      <trkpt lat="47.49665" lon="-0.38774">
        <ele>31</ele>
        <time>2017-12-17T08:43:39Z</time>
      </trkpt>
      <trkpt lat="47.49663" lon="-0.38805">
        <ele>31</ele>
        <time>2017-12-17T08:43:44Z</time>
      </trkpt>
      <trkpt lat="47.49665" lon="-0.38831">
        <ele>31</ele>
        <time>2017-12-17T08:43:47Z</time>
      </trkpt>
      <trkpt lat="47.49664" lon="-0.38864">
        <ele>30.9</ele>
        <time>2017-12-17T08:43:51Z</time>
      </trkpt>
      <trkpt lat="47.49662" lon="-0.389">
        <ele>30.5</ele>
        <time>2017-12-17T08:43:55Z</time>
      </trkpt>
      <trkpt lat="47.49661" lon="-0.38929">
        <ele>30</ele>
        <time>2017-12-17T08:43:58Z</time>
      </trkpt>
      <trkpt lat="47.49659" lon="-0.38958">
        <ele>30</ele>
        <time>2017-12-17T08:44:01Z</time>
      </trkpt>
      <trkpt lat="47.49658" lon="-0.38987">
        <ele>30</ele>
        <time>2017-12-17T08:44:04Z</time>
      </trkpt>
      <trkpt lat="47.49657" lon="-0.39015">
        <ele>30</ele>
        <time>2017-12-17T08:44:07Z</time>
      </trkpt>
      <trkpt lat="47.49656" lon="-0.3905">
        <ele>30</ele>
        <time>2017-12-17T08:44:11Z</time>
      </trkpt>
      <trkpt lat="47.49655" lon="-0.39078">
        <ele>30</ele>
        <time>2017-12-17T08:44:14Z</time>
      </trkpt>
      <trkpt lat="47.49651" lon="-0.3911">
        <ele>30</ele>
        <time>2017-12-17T08:44:18Z</time>
      </trkpt>
      <trkpt lat="47.49648" lon="-0.39141">
        <ele>30</ele>
        <time>2017-12-17T08:44:22Z</time>
      </trkpt>
      <trkpt lat="47.49645" lon="-0.3917">
        <ele>30.2</ele>
        <time>2017-12-17T08:44:26Z</time>
      </trkpt>
      <trkpt lat="47.4964" lon="-0.39199">
        <ele>30</ele>
        <time>2017-12-17T08:44:30Z</time>
      </trkpt>
      <trkpt lat="47.49634" lon="-0.39229">
        <ele>30</ele>
        <time>2017-12-17T08:44:34Z</time>
      </trkpt>
      <trkpt lat="47.49627" lon="-0.39258">
        <ele>30</ele>
        <time>2017-12-17T08:44:38Z</time>
      </trkpt>
      <trkpt lat="47.49618" lon="-0.39287">
        <ele>29.8</ele>
        <time>2017-12-17T08:44:42Z</time>
      </trkpt>
      <trkpt lat="47.49609" lon="-0.39317">
        <ele>29</ele>
        <time>2017-12-17T08:44:46Z</time>
      </trkpt>
      <trkpt lat="47.49598" lon="-0.39346">
        <ele>29</ele>
        <time>2017-12-17T08:44:50Z</time>
      </trkpt>
      <trkpt lat="47.49589" lon="-0.39375">
        <ele>29</ele>
        <time>2017-12-17T08:44:54Z</time>
      </trkpt>
      <trkpt lat="47.49575" lon="-0.39394">
        <ele>29</ele>
        <time>2017-12-17T08:44:58Z</time>
      </trkpt>
      <trkpt lat="47.49554" lon="-0.39399">
        <ele>29</ele>
        <time>2017-12-17T08:45:02Z</time>
      </trkpt>
      <trkpt lat="47.49532" lon="-0.39404">
        <ele>28.6</ele>
        <time>2017-12-17T08:45:06Z</time>
      </trkpt>
      <trkpt lat="47.49509" lon="-0.3941">
        <ele>28.2</ele>
        <time>2017-12-17T08:45:10Z</time>
      </trkpt>
      <trkpt lat="47.49486" lon="-0.39415">
        <ele>28.5</ele>
        <time>2017-12-17T08:45:14Z</time>
      </trkpt>
      <trkpt lat="47.49463" lon="-0.3942">
        <ele>28.7</ele>
        <time>2017-12-17T08:45:18Z</time>
      </trkpt>
      <trkpt lat="47.49441" lon="-0.39426">
        <ele>28.3</ele>
        <time>2017-12-17T08:45:22Z</time>
      </trkpt>
      <trkpt lat="47.49422" lon="-0.39432">
        <ele>28.6</ele>
        <time>2017-12-17T08:45:26Z</time>
      </trkpt>
      <trkpt lat="47.49411" lon="-0.39456">
        <ele>29</ele>
        <time>2017-12-17T08:45:30Z</time>
      </trkpt>
      <trkpt lat="47.49405" lon="-0.39486">
        <ele>29</ele>
        <time>2017-12-17T08:45:34Z</time>
      </trkpt>
      <trkpt lat="47.49407" lon="-0.39517">
        <ele>29</ele>
        <time>2017-12-17T08:45:38Z</time>
      </trkpt>
      <trkpt lat="47.49413" lon="-0.39548">
        <ele>29</ele>
        <time>2017-12-17T08:45:42Z</time>
      </trkpt>
      <trkpt lat="47.49421" lon="-0.39578">
        <ele>29.8</ele>
        <time>2017-12-17T08:45:46Z</time>
      </trkpt>
      <trkpt lat="47.49428" lon="-0.39606">
        <ele>30</ele>
        <time>2017-12-17T08:45:50Z</time>
      </trkpt>
      <trkpt lat="47.49435" lon="-0.39634">
        <ele>30</ele>
        <time>2017-12-17T08:45:54Z</time>
      </trkpt>
      <trkpt lat="47.49442" lon="-0.39663">
        <ele>30.8</ele>
        <time>2017-12-17T08:45:58Z</time>
      </trkpt>
      <trkpt lat="47.49449" lon="-0.39692">
        <ele>31</ele>
        <time>2017-12-17T08:46:02Z</time>
      </trkpt>
      <trkpt lat="47.49456" lon="-0.39719">
        <ele>31</ele>
        <time>2017-12-17T08:46:06Z</time>
      </trkpt>
      <trkpt lat="47.49443" lon="-0.39742">
        <ele>31</ele>
        <time>2017-12-17T08:46:11Z</time>
      </trkpt>
      <trkpt lat="47.49425" lon="-0.39753">
        <ele>31</ele>
        <time>2017-12-17T08:46:15Z</time>
      </trkpt>
      <trkpt lat="47.49406" lon="-0.39763">
        <ele>31.2</ele>
        <time>2017-12-17T08:46:19Z</time>
      </trkpt>
      <trkpt lat="47.49387" lon="-0.39772">
        <ele>31.8</ele>
        <time>2017-12-17T08:46:23Z</time>
      </trkpt>
      <trkpt lat="47.49367" lon="-0.39782">
        <ele>32</ele>
        <time>2017-12-17T08:46:27Z</time>
      </trkpt>
      <trkpt lat="47.49347" lon="-0.39793">
        <ele>32</ele>
        <time>2017-12-17T08:46:31Z</time>
      </trkpt>
      <trkpt lat="47.49327" lon="-0.39805">
        <ele>32</ele>
        <time>2017-12-17T08:46:35Z</time>
      </trkpt>
      <trkpt lat="47.49307" lon="-0.39819">
        <ele>32</ele>
        <time>2017-12-17T08:46:39Z</time>
      </trkpt>
      <trkpt lat="47.49286" lon="-0.39834">
        <ele>32</ele>
        <time>2017-12-17T08:46:43Z</time>
      </trkpt>
      <trkpt lat="47.49265" lon="-0.39848">
        <ele>32</ele>
        <time>2017-12-17T08:46:47Z</time>
      </trkpt>
      <trkpt lat="47.49244" lon="-0.39863">
        <ele>32</ele>
        <time>2017-12-17T08:46:51Z</time>
      </trkpt>
      <trkpt lat="47.49224" lon="-0.39876">
        <ele>32</ele>
        <time>2017-12-17T08:46:55Z</time>
      </trkpt>
      <trkpt lat="47.49208" lon="-0.39895">
        <ele>32.6</ele>
        <time>2017-12-17T08:46:59Z</time>
      </trkpt>
      <trkpt lat="47.49197" lon="-0.39917">
        <ele>33</ele>
        <time>2017-12-17T08:47:03Z</time>
      </trkpt>
      <trkpt lat="47.49187" lon="-0.39945">
        <ele>33.3</ele>
        <time>2017-12-17T08:47:08Z</time>
      </trkpt>
      <trkpt lat="47.49172" lon="-0.39969">
        <ele>33.8</ele>
        <time>2017-12-17T08:47:13Z</time>
      </trkpt>
      <trkpt lat="47.49151" lon="-0.39981">
        <ele>34</ele>
        <time>2017-12-17T08:47:17Z</time>
      </trkpt>
      <trkpt lat="47.49129" lon="-0.39991">
        <ele>33.9</ele>
        <time>2017-12-17T08:47:21Z</time>
      </trkpt>
      <trkpt lat="47.49106" lon="-0.39996">
        <ele>33.9</ele>
        <time>2017-12-17T08:47:25Z</time>
      </trkpt>
      <trkpt lat="47.49083" lon="-0.39998">
        <ele>34</ele>
        <time>2017-12-17T08:47:29Z</time>
      </trkpt>
      <trkpt lat="47.49059" lon="-0.40001">
        <ele>34</ele>
        <time>2017-12-17T08:47:33Z</time>
      </trkpt>
      <trkpt lat="47.49041" lon="-0.40003">
        <ele>34</ele>
        <time>2017-12-17T08:47:36Z</time>
      </trkpt>
      <trkpt lat="47.49018" lon="-0.40007">
        <ele>34</ele>
        <time>2017-12-17T08:47:40Z</time>
      </trkpt>
      <trkpt lat="47.48997" lon="-0.4001">
        <ele>33.9</ele>
        <time>2017-12-17T08:47:44Z</time>
      </trkpt>
      <trkpt lat="47.48975" lon="-0.40013">
        <ele>33.5</ele>
        <time>2017-12-17T08:47:48Z</time>
      </trkpt>
      <trkpt lat="47.48952" lon="-0.40012">
        <ele>33.4</ele>
        <time>2017-12-17T08:47:52Z</time>
      </trkpt>
      <trkpt lat="47.4893" lon="-0.4001">
        <ele>33.2</ele>
        <time>2017-12-17T08:47:56Z</time>
      </trkpt>
      <trkpt lat="47.48908" lon="-0.40007">
        <ele>33</ele>
        <time>2017-12-17T08:48:00Z</time>
      </trkpt>
      <trkpt lat="47.48887" lon="-0.40019">
        <ele>32.9</ele>
        <time>2017-12-17T08:48:04Z</time>
      </trkpt>
      <trkpt lat="47.4887" lon="-0.40044">
        <ele>32.7</ele>
        <time>2017-12-17T08:48:08Z</time>
      </trkpt>
      <trkpt lat="47.48855" lon="-0.40071">
        <ele>33</ele>
        <time>2017-12-17T08:48:12Z</time>
      </trkpt>
      <trkpt lat="47.48842" lon="-0.4009">
        <ele>33.1</ele>
        <time>2017-12-17T08:48:15Z</time>
      </trkpt>
      <trkpt lat="47.48826" lon="-0.40114">
        <ele>33</ele>
        <time>2017-12-17T08:48:19Z</time>
      </trkpt>
      <trkpt lat="47.48817" lon="-0.40138">
        <ele>33</ele>
      </trkpt>
      <trkpt lat="47.48824" lon="-0.40159">
        <ele>33.5</ele>
      </trkpt>
      <trkpt lat="47.48836" lon="-0.40182">
        <ele>34</ele>
      </trkpt>
      <trkpt lat="47.4884" lon="-0.40183">
        <ele>34</ele>
        <time>2017-12-17T08:51:18Z</time>
      </trkpt>
      <trkpt lat="47.48853" lon="-0.40209">
        <ele>34.4</ele>
        <time>2017-12-17T08:51:23Z</time>
      </trkpt>
      <trkpt lat="47.48866" lon="-0.40237">
        <ele>35</ele>
        <time>2017-12-17T08:51:28Z</time>
      </trkpt>
      <trkpt lat="47.48878" lon="-0.40259">
        <ele>35</ele>
        <time>2017-12-17T08:51:32Z</time>
      </trkpt>
      <trkpt lat="47.48887" lon="-0.40286">
        <ele>35</ele>
        <time>2017-12-17T08:51:37Z</time>
      </trkpt>
      <trkpt lat="47.48878" lon="-0.40312">
        <ele>35</ele>
        <time>2017-12-17T08:52:05Z</time>
      </trkpt>
      <trkpt lat="47.48863" lon="-0.40332">
        <ele>35</ele>
        <time>2017-12-17T08:52:14Z</time>
      </trkpt>
      <trkpt lat="47.48847" lon="-0.40354">
        <ele>35</ele>
        <time>2017-12-17T08:52:21Z</time>
      </trkpt>
      <trkpt lat="47.48837" lon="-0.40377">
        <ele>35.6</ele>
        <time>2017-12-17T08:52:26Z</time>
      </trkpt>
      <trkpt lat="47.48837" lon="-0.40408">
        <ele>36</ele>
        <time>2017-12-17T08:52:31Z</time>
      </trkpt>
      <trkpt lat="47.48844" lon="-0.40434">
        <ele>36</ele>
        <time>2017-12-17T08:52:35Z</time>
      </trkpt>
      <trkpt lat="47.48851" lon="-0.4046">
        <ele>36.4</ele>
        <time>2017-12-17T08:52:39Z</time>
      </trkpt>
      <trkpt lat="47.48859" lon="-0.40488">
        <ele>37</ele>
        <time>2017-12-17T08:52:43Z</time>
      </trkpt>
      <trkpt lat="47.48867" lon="-0.40517">
        <ele>37</ele>
        <time>2017-12-17T08:52:47Z</time>
      </trkpt>
      <trkpt lat="47.48877" lon="-0.40544">
        <ele>37</ele>
        <time>2017-12-17T08:52:51Z</time>
      </trkpt>
      <trkpt lat="47.48886" lon="-0.40569">
        <ele>37</ele>
        <time>2017-12-17T08:52:55Z</time>
      </trkpt>
      <trkpt lat="47.48895" lon="-0.40594">
        <ele>37.5</ele>
        <time>2017-12-17T08:52:59Z</time>
      </trkpt>
      <trkpt lat="47.48905" lon="-0.40621">
        <ele>38</ele>
        <time>2017-12-17T08:53:03Z</time>
      </trkpt>
      <trkpt lat="47.48914" lon="-0.40646">
        <ele>38</ele>
        <time>2017-12-17T08:53:07Z</time>
      </trkpt>
      <trkpt lat="47.48924" lon="-0.40672">
        <ele>38</ele>
        <time>2017-12-17T08:53:11Z</time>
      </trkpt>
      <trkpt lat="47.4893" lon="-0.40702">
        <ele>38</ele>
        <time>2017-12-17T08:53:15Z</time>
      </trkpt>
      <trkpt lat="47.48936" lon="-0.40734">
        <ele>38.4</ele>
        <time>2017-12-17T08:53:19Z</time>
      </trkpt>
      <trkpt lat="47.48942" lon="-0.40766">
        <ele>39</ele>
        <time>2017-12-17T08:53:23Z</time>
      </trkpt>
      <trkpt lat="47.48948" lon="-0.40798">
        <ele>39</ele>
        <time>2017-12-17T08:53:27Z</time>
      </trkpt>
      <trkpt lat="47.48953" lon="-0.4083">
        <ele>39</ele>
        <time>2017-12-17T08:53:31Z</time>
      </trkpt>
      <trkpt lat="47.48959" lon="-0.40861">
        <ele>39</ele>
        <time>2017-12-17T08:53:35Z</time>
      </trkpt>
      <trkpt lat="47.48964" lon="-0.40892">
        <ele>39</ele>
        <time>2017-12-17T08:53:39Z</time>
      </trkpt>
      <trkpt lat="47.4897" lon="-0.40924">
        <ele>39.2</ele>
        <time>2017-12-17T08:53:43Z</time>
      </trkpt>
      <trkpt lat="47.48975" lon="-0.40955">
        <ele>39.6</ele>
        <time>2017-12-17T08:53:47Z</time>
      </trkpt>
      <trkpt lat="47.48981" lon="-0.40987">
        <ele>39</ele>
        <time>2017-12-17T08:53:51Z</time>
      </trkpt>
      <trkpt lat="47.48984" lon="-0.41021">
        <ele>39</ele>
        <time>2017-12-17T08:53:55Z</time>
      </trkpt>
      <trkpt lat="47.48987" lon="-0.41056">
        <ele>39</ele>
        <time>2017-12-17T08:53:59Z</time>
      </trkpt>
      <trkpt lat="47.48988" lon="-0.41089">
        <ele>39</ele>
        <time>2017-12-17T08:54:03Z</time>
      </trkpt>
      <trkpt lat="47.4899" lon="-0.41122">
        <ele>39</ele>
        <time>2017-12-17T08:54:07Z</time>
      </trkpt>
      <trkpt lat="47.48987" lon="-0.41155">
        <ele>39</ele>
        <time>2017-12-17T08:54:11Z</time>
      </trkpt>
      <trkpt lat="47.48982" lon="-0.41188">
        <ele>39</ele>
        <time>2017-12-17T08:54:15Z</time>
      </trkpt>
      <trkpt lat="47.48981" lon="-0.41224">
        <ele>39</ele>
        <time>2017-12-17T08:54:19Z</time>
      </trkpt>
      <trkpt lat="47.48984" lon="-0.41259">
        <ele>39</ele>
        <time>2017-12-17T08:54:23Z</time>
      </trkpt>
      <trkpt lat="47.48986" lon="-0.41286">
        <ele>38.9</ele>
        <time>2017-12-17T08:54:26Z</time>
      </trkpt>
      <trkpt lat="47.4899" lon="-0.41319">
        <ele>38.6</ele>
        <time>2017-12-17T08:54:30Z</time>
      </trkpt>
      <trkpt lat="47.48993" lon="-0.41352">
        <ele>38.3</ele>
        <time>2017-12-17T08:54:34Z</time>
      </trkpt>
      <trkpt lat="47.48995" lon="-0.41379">
        <ele>38</ele>
        <time>2017-12-17T08:54:37Z</time>
      </trkpt>
      <trkpt lat="47.48998" lon="-0.41407">
        <ele>38</ele>
        <time>2017-12-17T08:54:40Z</time>
      </trkpt>
      <trkpt lat="47.49003" lon="-0.4144">
        <ele>38</ele>
        <time>2017-12-17T08:54:44Z</time>
      </trkpt>
      <trkpt lat="47.49008" lon="-0.41471">
        <ele>37.7</ele>
        <time>2017-12-17T08:54:48Z</time>
      </trkpt>
      <trkpt lat="47.49021" lon="-0.41494">
        <ele>37.2</ele>
        <time>2017-12-17T08:54:52Z</time>
      </trkpt>
      <trkpt lat="47.49035" lon="-0.41516">
        <ele>37</ele>
        <time>2017-12-17T08:54:56Z</time>
      </trkpt>
      <trkpt lat="47.49045" lon="-0.41539">
        <ele>37</ele>
        <time>2017-12-17T08:55:00Z</time>
      </trkpt>
      <trkpt lat="47.49055" lon="-0.41567">
        <ele>37</ele>
        <time>2017-12-17T08:55:05Z</time>
      </trkpt>
      <trkpt lat="47.49063" lon="-0.41595">
        <ele>37</ele>
        <time>2017-12-17T08:55:10Z</time>
      </trkpt>
      <trkpt lat="47.4907" lon="-0.41624">
        <ele>36.5</ele>
        <time>2017-12-17T08:55:15Z</time>
      </trkpt>
      <trkpt lat="47.49076" lon="-0.41651">
        <ele>36</ele>
        <time>2017-12-17T08:55:21Z</time>
      </trkpt>
      <trkpt lat="47.49081" lon="-0.41677">
        <ele>36</ele>
        <time>2017-12-17T08:55:26Z</time>
      </trkpt>
      <trkpt lat="47.49089" lon="-0.41701">
        <ele>35.9</ele>
        <time>2017-12-17T08:55:49Z</time>
      </trkpt>
      <trkpt lat="47.49097" lon="-0.41727">
        <ele>35.4</ele>
        <time>2017-12-17T08:55:55Z</time>
      </trkpt>
      <trkpt lat="47.49105" lon="-0.41756">
        <ele>35</ele>
        <time>2017-12-17T08:56:01Z</time>
      </trkpt>
      <trkpt lat="47.49112" lon="-0.41783">
        <ele>35</ele>
        <time>2017-12-17T08:56:07Z</time>
      </trkpt>
      <trkpt lat="47.49121" lon="-0.41808">
        <ele>35</ele>
        <time>2017-12-17T08:56:13Z</time>
      </trkpt>
      <trkpt lat="47.49108" lon="-0.4183">
        <ele>35.2</ele>
        <time>2017-12-17T08:56:24Z</time>
      </trkpt>
      <trkpt lat="47.49091" lon="-0.41849">
        <ele>35.7</ele>
        <time>2017-12-17T08:56:29Z</time>
      </trkpt>
      <trkpt lat="47.49075" lon="-0.41864">
        <ele>35.3</ele>
        <time>2017-12-17T08:56:36Z</time>
      </trkpt>
      <trkpt lat="47.49057" lon="-0.41879">
        <ele>35.3</ele>
        <time>2017-12-17T08:56:41Z</time>
      </trkpt>
      <trkpt lat="47.49054" lon="-0.41905">
        <ele>35</ele>
        <time>2017-12-17T08:56:48Z</time>
      </trkpt>
      <trkpt lat="47.49058" lon="-0.41936">
        <ele>35.7</ele>
        <time>2017-12-17T08:56:54Z</time>
      </trkpt>
      <trkpt lat="47.49047" lon="-0.4196">
        <ele>36</ele>
        <time>2017-12-17T08:56:59Z</time>
      </trkpt>
      <trkpt lat="47.49028" lon="-0.41969">
        <ele>36</ele>
        <time>2017-12-17T08:57:03Z</time>
      </trkpt>
      <trkpt lat="47.49008" lon="-0.41977">
        <ele>36</ele>
        <time>2017-12-17T08:57:07Z</time>
      </trkpt>
      <trkpt lat="47.48989" lon="-0.41984">
        <ele>36</ele>
        <time>2017-12-17T08:57:11Z</time>
      </trkpt>
      <trkpt lat="47.48969" lon="-0.41993">
        <ele>36</ele>
        <time>2017-12-17T08:57:15Z</time>
      </trkpt>
      <trkpt lat="47.48949" lon="-0.42">
        <ele>36</ele>
        <time>2017-12-17T08:57:19Z</time>
      </trkpt>
      <trkpt lat="47.48931" lon="-0.42009">
        <ele>36.2</ele>
        <time>2017-12-17T08:57:23Z</time>
      </trkpt>
      <trkpt lat="47.48913" lon="-0.42017">
        <ele>36.7</ele>
        <time>2017-12-17T08:57:27Z</time>
      </trkpt>
      <trkpt lat="47.48894" lon="-0.42023">
        <ele>37</ele>
        <time>2017-12-17T08:57:31Z</time>
      </trkpt>
      <trkpt lat="47.48875" lon="-0.42028">
        <ele>37.5</ele>
        <time>2017-12-17T08:57:35Z</time>
      </trkpt>
      <trkpt lat="47.48856" lon="-0.42034">
        <ele>38</ele>
        <time>2017-12-17T08:57:39Z</time>
      </trkpt>
      <trkpt lat="47.48838" lon="-0.42041">
        <ele>38</ele>
        <time>2017-12-17T08:57:43Z</time>
      </trkpt>
      <trkpt lat="47.48819" lon="-0.42047">
        <ele>38</ele>
        <time>2017-12-17T08:57:47Z</time>
      </trkpt>
      <trkpt lat="47.488" lon="-0.42053">
        <ele>38</ele>
        <time>2017-12-17T08:57:51Z</time>
      </trkpt>
      <trkpt lat="47.48781" lon="-0.42059">
        <ele>38.1</ele>
        <time>2017-12-17T08:57:55Z</time>
      </trkpt>
      <trkpt lat="47.48762" lon="-0.42065">
        <ele>38.5</ele>
        <time>2017-12-17T08:57:59Z</time>
      </trkpt>
      <trkpt lat="47.48744" lon="-0.42077">
        <ele>38.4</ele>
        <time>2017-12-17T08:58:04Z</time>
      </trkpt>
      <trkpt lat="47.48758" lon="-0.42101">
        <ele>38.7</ele>
        <time>2017-12-17T08:58:09Z</time>
      </trkpt>
      <trkpt lat="47.48773" lon="-0.42123">
        <ele>38.6</ele>
        <time>2017-12-17T08:58:13Z</time>
      </trkpt>
      <trkpt lat="47.48785" lon="-0.42151">
        <ele>38</ele>
        <time>2017-12-17T08:58:17Z</time>
      </trkpt>
      <trkpt lat="47.48794" lon="-0.42179">
        <ele>38.2</ele>
        <time>2017-12-17T08:58:21Z</time>
      </trkpt>
      <trkpt lat="47.48801" lon="-0.42207">
        <ele>38.1</ele>
        <time>2017-12-17T08:58:25Z</time>
      </trkpt>
      <trkpt lat="47.48809" lon="-0.42236">
        <ele>38</ele>
        <time>2017-12-17T08:58:29Z</time>
      </trkpt>
      <trkpt lat="47.48817" lon="-0.42265">
        <ele>38</ele>
        <time>2017-12-17T08:58:33Z</time>
      </trkpt>
      <trkpt lat="47.48825" lon="-0.42293">
        <ele>38</ele>
        <time>2017-12-17T08:58:37Z</time>
      </trkpt>
      <trkpt lat="47.48834" lon="-0.4232">
        <ele>38</ele>
        <time>2017-12-17T08:58:41Z</time>
      </trkpt>
      <trkpt lat="47.48844" lon="-0.42343">
        <ele>38</ele>
        <time>2017-12-17T08:58:45Z</time>
      </trkpt>
      <trkpt lat="47.48859" lon="-0.42366">
        <ele>38</ele>
        <time>2017-12-17T08:58:50Z</time>
      </trkpt>
      <trkpt lat="47.48875" lon="-0.42388">
        <ele>38</ele>
        <time>2017-12-17T08:58:55Z</time>
      </trkpt>
      <trkpt lat="47.48868" lon="-0.42413">
        <ele>37.8</ele>
        <time>2017-12-17T08:59:00Z</time>
      </trkpt>
      <trkpt lat="47.48849" lon="-0.42424">
        <ele>38</ele>
        <time>2017-12-17T08:59:04Z</time>
      </trkpt>
      <trkpt lat="47.4883" lon="-0.42434">
        <ele>38.1</ele>
        <time>2017-12-17T08:59:08Z</time>
      </trkpt>
      <trkpt lat="47.4881" lon="-0.42444">
        <ele>38.8</ele>
        <time>2017-12-17T08:59:12Z</time>
      </trkpt>
      <trkpt lat="47.48791" lon="-0.42454">
        <ele>39</ele>
        <time>2017-12-17T08:59:16Z</time>
      </trkpt>
      <trkpt lat="47.48772" lon="-0.42465">
        <ele>39</ele>
        <time>2017-12-17T08:59:21Z</time>
      </trkpt>
      <trkpt lat="47.48751" lon="-0.42478">
        <ele>39</ele>
        <time>2017-12-17T08:59:26Z</time>
      </trkpt>
      <trkpt lat="47.48733" lon="-0.42489">
        <ele>39</ele>
        <time>2017-12-17T08:59:30Z</time>
      </trkpt>
      <trkpt lat="47.48713" lon="-0.42498">
        <ele>39</ele>
        <time>2017-12-17T08:59:34Z</time>
      </trkpt>
      <trkpt lat="47.48692" lon="-0.42505">
        <ele>39</ele>
        <time>2017-12-17T08:59:38Z</time>
      </trkpt>
      <trkpt lat="47.48671" lon="-0.42512">
        <ele>39</ele>
        <time>2017-12-17T08:59:42Z</time>
      </trkpt>
      <trkpt lat="47.48651" lon="-0.42517">
        <ele>39</ele>
        <time>2017-12-17T08:59:46Z</time>
      </trkpt>
      <trkpt lat="47.48631" lon="-0.42524">
        <ele>39</ele>
        <time>2017-12-17T08:59:50Z</time>
      </trkpt>
      <trkpt lat="47.48613" lon="-0.42529">
        <ele>39</ele>
        <time>2017-12-17T08:59:54Z</time>
      </trkpt>
      <trkpt lat="47.48593" lon="-0.42535">
        <ele>39.3</ele>
        <time>2017-12-17T09:00:00Z</time>
      </trkpt>
      <trkpt lat="47.48574" lon="-0.42539">
        <ele>39.3</ele>
        <time>2017-12-17T09:00:07Z</time>
      </trkpt>
      <trkpt lat="47.48556" lon="-0.42543">
        <ele>39</ele>
        <time>2017-12-17T09:00:14Z</time>
      </trkpt>
      <trkpt lat="47.48552" lon="-0.4257">
        <ele>39.6</ele>
        <time>2017-12-17T09:11:07Z</time>
      </trkpt>
      <trkpt lat="47.48555" lon="-0.42597">
        <ele>40</ele>
        <time>2017-12-17T09:11:16Z</time>
      </trkpt>
      <trkpt lat="47.48559" lon="-0.42627">
        <ele>40</ele>
        <time>2017-12-17T09:11:22Z</time>
      </trkpt>
      <trkpt lat="47.48563" lon="-0.42654">
        <ele>40</ele>
        <time>2017-12-17T09:11:26Z</time>
      </trkpt>
      <trkpt lat="47.48568" lon="-0.42686">
        <ele>40</ele>
        <time>2017-12-17T09:11:30Z</time>
      </trkpt>
      <trkpt lat="47.48571" lon="-0.42714">
        <ele>40</ele>
        <time>2017-12-17T09:11:34Z</time>
      </trkpt>
      <trkpt lat="47.48575" lon="-0.42744">
        <ele>40</ele>
        <time>2017-12-17T09:11:39Z</time>
      </trkpt>
      <trkpt lat="47.48579" lon="-0.42777">
        <ele>40</ele>
        <time>2017-12-17T09:11:44Z</time>
      </trkpt>
      <trkpt lat="47.48582" lon="-0.42804">
        <ele>40</ele>
        <time>2017-12-17T09:11:48Z</time>
      </trkpt>
      <trkpt lat="47.48586" lon="-0.42834">
        <ele>40</ele>
        <time>2017-12-17T09:11:52Z</time>
      </trkpt>
      <trkpt lat="47.48589" lon="-0.42864">
        <ele>40</ele>
        <time>2017-12-17T09:11:56Z</time>
      </trkpt>
      <trkpt lat="47.48593" lon="-0.42895">
        <ele>40</ele>
        <time>2017-12-17T09:12:00Z</time>
      </trkpt>
      <trkpt lat="47.48597" lon="-0.42925">
        <ele>40</ele>
        <time>2017-12-17T09:12:04Z</time>
      </trkpt>
      <trkpt lat="47.48601" lon="-0.42954">
        <ele>40</ele>
        <time>2017-12-17T09:12:08Z</time>
      </trkpt>
      <trkpt lat="47.48598" lon="-0.42984">
        <ele>40</ele>
        <time>2017-12-17T09:12:12Z</time>
      </trkpt>
      <trkpt lat="47.48583" lon="-0.43005">
        <ele>40</ele>
        <time>2017-12-17T09:12:15Z</time>
      </trkpt>
      <trkpt lat="47.48564" lon="-0.43021">
        <ele>40</ele>
        <time>2017-12-17T09:12:18Z</time>
      </trkpt>
      <trkpt lat="47.48544" lon="-0.43036">
        <ele>40</ele>
        <time>2017-12-17T09:12:21Z</time>
      </trkpt>
      <trkpt lat="47.48524" lon="-0.43046">
        <ele>40</ele>
        <time>2017-12-17T09:12:24Z</time>
      </trkpt>
      <trkpt lat="47.48502" lon="-0.43049">
        <ele>40</ele>
        <time>2017-12-17T09:12:27Z</time>
      </trkpt>
      <trkpt lat="47.48481" lon="-0.43049">
        <ele>40</ele>
        <time>2017-12-17T09:12:30Z</time>
      </trkpt>
      <trkpt lat="47.4846" lon="-0.4306">
        <ele>40</ele>
        <time>2017-12-17T09:12:33Z</time>
      </trkpt>
      <trkpt lat="47.48444" lon="-0.43079">
        <ele>40</ele>
        <time>2017-12-17T09:12:36Z</time>
      </trkpt>
      <trkpt lat="47.48433" lon="-0.43103">
        <ele>40</ele>
        <time>2017-12-17T09:12:39Z</time>
      </trkpt>
      <trkpt lat="47.48425" lon="-0.43127">
        <ele>40</ele>
        <time>2017-12-17T09:12:42Z</time>
      </trkpt>
      <trkpt lat="47.4841" lon="-0.43153">
        <ele>39.9</ele>
        <time>2017-12-17T09:12:46Z</time>
      </trkpt>
      <trkpt lat="47.4839" lon="-0.43164">
        <ele>39.1</ele>
        <time>2017-12-17T09:12:50Z</time>
      </trkpt>
      <trkpt lat="47.48371" lon="-0.43167">
        <ele>39</ele>
        <time>2017-12-17T09:12:53Z</time>
      </trkpt>
      <trkpt lat="47.48352" lon="-0.43171">
        <ele>38.7</ele>
        <time>2017-12-17T09:12:56Z</time>
      </trkpt>
      <trkpt lat="47.48334" lon="-0.43175">
        <ele>38</ele>
        <time>2017-12-17T09:12:59Z</time>
      </trkpt>
      <trkpt lat="47.48311" lon="-0.43181">
        <ele>37.2</ele>
        <time>2017-12-17T09:13:03Z</time>
      </trkpt>
      <trkpt lat="47.48292" lon="-0.43184">
        <ele>36.5</ele>
        <time>2017-12-17T09:13:06Z</time>
      </trkpt>
      <trkpt lat="47.48274" lon="-0.43188">
        <ele>35.7</ele>
        <time>2017-12-17T09:13:09Z</time>
      </trkpt>
      <trkpt lat="47.48254" lon="-0.43194">
        <ele>34.3</ele>
        <time>2017-12-17T09:13:12Z</time>
      </trkpt>
      <trkpt lat="47.48235" lon="-0.43198">
        <ele>34</ele>
        <time>2017-12-17T09:13:15Z</time>
      </trkpt>
      <trkpt lat="47.48215" lon="-0.43202">
        <ele>33.8</ele>
        <time>2017-12-17T09:13:18Z</time>
      </trkpt>
      <trkpt lat="47.48197" lon="-0.43205">
        <ele>33.1</ele>
        <time>2017-12-17T09:13:21Z</time>
      </trkpt>
      <trkpt lat="47.48174" lon="-0.4321">
        <ele>32.6</ele>
        <time>2017-12-17T09:13:25Z</time>
      </trkpt>
      <trkpt lat="47.48152" lon="-0.43213">
        <ele>32.1</ele>
        <time>2017-12-17T09:13:29Z</time>
      </trkpt>
      <trkpt lat="47.4813" lon="-0.43216">
        <ele>31.8</ele>
        <time>2017-12-17T09:13:33Z</time>
      </trkpt>
      <trkpt lat="47.48109" lon="-0.43217">
        <ele>31.2</ele>
        <time>2017-12-17T09:13:37Z</time>
      </trkpt>
      <trkpt lat="47.48092" lon="-0.43231">
        <ele>31</ele>
        <time>2017-12-17T09:13:42Z</time>
      </trkpt>
      <trkpt lat="47.48097" lon="-0.4326">
        <ele>31</ele>
        <time>2017-12-17T09:13:46Z</time>
      </trkpt>
      <trkpt lat="47.481" lon="-0.4329">
        <ele>30.8</ele>
        <time>2017-12-17T09:13:50Z</time>
      </trkpt>
      <trkpt lat="47.48104" lon="-0.43321">
        <ele>30.9</ele>
        <time>2017-12-17T09:13:54Z</time>
      </trkpt>
      <trkpt lat="47.48107" lon="-0.43352">
        <ele>30.9</ele>
        <time>2017-12-17T09:13:58Z</time>
      </trkpt>
      <trkpt lat="47.48112" lon="-0.43384">
        <ele>31</ele>
        <time>2017-12-17T09:14:02Z</time>
      </trkpt>
      <trkpt lat="47.4812" lon="-0.43412">
        <ele>31</ele>
        <time>2017-12-17T09:14:06Z</time>
      </trkpt>
      <trkpt lat="47.48131" lon="-0.43437">
        <ele>31</ele>
        <time>2017-12-17T09:14:10Z</time>
      </trkpt>
      <trkpt lat="47.48139" lon="-0.43467">
        <ele>31</ele>
        <time>2017-12-17T09:14:14Z</time>
      </trkpt>
      <trkpt lat="47.48146" lon="-0.43497">
        <ele>31</ele>
        <time>2017-12-17T09:14:18Z</time>
      </trkpt>
      <trkpt lat="47.48153" lon="-0.43527">
        <ele>31.5</ele>
        <time>2017-12-17T09:14:22Z</time>
      </trkpt>
      <trkpt lat="47.4816" lon="-0.43557">
        <ele>31.8</ele>
        <time>2017-12-17T09:14:26Z</time>
      </trkpt>
      <trkpt lat="47.48167" lon="-0.43585">
        <ele>32</ele>
        <time>2017-12-17T09:14:30Z</time>
      </trkpt>
      <trkpt lat="47.48173" lon="-0.43612">
        <ele>32</ele>
        <time>2017-12-17T09:14:34Z</time>
      </trkpt>
      <trkpt lat="47.48187" lon="-0.4363">
        <ele>32</ele>
        <time>2017-12-17T09:14:38Z</time>
      </trkpt>
      <trkpt lat="47.48195" lon="-0.43654">
        <ele>32</ele>
        <time>2017-12-17T09:14:42Z</time>
      </trkpt>
      <trkpt lat="47.48199" lon="-0.43681">
        <ele>32.6</ele>
        <time>2017-12-17T09:14:46Z</time>
      </trkpt>
      <trkpt lat="47.48204" lon="-0.43707">
        <ele>33</ele>
        <time>2017-12-17T09:14:50Z</time>
      </trkpt>
      <trkpt lat="47.48208" lon="-0.43738">
        <ele>33</ele>
        <time>2017-12-17T09:14:55Z</time>
      </trkpt>
      <trkpt lat="47.48211" lon="-0.43771">
        <ele>33</ele>
        <time>2017-12-17T09:15:00Z</time>
      </trkpt>
      <trkpt lat="47.48213" lon="-0.43801">
        <ele>33</ele>
        <time>2017-12-17T09:15:05Z</time>
      </trkpt>
      <trkpt lat="47.4823" lon="-0.43814">
        <ele>33.5</ele>
        <time>2017-12-17T09:15:12Z</time>
      </trkpt>
      <trkpt lat="47.48249" lon="-0.4381">
        <ele>34</ele>
        <time>2017-12-17T09:15:16Z</time>
      </trkpt>
      <trkpt lat="47.48268" lon="-0.43807">
        <ele>34</ele>
        <time>2017-12-17T09:15:20Z</time>
      </trkpt>
      <trkpt lat="47.48289" lon="-0.43803">
        <ele>34</ele>
        <time>2017-12-17T09:15:25Z</time>
      </trkpt>
      <trkpt lat="47.4831" lon="-0.43799">
        <ele>34.2</ele>
        <time>2017-12-17T09:15:30Z</time>
      </trkpt>
      <trkpt lat="47.48331" lon="-0.43796">
        <ele>34.9</ele>
        <time>2017-12-17T09:15:35Z</time>
      </trkpt>
      <trkpt lat="47.48351" lon="-0.43794">
        <ele>35</ele>
        <time>2017-12-17T09:15:40Z</time>
      </trkpt>
      <trkpt lat="47.48362" lon="-0.43816">
        <ele>35</ele>
        <time>2017-12-17T09:15:45Z</time>
      </trkpt>
      <trkpt lat="47.4837" lon="-0.43846">
        <ele>35.6</ele>
        <time>2017-12-17T09:15:50Z</time>
      </trkpt>
      <trkpt lat="47.48378" lon="-0.43871">
        <ele>36</ele>
        <time>2017-12-17T09:15:54Z</time>
      </trkpt>
      <trkpt lat="47.48382" lon="-0.439">
        <ele>36</ele>
        <time>2017-12-17T09:15:59Z</time>
      </trkpt>
      <trkpt lat="47.48363" lon="-0.43911">
        <ele>36</ele>
        <time>2017-12-17T09:16:04Z</time>
      </trkpt>
      <trkpt lat="47.48341" lon="-0.43917">
        <ele>36</ele>
        <time>2017-12-17T09:16:08Z</time>
      </trkpt>
      <trkpt lat="47.4832" lon="-0.43927">
        <ele>35.5</ele>
        <time>2017-12-17T09:16:12Z</time>
      </trkpt>
      <trkpt lat="47.48302" lon="-0.43942">
        <ele>35</ele>
        <time>2017-12-17T09:16:16Z</time>
      </trkpt>
      <trkpt lat="47.48285" lon="-0.4396">
        <ele>34.6</ele>
        <time>2017-12-17T09:16:20Z</time>
      </trkpt>
      <trkpt lat="47.48269" lon="-0.43983">
        <ele>34</ele>
        <time>2017-12-17T09:16:24Z</time>
      </trkpt>
      <trkpt lat="47.48252" lon="-0.44003">
        <ele>34</ele>
        <time>2017-12-17T09:16:28Z</time>
      </trkpt>
      <trkpt lat="47.48234" lon="-0.44022">
        <ele>33.9</ele>
        <time>2017-12-17T09:16:32Z</time>
      </trkpt>
      <trkpt lat="47.48213" lon="-0.44036">
        <ele>33.5</ele>
        <time>2017-12-17T09:16:36Z</time>
      </trkpt>
      <trkpt lat="47.48191" lon="-0.44043">
        <ele>33</ele>
        <time>2017-12-17T09:16:40Z</time>
      </trkpt>
      <trkpt lat="47.48173" lon="-0.44047">
        <ele>33</ele>
        <time>2017-12-17T09:16:43Z</time>
      </trkpt>
      <trkpt lat="47.4815" lon="-0.44053">
        <ele>32.5</ele>
        <time>2017-12-17T09:16:47Z</time>
      </trkpt>
      <trkpt lat="47.48132" lon="-0.44057">
        <ele>32</ele>
        <time>2017-12-17T09:16:50Z</time>
      </trkpt>
      <trkpt lat="47.48114" lon="-0.44063">
        <ele>32</ele>
        <time>2017-12-17T09:16:53Z</time>
      </trkpt>
      <trkpt lat="47.48096" lon="-0.44067">
        <ele>32</ele>
        <time>2017-12-17T09:16:56Z</time>
      </trkpt>
      <trkpt lat="47.48078" lon="-0.44071">
        <ele>32</ele>
        <time>2017-12-17T09:16:59Z</time>
      </trkpt>
      <trkpt lat="47.4806" lon="-0.44078">
        <ele>32</ele>
        <time>2017-12-17T09:17:02Z</time>
      </trkpt>
      <trkpt lat="47.48042" lon="-0.44087">
        <ele>32</ele>
        <time>2017-12-17T09:17:05Z</time>
      </trkpt>
      <trkpt lat="47.48025" lon="-0.44098">
        <ele>32</ele>
        <time>2017-12-17T09:17:08Z</time>
      </trkpt>
      <trkpt lat="47.48004" lon="-0.44114">
        <ele>32</ele>
        <time>2017-12-17T09:17:12Z</time>
      </trkpt>
      <trkpt lat="47.47988" lon="-0.44128">
        <ele>32</ele>
        <time>2017-12-17T09:17:15Z</time>
      </trkpt>
      <trkpt lat="47.47973" lon="-0.44143">
        <ele>32</ele>
        <time>2017-12-17T09:17:18Z</time>
      </trkpt>
      <trkpt lat="47.47959" lon="-0.4416">
        <ele>32</ele>
        <time>2017-12-17T09:17:21Z</time>
      </trkpt>
      <trkpt lat="47.47945" lon="-0.44178">
        <ele>32</ele>
        <time>2017-12-17T09:17:24Z</time>
      </trkpt>
      <trkpt lat="47.4793" lon="-0.44196">
        <ele>32</ele>
        <time>2017-12-17T09:17:27Z</time>
      </trkpt>
      <trkpt lat="47.47916" lon="-0.44211">
        <ele>32</ele>
        <time>2017-12-17T09:17:30Z</time>
      </trkpt>
      <trkpt lat="47.47896" lon="-0.44229">
        <ele>32</ele>
        <time>2017-12-17T09:17:34Z</time>
      </trkpt>
      <trkpt lat="47.47876" lon="-0.44243">
        <ele>32</ele>
        <time>2017-12-17T09:17:38Z</time>
      </trkpt>
      <trkpt lat="47.47867" lon="-0.44267">
        <ele>32</ele>
        <time>2017-12-17T09:17:42Z</time>
      </trkpt>
      <trkpt lat="47.47873" lon="-0.44299">
        <ele>32</ele>
        <time>2017-12-17T09:17:46Z</time>
      </trkpt>
      <trkpt lat="47.4788" lon="-0.44332">
        <ele>32</ele>
        <time>2017-12-17T09:17:50Z</time>
      </trkpt>
      <trkpt lat="47.47887" lon="-0.44363">
        <ele>32</ele>
        <time>2017-12-17T09:17:54Z</time>
      </trkpt>
      <trkpt lat="47.47893" lon="-0.44388">
        <ele>32</ele>
        <time>2017-12-17T09:17:57Z</time>
      </trkpt>
      <trkpt lat="47.47899" lon="-0.44414">
        <ele>31.7</ele>
        <time>2017-12-17T09:18:00Z</time>
      </trkpt>
      <trkpt lat="47.47906" lon="-0.44447">
        <ele>31.4</ele>
        <time>2017-12-17T09:18:04Z</time>
      </trkpt>
      <trkpt lat="47.47913" lon="-0.44478">
        <ele>31.3</ele>
        <time>2017-12-17T09:18:08Z</time>
      </trkpt>
      <trkpt lat="47.47919" lon="-0.44509">
        <ele>31.9</ele>
        <time>2017-12-17T09:18:12Z</time>
      </trkpt>
      <trkpt lat="47.47925" lon="-0.4454">
        <ele>31.7</ele>
        <time>2017-12-17T09:18:16Z</time>
      </trkpt>
      <trkpt lat="47.47924" lon="-0.44568">
        <ele>31.4</ele>
        <time>2017-12-17T09:18:20Z</time>
      </trkpt>
      <trkpt lat="47.47904" lon="-0.44577">
        <ele>31.2</ele>
        <time>2017-12-17T09:18:24Z</time>
      </trkpt>
      <trkpt lat="47.47884" lon="-0.44584">
        <ele>31.2</ele>
        <time>2017-12-17T09:18:28Z</time>
      </trkpt>
      <trkpt lat="47.47864" lon="-0.44591">
        <ele>31.9</ele>
        <time>2017-12-17T09:18:34Z</time>
      </trkpt>
      <trkpt lat="47.47845" lon="-0.44598">
        <ele>32</ele>
        <time>2017-12-17T09:18:40Z</time>
      </trkpt>
      <trkpt lat="47.47827" lon="-0.44606">
        <ele>32</ele>
        <time>2017-12-17T09:18:46Z</time>
      </trkpt>
      <trkpt lat="47.47805" lon="-0.44615">
        <ele>32</ele>
        <time>2017-12-17T09:18:51Z</time>
      </trkpt>
      <trkpt lat="47.47787" lon="-0.44624">
        <ele>32.7</ele>
        <time>2017-12-17T09:18:54Z</time>
      </trkpt>
      <trkpt lat="47.47764" lon="-0.44632">
        <ele>33</ele>
        <time>2017-12-17T09:18:57Z</time>
      </trkpt>
      <trkpt lat="47.47744" lon="-0.44638">
        <ele>33.2</ele>
        <time>2017-12-17T09:19:00Z</time>
      </trkpt>
      <trkpt lat="47.47726" lon="-0.44642">
        <ele>33.9</ele>
        <time>2017-12-17T09:19:03Z</time>
      </trkpt>
      <trkpt lat="47.47708" lon="-0.44646">
        <ele>34</ele>
        <time>2017-12-17T09:19:06Z</time>
      </trkpt>
      <trkpt lat="47.47685" lon="-0.44647">
        <ele>34.3</ele>
        <time>2017-12-17T09:19:10Z</time>
      </trkpt>
      <trkpt lat="47.47664" lon="-0.44646">
        <ele>35.1</ele>
        <time>2017-12-17T09:19:14Z</time>
      </trkpt>
      <trkpt lat="47.47644" lon="-0.4464">
        <ele>35.8</ele>
        <time>2017-12-17T09:19:18Z</time>
      </trkpt>
      <trkpt lat="47.47624" lon="-0.44636">
        <ele>36.5</ele>
        <time>2017-12-17T09:19:22Z</time>
      </trkpt>
      <trkpt lat="47.47606" lon="-0.44632">
        <ele>37.2</ele>
        <time>2017-12-17T09:19:26Z</time>
      </trkpt>
      <trkpt lat="47.47586" lon="-0.44627">
        <ele>37.9</ele>
        <time>2017-12-17T09:19:30Z</time>
      </trkpt>
      <trkpt lat="47.47563" lon="-0.44626">
        <ele>38.7</ele>
        <time>2017-12-17T09:19:34Z</time>
      </trkpt>
      <trkpt lat="47.47544" lon="-0.44626">
        <ele>39.4</ele>
        <time>2017-12-17T09:19:37Z</time>
      </trkpt>
      <trkpt lat="47.47521" lon="-0.44614">
        <ele>40.3</ele>
        <time>2017-12-17T09:19:41Z</time>
      </trkpt>
      <trkpt lat="47.47498" lon="-0.44602">
        <ele>41</ele>
        <time>2017-12-17T09:19:45Z</time>
      </trkpt>
      <trkpt lat="47.4748" lon="-0.44597">
        <ele>41.3</ele>
        <time>2017-12-17T09:19:48Z</time>
      </trkpt>
      <trkpt lat="47.47457" lon="-0.44589">
        <ele>41.6</ele>
        <time>2017-12-17T09:19:52Z</time>
      </trkpt>
      <trkpt lat="47.47433" lon="-0.44586">
        <ele>42</ele>
        <time>2017-12-17T09:19:56Z</time>
      </trkpt>
      <trkpt lat="47.47412" lon="-0.44581">
        <ele>41.9</ele>
        <time>2017-12-17T09:20:00Z</time>
      </trkpt>
      <trkpt lat="47.47392" lon="-0.44578">
        <ele>41.8</ele>
        <time>2017-12-17T09:20:04Z</time>
      </trkpt>
      <trkpt lat="47.47373" lon="-0.44575">
        <ele>41.3</ele>
        <time>2017-12-17T09:20:08Z</time>
      </trkpt>
      <trkpt lat="47.47355" lon="-0.44572">
        <ele>40.9</ele>
        <time>2017-12-17T09:20:12Z</time>
      </trkpt>
      <trkpt lat="47.47333" lon="-0.4457">
        <ele>40.5</ele>
        <time>2017-12-17T09:20:17Z</time>
      </trkpt>
      <trkpt lat="47.47324" lon="-0.44598">
        <ele>41.3</ele>
        <time>2017-12-17T09:20:27Z</time>
      </trkpt>
      <trkpt lat="47.47322" lon="-0.44626">
        <ele>41.8</ele>
        <time>2017-12-17T09:20:32Z</time>
      </trkpt>
      <trkpt lat="47.47319" lon="-0.44658">
        <ele>42</ele>
        <time>2017-12-17T09:20:37Z</time>
      </trkpt>
      <trkpt lat="47.47317" lon="-0.44685">
        <ele>42</ele>
        <time>2017-12-17T09:20:41Z</time>
      </trkpt>
      <trkpt lat="47.47315" lon="-0.44712">
        <ele>42.6</ele>
        <time>2017-12-17T09:20:45Z</time>
      </trkpt>
      <trkpt lat="47.47315" lon="-0.4474">
        <ele>43</ele>
        <time>2017-12-17T09:20:49Z</time>
      </trkpt>
      <trkpt lat="47.47317" lon="-0.44769">
        <ele>43</ele>
        <time>2017-12-17T09:20:53Z</time>
      </trkpt>
      <trkpt lat="47.47318" lon="-0.44797">
        <ele>43</ele>
        <time>2017-12-17T09:20:57Z</time>
      </trkpt>
      <trkpt lat="47.4732" lon="-0.44823">
        <ele>43</ele>
        <time>2017-12-17T09:21:01Z</time>
      </trkpt>
      <trkpt lat="47.47322" lon="-0.4485">
        <ele>43</ele>
        <time>2017-12-17T09:21:05Z</time>
      </trkpt>
      <trkpt lat="47.47324" lon="-0.44879">
        <ele>43</ele>
        <time>2017-12-17T09:21:09Z</time>
      </trkpt>
      <trkpt lat="47.47323" lon="-0.44909">
        <ele>43.7</ele>
        <time>2017-12-17T09:21:13Z</time>
      </trkpt>
      <trkpt lat="47.47321" lon="-0.44939">
        <ele>43.2</ele>
        <time>2017-12-17T09:21:17Z</time>
      </trkpt>
      <trkpt lat="47.47319" lon="-0.4497">
        <ele>43</ele>
        <time>2017-12-17T09:21:21Z</time>
      </trkpt>
      <trkpt lat="47.47318" lon="-0.45">
        <ele>43</ele>
        <time>2017-12-17T09:21:25Z</time>
      </trkpt>
      <trkpt lat="47.47318" lon="-0.4503">
        <ele>43</ele>
        <time>2017-12-17T09:21:29Z</time>
      </trkpt>
      <trkpt lat="47.47319" lon="-0.45059">
        <ele>43</ele>
        <time>2017-12-17T09:21:33Z</time>
      </trkpt>
      <trkpt lat="47.47322" lon="-0.45091">
        <ele>43.1</ele>
        <time>2017-12-17T09:21:37Z</time>
      </trkpt>
      <trkpt lat="47.47324" lon="-0.45127">
        <ele>43.7</ele>
        <time>2017-12-17T09:21:41Z</time>
      </trkpt>
      <trkpt lat="47.47323" lon="-0.45161">
        <ele>43.5</ele>
        <time>2017-12-17T09:21:45Z</time>
      </trkpt>
      <trkpt lat="47.4732" lon="-0.45187">
        <ele>43.1</ele>
        <time>2017-12-17T09:21:48Z</time>
      </trkpt>
      <trkpt lat="47.47316" lon="-0.45221">
        <ele>43</ele>
        <time>2017-12-17T09:21:52Z</time>
      </trkpt>
      <trkpt lat="47.47311" lon="-0.45256">
        <ele>43</ele>
        <time>2017-12-17T09:21:56Z</time>
      </trkpt>
      <trkpt lat="47.47307" lon="-0.4529">
        <ele>43</ele>
        <time>2017-12-17T09:22:00Z</time>
      </trkpt>
      <trkpt lat="47.47305" lon="-0.45321">
        <ele>43</ele>
        <time>2017-12-17T09:22:04Z</time>
      </trkpt>
      <trkpt lat="47.47304" lon="-0.45353">
        <ele>43</ele>
        <time>2017-12-17T09:22:09Z</time>
      </trkpt>
      <trkpt lat="47.47299" lon="-0.45384">
        <ele>42.8</ele>
        <time>2017-12-17T09:22:13Z</time>
      </trkpt>
      <trkpt lat="47.47295" lon="-0.4541">
        <ele>42.6</ele>
        <time>2017-12-17T09:22:16Z</time>
      </trkpt>
      <trkpt lat="47.47287" lon="-0.45436">
        <ele>42.3</ele>
        <time>2017-12-17T09:22:19Z</time>
      </trkpt>
      <trkpt lat="47.47276" lon="-0.45461">
        <ele>42</ele>
        <time>2017-12-17T09:22:23Z</time>
      </trkpt>
      <trkpt lat="47.47274" lon="-0.45488">
        <ele>41.9</ele>
        <time>2017-12-17T09:22:29Z</time>
      </trkpt>
      <trkpt lat="47.47292" lon="-0.45496">
        <ele>42.5</ele>
        <time>2017-12-17T09:22:37Z</time>
      </trkpt>
      <trkpt lat="47.47314" lon="-0.45496">
        <ele>42.7</ele>
        <time>2017-12-17T09:22:42Z</time>
      </trkpt>
      <trkpt lat="47.47332" lon="-0.45493">
        <ele>42</ele>
        <time>2017-12-17T09:22:46Z</time>
      </trkpt>
      <trkpt lat="47.47353" lon="-0.45488">
        <ele>42</ele>
        <time>2017-12-17T09:22:51Z</time>
      </trkpt>
      <trkpt lat="47.47375" lon="-0.4548">
        <ele>41.5</ele>
        <time>2017-12-17T09:22:55Z</time>
      </trkpt>
      <trkpt lat="47.474" lon="-0.45478">
        <ele>40.6</ele>
        <time>2017-12-17T09:22:59Z</time>
      </trkpt>
      <trkpt lat="47.47419" lon="-0.45474">
        <ele>39.9</ele>
        <time>2017-12-17T09:23:02Z</time>
      </trkpt>
      <trkpt lat="47.47437" lon="-0.45467">
        <ele>39.1</ele>
        <time>2017-12-17T09:23:05Z</time>
      </trkpt>
      <trkpt lat="47.47459" lon="-0.45456">
        <ele>37.7</ele>
        <time>2017-12-17T09:23:09Z</time>
      </trkpt>
      <trkpt lat="47.47478" lon="-0.45455">
        <ele>36.8</ele>
        <time>2017-12-17T09:23:12Z</time>
      </trkpt>
      <trkpt lat="47.475" lon="-0.45455">
        <ele>36</ele>
        <time>2017-12-17T09:23:15Z</time>
      </trkpt>
      <trkpt lat="47.47521" lon="-0.45463">
        <ele>35.3</ele>
        <time>2017-12-17T09:23:19Z</time>
      </trkpt>
      <trkpt lat="47.47526" lon="-0.45495">
        <ele>35.1</ele>
        <time>2017-12-17T09:23:23Z</time>
      </trkpt>
      <trkpt lat="47.4753" lon="-0.45525">
        <ele>34.9</ele>
        <time>2017-12-17T09:23:26Z</time>
      </trkpt>
      <trkpt lat="47.47531" lon="-0.45553">
        <ele>35.7</ele>
        <time>2017-12-17T09:23:30Z</time>
      </trkpt>
      <trkpt lat="47.4753" lon="-0.45585">
        <ele>35.8</ele>
        <time>2017-12-17T09:23:37Z</time>
      </trkpt>
      <trkpt lat="47.47536" lon="-0.4561">
        <ele>34.4</ele>
        <time>2017-12-17T09:23:40Z</time>
      </trkpt>
      <trkpt lat="47.47545" lon="-0.45634">
        <ele>34.3</ele>
        <time>2017-12-17T09:23:43Z</time>
      </trkpt>
      <trkpt lat="47.47563" lon="-0.45653">
        <ele>33.7</ele>
        <time>2017-12-17T09:23:47Z</time>
      </trkpt>
      <trkpt lat="47.47586" lon="-0.45666">
        <ele>32.9</ele>
        <time>2017-12-17T09:23:50Z</time>
      </trkpt>
      <trkpt lat="47.47606" lon="-0.45673">
        <ele>32.1</ele>
        <time>2017-12-17T09:23:53Z</time>
      </trkpt>
      <trkpt lat="47.47627" lon="-0.45686">
        <ele>31.4</ele>
        <time>2017-12-17T09:23:56Z</time>
      </trkpt>
      <trkpt lat="47.47647" lon="-0.45703">
        <ele>30.8</ele>
        <time>2017-12-17T09:23:59Z</time>
      </trkpt>
      <trkpt lat="47.47655" lon="-0.4573">
        <ele>30.8</ele>
        <time>2017-12-17T09:24:02Z</time>
      </trkpt>
      <trkpt lat="47.47649" lon="-0.45756">
        <ele>30.6</ele>
        <time>2017-12-17T09:24:05Z</time>
      </trkpt>
      <trkpt lat="47.47643" lon="-0.45782">
        <ele>30.9</ele>
        <time>2017-12-17T09:24:08Z</time>
      </trkpt>
      <trkpt lat="47.47637" lon="-0.45809">
        <ele>31.1</ele>
        <time>2017-12-17T09:24:11Z</time>
      </trkpt>
      <trkpt lat="47.47629" lon="-0.45843">
        <ele>31.4</ele>
        <time>2017-12-17T09:24:15Z</time>
      </trkpt>
      <trkpt lat="47.47619" lon="-0.45874">
        <ele>31.7</ele>
        <time>2017-12-17T09:24:19Z</time>
      </trkpt>
      <trkpt lat="47.47611" lon="-0.45905">
        <ele>32</ele>
        <time>2017-12-17T09:24:23Z</time>
      </trkpt>
      <trkpt lat="47.47605" lon="-0.45933">
        <ele>31.5</ele>
        <time>2017-12-17T09:24:26Z</time>
      </trkpt>
      <trkpt lat="47.47602" lon="-0.45961">
        <ele>31.3</ele>
        <time>2017-12-17T09:24:29Z</time>
      </trkpt>
      <trkpt lat="47.47602" lon="-0.45989">
        <ele>31.3</ele>
        <time>2017-12-17T09:24:32Z</time>
      </trkpt>
      <trkpt lat="47.47606" lon="-0.46015">
        <ele>31.2</ele>
        <time>2017-12-17T09:24:35Z</time>
      </trkpt>
      <trkpt lat="47.47613" lon="-0.46047">
        <ele>31</ele>
        <time>2017-12-17T09:24:39Z</time>
      </trkpt>
      <trkpt lat="47.47606" lon="-0.46076">
        <ele>31</ele>
        <time>2017-12-17T09:24:44Z</time>
      </trkpt>
      <trkpt lat="47.47586" lon="-0.46063">
        <ele>31.7</ele>
        <time>2017-12-17T09:24:49Z</time>
      </trkpt>
      <trkpt lat="47.47566" lon="-0.46058">
        <ele>32</ele>
        <time>2017-12-17T09:24:53Z</time>
      </trkpt>
      <trkpt lat="47.47549" lon="-0.46043">
        <ele>32.1</ele>
        <time>2017-12-17T09:24:57Z</time>
      </trkpt>
      <trkpt lat="47.47533" lon="-0.46031">
        <ele>32.7</ele>
        <time>2017-12-17T09:25:01Z</time>
      </trkpt>
      <trkpt lat="47.47522" lon="-0.46007">
        <ele>33.2</ele>
        <time>2017-12-17T09:25:06Z</time>
      </trkpt>
      <trkpt lat="47.47503" lon="-0.45993">
        <ele>33.9</ele>
        <time>2017-12-17T09:25:11Z</time>
      </trkpt>
      <trkpt lat="47.47484" lon="-0.45985">
        <ele>34.6</ele>
        <time>2017-12-17T09:25:16Z</time>
      </trkpt>
      <trkpt lat="47.47463" lon="-0.45989">
        <ele>35.5</ele>
        <time>2017-12-17T09:25:22Z</time>
      </trkpt>
      <trkpt lat="47.47443" lon="-0.45994">
        <ele>36.3</ele>
        <time>2017-12-17T09:25:28Z</time>
      </trkpt>
      <trkpt lat="47.47422" lon="-0.45994">
        <ele>37.7</ele>
        <time>2017-12-17T09:25:34Z</time>
      </trkpt>
      <trkpt lat="47.47402" lon="-0.45984">
        <ele>38.8</ele>
        <time>2017-12-17T09:25:39Z</time>
      </trkpt>
      <trkpt lat="47.47385" lon="-0.45973">
        <ele>40.1</ele>
        <time>2017-12-17T09:25:45Z</time>
      </trkpt>
      <trkpt lat="47.47371" lon="-0.45953">
        <ele>40.7</ele>
        <time>2017-12-17T09:25:52Z</time>
      </trkpt>
      <trkpt lat="47.47361" lon="-0.45926">
        <ele>41</ele>
        <time>2017-12-17T09:25:59Z</time>
      </trkpt>
      <trkpt lat="47.47342" lon="-0.45914">
        <ele>41.7</ele>
        <time>2017-12-17T09:26:04Z</time>
      </trkpt>
      <trkpt lat="47.47323" lon="-0.45905">
        <ele>42</ele>
        <time>2017-12-17T09:26:08Z</time>
      </trkpt>
      <trkpt lat="47.47303" lon="-0.45896">
        <ele>42</ele>
        <time>2017-12-17T09:26:12Z</time>
      </trkpt>
      <trkpt lat="47.47285" lon="-0.45889">
        <ele>42</ele>
        <time>2017-12-17T09:26:16Z</time>
      </trkpt>
      <trkpt lat="47.47268" lon="-0.45869">
        <ele>42</ele>
        <time>2017-12-17T09:26:21Z</time>
      </trkpt>
      <trkpt lat="47.47255" lon="-0.45845">
        <ele>42</ele>
        <time>2017-12-17T09:26:26Z</time>
      </trkpt>
      <trkpt lat="47.47241" lon="-0.45823">
        <ele>41.9</ele>
        <time>2017-12-17T09:26:30Z</time>
      </trkpt>
      <trkpt lat="47.47237" lon="-0.45791">
        <ele>41.5</ele>
        <time>2017-12-17T09:26:35Z</time>
      </trkpt>
      <trkpt lat="47.47241" lon="-0.45762">
        <ele>41.3</ele>
        <time>2017-12-17T09:26:39Z</time>
      </trkpt>
      <trkpt lat="47.47244" lon="-0.45735">
        <ele>41.4</ele>
        <time>2017-12-17T09:26:43Z</time>
      </trkpt>
      <trkpt lat="47.47249" lon="-0.45706">
        <ele>41.4</ele>
        <time>2017-12-17T09:26:47Z</time>
      </trkpt>
      <trkpt lat="47.47252" lon="-0.45675">
        <ele>41.1</ele>
        <time>2017-12-17T09:26:51Z</time>
      </trkpt>
      <trkpt lat="47.47255" lon="-0.45643">
        <ele>41.2</ele>
        <time>2017-12-17T09:26:55Z</time>
      </trkpt>
      <trkpt lat="47.47257" lon="-0.45612">
        <ele>41.2</ele>
        <time>2017-12-17T09:26:59Z</time>
      </trkpt>
      <trkpt lat="47.47262" lon="-0.45581">
        <ele>41.4</ele>
        <time>2017-12-17T09:27:03Z</time>
      </trkpt>
      <trkpt lat="47.47271" lon="-0.45554">
        <ele>41.8</ele>
        <time>2017-12-17T09:27:07Z</time>
      </trkpt>
      <trkpt lat="47.4728" lon="-0.45525">
        <ele>42</ele>
        <time>2017-12-17T09:27:12Z</time>
      </trkpt>
      <trkpt lat="47.4728" lon="-0.45496">
        <ele>42.1</ele>
        <time>2017-12-17T09:27:21Z</time>
      </trkpt>
      <trkpt lat="47.473" lon="-0.45495">
        <ele>42.8</ele>
        <time>2017-12-17T09:28:43Z</time>
      </trkpt>
      <trkpt lat="47.4732" lon="-0.45496">
        <ele>42.5</ele>
        <time>2017-12-17T09:28:49Z</time>
      </trkpt>
      <trkpt lat="47.47343" lon="-0.45489">
        <ele>42</ele>
        <time>2017-12-17T09:28:54Z</time>
      </trkpt>
      <trkpt lat="47.47367" lon="-0.45479">
        <ele>41.8</ele>
        <time>2017-12-17T09:28:57Z</time>
      </trkpt>
      <trkpt lat="47.47385" lon="-0.45474">
        <ele>41.2</ele>
        <time>2017-12-17T09:28:59Z</time>
      </trkpt>
      <trkpt lat="47.47411" lon="-0.45467">
        <ele>40.1</ele>
        <time>2017-12-17T09:29:02Z</time>
      </trkpt>
      <trkpt lat="47.47429" lon="-0.45462">
        <ele>39.2</ele>
        <time>2017-12-17T09:29:04Z</time>
      </trkpt>
      <trkpt lat="47.47454" lon="-0.45455">
        <ele>37.9</ele>
        <time>2017-12-17T09:29:07Z</time>
      </trkpt>
      <trkpt lat="47.47473" lon="-0.45443">
        <ele>37</ele>
        <time>2017-12-17T09:29:10Z</time>
      </trkpt>
      <trkpt lat="47.4749" lon="-0.45428">
        <ele>36.6</ele>
        <time>2017-12-17T09:29:16Z</time>
      </trkpt>
      <trkpt lat="47.47511" lon="-0.45427">
        <ele>35.6</ele>
        <time>2017-12-17T09:29:20Z</time>
      </trkpt>
      <trkpt lat="47.4753" lon="-0.45422">
        <ele>34.9</ele>
        <time>2017-12-17T09:29:23Z</time>
      </trkpt>
      <trkpt lat="47.4755" lon="-0.45423">
        <ele>34.2</ele>
        <time>2017-12-17T09:29:26Z</time>
      </trkpt>
      <trkpt lat="47.47571" lon="-0.45422">
        <ele>33.4</ele>
        <time>2017-12-17T09:29:29Z</time>
      </trkpt>
      <trkpt lat="47.47591" lon="-0.45421">
        <ele>33</ele>
        <time>2017-12-17T09:29:32Z</time>
      </trkpt>
      <trkpt lat="47.4761" lon="-0.45421">
        <ele>33</ele>
        <time>2017-12-17T09:29:35Z</time>
      </trkpt>
      <trkpt lat="47.4763" lon="-0.45422">
        <ele>32.3</ele>
        <time>2017-12-17T09:29:38Z</time>
      </trkpt>
      <trkpt lat="47.4765" lon="-0.45423">
        <ele>32</ele>
        <time>2017-12-17T09:29:41Z</time>
      </trkpt>
      <trkpt lat="47.47669" lon="-0.45426">
        <ele>32</ele>
        <time>2017-12-17T09:29:44Z</time>
      </trkpt>
      <trkpt lat="47.47687" lon="-0.45429">
        <ele>31.7</ele>
        <time>2017-12-17T09:29:47Z</time>
      </trkpt>
      <trkpt lat="47.47706" lon="-0.45433">
        <ele>31.2</ele>
        <time>2017-12-17T09:29:50Z</time>
      </trkpt>
      <trkpt lat="47.47725" lon="-0.45438">
        <ele>31</ele>
        <time>2017-12-17T09:29:53Z</time>
      </trkpt>
      <trkpt lat="47.47745" lon="-0.45444">
        <ele>31</ele>
        <time>2017-12-17T09:29:56Z</time>
      </trkpt>
      <trkpt lat="47.47764" lon="-0.45448">
        <ele>30.9</ele>
        <time>2017-12-17T09:29:59Z</time>
      </trkpt>
      <trkpt lat="47.47787" lon="-0.45453">
        <ele>30.7</ele>
        <time>2017-12-17T09:30:03Z</time>
      </trkpt>
      <trkpt lat="47.47808" lon="-0.4546">
        <ele>30.4</ele>
        <time>2017-12-17T09:30:07Z</time>
      </trkpt>
      <trkpt lat="47.47813" lon="-0.45486">
        <ele>29.9</ele>
        <time>2017-12-17T09:30:12Z</time>
      </trkpt>
      <trkpt lat="47.47832" lon="-0.45486">
        <ele>29.5</ele>
        <time>2017-12-17T09:30:28Z</time>
      </trkpt>
      <trkpt lat="47.47853" lon="-0.45491">
        <ele>29.1</ele>
        <time>2017-12-17T09:30:33Z</time>
      </trkpt>
      <trkpt lat="47.47871" lon="-0.45495">
        <ele>29</ele>
        <time>2017-12-17T09:30:37Z</time>
      </trkpt>
      <trkpt lat="47.47891" lon="-0.455">
        <ele>29</ele>
        <time>2017-12-17T09:30:41Z</time>
      </trkpt>
      <trkpt lat="47.47911" lon="-0.45506">
        <ele>29</ele>
        <time>2017-12-17T09:30:45Z</time>
      </trkpt>
      <trkpt lat="47.47932" lon="-0.4551">
        <ele>29</ele>
        <time>2017-12-17T09:30:49Z</time>
      </trkpt>
      <trkpt lat="47.47951" lon="-0.45516">
        <ele>28.9</ele>
        <time>2017-12-17T09:30:53Z</time>
      </trkpt>
      <trkpt lat="47.47972" lon="-0.4552">
        <ele>28.3</ele>
        <time>2017-12-17T09:30:57Z</time>
      </trkpt>
      <trkpt lat="47.4799" lon="-0.45527">
        <ele>28</ele>
        <time>2017-12-17T09:31:01Z</time>
      </trkpt>
      <trkpt lat="47.48002" lon="-0.4555">
        <ele>28</ele>
        <time>2017-12-17T09:31:05Z</time>
      </trkpt>
      <trkpt lat="47.48011" lon="-0.45575">
        <ele>28</ele>
        <time>2017-12-17T09:31:09Z</time>
      </trkpt>
      <trkpt lat="47.48019" lon="-0.456">
        <ele>28</ele>
        <time>2017-12-17T09:31:13Z</time>
      </trkpt>
      <trkpt lat="47.48027" lon="-0.45626">
        <ele>28</ele>
        <time>2017-12-17T09:31:17Z</time>
      </trkpt>
      <trkpt lat="47.48036" lon="-0.4565">
        <ele>28</ele>
        <time>2017-12-17T09:31:21Z</time>
      </trkpt>
      <trkpt lat="47.48044" lon="-0.4568">
        <ele>28</ele>
        <time>2017-12-17T09:31:26Z</time>
      </trkpt>
      <trkpt lat="47.48052" lon="-0.45705">
        <ele>28</ele>
        <time>2017-12-17T09:31:30Z</time>
      </trkpt>
      <trkpt lat="47.4806" lon="-0.4573">
        <ele>28</ele>
        <time>2017-12-17T09:31:34Z</time>
      </trkpt>
      <trkpt lat="47.48068" lon="-0.45755">
        <ele>28</ele>
        <time>2017-12-17T09:31:38Z</time>
      </trkpt>
      <trkpt lat="47.48076" lon="-0.45779">
        <ele>28</ele>
        <time>2017-12-17T09:31:42Z</time>
      </trkpt>
      <trkpt lat="47.48081" lon="-0.45808">
        <ele>28</ele>
        <time>2017-12-17T09:31:47Z</time>
      </trkpt>
      <trkpt lat="47.48066" lon="-0.45824">
        <ele>27.6</ele>
        <time>2017-12-17T09:31:52Z</time>
      </trkpt>
      <trkpt lat="47.48048" lon="-0.45823">
        <ele>27.6</ele>
        <time>2017-12-17T09:31:56Z</time>
      </trkpt>
      <trkpt lat="47.48028" lon="-0.45827">
        <ele>28</ele>
        <time>2017-12-17T09:32:01Z</time>
      </trkpt>
      <trkpt lat="47.48025" lon="-0.45855">
        <ele>28</ele>
        <time>2017-12-17T09:32:06Z</time>
      </trkpt>
      <trkpt lat="47.48026" lon="-0.45884">
        <ele>28</ele>
        <time>2017-12-17T09:32:11Z</time>
      </trkpt>
      <trkpt lat="47.48045" lon="-0.45893">
        <ele>28</ele>
        <time>2017-12-17T09:32:18Z</time>
      </trkpt>
      <trkpt lat="47.48067" lon="-0.45889">
        <ele>27.6</ele>
        <time>2017-12-17T09:32:23Z</time>
      </trkpt>
      <trkpt lat="47.48086" lon="-0.4589">
        <ele>27</ele>
        <time>2017-12-17T09:32:27Z</time>
      </trkpt>
      <trkpt lat="47.48106" lon="-0.45892">
        <ele>27.1</ele>
        <time>2017-12-17T09:32:31Z</time>
      </trkpt>
      <trkpt lat="47.48126" lon="-0.45895">
        <ele>27.6</ele>
        <time>2017-12-17T09:32:35Z</time>
      </trkpt>
      <trkpt lat="47.48149" lon="-0.45899">
        <ele>27.8</ele>
        <time>2017-12-17T09:32:40Z</time>
      </trkpt>
      <trkpt lat="47.4817" lon="-0.459">
        <ele>27.4</ele>
        <time>2017-12-17T09:32:44Z</time>
      </trkpt>
      <trkpt lat="47.48191" lon="-0.45899">
        <ele>27.4</ele>
        <time>2017-12-17T09:32:48Z</time>
      </trkpt>
      <trkpt lat="47.48211" lon="-0.45901">
        <ele>27.2</ele>
        <time>2017-12-17T09:32:51Z</time>
      </trkpt>
      <trkpt lat="47.48232" lon="-0.45906">
        <ele>27</ele>
        <time>2017-12-17T09:32:54Z</time>
      </trkpt>
      <trkpt lat="47.48251" lon="-0.45912">
        <ele>27</ele>
        <time>2017-12-17T09:32:57Z</time>
      </trkpt>
      <trkpt lat="47.48269" lon="-0.45919">
        <ele>27</ele>
        <time>2017-12-17T09:33:00Z</time>
      </trkpt>
      <trkpt lat="47.48291" lon="-0.45928">
        <ele>27</ele>
        <time>2017-12-17T09:33:04Z</time>
      </trkpt>
      <trkpt lat="47.4831" lon="-0.45935">
        <ele>27</ele>
        <time>2017-12-17T09:33:07Z</time>
      </trkpt>
      <trkpt lat="47.48329" lon="-0.45941">
        <ele>27</ele>
        <time>2017-12-17T09:33:10Z</time>
      </trkpt>
      <trkpt lat="47.48347" lon="-0.45948">
        <ele>27</ele>
        <time>2017-12-17T09:33:13Z</time>
      </trkpt>
      <trkpt lat="47.48365" lon="-0.45957">
        <ele>27</ele>
        <time>2017-12-17T09:33:16Z</time>
      </trkpt>
      <trkpt lat="47.48382" lon="-0.45965">
        <ele>27</ele>
        <time>2017-12-17T09:33:19Z</time>
      </trkpt>
      <trkpt lat="47.48405" lon="-0.45976">
        <ele>27</ele>
        <time>2017-12-17T09:33:23Z</time>
      </trkpt>
      <trkpt lat="47.48422" lon="-0.45986">
        <ele>27</ele>
        <time>2017-12-17T09:33:26Z</time>
      </trkpt>
      <trkpt lat="47.4844" lon="-0.45998">
        <ele>27</ele>
        <time>2017-12-17T09:33:29Z</time>
      </trkpt>
      <trkpt lat="47.48458" lon="-0.46001">
        <ele>27</ele>
        <time>2017-12-17T09:33:32Z</time>
      </trkpt>
      <trkpt lat="47.48478" lon="-0.4599">
        <ele>27</ele>
        <time>2017-12-17T09:33:36Z</time>
      </trkpt>
      <trkpt lat="47.48497" lon="-0.45976">
        <ele>27</ele>
        <time>2017-12-17T09:33:40Z</time>
      </trkpt>
      <trkpt lat="47.48519" lon="-0.45967">
        <ele>26.9</ele>
        <time>2017-12-17T09:33:44Z</time>
      </trkpt>
      <trkpt lat="47.48537" lon="-0.45957">
        <ele>26.8</ele>
        <time>2017-12-17T09:33:47Z</time>
      </trkpt>
      <trkpt lat="47.48559" lon="-0.45944">
        <ele>26</ele>
        <time>2017-12-17T09:33:51Z</time>
      </trkpt>
      <trkpt lat="47.48579" lon="-0.45932">
        <ele>26</ele>
        <time>2017-12-17T09:33:55Z</time>
      </trkpt>
      <trkpt lat="47.48596" lon="-0.45907">
        <ele>26</ele>
        <time>2017-12-17T09:33:59Z</time>
      </trkpt>
      <trkpt lat="47.4861" lon="-0.45884">
        <ele>26</ele>
        <time>2017-12-17T09:34:02Z</time>
      </trkpt>
      <trkpt lat="47.48627" lon="-0.45863">
        <ele>26</ele>
        <time>2017-12-17T09:34:05Z</time>
      </trkpt>
      <trkpt lat="47.48646" lon="-0.45854">
        <ele>26.1</ele>
        <time>2017-12-17T09:34:08Z</time>
      </trkpt>
      <trkpt lat="47.48664" lon="-0.45846">
        <ele>26.5</ele>
        <time>2017-12-17T09:34:11Z</time>
      </trkpt>
      <trkpt lat="47.48684" lon="-0.4584">
        <ele>26.3</ele>
        <time>2017-12-17T09:34:14Z</time>
      </trkpt>
      <trkpt lat="47.48707" lon="-0.45841">
        <ele>26</ele>
        <time>2017-12-17T09:34:17Z</time>
      </trkpt>
      <trkpt lat="47.48725" lon="-0.4584">
        <ele>26.1</ele>
        <time>2017-12-17T09:34:20Z</time>
      </trkpt>
      <trkpt lat="47.48749" lon="-0.45836">
        <ele>27</ele>
        <time>2017-12-17T09:34:24Z</time>
      </trkpt>
      <trkpt lat="47.48768" lon="-0.45834">
        <ele>27</ele>
        <time>2017-12-17T09:34:27Z</time>
      </trkpt>
      <trkpt lat="47.48791" lon="-0.45832">
        <ele>27.5</ele>
        <time>2017-12-17T09:34:31Z</time>
      </trkpt>
      <trkpt lat="47.4881" lon="-0.45829">
        <ele>28</ele>
        <time>2017-12-17T09:34:34Z</time>
      </trkpt>
      <trkpt lat="47.48829" lon="-0.4583">
        <ele>28</ele>
        <time>2017-12-17T09:34:37Z</time>
      </trkpt>
      <trkpt lat="47.48849" lon="-0.4583">
        <ele>28</ele>
        <time>2017-12-17T09:34:40Z</time>
      </trkpt>
      <trkpt lat="47.48867" lon="-0.45831">
        <ele>27.8</ele>
        <time>2017-12-17T09:34:43Z</time>
      </trkpt>
      <trkpt lat="47.48885" lon="-0.45829">
        <ele>27.1</ele>
        <time>2017-12-17T09:34:46Z</time>
      </trkpt>
      <trkpt lat="47.48904" lon="-0.45829">
        <ele>27</ele>
        <time>2017-12-17T09:34:49Z</time>
      </trkpt>
      <trkpt lat="47.48926" lon="-0.45829">
        <ele>27</ele>
        <time>2017-12-17T09:34:52Z</time>
      </trkpt>
      <trkpt lat="47.4895" lon="-0.45832">
        <ele>27</ele>
        <time>2017-12-17T09:34:55Z</time>
      </trkpt>
      <trkpt lat="47.48975" lon="-0.45833">
        <ele>27</ele>
        <time>2017-12-17T09:34:58Z</time>
      </trkpt>
      <trkpt lat="47.49" lon="-0.45826">
        <ele>27</ele>
        <time>2017-12-17T09:35:01Z</time>
      </trkpt>
      <trkpt lat="47.49024" lon="-0.45814">
        <ele>26.4</ele>
        <time>2017-12-17T09:35:04Z</time>
      </trkpt>
      <trkpt lat="47.49045" lon="-0.45799">
        <ele>26.6</ele>
        <time>2017-12-17T09:35:07Z</time>
      </trkpt>
      <trkpt lat="47.49061" lon="-0.45775">
        <ele>26.1</ele>
        <time>2017-12-17T09:35:10Z</time>
      </trkpt>
      <trkpt lat="47.49079" lon="-0.45753">
        <ele>26.2</ele>
        <time>2017-12-17T09:35:13Z</time>
      </trkpt>
      <trkpt lat="47.491" lon="-0.45752">
        <ele>26.6</ele>
        <time>2017-12-17T09:35:16Z</time>
      </trkpt>
      <trkpt lat="47.49123" lon="-0.45754">
        <ele>27</ele>
        <time>2017-12-17T09:35:19Z</time>
      </trkpt>
      <trkpt lat="47.49143" lon="-0.45757">
        <ele>27</ele>
        <time>2017-12-17T09:35:22Z</time>
      </trkpt>
      <trkpt lat="47.49163" lon="-0.45757">
        <ele>27</ele>
        <time>2017-12-17T09:35:26Z</time>
      </trkpt>
      <trkpt lat="47.49183" lon="-0.45754">
        <ele>27</ele>
        <time>2017-12-17T09:35:30Z</time>
      </trkpt>
      <trkpt lat="47.49203" lon="-0.45748">
        <ele>27</ele>
        <time>2017-12-17T09:35:36Z</time>
      </trkpt>
      <trkpt lat="47.49221" lon="-0.45745">
        <ele>27</ele>
        <time>2017-12-17T09:35:43Z</time>
      </trkpt>
      <trkpt lat="47.49234" lon="-0.45767">
        <ele>27</ele>
        <time>2017-12-17T09:36:16Z</time>
      </trkpt>
      <trkpt lat="47.49241" lon="-0.45798">
        <ele>27</ele>
        <time>2017-12-17T09:36:21Z</time>
      </trkpt>
      <trkpt lat="47.49248" lon="-0.45824">
        <ele>26.4</ele>
        <time>2017-12-17T09:36:25Z</time>
      </trkpt>
      <trkpt lat="47.49256" lon="-0.45851">
        <ele>26.1</ele>
        <time>2017-12-17T09:36:31Z</time>
      </trkpt>
      <trkpt lat="47.49271" lon="-0.45827">
        <ele>26.2</ele>
        <time>2017-12-17T09:36:39Z</time>
      </trkpt>
      <trkpt lat="47.49279" lon="-0.45798">
        <ele>27</ele>
        <time>2017-12-17T09:36:43Z</time>
      </trkpt>
      <trkpt lat="47.49287" lon="-0.45772">
        <ele>27</ele>
        <time>2017-12-17T09:36:46Z</time>
      </trkpt>
      <trkpt lat="47.49296" lon="-0.45741">
        <ele>27</ele>
        <time>2017-12-17T09:36:49Z</time>
      </trkpt>
      <trkpt lat="47.49306" lon="-0.45711">
        <ele>27</ele>
        <time>2017-12-17T09:36:52Z</time>
      </trkpt>
      <trkpt lat="47.49315" lon="-0.45682">
        <ele>27</ele>
        <time>2017-12-17T09:36:55Z</time>
      </trkpt>
      <trkpt lat="47.49324" lon="-0.45655">
        <ele>27</ele>
        <time>2017-12-17T09:36:58Z</time>
      </trkpt>
      <trkpt lat="47.49342" lon="-0.45643">
        <ele>27</ele>
        <time>2017-12-17T09:37:01Z</time>
      </trkpt>
      <trkpt lat="47.49363" lon="-0.45644">
        <ele>27</ele>
        <time>2017-12-17T09:37:04Z</time>
      </trkpt>
      <trkpt lat="47.49383" lon="-0.45647">
        <ele>27</ele>
        <time>2017-12-17T09:37:07Z</time>
      </trkpt>
      <trkpt lat="47.49402" lon="-0.45648">
        <ele>27.3</ele>
        <time>2017-12-17T09:37:10Z</time>
      </trkpt>
      <trkpt lat="47.49425" lon="-0.4565">
        <ele>27.7</ele>
        <time>2017-12-17T09:37:14Z</time>
      </trkpt>
      <trkpt lat="47.49448" lon="-0.45651">
        <ele>27.9</ele>
        <time>2017-12-17T09:37:18Z</time>
      </trkpt>
      <trkpt lat="47.49471" lon="-0.45653">
        <ele>27.1</ele>
        <time>2017-12-17T09:37:22Z</time>
      </trkpt>
      <trkpt lat="47.49492" lon="-0.45654">
        <ele>27</ele>
        <time>2017-12-17T09:37:26Z</time>
      </trkpt>
      <trkpt lat="47.4951" lon="-0.45655">
        <ele>27</ele>
        <time>2017-12-17T09:37:29Z</time>
      </trkpt>
      <trkpt lat="47.49528" lon="-0.45656">
        <ele>27</ele>
        <time>2017-12-17T09:37:32Z</time>
      </trkpt>
      <trkpt lat="47.49547" lon="-0.45656">
        <ele>27</ele>
        <time>2017-12-17T09:37:35Z</time>
      </trkpt>
      <trkpt lat="47.49566" lon="-0.45656">
        <ele>27</ele>
        <time>2017-12-17T09:37:38Z</time>
      </trkpt>
      <trkpt lat="47.49585" lon="-0.45657">
        <ele>27</ele>
        <time>2017-12-17T09:37:41Z</time>
      </trkpt>
      <trkpt lat="47.49605" lon="-0.45659">
        <ele>27</ele>
        <time>2017-12-17T09:37:44Z</time>
      </trkpt>
      <trkpt lat="47.49624" lon="-0.45665">
        <ele>26.6</ele>
        <time>2017-12-17T09:37:47Z</time>
      </trkpt>
      <trkpt lat="47.49642" lon="-0.45674">
        <ele>26.4</ele>
        <time>2017-12-17T09:37:50Z</time>
      </trkpt>
      <trkpt lat="47.4966" lon="-0.45685">
        <ele>26.9</ele>
        <time>2017-12-17T09:37:53Z</time>
      </trkpt>
      <trkpt lat="47.49677" lon="-0.45697">
        <ele>27</ele>
        <time>2017-12-17T09:37:56Z</time>
      </trkpt>
      <trkpt lat="47.49694" lon="-0.45708">
        <ele>27</ele>
        <time>2017-12-17T09:37:59Z</time>
      </trkpt>
      <trkpt lat="47.49711" lon="-0.45719">
        <ele>27</ele>
        <time>2017-12-17T09:38:02Z</time>
      </trkpt>
      <trkpt lat="47.49728" lon="-0.45729">
        <ele>27</ele>
        <time>2017-12-17T09:38:05Z</time>
      </trkpt>
      <trkpt lat="47.4975" lon="-0.45743">
        <ele>27</ele>
        <time>2017-12-17T09:38:09Z</time>
      </trkpt>
      <trkpt lat="47.49758" lon="-0.45769">
        <ele>27</ele>
        <time>2017-12-17T09:38:13Z</time>
      </trkpt>
      <trkpt lat="47.49751" lon="-0.458">
        <ele>27</ele>
        <time>2017-12-17T09:38:17Z</time>
      </trkpt>
      <trkpt lat="47.49747" lon="-0.45828">
        <ele>27</ele>
        <time>2017-12-17T09:39:54Z</time>
      </trkpt>
      <trkpt lat="47.49743" lon="-0.4586">
        <ele>27</ele>
        <time>2017-12-17T09:40:00Z</time>
      </trkpt>
      <trkpt lat="47.49739" lon="-0.45888">
        <ele>27</ele>
        <time>2017-12-17T09:40:03Z</time>
      </trkpt>
      <trkpt lat="47.49735" lon="-0.45918">
        <ele>26.5</ele>
        <time>2017-12-17T09:40:06Z</time>
      </trkpt>
      <trkpt lat="47.49731" lon="-0.45948">
        <ele>26</ele>
        <time>2017-12-17T09:40:09Z</time>
      </trkpt>
      <trkpt lat="47.49726" lon="-0.45978">
        <ele>26</ele>
        <time>2017-12-17T09:40:12Z</time>
      </trkpt>
      <trkpt lat="47.49722" lon="-0.46008">
        <ele>26</ele>
        <time>2017-12-17T09:40:15Z</time>
      </trkpt>
      <trkpt lat="47.49718" lon="-0.46037">
        <ele>26</ele>
        <time>2017-12-17T09:40:18Z</time>
      </trkpt>
      <trkpt lat="47.49711" lon="-0.46065">
        <ele>26</ele>
        <time>2017-12-17T09:40:21Z</time>
      </trkpt>
      <trkpt lat="47.49708" lon="-0.46094">
        <ele>26</ele>
        <time>2017-12-17T09:40:24Z</time>
      </trkpt>
      <trkpt lat="47.49707" lon="-0.46125">
        <ele>25.8</ele>
        <time>2017-12-17T09:40:27Z</time>
      </trkpt>
      <trkpt lat="47.49705" lon="-0.46156">
        <ele>25.2</ele>
        <time>2017-12-17T09:40:30Z</time>
      </trkpt>
      <trkpt lat="47.49703" lon="-0.46186">
        <ele>25</ele>
        <time>2017-12-17T09:40:33Z</time>
      </trkpt>
      <trkpt lat="47.49703" lon="-0.46216">
        <ele>25</ele>
        <time>2017-12-17T09:40:36Z</time>
      </trkpt>
      <trkpt lat="47.49702" lon="-0.46246">
        <ele>25.6</ele>
        <time>2017-12-17T09:40:39Z</time>
      </trkpt>
      <trkpt lat="47.49701" lon="-0.46274">
        <ele>26</ele>
        <time>2017-12-17T09:40:42Z</time>
      </trkpt>
      <trkpt lat="47.49699" lon="-0.46301">
        <ele>26</ele>
        <time>2017-12-17T09:40:45Z</time>
      </trkpt>
      <trkpt lat="47.49698" lon="-0.46328">
        <ele>26</ele>
        <time>2017-12-17T09:40:48Z</time>
      </trkpt>
      <trkpt lat="47.49695" lon="-0.46363">
        <ele>26</ele>
        <time>2017-12-17T09:40:52Z</time>
      </trkpt>
      <trkpt lat="47.49693" lon="-0.46397">
        <ele>26</ele>
        <time>2017-12-17T09:40:56Z</time>
      </trkpt>
      <trkpt lat="47.49692" lon="-0.46432">
        <ele>26.6</ele>
        <time>2017-12-17T09:41:00Z</time>
      </trkpt>
      <trkpt lat="47.4969" lon="-0.46465">
        <ele>27</ele>
        <time>2017-12-17T09:41:04Z</time>
      </trkpt>
      <trkpt lat="47.49688" lon="-0.46497">
        <ele>27</ele>
        <time>2017-12-17T09:41:08Z</time>
      </trkpt>
      <trkpt lat="47.49686" lon="-0.4653">
        <ele>27</ele>
        <time>2017-12-17T09:41:12Z</time>
      </trkpt>
      <trkpt lat="47.49684" lon="-0.46564">
        <ele>27</ele>
        <time>2017-12-17T09:41:16Z</time>
      </trkpt>
      <trkpt lat="47.49682" lon="-0.466">
        <ele>27</ele>
        <time>2017-12-17T09:41:20Z</time>
      </trkpt>
      <trkpt lat="47.4968" lon="-0.46627">
        <ele>27</ele>
        <time>2017-12-17T09:41:23Z</time>
      </trkpt>
      <trkpt lat="47.49679" lon="-0.46655">
        <ele>27</ele>
        <time>2017-12-17T09:41:26Z</time>
      </trkpt>
      <trkpt lat="47.49677" lon="-0.46682">
        <ele>27</ele>
        <time>2017-12-17T09:41:29Z</time>
      </trkpt>
      <trkpt lat="47.49675" lon="-0.4671">
        <ele>27</ele>
        <time>2017-12-17T09:41:32Z</time>
      </trkpt>
      <trkpt lat="47.49674" lon="-0.46737">
        <ele>27</ele>
        <time>2017-12-17T09:41:35Z</time>
      </trkpt>
      <trkpt lat="47.49672" lon="-0.46764">
        <ele>27</ele>
        <time>2017-12-17T09:41:38Z</time>
      </trkpt>
      <trkpt lat="47.4967" lon="-0.46791">
        <ele>27</ele>
        <time>2017-12-17T09:41:41Z</time>
      </trkpt>
      <trkpt lat="47.49669" lon="-0.46818">
        <ele>26.6</ele>
        <time>2017-12-17T09:41:44Z</time>
      </trkpt>
      <trkpt lat="47.49667" lon="-0.46845">
        <ele>26</ele>
        <time>2017-12-17T09:41:47Z</time>
      </trkpt>
      <trkpt lat="47.49665" lon="-0.46872">
        <ele>26</ele>
        <time>2017-12-17T09:41:50Z</time>
      </trkpt>
      <trkpt lat="47.49667" lon="-0.46906">
        <ele>26.6</ele>
        <time>2017-12-17T09:41:54Z</time>
      </trkpt>
      <trkpt lat="47.49685" lon="-0.4692">
        <ele>27.1</ele>
        <time>2017-12-17T09:41:58Z</time>
      </trkpt>
      <trkpt lat="47.49703" lon="-0.46918">
        <ele>27</ele>
        <time>2017-12-17T09:42:01Z</time>
      </trkpt>
      <trkpt lat="47.49726" lon="-0.46912">
        <ele>27</ele>
        <time>2017-12-17T09:42:05Z</time>
      </trkpt>
      <trkpt lat="47.49743" lon="-0.46904">
        <ele>27</ele>
        <time>2017-12-17T09:42:08Z</time>
      </trkpt>
      <trkpt lat="47.49764" lon="-0.46889">
        <ele>27</ele>
        <time>2017-12-17T09:42:12Z</time>
      </trkpt>
      <trkpt lat="47.49777" lon="-0.46871">
        <ele>27</ele>
        <time>2017-12-17T09:42:15Z</time>
      </trkpt>
      <trkpt lat="47.49798" lon="-0.46853">
        <ele>27</ele>
        <time>2017-12-17T09:42:19Z</time>
      </trkpt>
      <trkpt lat="47.49816" lon="-0.46836">
        <ele>27</ele>
        <time>2017-12-17T09:42:22Z</time>
      </trkpt>
      <trkpt lat="47.49834" lon="-0.46822">
        <ele>27</ele>
        <time>2017-12-17T09:42:25Z</time>
      </trkpt>
      <trkpt lat="47.49851" lon="-0.46809">
        <ele>27.6</ele>
        <time>2017-12-17T09:42:28Z</time>
      </trkpt>
      <trkpt lat="47.49868" lon="-0.46829">
        <ele>27.8</ele>
        <time>2017-12-17T09:42:33Z</time>
      </trkpt>
      <trkpt lat="47.49876" lon="-0.46861">
        <ele>28</ele>
        <time>2017-12-17T09:42:37Z</time>
      </trkpt>
      <trkpt lat="47.49882" lon="-0.4689">
        <ele>28</ele>
        <time>2017-12-17T09:42:41Z</time>
      </trkpt>
      <trkpt lat="47.49886" lon="-0.46918">
        <ele>28</ele>
        <time>2017-12-17T09:42:45Z</time>
      </trkpt>
      <trkpt lat="47.49893" lon="-0.4695">
        <ele>28</ele>
        <time>2017-12-17T09:42:49Z</time>
      </trkpt>
      <trkpt lat="47.49902" lon="-0.4698">
        <ele>28</ele>
        <time>2017-12-17T09:42:53Z</time>
      </trkpt>
      <trkpt lat="47.49911" lon="-0.47012">
        <ele>28</ele>
        <time>2017-12-17T09:42:57Z</time>
      </trkpt>
      <trkpt lat="47.49919" lon="-0.47037">
        <ele>28</ele>
        <time>2017-12-17T09:43:00Z</time>
      </trkpt>
      <trkpt lat="47.49927" lon="-0.4706">
        <ele>28</ele>
        <time>2017-12-17T09:43:03Z</time>
      </trkpt>
      <trkpt lat="47.49936" lon="-0.47087">
        <ele>28</ele>
        <time>2017-12-17T09:43:06Z</time>
      </trkpt>
      <trkpt lat="47.49943" lon="-0.47112">
        <ele>28</ele>
        <time>2017-12-17T09:43:09Z</time>
      </trkpt>
      <trkpt lat="47.49951" lon="-0.47137">
        <ele>28</ele>
        <time>2017-12-17T09:43:12Z</time>
      </trkpt>
      <trkpt lat="47.49958" lon="-0.47162">
        <ele>28.4</ele>
        <time>2017-12-17T09:43:15Z</time>
      </trkpt>
      <trkpt lat="47.49966" lon="-0.47187">
        <ele>28.8</ele>
        <time>2017-12-17T09:43:18Z</time>
      </trkpt>
      <trkpt lat="47.49978" lon="-0.47207">
        <ele>29.1</ele>
        <time>2017-12-17T09:43:21Z</time>
      </trkpt>
      <trkpt lat="47.49993" lon="-0.47225">
        <ele>29.7</ele>
        <time>2017-12-17T09:43:24Z</time>
      </trkpt>
      <trkpt lat="47.50014" lon="-0.47238">
        <ele>30.4</ele>
        <time>2017-12-17T09:43:28Z</time>
      </trkpt>
      <trkpt lat="47.50032" lon="-0.47246">
        <ele>31.7</ele>
        <time>2017-12-17T09:43:33Z</time>
      </trkpt>
      <trkpt lat="47.50052" lon="-0.47254">
        <ele>32.4</ele>
        <time>2017-12-17T09:43:38Z</time>
      </trkpt>
      <trkpt lat="47.5007" lon="-0.47261">
        <ele>32.3</ele>
        <time>2017-12-17T09:43:42Z</time>
      </trkpt>
      <trkpt lat="47.50088" lon="-0.47268">
        <ele>33.1</ele>
        <time>2017-12-17T09:43:46Z</time>
      </trkpt>
      <trkpt lat="47.50109" lon="-0.47275">
        <ele>32.8</ele>
        <time>2017-12-17T09:43:51Z</time>
      </trkpt>
      <trkpt lat="47.5013" lon="-0.47283">
        <ele>30.9</ele>
        <time>2017-12-17T09:43:56Z</time>
      </trkpt>
      <trkpt lat="47.50148" lon="-0.47292">
        <ele>31.5</ele>
        <time>2017-12-17T09:44:00Z</time>
      </trkpt>
      <trkpt lat="47.50168" lon="-0.47301">
        <ele>35</ele>
        <time>2017-12-17T09:44:04Z</time>
      </trkpt>
      <trkpt lat="47.50191" lon="-0.4731">
        <ele>33.5</ele>
        <time>2017-12-17T09:44:08Z</time>
      </trkpt>
      <trkpt lat="47.50209" lon="-0.47317">
        <ele>31.6</ele>
        <time>2017-12-17T09:44:11Z</time>
      </trkpt>
      <trkpt lat="47.50229" lon="-0.47325">
        <ele>31.2</ele>
        <time>2017-12-17T09:44:14Z</time>
      </trkpt>
      <trkpt lat="47.50248" lon="-0.47336">
        <ele>31.7</ele>
        <time>2017-12-17T09:44:17Z</time>
      </trkpt>
      <trkpt lat="47.50263" lon="-0.47353">
        <ele>31.1</ele>
        <time>2017-12-17T09:44:20Z</time>
      </trkpt>
      <trkpt lat="47.50276" lon="-0.47378">
        <ele>31.9</ele>
        <time>2017-12-17T09:44:23Z</time>
      </trkpt>
      <trkpt lat="47.50287" lon="-0.47408">
        <ele>31.5</ele>
        <time>2017-12-17T09:44:26Z</time>
      </trkpt>
      <trkpt lat="47.50293" lon="-0.4744">
        <ele>31.5</ele>
        <time>2017-12-17T09:44:29Z</time>
      </trkpt>
      <trkpt lat="47.50293" lon="-0.47473">
        <ele>31.6</ele>
        <time>2017-12-17T09:44:32Z</time>
      </trkpt>
      <trkpt lat="47.50289" lon="-0.47506">
        <ele>31.4</ele>
        <time>2017-12-17T09:44:35Z</time>
      </trkpt>
      <trkpt lat="47.50283" lon="-0.47538">
        <ele>31.2</ele>
        <time>2017-12-17T09:44:38Z</time>
      </trkpt>
      <trkpt lat="47.50276" lon="-0.4757">
        <ele>30.9</ele>
        <time>2017-12-17T09:44:41Z</time>
      </trkpt>
      <trkpt lat="47.50268" lon="-0.476">
        <ele>30.9</ele>
        <time>2017-12-17T09:44:44Z</time>
      </trkpt>
      <trkpt lat="47.50261" lon="-0.47631">
        <ele>31.2</ele>
        <time>2017-12-17T09:44:47Z</time>
      </trkpt>
      <trkpt lat="47.50254" lon="-0.47661">
        <ele>31.1</ele>
        <time>2017-12-17T09:44:50Z</time>
      </trkpt>
      <trkpt lat="47.50246" lon="-0.47691">
        <ele>31.6</ele>
        <time>2017-12-17T09:44:53Z</time>
      </trkpt>
      <trkpt lat="47.50238" lon="-0.47719">
        <ele>31.5</ele>
        <time>2017-12-17T09:44:56Z</time>
      </trkpt>
      <trkpt lat="47.5023" lon="-0.47747">
        <ele>31.3</ele>
        <time>2017-12-17T09:44:59Z</time>
      </trkpt>
      <trkpt lat="47.50223" lon="-0.47776">
        <ele>31</ele>
        <time>2017-12-17T09:45:02Z</time>
      </trkpt>
      <trkpt lat="47.50217" lon="-0.47806">
        <ele>30.8</ele>
        <time>2017-12-17T09:45:05Z</time>
      </trkpt>
      <trkpt lat="47.50213" lon="-0.47837">
        <ele>30.7</ele>
        <time>2017-12-17T09:45:08Z</time>
      </trkpt>
      <trkpt lat="47.50211" lon="-0.47868">
        <ele>30.6</ele>
        <time>2017-12-17T09:45:11Z</time>
      </trkpt>
      <trkpt lat="47.50209" lon="-0.47899">
        <ele>30.5</ele>
        <time>2017-12-17T09:45:14Z</time>
      </trkpt>
      <trkpt lat="47.50205" lon="-0.47929">
        <ele>30.4</ele>
        <time>2017-12-17T09:45:17Z</time>
      </trkpt>
      <trkpt lat="47.50199" lon="-0.4796">
        <ele>30.2</ele>
        <time>2017-12-17T09:45:20Z</time>
      </trkpt>
      <trkpt lat="47.50192" lon="-0.4799">
        <ele>30</ele>
        <time>2017-12-17T09:45:23Z</time>
      </trkpt>
      <trkpt lat="47.50187" lon="-0.48021">
        <ele>29.8</ele>
        <time>2017-12-17T09:45:26Z</time>
      </trkpt>
      <trkpt lat="47.50196" lon="-0.48049">
        <ele>29.3</ele>
        <time>2017-12-17T09:45:29Z</time>
      </trkpt>
      <trkpt lat="47.50217" lon="-0.48061">
        <ele>29.8</ele>
        <time>2017-12-17T09:45:32Z</time>
      </trkpt>
      <trkpt lat="47.50239" lon="-0.48067">
        <ele>30</ele>
        <time>2017-12-17T09:45:35Z</time>
      </trkpt>
      <trkpt lat="47.5026" lon="-0.4807">
        <ele>30.3</ele>
        <time>2017-12-17T09:45:38Z</time>
      </trkpt>
      <trkpt lat="47.50282" lon="-0.48075">
        <ele>31</ele>
        <time>2017-12-17T09:45:41Z</time>
      </trkpt>
      <trkpt lat="47.50304" lon="-0.48075">
        <ele>31</ele>
        <time>2017-12-17T09:45:44Z</time>
      </trkpt>
      <trkpt lat="47.50326" lon="-0.48077">
        <ele>31.7</ele>
        <time>2017-12-17T09:45:47Z</time>
      </trkpt>
      <trkpt lat="47.50344" lon="-0.48078">
        <ele>32.4</ele>
        <time>2017-12-17T09:45:50Z</time>
      </trkpt>
      <trkpt lat="47.50364" lon="-0.48079">
        <ele>33.1</ele>
        <time>2017-12-17T09:46:00Z</time>
      </trkpt>
      <trkpt lat="47.50381" lon="-0.48067">
        <ele>33.7</ele>
        <time>2017-12-17T09:46:07Z</time>
      </trkpt>
      <trkpt lat="47.50399" lon="-0.48073">
        <ele>34.4</ele>
        <time>2017-12-17T09:46:12Z</time>
      </trkpt>
      <trkpt lat="47.50404" lon="-0.48047">
        <ele>34.6</ele>
        <time>2017-12-17T09:46:23Z</time>
      </trkpt>
      <trkpt lat="47.50415" lon="-0.48022">
        <ele>34.9</ele>
        <time>2017-12-17T09:46:31Z</time>
      </trkpt>
      <trkpt lat="47.50427" lon="-0.47999">
        <ele>35.7</ele>
        <time>2017-12-17T09:46:39Z</time>
      </trkpt>
      <trkpt lat="47.5044" lon="-0.47977">
        <ele>37.4</ele>
        <time>2017-12-17T09:46:47Z</time>
      </trkpt>
      <trkpt lat="47.50453" lon="-0.47952">
        <ele>37.8</ele>
        <time>2017-12-17T09:46:54Z</time>
      </trkpt>
      <trkpt lat="47.50464" lon="-0.4793">
        <ele>38.7</ele>
        <time>2017-12-17T09:47:00Z</time>
      </trkpt>
      <trkpt lat="47.50475" lon="-0.47908">
        <ele>39.8</ele>
        <time>2017-12-17T09:47:06Z</time>
      </trkpt>
      <trkpt lat="47.50487" lon="-0.47886">
        <ele>40.1</ele>
        <time>2017-12-17T09:47:12Z</time>
      </trkpt>
      <trkpt lat="47.50499" lon="-0.47863">
        <ele>40.9</ele>
        <time>2017-12-17T09:47:18Z</time>
      </trkpt>
      <trkpt lat="47.50511" lon="-0.47841">
        <ele>41</ele>
        <time>2017-12-17T09:47:24Z</time>
      </trkpt>
      <trkpt lat="47.50523" lon="-0.47818">
        <ele>41.7</ele>
        <time>2017-12-17T09:47:30Z</time>
      </trkpt>
      <trkpt lat="47.50534" lon="-0.47795">
        <ele>42.3</ele>
        <time>2017-12-17T09:47:36Z</time>
      </trkpt>
      <trkpt lat="47.50547" lon="-0.47776">
        <ele>43.4</ele>
        <time>2017-12-17T09:47:43Z</time>
      </trkpt>
      <trkpt lat="47.50558" lon="-0.47751">
        <ele>44.1</ele>
        <time>2017-12-17T09:47:52Z</time>
      </trkpt>
      <trkpt lat="47.5057" lon="-0.47726">
        <ele>44.5</ele>
        <time>2017-12-17T09:48:00Z</time>
      </trkpt>
      <trkpt lat="47.50581" lon="-0.47701">
        <ele>45.5</ele>
        <time>2017-12-17T09:48:07Z</time>
      </trkpt>
      <trkpt lat="47.50594" lon="-0.47678">
        <ele>45.6</ele>
        <time>2017-12-17T09:48:14Z</time>
      </trkpt>
      <trkpt lat="47.50606" lon="-0.47655">
        <ele>45.8</ele>
        <time>2017-12-17T09:48:20Z</time>
      </trkpt>
      <trkpt lat="47.50618" lon="-0.47632">
        <ele>46.2</ele>
        <time>2017-12-17T09:48:27Z</time>
      </trkpt>
      <trkpt lat="47.50635" lon="-0.47622">
        <ele>46.8</ele>
        <time>2017-12-17T09:48:35Z</time>
      </trkpt>
      <trkpt lat="47.50653" lon="-0.47624">
        <ele>47</ele>
        <time>2017-12-17T09:48:41Z</time>
      </trkpt>
      <trkpt lat="47.50673" lon="-0.47625">
        <ele>46.9</ele>
        <time>2017-12-17T09:48:47Z</time>
      </trkpt>
      <trkpt lat="47.50693" lon="-0.47625">
        <ele>46.5</ele>
        <time>2017-12-17T09:48:52Z</time>
      </trkpt>
      <trkpt lat="47.50712" lon="-0.47625">
        <ele>46.2</ele>
        <time>2017-12-17T09:48:57Z</time>
      </trkpt>
      <trkpt lat="47.50733" lon="-0.47624">
        <ele>45.8</ele>
        <time>2017-12-17T09:49:03Z</time>
      </trkpt>
      <trkpt lat="47.50753" lon="-0.47622">
        <ele>45.3</ele>
        <time>2017-12-17T09:49:09Z</time>
      </trkpt>
      <trkpt lat="47.50772" lon="-0.47622">
        <ele>44.6</ele>
        <time>2017-12-17T09:49:15Z</time>
      </trkpt>
      <trkpt lat="47.5079" lon="-0.4762">
        <ele>43.9</ele>
        <time>2017-12-17T09:49:21Z</time>
      </trkpt>
      <trkpt lat="47.50804" lon="-0.47602">
        <ele>43.1</ele>
        <time>2017-12-17T09:49:27Z</time>
      </trkpt>
      <trkpt lat="47.50823" lon="-0.47586">
        <ele>42.4</ele>
        <time>2017-12-17T09:49:32Z</time>
      </trkpt>
      <trkpt lat="47.50839" lon="-0.47568">
        <ele>41.8</ele>
        <time>2017-12-17T09:49:36Z</time>
      </trkpt>
      <trkpt lat="47.50856" lon="-0.47551">
        <ele>41.2</ele>
        <time>2017-12-17T09:49:40Z</time>
      </trkpt>
      <trkpt lat="47.50874" lon="-0.47528">
        <ele>40.5</ele>
        <time>2017-12-17T09:49:45Z</time>
      </trkpt>
      <trkpt lat="47.50891" lon="-0.47503">
        <ele>39.9</ele>
        <time>2017-12-17T09:49:49Z</time>
      </trkpt>
      <trkpt lat="47.50906" lon="-0.47477">
        <ele>39.4</ele>
        <time>2017-12-17T09:49:53Z</time>
      </trkpt>
      <trkpt lat="47.50917" lon="-0.47455">
        <ele>39</ele>
        <time>2017-12-17T09:49:56Z</time>
      </trkpt>
      <trkpt lat="47.5093" lon="-0.47436">
        <ele>38.7</ele>
        <time>2017-12-17T09:50:00Z</time>
      </trkpt>
      <trkpt lat="47.50942" lon="-0.47416">
        <ele>39</ele>
        <time>2017-12-17T09:50:05Z</time>
      </trkpt>
      <trkpt lat="47.50954" lon="-0.47394">
        <ele>38.1</ele>
        <time>2017-12-17T09:50:09Z</time>
      </trkpt>
      <trkpt lat="47.50966" lon="-0.47372">
        <ele>38.1</ele>
        <time>2017-12-17T09:50:12Z</time>
      </trkpt>
      <trkpt lat="47.50981" lon="-0.47351">
        <ele>37.8</ele>
        <time>2017-12-17T09:50:16Z</time>
      </trkpt>
      <trkpt lat="47.51001" lon="-0.47357">
        <ele>37.2</ele>
        <time>2017-12-17T09:50:21Z</time>
      </trkpt>
      <trkpt lat="47.51019" lon="-0.47363">
        <ele>37.7</ele>
        <time>2017-12-17T09:50:25Z</time>
      </trkpt>
      <trkpt lat="47.51037" lon="-0.47367">
        <ele>38.2</ele>
        <time>2017-12-17T09:50:29Z</time>
      </trkpt>
      <trkpt lat="47.51058" lon="-0.4737">
        <ele>38.3</ele>
        <time>2017-12-17T09:50:34Z</time>
      </trkpt>
      <trkpt lat="47.5108" lon="-0.47368">
        <ele>38.3</ele>
        <time>2017-12-17T09:50:39Z</time>
      </trkpt>
      <trkpt lat="47.51102" lon="-0.47368">
        <ele>38.1</ele>
        <time>2017-12-17T09:50:44Z</time>
      </trkpt>
      <trkpt lat="47.5112" lon="-0.47368">
        <ele>37.6</ele>
        <time>2017-12-17T09:50:48Z</time>
      </trkpt>
      <trkpt lat="47.51141" lon="-0.47368">
        <ele>36.7</ele>
        <time>2017-12-17T09:50:52Z</time>
      </trkpt>
      <trkpt lat="47.51162" lon="-0.47372">
        <ele>36.4</ele>
        <time>2017-12-17T09:50:56Z</time>
      </trkpt>
      <trkpt lat="47.51183" lon="-0.47373">
        <ele>36.8</ele>
        <time>2017-12-17T09:51:00Z</time>
      </trkpt>
      <trkpt lat="47.51203" lon="-0.47376">
        <ele>37</ele>
        <time>2017-12-17T09:51:04Z</time>
      </trkpt>
      <trkpt lat="47.51222" lon="-0.47379">
        <ele>37</ele>
        <time>2017-12-17T09:51:08Z</time>
      </trkpt>
      <trkpt lat="47.51242" lon="-0.47378">
        <ele>37</ele>
        <time>2017-12-17T09:51:13Z</time>
      </trkpt>
      <trkpt lat="47.51254" lon="-0.47352">
        <ele>37.3</ele>
        <time>2017-12-17T09:51:17Z</time>
      </trkpt>
      <trkpt lat="47.51267" lon="-0.47324">
        <ele>37.4</ele>
        <time>2017-12-17T09:51:21Z</time>
      </trkpt>
      <trkpt lat="47.51278" lon="-0.47299">
        <ele>37.3</ele>
        <time>2017-12-17T09:51:25Z</time>
      </trkpt>
      <trkpt lat="47.51287" lon="-0.47273">
        <ele>37.7</ele>
        <time>2017-12-17T09:51:29Z</time>
      </trkpt>
      <trkpt lat="47.513" lon="-0.47252">
        <ele>37.2</ele>
        <time>2017-12-17T09:51:44Z</time>
      </trkpt>
      <trkpt lat="47.51319" lon="-0.47261">
        <ele>37</ele>
        <time>2017-12-17T09:51:53Z</time>
      </trkpt>
      <trkpt lat="47.51327" lon="-0.47235">
        <ele>37.1</ele>
        <time>2017-12-17T09:52:04Z</time>
      </trkpt>
      <trkpt lat="47.51336" lon="-0.47212">
        <ele>36.7</ele>
        <time>2017-12-17T09:52:14Z</time>
      </trkpt>
      <trkpt lat="47.5135" lon="-0.47192">
        <ele>36.6</ele>
        <time>2017-12-17T09:52:24Z</time>
      </trkpt>
      <trkpt lat="47.51368" lon="-0.47184">
        <ele>37.1</ele>
        <time>2017-12-17T09:53:08Z</time>
      </trkpt>
      <trkpt lat="47.51386" lon="-0.47187">
        <ele>37.7</ele>
        <time>2017-12-17T09:53:17Z</time>
      </trkpt>
      <trkpt lat="47.51406" lon="-0.4719">
        <ele>37.4</ele>
        <time>2017-12-17T09:53:24Z</time>
      </trkpt>
      <trkpt lat="47.51428" lon="-0.47195">
        <ele>37.4</ele>
        <time>2017-12-17T09:53:31Z</time>
      </trkpt>
      <trkpt lat="47.51449" lon="-0.47198">
        <ele>37.9</ele>
        <time>2017-12-17T09:53:37Z</time>
      </trkpt>
      <trkpt lat="47.51468" lon="-0.47198">
        <ele>37.2</ele>
        <time>2017-12-17T09:53:42Z</time>
      </trkpt>
      <trkpt lat="47.51488" lon="-0.47193">
        <ele>37</ele>
        <time>2017-12-17T09:53:47Z</time>
      </trkpt>
      <trkpt lat="47.51506" lon="-0.47185">
        <ele>37</ele>
        <time>2017-12-17T09:53:51Z</time>
      </trkpt>
      <trkpt lat="47.51526" lon="-0.47177">
        <ele>37</ele>
        <time>2017-12-17T09:53:56Z</time>
      </trkpt>
      <trkpt lat="47.51544" lon="-0.47168">
        <ele>37</ele>
        <time>2017-12-17T09:54:00Z</time>
      </trkpt>
      <trkpt lat="47.51562" lon="-0.47157">
        <ele>37.3</ele>
        <time>2017-12-17T09:54:04Z</time>
      </trkpt>
      <trkpt lat="47.51581" lon="-0.47144">
        <ele>37.1</ele>
        <time>2017-12-17T09:54:08Z</time>
      </trkpt>
      <trkpt lat="47.516" lon="-0.4713">
        <ele>37.1</ele>
        <time>2017-12-17T09:54:12Z</time>
      </trkpt>
      <trkpt lat="47.5162" lon="-0.47119">
        <ele>37</ele>
        <time>2017-12-17T09:54:16Z</time>
      </trkpt>
      <trkpt lat="47.5164" lon="-0.47112">
        <ele>37</ele>
        <time>2017-12-17T09:54:20Z</time>
      </trkpt>
      <trkpt lat="47.51661" lon="-0.47109">
        <ele>37</ele>
        <time>2017-12-17T09:54:24Z</time>
      </trkpt>
      <trkpt lat="47.51681" lon="-0.47109">
        <ele>37</ele>
        <time>2017-12-17T09:54:28Z</time>
      </trkpt>
      <trkpt lat="47.517" lon="-0.47111">
        <ele>37</ele>
        <time>2017-12-17T09:54:32Z</time>
      </trkpt>
      <trkpt lat="47.51722" lon="-0.47105">
        <ele>37</ele>
        <time>2017-12-17T09:54:37Z</time>
      </trkpt>
      <trkpt lat="47.51738" lon="-0.4709">
        <ele>37</ele>
        <time>2017-12-17T09:54:41Z</time>
      </trkpt>
      <trkpt lat="47.51753" lon="-0.47071">
        <ele>37</ele>
        <time>2017-12-17T09:54:45Z</time>
      </trkpt>
      <trkpt lat="47.51766" lon="-0.47048">
        <ele>37.1</ele>
        <time>2017-12-17T09:54:49Z</time>
      </trkpt>
      <trkpt lat="47.51777" lon="-0.47021">
        <ele>37.3</ele>
        <time>2017-12-17T09:54:53Z</time>
      </trkpt>
      <trkpt lat="47.51788" lon="-0.46997">
        <ele>37.7</ele>
        <time>2017-12-17T09:54:57Z</time>
      </trkpt>
      <trkpt lat="47.51801" lon="-0.4697">
        <ele>38</ele>
        <time>2017-12-17T09:55:02Z</time>
      </trkpt>
      <trkpt lat="47.51815" lon="-0.4695">
        <ele>37.9</ele>
        <time>2017-12-17T09:55:06Z</time>
      </trkpt>
      <trkpt lat="47.51831" lon="-0.46939">
        <ele>38</ele>
        <time>2017-12-17T09:55:10Z</time>
      </trkpt>
      <trkpt lat="47.51851" lon="-0.46926">
        <ele>38</ele>
        <time>2017-12-17T09:55:15Z</time>
      </trkpt>
      <trkpt lat="47.51865" lon="-0.46909">
        <ele>38</ele>
        <time>2017-12-17T09:55:19Z</time>
      </trkpt>
      <trkpt lat="47.51878" lon="-0.46886">
        <ele>38</ele>
        <time>2017-12-17T09:55:24Z</time>
      </trkpt>
      <trkpt lat="47.51868" lon="-0.4686">
        <ele>38.7</ele>
        <time>2017-12-17T09:55:30Z</time>
      </trkpt>
      <trkpt lat="47.51852" lon="-0.46841">
        <ele>39</ele>
        <time>2017-12-17T09:55:34Z</time>
      </trkpt>
      <trkpt lat="47.51836" lon="-0.46822">
        <ele>38.6</ele>
        <time>2017-12-17T09:55:38Z</time>
      </trkpt>
      <trkpt lat="47.51824" lon="-0.46797">
        <ele>38.3</ele>
        <time>2017-12-17T09:55:42Z</time>
      </trkpt>
      <trkpt lat="47.51818" lon="-0.46768">
        <ele>38.4</ele>
        <time>2017-12-17T09:55:46Z</time>
      </trkpt>
      <trkpt lat="47.51812" lon="-0.4674">
        <ele>38.3</ele>
        <time>2017-12-17T09:55:50Z</time>
      </trkpt>
      <trkpt lat="47.51821" lon="-0.46715">
        <ele>38.4</ele>
        <time>2017-12-17T09:55:54Z</time>
      </trkpt>
      <trkpt lat="47.5183" lon="-0.46691">
        <ele>38.1</ele>
        <time>2017-12-17T09:55:57Z</time>
      </trkpt>
      <trkpt lat="47.51825" lon="-0.4666">
        <ele>38.5</ele>
        <time>2017-12-17T09:56:01Z</time>
      </trkpt>
      <trkpt lat="47.51819" lon="-0.46633">
        <ele>39</ele>
        <time>2017-12-17T09:56:04Z</time>
      </trkpt>
      <trkpt lat="47.51814" lon="-0.46605">
        <ele>39</ele>
        <time>2017-12-17T09:56:07Z</time>
      </trkpt>
      <trkpt lat="47.51809" lon="-0.46577">
        <ele>39</ele>
        <time>2017-12-17T09:56:10Z</time>
      </trkpt>
      <trkpt lat="47.51803" lon="-0.46548">
        <ele>39</ele>
        <time>2017-12-17T09:56:13Z</time>
      </trkpt>
      <trkpt lat="47.51798" lon="-0.46515">
        <ele>39</ele>
        <time>2017-12-17T09:56:17Z</time>
      </trkpt>
      <trkpt lat="47.51795" lon="-0.46482">
        <ele>39</ele>
        <time>2017-12-17T09:56:21Z</time>
      </trkpt>
      <trkpt lat="47.51793" lon="-0.46451">
        <ele>39</ele>
        <time>2017-12-17T09:56:25Z</time>
      </trkpt>
      <trkpt lat="47.51794" lon="-0.46421">
        <ele>39.8</ele>
        <time>2017-12-17T09:56:31Z</time>
      </trkpt>
      <trkpt lat="47.51803" lon="-0.46395">
        <ele>40</ele>
        <time>2017-12-17T09:56:36Z</time>
      </trkpt>
      <trkpt lat="47.5181" lon="-0.46368">
        <ele>40</ele>
        <time>2017-12-17T09:56:43Z</time>
      </trkpt>
      <trkpt lat="47.51818" lon="-0.46343">
        <ele>40.7</ele>
        <time>2017-12-17T09:56:47Z</time>
      </trkpt>
      <trkpt lat="47.51834" lon="-0.46329">
        <ele>40.2</ele>
        <time>2017-12-17T09:56:51Z</time>
      </trkpt>
      <trkpt lat="47.51854" lon="-0.46321">
        <ele>40.4</ele>
        <time>2017-12-17T09:56:55Z</time>
      </trkpt>
      <trkpt lat="47.51873" lon="-0.46309">
        <ele>40.9</ele>
        <time>2017-12-17T09:56:59Z</time>
      </trkpt>
      <trkpt lat="47.51891" lon="-0.46304">
        <ele>41</ele>
        <time>2017-12-17T09:57:03Z</time>
      </trkpt>
      <trkpt lat="47.51911" lon="-0.46312">
        <ele>41</ele>
        <time>2017-12-17T09:57:07Z</time>
      </trkpt>
      <trkpt lat="47.5193" lon="-0.46315">
        <ele>40.8</ele>
        <time>2017-12-17T09:57:11Z</time>
      </trkpt>
      <trkpt lat="47.51948" lon="-0.46318">
        <ele>40.5</ele>
        <time>2017-12-17T09:57:15Z</time>
      </trkpt>
      <trkpt lat="47.51963" lon="-0.46295">
        <ele>40.6</ele>
        <time>2017-12-17T09:57:19Z</time>
      </trkpt>
      <trkpt lat="47.51979" lon="-0.46278">
        <ele>41</ele>
        <time>2017-12-17T09:57:23Z</time>
      </trkpt>
      <trkpt lat="47.51996" lon="-0.46267">
        <ele>42</ele>
        <time>2017-12-17T09:57:27Z</time>
      </trkpt>
      <trkpt lat="47.52018" lon="-0.46275">
        <ele>41.9</ele>
        <time>2017-12-17T09:57:31Z</time>
      </trkpt>
      <trkpt lat="47.52035" lon="-0.46293">
        <ele>41</ele>
        <time>2017-12-17T09:57:34Z</time>
      </trkpt>
      <trkpt lat="47.52052" lon="-0.46306">
        <ele>40.9</ele>
        <time>2017-12-17T09:57:37Z</time>
      </trkpt>
      <trkpt lat="47.52069" lon="-0.46296">
        <ele>40.8</ele>
        <time>2017-12-17T09:57:41Z</time>
      </trkpt>
      <trkpt lat="47.52086" lon="-0.46278">
        <ele>41</ele>
        <time>2017-12-17T09:57:46Z</time>
      </trkpt>
      <trkpt lat="47.52104" lon="-0.46277">
        <ele>41</ele>
        <time>2017-12-17T09:57:50Z</time>
      </trkpt>
      <trkpt lat="47.52125" lon="-0.46271">
        <ele>41</ele>
        <time>2017-12-17T09:57:54Z</time>
      </trkpt>
      <trkpt lat="47.52146" lon="-0.46264">
        <ele>41.1</ele>
        <time>2017-12-17T09:57:58Z</time>
      </trkpt>
      <trkpt lat="47.52166" lon="-0.46253">
        <ele>41.9</ele>
        <time>2017-12-17T09:58:02Z</time>
      </trkpt>
      <trkpt lat="47.52182" lon="-0.46238">
        <ele>42.2</ele>
        <time>2017-12-17T09:58:05Z</time>
      </trkpt>
      <trkpt lat="47.52195" lon="-0.46216">
        <ele>42.2</ele>
        <time>2017-12-17T09:58:08Z</time>
      </trkpt>
      <trkpt lat="47.52201" lon="-0.46192">
        <ele>43.1</ele>
        <time>2017-12-17T09:58:11Z</time>
      </trkpt>
      <trkpt lat="47.52205" lon="-0.46159">
        <ele>43.9</ele>
        <time>2017-12-17T09:58:15Z</time>
      </trkpt>
      <trkpt lat="47.5221" lon="-0.46131">
        <ele>44.6</ele>
        <time>2017-12-17T09:58:20Z</time>
      </trkpt>
      <trkpt lat="47.52225" lon="-0.46152">
        <ele>43.5</ele>
        <time>2017-12-17T09:58:39Z</time>
      </trkpt>
      <trkpt lat="47.52244" lon="-0.46156">
        <ele>43.1</ele>
        <time>2017-12-17T09:58:42Z</time>
      </trkpt>
      <trkpt lat="47.5226" lon="-0.46144">
        <ele>42.9</ele>
        <time>2017-12-17T09:58:45Z</time>
      </trkpt>
      <trkpt lat="47.5228" lon="-0.4614">
        <ele>42.8</ele>
        <time>2017-12-17T09:58:49Z</time>
      </trkpt>
      <trkpt lat="47.52284" lon="-0.4611">
        <ele>42.8</ele>
        <time>2017-12-17T09:58:55Z</time>
      </trkpt>
      <trkpt lat="47.52282" lon="-0.46083">
        <ele>43</ele>
        <time>2017-12-17T09:58:59Z</time>
      </trkpt>
      <trkpt lat="47.52302" lon="-0.46083">
        <ele>43</ele>
        <time>2017-12-17T09:59:11Z</time>
      </trkpt>
      <trkpt lat="47.52322" lon="-0.46097">
        <ele>42.5</ele>
        <time>2017-12-17T09:59:16Z</time>
      </trkpt>
      <trkpt lat="47.52341" lon="-0.46101">
        <ele>42.5</ele>
        <time>2017-12-17T09:59:20Z</time>
      </trkpt>
      <trkpt lat="47.52362" lon="-0.46101">
        <ele>42.7</ele>
        <time>2017-12-17T09:59:24Z</time>
      </trkpt>
      <trkpt lat="47.52378" lon="-0.46118">
        <ele>43.8</ele>
        <time>2017-12-17T09:59:27Z</time>
      </trkpt>
      <trkpt lat="47.52381" lon="-0.46144">
        <ele>46.1</ele>
        <time>2017-12-17T09:59:31Z</time>
      </trkpt>
      <trkpt lat="47.52395" lon="-0.46121">
        <ele>45</ele>
        <time>2017-12-17T09:59:48Z</time>
      </trkpt>
      <trkpt lat="47.52407" lon="-0.46095">
        <ele>44.3</ele>
        <time>2017-12-17T09:59:52Z</time>
      </trkpt>
      <trkpt lat="47.52425" lon="-0.46085">
        <ele>44.3</ele>
        <time>2017-12-17T09:59:57Z</time>
      </trkpt>
      <trkpt lat="47.52445" lon="-0.46084">
        <ele>45</ele>
        <time>2017-12-17T10:00:02Z</time>
      </trkpt>
      <trkpt lat="47.52466" lon="-0.46086">
        <ele>45.1</ele>
        <time>2017-12-17T10:00:07Z</time>
      </trkpt>
      <trkpt lat="47.52488" lon="-0.46081">
        <ele>45</ele>
        <time>2017-12-17T10:00:12Z</time>
      </trkpt>
      <trkpt lat="47.52505" lon="-0.46064">
        <ele>45.7</ele>
        <time>2017-12-17T10:00:17Z</time>
      </trkpt>
      <trkpt lat="47.52508" lon="-0.46035">
        <ele>46.2</ele>
        <time>2017-12-17T10:01:45Z</time>
      </trkpt>
      <trkpt lat="47.52498" lon="-0.46012">
        <ele>46.4</ele>
        <time>2017-12-17T10:01:49Z</time>
      </trkpt>
      <trkpt lat="47.52487" lon="-0.45981">
        <ele>47.1</ele>
        <time>2017-12-17T10:01:53Z</time>
      </trkpt>
      <trkpt lat="47.52475" lon="-0.45951">
        <ele>47.8</ele>
        <time>2017-12-17T10:01:57Z</time>
      </trkpt>
      <trkpt lat="47.52463" lon="-0.45922">
        <ele>47.8</ele>
        <time>2017-12-17T10:02:01Z</time>
      </trkpt>
      <trkpt lat="47.5246" lon="-0.45892">
        <ele>48.1</ele>
        <time>2017-12-17T10:02:05Z</time>
      </trkpt>
      <trkpt lat="47.52469" lon="-0.45867">
        <ele>48.9</ele>
        <time>2017-12-17T10:02:09Z</time>
      </trkpt>
      <trkpt lat="47.52475" lon="-0.45838">
        <ele>48.3</ele>
        <time>2017-12-17T10:02:15Z</time>
      </trkpt>
      <trkpt lat="47.52462" lon="-0.45812">
        <ele>48.2</ele>
        <time>2017-12-17T10:02:19Z</time>
      </trkpt>
      <trkpt lat="47.52441" lon="-0.45803">
        <ele>47.1</ele>
        <time>2017-12-17T10:02:23Z</time>
      </trkpt>
      <trkpt lat="47.52441" lon="-0.45771">
        <ele>47.9</ele>
        <time>2017-12-17T10:02:28Z</time>
      </trkpt>
      <trkpt lat="47.52441" lon="-0.45739">
        <ele>48.3</ele>
        <time>2017-12-17T10:02:32Z</time>
      </trkpt>
      <trkpt lat="47.52432" lon="-0.45712">
        <ele>48.7</ele>
        <time>2017-12-17T10:02:36Z</time>
      </trkpt>
      <trkpt lat="47.52415" lon="-0.45692">
        <ele>49</ele>
        <time>2017-12-17T10:02:40Z</time>
      </trkpt>
      <trkpt lat="47.52394" lon="-0.45683">
        <ele>48.5</ele>
        <time>2017-12-17T10:02:44Z</time>
      </trkpt>
      <trkpt lat="47.52373" lon="-0.45676">
        <ele>48.7</ele>
        <time>2017-12-17T10:02:48Z</time>
      </trkpt>
      <trkpt lat="47.52352" lon="-0.45664">
        <ele>48.7</ele>
        <time>2017-12-17T10:02:52Z</time>
      </trkpt>
      <trkpt lat="47.52332" lon="-0.45651">
        <ele>48.6</ele>
        <time>2017-12-17T10:02:56Z</time>
      </trkpt>
      <trkpt lat="47.52311" lon="-0.45649">
        <ele>48.1</ele>
        <time>2017-12-17T10:03:00Z</time>
      </trkpt>
      <trkpt lat="47.52292" lon="-0.45657">
        <ele>48</ele>
        <time>2017-12-17T10:03:04Z</time>
      </trkpt>
      <trkpt lat="47.52277" lon="-0.45672">
        <ele>47.8</ele>
        <time>2017-12-17T10:03:08Z</time>
      </trkpt>
      <trkpt lat="47.52282" lon="-0.45645">
        <ele>48</ele>
        <time>2017-12-17T10:03:18Z</time>
      </trkpt>
      <trkpt lat="47.52298" lon="-0.4562">
        <ele>48.7</ele>
        <time>2017-12-17T10:03:22Z</time>
      </trkpt>
      <trkpt lat="47.52318" lon="-0.45604">
        <ele>49</ele>
        <time>2017-12-17T10:03:26Z</time>
      </trkpt>
      <trkpt lat="47.52337" lon="-0.45588">
        <ele>49.1</ele>
        <time>2017-12-17T10:03:30Z</time>
      </trkpt>
      <trkpt lat="47.52357" lon="-0.45571">
        <ele>49.9</ele>
        <time>2017-12-17T10:03:34Z</time>
      </trkpt>
      <trkpt lat="47.52377" lon="-0.45554">
        <ele>50</ele>
        <time>2017-12-17T10:03:38Z</time>
      </trkpt>
      <trkpt lat="47.52396" lon="-0.45539">
        <ele>50</ele>
        <time>2017-12-17T10:03:42Z</time>
      </trkpt>
      <trkpt lat="47.52414" lon="-0.45528">
        <ele>50</ele>
        <time>2017-12-17T10:03:46Z</time>
      </trkpt>
      <trkpt lat="47.52432" lon="-0.45522">
        <ele>50.7</ele>
        <time>2017-12-17T10:03:51Z</time>
      </trkpt>
      <trkpt lat="47.52453" lon="-0.45511">
        <ele>50.7</ele>
        <time>2017-12-17T10:03:57Z</time>
      </trkpt>
      <trkpt lat="47.52472" lon="-0.45493">
        <ele>50</ele>
        <time>2017-12-17T10:04:02Z</time>
      </trkpt>
      <trkpt lat="47.52485" lon="-0.4547">
        <ele>50.4</ele>
        <time>2017-12-17T10:04:06Z</time>
      </trkpt>
      <trkpt lat="47.525" lon="-0.45446">
        <ele>50</ele>
        <time>2017-12-17T10:04:10Z</time>
      </trkpt>
      <trkpt lat="47.52512" lon="-0.45426">
        <ele>50.1</ele>
        <time>2017-12-17T10:04:13Z</time>
      </trkpt>
      <trkpt lat="47.52525" lon="-0.45403">
        <ele>50</ele>
        <time>2017-12-17T10:04:16Z</time>
      </trkpt>
      <trkpt lat="47.5254" lon="-0.45379">
        <ele>50</ele>
        <time>2017-12-17T10:04:19Z</time>
      </trkpt>
      <trkpt lat="47.52555" lon="-0.45352">
        <ele>50</ele>
        <time>2017-12-17T10:04:22Z</time>
      </trkpt>
      <trkpt lat="47.52572" lon="-0.45326">
        <ele>50</ele>
        <time>2017-12-17T10:04:25Z</time>
      </trkpt>
      <trkpt lat="47.52587" lon="-0.45295">
        <ele>49.9</ele>
        <time>2017-12-17T10:04:28Z</time>
      </trkpt>
      <trkpt lat="47.526" lon="-0.45263">
        <ele>49.2</ele>
        <time>2017-12-17T10:04:31Z</time>
      </trkpt>
      <trkpt lat="47.52612" lon="-0.45237">
        <ele>48.5</ele>
        <time>2017-12-17T10:04:34Z</time>
      </trkpt>
      <trkpt lat="47.52633" lon="-0.45229">
        <ele>48.2</ele>
        <time>2017-12-17T10:04:37Z</time>
      </trkpt>
      <trkpt lat="47.52653" lon="-0.45229">
        <ele>48.2</ele>
        <time>2017-12-17T10:04:40Z</time>
      </trkpt>
      <trkpt lat="47.52672" lon="-0.45224">
        <ele>48.1</ele>
        <time>2017-12-17T10:04:43Z</time>
      </trkpt>
      <trkpt lat="47.52689" lon="-0.45213">
        <ele>47.7</ele>
        <time>2017-12-17T10:04:48Z</time>
      </trkpt>
      <trkpt lat="47.52707" lon="-0.45206">
        <ele>47.4</ele>
        <time>2017-12-17T10:04:53Z</time>
      </trkpt>
      <trkpt lat="47.52727" lon="-0.45201">
        <ele>47.2</ele>
        <time>2017-12-17T10:04:59Z</time>
      </trkpt>
      <trkpt lat="47.52745" lon="-0.45202">
        <ele>47.3</ele>
        <time>2017-12-17T10:05:06Z</time>
      </trkpt>
      <trkpt lat="47.52767" lon="-0.45199">
        <ele>47.2</ele>
        <time>2017-12-17T10:05:11Z</time>
      </trkpt>
      <trkpt lat="47.52785" lon="-0.45198">
        <ele>47.1</ele>
        <time>2017-12-17T10:05:16Z</time>
      </trkpt>
      <trkpt lat="47.52788" lon="-0.45227">
        <ele>48</ele>
        <time>2017-12-17T10:05:57Z</time>
      </trkpt>
      <trkpt lat="47.52797" lon="-0.45255">
        <ele>48.2</ele>
        <time>2017-12-17T10:06:03Z</time>
      </trkpt>
      <trkpt lat="47.52801" lon="-0.45283">
        <ele>49</ele>
        <time>2017-12-17T10:06:09Z</time>
      </trkpt>
      <trkpt lat="47.52805" lon="-0.45311">
        <ele>49</ele>
        <time>2017-12-17T10:06:15Z</time>
      </trkpt>
      <trkpt lat="47.52812" lon="-0.45337">
        <ele>49.1</ele>
        <time>2017-12-17T10:06:20Z</time>
      </trkpt>
      <trkpt lat="47.5282" lon="-0.45366">
        <ele>49.5</ele>
        <time>2017-12-17T10:06:26Z</time>
      </trkpt>
      <trkpt lat="47.52826" lon="-0.45395">
        <ele>49.4</ele>
        <time>2017-12-17T10:06:32Z</time>
      </trkpt>
      <trkpt lat="47.52841" lon="-0.4541">
        <ele>49.8</ele>
        <time>2017-12-17T10:06:41Z</time>
      </trkpt>
      <trkpt lat="47.52862" lon="-0.45402">
        <ele>49.4</ele>
        <time>2017-12-17T10:06:47Z</time>
      </trkpt>
      <trkpt lat="47.5288" lon="-0.45394">
        <ele>49.1</ele>
        <time>2017-12-17T10:06:52Z</time>
      </trkpt>
      <trkpt lat="47.529" lon="-0.45386">
        <ele>48.9</ele>
        <time>2017-12-17T10:06:57Z</time>
      </trkpt>
      <trkpt lat="47.5292" lon="-0.45378">
        <ele>48.6</ele>
        <time>2017-12-17T10:07:02Z</time>
      </trkpt>
      <trkpt lat="47.52932" lon="-0.45402">
        <ele>49</ele>
        <time>2017-12-17T10:07:08Z</time>
      </trkpt>
      <trkpt lat="47.52937" lon="-0.45431">
        <ele>49</ele>
        <time>2017-12-17T10:07:14Z</time>
      </trkpt>
      <trkpt lat="47.52941" lon="-0.45458">
        <ele>49</ele>
        <time>2017-12-17T10:07:20Z</time>
      </trkpt>
      <trkpt lat="47.52952" lon="-0.4548">
        <ele>49.3</ele>
        <time>2017-12-17T10:07:25Z</time>
      </trkpt>
      <trkpt lat="47.52964" lon="-0.455">
        <ele>50</ele>
        <time>2017-12-17T10:07:30Z</time>
      </trkpt>
      <trkpt lat="47.52979" lon="-0.45524">
        <ele>50</ele>
        <time>2017-12-17T10:07:35Z</time>
      </trkpt>
      <trkpt lat="47.52992" lon="-0.45548">
        <ele>50</ele>
        <time>2017-12-17T10:07:40Z</time>
      </trkpt>
      <trkpt lat="47.53001" lon="-0.45573">
        <ele>50.6</ele>
        <time>2017-12-17T10:07:45Z</time>
      </trkpt>
      <trkpt lat="47.53009" lon="-0.45597">
        <ele>51</ele>
        <time>2017-12-17T10:07:50Z</time>
      </trkpt>
      <trkpt lat="47.5302" lon="-0.45619">
        <ele>51</ele>
        <time>2017-12-17T10:07:54Z</time>
      </trkpt>
      <trkpt lat="47.53031" lon="-0.45641">
        <ele>51</ele>
        <time>2017-12-17T10:07:58Z</time>
      </trkpt>
      <trkpt lat="47.53046" lon="-0.45661">
        <ele>51</ele>
        <time>2017-12-17T10:08:02Z</time>
      </trkpt>
      <trkpt lat="47.53066" lon="-0.45666">
        <ele>51</ele>
        <time>2017-12-17T10:08:06Z</time>
      </trkpt>
      <trkpt lat="47.53085" lon="-0.45673">
        <ele>51</ele>
        <time>2017-12-17T10:08:10Z</time>
      </trkpt>
      <trkpt lat="47.53099" lon="-0.45693">
        <ele>51</ele>
        <time>2017-12-17T10:08:14Z</time>
      </trkpt>
      <trkpt lat="47.53115" lon="-0.45709">
        <ele>51</ele>
        <time>2017-12-17T10:08:21Z</time>
      </trkpt>
      <trkpt lat="47.53126" lon="-0.45687">
        <ele>51</ele>
        <time>2017-12-17T10:08:28Z</time>
      </trkpt>
      <trkpt lat="47.53139" lon="-0.45667">
        <ele>51</ele>
        <time>2017-12-17T10:08:38Z</time>
      </trkpt>
      <trkpt lat="47.53158" lon="-0.45661">
        <ele>51</ele>
        <time>2017-12-17T10:08:57Z</time>
      </trkpt>
      <trkpt lat="47.53179" lon="-0.45662">
        <ele>51</ele>
        <time>2017-12-17T10:09:03Z</time>
      </trkpt>
      <trkpt lat="47.532" lon="-0.45661">
        <ele>51</ele>
        <time>2017-12-17T10:09:08Z</time>
      </trkpt>
      <trkpt lat="47.5322" lon="-0.45659">
        <ele>51</ele>
        <time>2017-12-17T10:09:14Z</time>
      </trkpt>
      <trkpt lat="47.53237" lon="-0.45651">
        <ele>51</ele>
        <time>2017-12-17T10:09:18Z</time>
      </trkpt>
      <trkpt lat="47.53255" lon="-0.45657">
        <ele>51</ele>
        <time>2017-12-17T10:09:22Z</time>
      </trkpt>
      <trkpt lat="47.53274" lon="-0.45667">
        <ele>51</ele>
        <time>2017-12-17T10:09:26Z</time>
      </trkpt>
      <trkpt lat="47.53296" lon="-0.45676">
        <ele>51</ele>
        <time>2017-12-17T10:09:30Z</time>
      </trkpt>
      <trkpt lat="47.53318" lon="-0.45686">
        <ele>51</ele>
        <time>2017-12-17T10:09:34Z</time>
      </trkpt>
      <trkpt lat="47.53341" lon="-0.45694">
        <ele>51</ele>
        <time>2017-12-17T10:09:38Z</time>
      </trkpt>
      <trkpt lat="47.53363" lon="-0.45703">
        <ele>51</ele>
        <time>2017-12-17T10:09:42Z</time>
      </trkpt>
      <trkpt lat="47.53384" lon="-0.45711">
        <ele>51</ele>
        <time>2017-12-17T10:09:46Z</time>
      </trkpt>
      <trkpt lat="47.53406" lon="-0.45714">
        <ele>51</ele>
        <time>2017-12-17T10:09:50Z</time>
      </trkpt>
      <trkpt lat="47.53428" lon="-0.4571">
        <ele>51</ele>
        <time>2017-12-17T10:09:54Z</time>
      </trkpt>
      <trkpt lat="47.53447" lon="-0.457">
        <ele>51</ele>
        <time>2017-12-17T10:09:58Z</time>
      </trkpt>
      <trkpt lat="47.53466" lon="-0.45687">
        <ele>51</ele>
        <time>2017-12-17T10:10:02Z</time>
      </trkpt>
      <trkpt lat="47.53486" lon="-0.45681">
        <ele>51</ele>
        <time>2017-12-17T10:10:06Z</time>
      </trkpt>
      <trkpt lat="47.53507" lon="-0.45678">
        <ele>51</ele>
        <time>2017-12-17T10:10:11Z</time>
      </trkpt>
      <trkpt lat="47.53524" lon="-0.45686">
        <ele>51</ele>
        <time>2017-12-17T10:10:15Z</time>
      </trkpt>
      <trkpt lat="47.53544" lon="-0.45697">
        <ele>51</ele>
        <time>2017-12-17T10:10:19Z</time>
      </trkpt>
      <trkpt lat="47.53565" lon="-0.45708">
        <ele>50.8</ele>
        <time>2017-12-17T10:10:23Z</time>
      </trkpt>
      <trkpt lat="47.53583" lon="-0.45718">
        <ele>50.8</ele>
        <time>2017-12-17T10:10:26Z</time>
      </trkpt>
      <trkpt lat="47.53604" lon="-0.45728">
        <ele>50.8</ele>
        <time>2017-12-17T10:10:29Z</time>
      </trkpt>
      <trkpt lat="47.53628" lon="-0.45731">
        <ele>50.3</ele>
        <time>2017-12-17T10:10:32Z</time>
      </trkpt>
      <trkpt lat="47.53652" lon="-0.45728">
        <ele>50</ele>
        <time>2017-12-17T10:10:35Z</time>
      </trkpt>
      <trkpt lat="47.53675" lon="-0.4572">
        <ele>50</ele>
        <time>2017-12-17T10:10:38Z</time>
      </trkpt>
      <trkpt lat="47.53698" lon="-0.45718">
        <ele>49.9</ele>
        <time>2017-12-17T10:10:41Z</time>
      </trkpt>
      <trkpt lat="47.53718" lon="-0.45719">
        <ele>49.3</ele>
        <time>2017-12-17T10:10:44Z</time>
      </trkpt>
      <trkpt lat="47.53736" lon="-0.45724">
        <ele>48.5</ele>
        <time>2017-12-17T10:10:47Z</time>
      </trkpt>
      <trkpt lat="47.53747" lon="-0.45747">
        <ele>48.1</ele>
        <time>2017-12-17T10:10:50Z</time>
      </trkpt>
      <trkpt lat="47.53751" lon="-0.45779">
        <ele>49</ele>
        <time>2017-12-17T10:10:54Z</time>
      </trkpt>
      <trkpt lat="47.53751" lon="-0.45806">
        <ele>49</ele>
        <time>2017-12-17T10:10:57Z</time>
      </trkpt>
      <trkpt lat="47.5374" lon="-0.45833">
        <ele>49</ele>
        <time>2017-12-17T10:11:01Z</time>
      </trkpt>
      <trkpt lat="47.53745" lon="-0.45865">
        <ele>49</ele>
        <time>2017-12-17T10:11:05Z</time>
      </trkpt>
      <trkpt lat="47.53748" lon="-0.45898">
        <ele>49.4</ele>
        <time>2017-12-17T10:11:09Z</time>
      </trkpt>
      <trkpt lat="47.53752" lon="-0.45931">
        <ele>49.9</ele>
        <time>2017-12-17T10:11:13Z</time>
      </trkpt>
      <trkpt lat="47.53756" lon="-0.45961">
        <ele>49.9</ele>
        <time>2017-12-17T10:11:17Z</time>
      </trkpt>
      <trkpt lat="47.53764" lon="-0.4599">
        <ele>50</ele>
        <time>2017-12-17T10:11:21Z</time>
      </trkpt>
      <trkpt lat="47.53774" lon="-0.46017">
        <ele>50</ele>
        <time>2017-12-17T10:11:25Z</time>
      </trkpt>
      <trkpt lat="47.53785" lon="-0.46044">
        <ele>50</ele>
        <time>2017-12-17T10:11:30Z</time>
      </trkpt>
      <trkpt lat="47.53802" lon="-0.46058">
        <ele>50</ele>
        <time>2017-12-17T10:11:35Z</time>
      </trkpt>
      <trkpt lat="47.53822" lon="-0.46071">
        <ele>49.4</ele>
        <time>2017-12-17T10:11:40Z</time>
      </trkpt>
      <trkpt lat="47.53844" lon="-0.46081">
        <ele>48.6</ele>
        <time>2017-12-17T10:11:44Z</time>
      </trkpt>
      <trkpt lat="47.53867" lon="-0.46087">
        <ele>47.8</ele>
        <time>2017-12-17T10:11:48Z</time>
      </trkpt>
      <trkpt lat="47.53889" lon="-0.46094">
        <ele>47.4</ele>
        <time>2017-12-17T10:11:51Z</time>
      </trkpt>
      <trkpt lat="47.53894" lon="-0.46122">
        <ele>47.8</ele>
        <time>2017-12-17T10:11:57Z</time>
      </trkpt>
      <trkpt lat="47.53883" lon="-0.46144">
        <ele>48</ele>
        <time>2017-12-17T10:12:01Z</time>
      </trkpt>
      <trkpt lat="47.53873" lon="-0.46172">
        <ele>48.6</ele>
        <time>2017-12-17T10:12:05Z</time>
      </trkpt>
      <trkpt lat="47.53864" lon="-0.46199">
        <ele>48.9</ele>
        <time>2017-12-17T10:12:10Z</time>
      </trkpt>
      <trkpt lat="47.53867" lon="-0.46227">
        <ele>48.8</ele>
        <time>2017-12-17T10:12:15Z</time>
      </trkpt>
      <trkpt lat="47.53872" lon="-0.46254">
        <ele>48.7</ele>
        <time>2017-12-17T10:12:19Z</time>
      </trkpt>
      <trkpt lat="47.53877" lon="-0.46284">
        <ele>49</ele>
        <time>2017-12-17T10:12:23Z</time>
      </trkpt>
      <trkpt lat="47.53883" lon="-0.4631">
        <ele>49</ele>
        <time>2017-12-17T10:12:26Z</time>
      </trkpt>
      <trkpt lat="47.53889" lon="-0.46344">
        <ele>49</ele>
        <time>2017-12-17T10:12:30Z</time>
      </trkpt>
      <trkpt lat="47.53894" lon="-0.46369">
        <ele>49</ele>
        <time>2017-12-17T10:12:33Z</time>
      </trkpt>
      <trkpt lat="47.53913" lon="-0.46388">
        <ele>49</ele>
        <time>2017-12-17T10:12:37Z</time>
      </trkpt>
      <trkpt lat="47.53931" lon="-0.46396">
        <ele>49</ele>
        <time>2017-12-17T10:12:43Z</time>
      </trkpt>
      <trkpt lat="47.5395" lon="-0.46402">
        <ele>49</ele>
        <time>2017-12-17T10:12:50Z</time>
      </trkpt>
      <trkpt lat="47.53968" lon="-0.46408">
        <ele>49</ele>
        <time>2017-12-17T10:12:59Z</time>
      </trkpt>
      <trkpt lat="47.53993" lon="-0.46417">
        <ele>48.3</ele>
        <time>2017-12-17T10:13:17Z</time>
      </trkpt>
      <trkpt lat="47.54011" lon="-0.46424">
        <ele>48.5</ele>
        <time>2017-12-17T10:13:34Z</time>
      </trkpt>
      <trkpt lat="47.5403" lon="-0.46429">
        <ele>48.9</ele>
        <time>2017-12-17T10:13:41Z</time>
      </trkpt>
      <trkpt lat="47.54049" lon="-0.46435">
        <ele>48.2</ele>
        <time>2017-12-17T10:13:45Z</time>
      </trkpt>
      <trkpt lat="47.5407" lon="-0.46442">
        <ele>48.5</ele>
        <time>2017-12-17T10:13:49Z</time>
      </trkpt>
      <trkpt lat="47.54093" lon="-0.4645">
        <ele>48.5</ele>
        <time>2017-12-17T10:13:53Z</time>
      </trkpt>
      <trkpt lat="47.54112" lon="-0.46459">
        <ele>48</ele>
        <time>2017-12-17T10:13:56Z</time>
      </trkpt>
      <trkpt lat="47.54131" lon="-0.46471">
        <ele>48</ele>
        <time>2017-12-17T10:13:59Z</time>
      </trkpt>
      <trkpt lat="47.54147" lon="-0.46486">
        <ele>48</ele>
        <time>2017-12-17T10:14:02Z</time>
      </trkpt>
      <trkpt lat="47.54166" lon="-0.46505">
        <ele>48</ele>
        <time>2017-12-17T10:14:06Z</time>
      </trkpt>
      <trkpt lat="47.54188" lon="-0.46517">
        <ele>48</ele>
        <time>2017-12-17T10:14:10Z</time>
      </trkpt>
      <trkpt lat="47.54212" lon="-0.46516">
        <ele>48</ele>
        <time>2017-12-17T10:14:14Z</time>
      </trkpt>
      <trkpt lat="47.5423" lon="-0.46515">
        <ele>48</ele>
        <time>2017-12-17T10:14:17Z</time>
      </trkpt>
      <trkpt lat="47.54248" lon="-0.46521">
        <ele>48</ele>
        <time>2017-12-17T10:14:20Z</time>
      </trkpt>
      <trkpt lat="47.54262" lon="-0.46499">
        <ele>48</ele>
        <time>2017-12-17T10:14:24Z</time>
      </trkpt>
      <trkpt lat="47.54267" lon="-0.46472">
        <ele>48</ele>
        <time>2017-12-17T10:14:27Z</time>
      </trkpt>
      <trkpt lat="47.54272" lon="-0.46442">
        <ele>48</ele>
        <time>2017-12-17T10:14:30Z</time>
      </trkpt>
      <trkpt lat="47.54279" lon="-0.46409">
        <ele>48</ele>
        <time>2017-12-17T10:14:33Z</time>
      </trkpt>
      <trkpt lat="47.54286" lon="-0.46371">
        <ele>47.4</ele>
        <time>2017-12-17T10:14:36Z</time>
      </trkpt>
      <trkpt lat="47.54291" lon="-0.46345">
        <ele>47</ele>
        <time>2017-12-17T10:14:38Z</time>
      </trkpt>
      <trkpt lat="47.54297" lon="-0.46319">
        <ele>47</ele>
        <time>2017-12-17T10:14:40Z</time>
      </trkpt>
      <trkpt lat="47.54302" lon="-0.46293">
        <ele>47</ele>
        <time>2017-12-17T10:14:42Z</time>
      </trkpt>
      <trkpt lat="47.54309" lon="-0.46267">
        <ele>47</ele>
        <time>2017-12-17T10:14:44Z</time>
      </trkpt>
      <trkpt lat="47.54317" lon="-0.46243">
        <ele>47</ele>
        <time>2017-12-17T10:14:46Z</time>
      </trkpt>
      <trkpt lat="47.54324" lon="-0.46207">
        <ele>47</ele>
        <time>2017-12-17T10:14:49Z</time>
      </trkpt>
      <trkpt lat="47.5433" lon="-0.46172">
        <ele>46.9</ele>
        <time>2017-12-17T10:14:52Z</time>
      </trkpt>
      <trkpt lat="47.54336" lon="-0.46139">
        <ele>46</ele>
        <time>2017-12-17T10:14:55Z</time>
      </trkpt>
      <trkpt lat="47.54346" lon="-0.4611">
        <ele>46</ele>
        <time>2017-12-17T10:14:58Z</time>
      </trkpt>
      <trkpt lat="47.54355" lon="-0.46078">
        <ele>45.6</ele>
        <time>2017-12-17T10:15:01Z</time>
      </trkpt>
      <trkpt lat="47.54359" lon="-0.46044">
        <ele>45</ele>
        <time>2017-12-17T10:15:04Z</time>
      </trkpt>
      <trkpt lat="47.54362" lon="-0.46011">
        <ele>44.4</ele>
        <time>2017-12-17T10:15:07Z</time>
      </trkpt>
      <trkpt lat="47.54364" lon="-0.45979">
        <ele>43.3</ele>
        <time>2017-12-17T10:15:10Z</time>
      </trkpt>
      <trkpt lat="47.54366" lon="-0.45946">
        <ele>43</ele>
        <time>2017-12-17T10:15:13Z</time>
      </trkpt>
      <trkpt lat="47.54369" lon="-0.45913">
        <ele>42</ele>
        <time>2017-12-17T10:15:16Z</time>
      </trkpt>
      <trkpt lat="47.54371" lon="-0.45879">
        <ele>41.7</ele>
        <time>2017-12-17T10:15:19Z</time>
      </trkpt>
      <trkpt lat="47.54377" lon="-0.45847">
        <ele>41</ele>
        <time>2017-12-17T10:15:22Z</time>
      </trkpt>
      <trkpt lat="47.54385" lon="-0.4582">
        <ele>40.5</ele>
        <time>2017-12-17T10:15:25Z</time>
      </trkpt>
      <trkpt lat="47.54369" lon="-0.45805">
        <ele>40</ele>
        <time>2017-12-17T10:15:45Z</time>
      </trkpt>
      <trkpt lat="47.54348" lon="-0.45802">
        <ele>40</ele>
        <time>2017-12-17T10:15:51Z</time>
      </trkpt>
      <trkpt lat="47.5433" lon="-0.45804">
        <ele>40</ele>
        <time>2017-12-17T10:16:06Z</time>
      </trkpt>
      <trkpt lat="47.54311" lon="-0.45797">
        <ele>40</ele>
        <time>2017-12-17T10:16:16Z</time>
      </trkpt>
      <trkpt lat="47.54305" lon="-0.45769">
        <ele>40</ele>
        <time>2017-12-17T10:16:22Z</time>
      </trkpt>
      <trkpt lat="47.54298" lon="-0.45738">
        <ele>40</ele>
        <time>2017-12-17T10:16:27Z</time>
      </trkpt>
      <trkpt lat="47.5429" lon="-0.45712">
        <ele>39.8</ele>
        <time>2017-12-17T10:16:31Z</time>
      </trkpt>
      <trkpt lat="47.54311" lon="-0.45697">
        <ele>39.1</ele>
        <time>2017-12-17T10:16:38Z</time>
      </trkpt>
      <trkpt lat="47.5433" lon="-0.45684">
        <ele>39</ele>
        <time>2017-12-17T10:16:42Z</time>
      </trkpt>
      <trkpt lat="47.54347" lon="-0.4567">
        <ele>39</ele>
        <time>2017-12-17T10:16:46Z</time>
      </trkpt>
      <trkpt lat="47.54366" lon="-0.45655">
        <ele>38.6</ele>
        <time>2017-12-17T10:16:51Z</time>
      </trkpt>
      <trkpt lat="47.54385" lon="-0.45637">
        <ele>38</ele>
        <time>2017-12-17T10:16:55Z</time>
      </trkpt>
      <trkpt lat="47.54404" lon="-0.45619">
        <ele>38</ele>
        <time>2017-12-17T10:16:59Z</time>
      </trkpt>
      <trkpt lat="47.54422" lon="-0.45602">
        <ele>37.9</ele>
        <time>2017-12-17T10:17:03Z</time>
      </trkpt>
      <trkpt lat="47.5444" lon="-0.45586">
        <ele>37.2</ele>
        <time>2017-12-17T10:17:08Z</time>
      </trkpt>
      <trkpt lat="47.54457" lon="-0.45571">
        <ele>37.3</ele>
        <time>2017-12-17T10:17:12Z</time>
      </trkpt>
      <trkpt lat="47.54476" lon="-0.45557">
        <ele>37.1</ele>
        <time>2017-12-17T10:17:17Z</time>
      </trkpt>
      <trkpt lat="47.54495" lon="-0.45543">
        <ele>37</ele>
        <time>2017-12-17T10:17:22Z</time>
      </trkpt>
      <trkpt lat="47.54513" lon="-0.45526">
        <ele>37</ele>
        <time>2017-12-17T10:17:27Z</time>
      </trkpt>
      <trkpt lat="47.54532" lon="-0.45508">
        <ele>37</ele>
        <time>2017-12-17T10:17:32Z</time>
      </trkpt>
      <trkpt lat="47.5455" lon="-0.45488">
        <ele>37</ele>
        <time>2017-12-17T10:17:37Z</time>
      </trkpt>
      <trkpt lat="47.54567" lon="-0.45472">
        <ele>37</ele>
        <time>2017-12-17T10:17:41Z</time>
      </trkpt>
      <trkpt lat="47.54587" lon="-0.45459">
        <ele>36.4</ele>
        <time>2017-12-17T10:17:45Z</time>
      </trkpt>
      <trkpt lat="47.54604" lon="-0.45444">
        <ele>36</ele>
        <time>2017-12-17T10:17:50Z</time>
      </trkpt>
      <trkpt lat="47.54624" lon="-0.45431">
        <ele>36</ele>
        <time>2017-12-17T10:17:54Z</time>
      </trkpt>
      <trkpt lat="47.54632" lon="-0.45406">
        <ele>36</ele>
        <time>2017-12-17T10:17:58Z</time>
      </trkpt>
      <trkpt lat="47.54627" lon="-0.45379">
        <ele>36</ele>
        <time>2017-12-17T10:18:02Z</time>
      </trkpt>
      <trkpt lat="47.54622" lon="-0.45346">
        <ele>36.6</ele>
        <time>2017-12-17T10:18:06Z</time>
      </trkpt>
      <trkpt lat="47.54617" lon="-0.4532">
        <ele>37</ele>
        <time>2017-12-17T10:18:09Z</time>
      </trkpt>
      <trkpt lat="47.54613" lon="-0.45287">
        <ele>37</ele>
        <time>2017-12-17T10:18:13Z</time>
      </trkpt>
      <trkpt lat="47.54611" lon="-0.45255">
        <ele>37</ele>
        <time>2017-12-17T10:18:17Z</time>
      </trkpt>
      <trkpt lat="47.54611" lon="-0.45224">
        <ele>37.9</ele>
        <time>2017-12-17T10:18:21Z</time>
      </trkpt>
      <trkpt lat="47.54611" lon="-0.45197">
        <ele>38</ele>
        <time>2017-12-17T10:18:25Z</time>
      </trkpt>
      <trkpt lat="47.54624" lon="-0.45177">
        <ele>38</ele>
        <time>2017-12-17T10:18:30Z</time>
      </trkpt>
      <trkpt lat="47.54646" lon="-0.45174">
        <ele>38</ele>
        <time>2017-12-17T10:18:35Z</time>
      </trkpt>
      <trkpt lat="47.54666" lon="-0.45169">
        <ele>38</ele>
        <time>2017-12-17T10:18:39Z</time>
      </trkpt>
      <trkpt lat="47.54686" lon="-0.4516">
        <ele>38</ele>
        <time>2017-12-17T10:18:43Z</time>
      </trkpt>
      <trkpt lat="47.54705" lon="-0.45148">
        <ele>37.9</ele>
        <time>2017-12-17T10:18:47Z</time>
      </trkpt>
      <trkpt lat="47.54724" lon="-0.45141">
        <ele>37.9</ele>
        <time>2017-12-17T10:18:51Z</time>
      </trkpt>
      <trkpt lat="47.54741" lon="-0.45153">
        <ele>37.2</ele>
        <time>2017-12-17T10:18:55Z</time>
      </trkpt>
      <trkpt lat="47.54756" lon="-0.45176">
        <ele>37</ele>
        <time>2017-12-17T10:18:59Z</time>
      </trkpt>
      <trkpt lat="47.5477" lon="-0.45201">
        <ele>37</ele>
        <time>2017-12-17T10:19:03Z</time>
      </trkpt>
      <trkpt lat="47.54785" lon="-0.45228">
        <ele>37</ele>
        <time>2017-12-17T10:19:07Z</time>
      </trkpt>
      <trkpt lat="47.54797" lon="-0.45249">
        <ele>37</ele>
        <time>2017-12-17T10:19:10Z</time>
      </trkpt>
      <trkpt lat="47.54814" lon="-0.45274">
        <ele>36.7</ele>
        <time>2017-12-17T10:19:14Z</time>
      </trkpt>
      <trkpt lat="47.54837" lon="-0.45277">
        <ele>36</ele>
        <time>2017-12-17T10:19:18Z</time>
      </trkpt>
      <trkpt lat="47.54856" lon="-0.45269">
        <ele>36.1</ele>
        <time>2017-12-17T10:19:21Z</time>
      </trkpt>
      <trkpt lat="47.54873" lon="-0.45261">
        <ele>36</ele>
        <time>2017-12-17T10:19:24Z</time>
      </trkpt>
      <trkpt lat="47.54893" lon="-0.45253">
        <ele>36</ele>
        <time>2017-12-17T10:19:28Z</time>
      </trkpt>
      <trkpt lat="47.54913" lon="-0.45239">
        <ele>36</ele>
        <time>2017-12-17T10:19:32Z</time>
      </trkpt>
      <trkpt lat="47.54931" lon="-0.45224">
        <ele>36</ele>
        <time>2017-12-17T10:19:35Z</time>
      </trkpt>
      <trkpt lat="47.54934" lon="-0.45194">
        <ele>36.6</ele>
        <time>2017-12-17T10:19:39Z</time>
      </trkpt>
      <trkpt lat="47.54926" lon="-0.45167">
        <ele>36.3</ele>
        <time>2017-12-17T10:19:42Z</time>
      </trkpt>
      <trkpt lat="47.54916" lon="-0.45138">
        <ele>36</ele>
        <time>2017-12-17T10:19:45Z</time>
      </trkpt>
      <trkpt lat="47.54903" lon="-0.4511">
        <ele>37</ele>
        <time>2017-12-17T10:19:48Z</time>
      </trkpt>
      <trkpt lat="47.54887" lon="-0.4508">
        <ele>37</ele>
        <time>2017-12-17T10:19:51Z</time>
      </trkpt>
      <trkpt lat="47.54871" lon="-0.4505">
        <ele>36.9</ele>
        <time>2017-12-17T10:19:54Z</time>
      </trkpt>
      <trkpt lat="47.54856" lon="-0.45021">
        <ele>36.4</ele>
        <time>2017-12-17T10:19:57Z</time>
      </trkpt>
      <trkpt lat="47.54847" lon="-0.44986">
        <ele>37</ele>
        <time>2017-12-17T10:20:00Z</time>
      </trkpt>
      <trkpt lat="47.54844" lon="-0.44949">
        <ele>37</ele>
        <time>2017-12-17T10:20:03Z</time>
      </trkpt>
      <trkpt lat="47.54845" lon="-0.4491">
        <ele>37</ele>
        <time>2017-12-17T10:20:06Z</time>
      </trkpt>
      <trkpt lat="47.54847" lon="-0.44871">
        <ele>37</ele>
        <time>2017-12-17T10:20:09Z</time>
      </trkpt>
      <trkpt lat="47.5485" lon="-0.44834">
        <ele>36</ele>
        <time>2017-12-17T10:20:12Z</time>
      </trkpt>
      <trkpt lat="47.54851" lon="-0.44798">
        <ele>36</ele>
        <time>2017-12-17T10:20:15Z</time>
      </trkpt>
      <trkpt lat="47.54844" lon="-0.44763">
        <ele>35.7</ele>
        <time>2017-12-17T10:20:18Z</time>
      </trkpt>
      <trkpt lat="47.54834" lon="-0.4473">
        <ele>35.7</ele>
        <time>2017-12-17T10:20:21Z</time>
      </trkpt>
      <trkpt lat="47.54822" lon="-0.44697">
        <ele>36</ele>
        <time>2017-12-17T10:20:24Z</time>
      </trkpt>
      <trkpt lat="47.54808" lon="-0.44663">
        <ele>35</ele>
        <time>2017-12-17T10:20:27Z</time>
      </trkpt>
      <trkpt lat="47.54795" lon="-0.44646">
        <ele>35</ele>
        <time>2017-12-17T10:20:29Z</time>
      </trkpt>
      <trkpt lat="47.54776" lon="-0.44637">
        <ele>35</ele>
        <time>2017-12-17T10:20:31Z</time>
      </trkpt>
      <trkpt lat="47.54758" lon="-0.44634">
        <ele>35</ele>
        <time>2017-12-17T10:20:33Z</time>
      </trkpt>
      <trkpt lat="47.54733" lon="-0.4462">
        <ele>35</ele>
        <time>2017-12-17T10:20:36Z</time>
      </trkpt>
      <trkpt lat="47.54718" lon="-0.44591">
        <ele>35</ele>
        <time>2017-12-17T10:20:39Z</time>
      </trkpt>
      <trkpt lat="47.54711" lon="-0.44563">
        <ele>34.6</ele>
        <time>2017-12-17T10:20:42Z</time>
      </trkpt>
      <trkpt lat="47.54703" lon="-0.44537">
        <ele>34.7</ele>
        <time>2017-12-17T10:20:45Z</time>
      </trkpt>
      <trkpt lat="47.54716" lon="-0.44514">
        <ele>34.2</ele>
        <time>2017-12-17T10:21:56Z</time>
      </trkpt>
      <trkpt lat="47.5473" lon="-0.44494">
        <ele>34</ele>
        <time>2017-12-17T10:22:03Z</time>
      </trkpt>
      <trkpt lat="47.54724" lon="-0.44469">
        <ele>34.1</ele>
        <time>2017-12-17T10:22:10Z</time>
      </trkpt>
    </trkseg>
  </trk>
</gpx>